<?xml version='1.0' encoding='UTF-8'?><gpx version="1.1" creator="JPX - https://github.com/jenetics/jpx" xmlns="http://www.topografix.com/GPX/1/1"><trk><trkseg><trkpt lat="41.8323524" lon="12.233145"><ele>4.0</ele><time>2026-04-01T07:35:56.148Z</time></trkpt><trkpt lat="41.8323042" lon="12.2330865"><ele>3.9999999999999996</ele><time>2026-04-01T07:41:10.784Z</time></trkpt><trkpt lat="41.8323726" lon="12.2331352"><ele>4.0</ele><time>2026-04-01T07:44:46.79Z</time></trkpt><trkpt lat="41.8323714" lon="12.2330501"><ele>4.0</ele><time>2026-04-01T07:51:51.776Z</time></trkpt><trkpt lat="41.832389" lon="12.2329668"><ele>3.9999999999999996</ele><time>2026-04-01T07:52:02.764Z</time></trkpt><trkpt lat="41.8324081" lon="12.2330657"><ele>4.0</ele><time>2026-04-01T07:54:33.773Z</time></trkpt><trkpt lat="41.8324103" lon="12.2331777"><ele>4.0</ele><time>2026-04-01T07:54:36.772Z</time></trkpt><trkpt lat="41.8323764" lon="12.2332586"><ele>4.0</ele><time>2026-04-01T07:54:45.777Z</time></trkpt><trkpt lat="41.8323038" lon="12.2333841"><ele>4.0</ele><time>2026-04-01T07:54:47.782Z</time></trkpt><trkpt lat="41.8322351" lon="12.2334495"><ele>4.0</ele><time>2026-04-01T07:54:48.78Z</time></trkpt><trkpt lat="41.8321615" lon="12.2335243"><ele>4.0</ele><time>2026-04-01T07:54:49.79Z</time></trkpt><trkpt lat="41.8320759" lon="12.2336019"><ele>4.0</ele><time>2026-04-01T07:54:50.779Z</time></trkpt><trkpt lat="41.831983" lon="12.2336914"><ele>4.0</ele><time>2026-04-01T07:54:51.776Z</time></trkpt><trkpt lat="41.8318907" lon="12.2337799"><ele>4.0</ele><time>2026-04-01T07:54:52.775Z</time></trkpt><trkpt lat="41.8317909" lon="12.2338789"><ele>4.0</ele><time>2026-04-01T07:54:53.777Z</time></trkpt><trkpt lat="41.8316916" lon="12.2339802"><ele>4.0</ele><time>2026-04-01T07:54:54.778Z</time></trkpt><trkpt lat="41.8315914" lon="12.2340851"><ele>4.75</ele><time>2026-04-01T07:54:55.776Z</time></trkpt><trkpt lat="41.8314894" lon="12.234196"><ele>5.5</ele><time>2026-04-01T07:54:56.773Z</time></trkpt><trkpt lat="41.8313896" lon="12.2343076"><ele>6.25</ele><time>2026-04-01T07:54:57.765Z</time></trkpt><trkpt lat="41.8312892" lon="12.2344136"><ele>7.0</ele><time>2026-04-01T07:54:58.769Z</time></trkpt><trkpt lat="41.8311899" lon="12.2345035"><ele>7.0</ele><time>2026-04-01T07:54:59.758Z</time></trkpt><trkpt lat="41.8310856" lon="12.2346042"><ele>6.999999999999999</ele><time>2026-04-01T07:55:00.762Z</time></trkpt><trkpt lat="41.8310021" lon="12.2346976"><ele>6.999999999999999</ele><time>2026-04-01T07:55:01.758Z</time></trkpt><trkpt lat="41.8309125" lon="12.2347825"><ele>7.0</ele><time>2026-04-01T07:55:02.753Z</time></trkpt><trkpt lat="41.8308369" lon="12.2348499"><ele>7.0</ele><time>2026-04-01T07:55:03.757Z</time></trkpt><trkpt lat="41.8307678" lon="12.2349071"><ele>7.199999999999999</ele><time>2026-04-01T07:55:04.751Z</time></trkpt><trkpt lat="41.830703" lon="12.2349431"><ele>7.3999999999999995</ele><time>2026-04-01T07:55:05.754Z</time></trkpt><trkpt lat="41.8306392" lon="12.2349768"><ele>7.6000000000000005</ele><time>2026-04-01T07:55:07.761Z</time></trkpt><trkpt lat="41.8306797" lon="12.2350832"><ele>7.800000000000001</ele><time>2026-04-01T07:55:09.749Z</time></trkpt><trkpt lat="41.8308324" lon="12.2351051"><ele>8.0</ele><time>2026-04-01T07:55:13.75Z</time></trkpt><trkpt lat="41.8309912" lon="12.2351382"><ele>7.5</ele><time>2026-04-01T07:55:14.751Z</time></trkpt><trkpt lat="41.8311406" lon="12.2351766"><ele>7.0</ele><time>2026-04-01T07:55:15.738Z</time></trkpt><trkpt lat="41.8312405" lon="12.2353024"><ele>6.5</ele><time>2026-04-01T07:55:16.747Z</time></trkpt><trkpt lat="41.8313325" lon="12.2354668"><ele>6.0</ele><time>2026-04-01T07:55:17.743Z</time></trkpt><trkpt lat="41.8314498" lon="12.2356565"><ele>6.0</ele><time>2026-04-01T07:55:18.76Z</time></trkpt><trkpt lat="41.8315411" lon="12.2358271"><ele>6.0</ele><time>2026-04-01T07:55:19.76Z</time></trkpt><trkpt lat="41.831629" lon="12.2359794"><ele>6.0</ele><time>2026-04-01T07:55:20.794Z</time></trkpt><trkpt lat="41.8317054" lon="12.2361542"><ele>6.0</ele><time>2026-04-01T07:55:21.767Z</time></trkpt><trkpt lat="41.8317803" lon="12.2363225"><ele>6.0</ele><time>2026-04-01T07:55:22.777Z</time></trkpt><trkpt lat="41.8318566" lon="12.2364826"><ele>6.0</ele><time>2026-04-01T07:55:23.776Z</time></trkpt><trkpt lat="41.8319439" lon="12.2366464"><ele>6.0</ele><time>2026-04-01T07:55:24.773Z</time></trkpt><trkpt lat="41.8320323" lon="12.2368175"><ele>5.0</ele><time>2026-04-01T07:55:25.78Z</time></trkpt><trkpt lat="41.83213" lon="12.236986"><ele>4.0</ele><time>2026-04-01T07:55:26.775Z</time></trkpt><trkpt lat="41.8322168" lon="12.2371589"><ele>3.0</ele><time>2026-04-01T07:55:27.778Z</time></trkpt><trkpt lat="41.8323109" lon="12.2373168"><ele>3.0</ele><time>2026-04-01T07:55:28.778Z</time></trkpt><trkpt lat="41.8324051" lon="12.2374762"><ele>3.0</ele><time>2026-04-01T07:55:29.769Z</time></trkpt><trkpt lat="41.8325005" lon="12.2376398"><ele>3.0</ele><time>2026-04-01T07:55:30.778Z</time></trkpt><trkpt lat="41.8325938" lon="12.2378199"><ele>3.333333333333333</ele><time>2026-04-01T07:55:31.77Z</time></trkpt><trkpt lat="41.8326827" lon="12.2379982"><ele>3.6666666666666665</ele><time>2026-04-01T07:55:32.769Z</time></trkpt><trkpt lat="41.8327807" lon="12.2381657"><ele>4.0</ele><time>2026-04-01T07:55:33.771Z</time></trkpt><trkpt lat="41.8328779" lon="12.2383366"><ele>3.0</ele><time>2026-04-01T07:55:34.774Z</time></trkpt><trkpt lat="41.8329763" lon="12.2385005"><ele>2.0</ele><time>2026-04-01T07:55:35.773Z</time></trkpt><trkpt lat="41.8330785" lon="12.2386761"><ele>1.0</ele><time>2026-04-01T07:55:36.775Z</time></trkpt><trkpt lat="41.8331805" lon="12.2388482"><ele>1.0</ele><time>2026-04-01T07:55:37.776Z</time></trkpt><trkpt lat="41.8332741" lon="12.239005"><ele>1.0</ele><time>2026-04-01T07:55:38.777Z</time></trkpt><trkpt lat="41.8333659" lon="12.239169"><ele>1.0</ele><time>2026-04-01T07:55:39.776Z</time></trkpt><trkpt lat="41.8334518" lon="12.2393329"><ele>1.3333333333333333</ele><time>2026-04-01T07:55:40.771Z</time></trkpt><trkpt lat="41.8335421" lon="12.2395036"><ele>1.6666666666666665</ele><time>2026-04-01T07:55:41.774Z</time></trkpt><trkpt lat="41.8336338" lon="12.2396663"><ele>2.0</ele><time>2026-04-01T07:55:42.774Z</time></trkpt><trkpt lat="41.833721" lon="12.2398202"><ele>2.75</ele><time>2026-04-01T07:55:43.773Z</time></trkpt><trkpt lat="41.833807" lon="12.2399599"><ele>3.5</ele><time>2026-04-01T07:55:44.765Z</time></trkpt><trkpt lat="41.833885" lon="12.2401097"><ele>4.25</ele><time>2026-04-01T07:55:45.766Z</time></trkpt><trkpt lat="41.8339781" lon="12.2402668"><ele>5.0</ele><time>2026-04-01T07:55:46.769Z</time></trkpt><trkpt lat="41.834073" lon="12.2404374"><ele>5.0</ele><time>2026-04-01T07:55:47.769Z</time></trkpt><trkpt lat="41.8341648" lon="12.2405974"><ele>5.0</ele><time>2026-04-01T07:55:48.766Z</time></trkpt><trkpt lat="41.8342578" lon="12.2407608"><ele>5.0</ele><time>2026-04-01T07:55:49.77Z</time></trkpt><trkpt lat="41.8343382" lon="12.2409165"><ele>5.0</ele><time>2026-04-01T07:55:50.762Z</time></trkpt><trkpt lat="41.8344147" lon="12.2410792"><ele>3.75</ele><time>2026-04-01T07:55:51.766Z</time></trkpt><trkpt lat="41.834503" lon="12.2412363"><ele>2.5</ele><time>2026-04-01T07:55:52.769Z</time></trkpt><trkpt lat="41.8345884" lon="12.2413951"><ele>1.25</ele><time>2026-04-01T07:55:53.765Z</time></trkpt><trkpt lat="41.8346749" lon="12.2415647"><ele>0.0</ele><time>2026-04-01T07:55:54.769Z</time></trkpt><trkpt lat="41.8347677" lon="12.2417237"><ele>-0.3333333333333333</ele><time>2026-04-01T07:55:55.763Z</time></trkpt><trkpt lat="41.8348663" lon="12.2418845"><ele>-0.6666666666666666</ele><time>2026-04-01T07:55:56.761Z</time></trkpt><trkpt lat="41.8349616" lon="12.242046"><ele>-1.0</ele><time>2026-04-01T07:55:57.759Z</time></trkpt><trkpt lat="41.8350576" lon="12.2422099"><ele>-1.0</ele><time>2026-04-01T07:55:58.768Z</time></trkpt><trkpt lat="41.835148" lon="12.242382"><ele>-1.0</ele><time>2026-04-01T07:55:59.768Z</time></trkpt><trkpt lat="41.8352436" lon="12.2425511"><ele>-1.0</ele><time>2026-04-01T07:56:00.762Z</time></trkpt><trkpt lat="41.8353416" lon="12.2427241"><ele>-1.0</ele><time>2026-04-01T07:56:01.761Z</time></trkpt><trkpt lat="41.8354422" lon="12.2428842"><ele>-1.0</ele><time>2026-04-01T07:56:02.774Z</time></trkpt><trkpt lat="41.8355352" lon="12.2430484"><ele>-1.0</ele><time>2026-04-01T07:56:03.775Z</time></trkpt><trkpt lat="41.8356197" lon="12.2432181"><ele>-0.3333333333333333</ele><time>2026-04-01T07:56:04.776Z</time></trkpt><trkpt lat="41.8357154" lon="12.243382"><ele>0.3333333333333333</ele><time>2026-04-01T07:56:05.777Z</time></trkpt><trkpt lat="41.8358094" lon="12.2435469"><ele>1.0</ele><time>2026-04-01T07:56:06.778Z</time></trkpt><trkpt lat="41.8358962" lon="12.2437225"><ele>0.75</ele><time>2026-04-01T07:56:07.776Z</time></trkpt><trkpt lat="41.8359853" lon="12.2438878"><ele>0.5</ele><time>2026-04-01T07:56:08.776Z</time></trkpt><trkpt lat="41.8360732" lon="12.2440509"><ele>0.25</ele><time>2026-04-01T07:56:09.772Z</time></trkpt><trkpt lat="41.836161" lon="12.2442055"><ele>0.0</ele><time>2026-04-01T07:56:10.777Z</time></trkpt><trkpt lat="41.8362428" lon="12.2443504"><ele>0.0</ele><time>2026-04-01T07:56:11.78Z</time></trkpt><trkpt lat="41.8363247" lon="12.2444953"><ele>0.0</ele><time>2026-04-01T07:56:12.779Z</time></trkpt><trkpt lat="41.8364034" lon="12.2446218"><ele>0.0</ele><time>2026-04-01T07:56:13.785Z</time></trkpt><trkpt lat="41.8364596" lon="12.2447248"><ele>0.0</ele><time>2026-04-01T07:56:14.789Z</time></trkpt><trkpt lat="41.8364914" lon="12.2448097"><ele>0.0</ele><time>2026-04-01T07:56:15.785Z</time></trkpt><trkpt lat="41.8365636" lon="12.2449109"><ele>-0.2</ele><time>2026-04-01T07:56:17.785Z</time></trkpt><trkpt lat="41.8366495" lon="12.2448924"><ele>-0.4</ele><time>2026-04-01T07:56:19.783Z</time></trkpt><trkpt lat="41.8367418" lon="12.2447977"><ele>-0.6000000000000001</ele><time>2026-04-01T07:56:21.781Z</time></trkpt><trkpt lat="41.8368242" lon="12.2447053"><ele>-0.8</ele><time>2026-04-01T07:56:23.774Z</time></trkpt><trkpt lat="41.836873" lon="12.244637"><ele>-1.0</ele><time>2026-04-01T07:56:25.768Z</time></trkpt><trkpt lat="41.8369499" lon="12.244562"><ele>-1.0</ele><time>2026-04-01T07:57:36.762Z</time></trkpt><trkpt lat="41.8370203" lon="12.2444983"><ele>-1.0</ele><time>2026-04-01T07:57:37.772Z</time></trkpt><trkpt lat="41.8371144" lon="12.2444296"><ele>-1.0</ele><time>2026-04-01T07:57:38.773Z</time></trkpt><trkpt lat="41.8372138" lon="12.2443247"><ele>-1.0</ele><time>2026-04-01T07:57:39.775Z</time></trkpt><trkpt lat="41.8373242" lon="12.2442147"><ele>-1.0</ele><time>2026-04-01T07:57:40.777Z</time></trkpt><trkpt lat="41.8374468" lon="12.2440916"><ele>-1.0</ele><time>2026-04-01T07:57:41.769Z</time></trkpt><trkpt lat="41.8375766" lon="12.2439596"><ele>-1.0</ele><time>2026-04-01T07:57:42.779Z</time></trkpt><trkpt lat="41.8376902" lon="12.2438325"><ele>-1.3333333333333333</ele><time>2026-04-01T07:57:43.78Z</time></trkpt><trkpt lat="41.8378158" lon="12.2436959"><ele>-1.6666666666666665</ele><time>2026-04-01T07:57:44.78Z</time></trkpt><trkpt lat="41.8379581" lon="12.2435583"><ele>-2.0</ele><time>2026-04-01T07:57:45.785Z</time></trkpt><trkpt lat="41.8380846" lon="12.2434136"><ele>-2.0</ele><time>2026-04-01T07:57:46.772Z</time></trkpt><trkpt lat="41.8382179" lon="12.2432771"><ele>-2.0</ele><time>2026-04-01T07:57:47.772Z</time></trkpt><trkpt lat="41.8383484" lon="12.2431526"><ele>-2.0</ele><time>2026-04-01T07:57:48.782Z</time></trkpt><trkpt lat="41.838488" lon="12.2430194"><ele>-2.0</ele><time>2026-04-01T07:57:49.772Z</time></trkpt><trkpt lat="41.838626" lon="12.2428695"><ele>-2.0</ele><time>2026-04-01T07:57:50.777Z</time></trkpt><trkpt lat="41.8387663" lon="12.2427341"><ele>-2.0</ele><time>2026-04-01T07:57:51.774Z</time></trkpt><trkpt lat="41.8389003" lon="12.2425883"><ele>-2.0</ele><time>2026-04-01T07:57:52.788Z</time></trkpt><trkpt lat="41.8390344" lon="12.2424364"><ele>-2.0</ele><time>2026-04-01T07:57:53.787Z</time></trkpt><trkpt lat="41.8391793" lon="12.2422956"><ele>-2.0</ele><time>2026-04-01T07:57:54.782Z</time></trkpt><trkpt lat="41.8393392" lon="12.2421542"><ele>-1.3333333333333333</ele><time>2026-04-01T07:57:55.795Z</time></trkpt><trkpt lat="41.8394807" lon="12.2420097"><ele>-0.6666666666666666</ele><time>2026-04-01T07:57:56.777Z</time></trkpt><trkpt lat="41.8396311" lon="12.2418741"><ele>0.0</ele><time>2026-04-01T07:57:57.775Z</time></trkpt><trkpt lat="41.839779" lon="12.2417403"><ele>0.0</ele><time>2026-04-01T07:57:58.783Z</time></trkpt><trkpt lat="41.8399169" lon="12.2416057"><ele>0.0</ele><time>2026-04-01T07:57:59.794Z</time></trkpt><trkpt lat="41.8400349" lon="12.2414736"><ele>0.0</ele><time>2026-04-01T07:58:00.795Z</time></trkpt><trkpt lat="41.8401615" lon="12.2413413"><ele>-0.3333333333333333</ele><time>2026-04-01T07:58:01.791Z</time></trkpt><trkpt lat="41.840294" lon="12.2411971"><ele>-0.6666666666666666</ele><time>2026-04-01T07:58:02.788Z</time></trkpt><trkpt lat="41.8404434" lon="12.2410385"><ele>-1.0</ele><time>2026-04-01T07:58:03.783Z</time></trkpt><trkpt lat="41.8406002" lon="12.2408807"><ele>-1.0</ele><time>2026-04-01T07:58:04.796Z</time></trkpt><trkpt lat="41.8407559" lon="12.2407212"><ele>-1.0</ele><time>2026-04-01T07:58:05.783Z</time></trkpt><trkpt lat="41.8409177" lon="12.2405568"><ele>-1.0</ele><time>2026-04-01T07:58:06.797Z</time></trkpt><trkpt lat="41.841081" lon="12.2403905"><ele>-1.0</ele><time>2026-04-01T07:58:07.791Z</time></trkpt><trkpt lat="41.8412455" lon="12.2402273"><ele>-1.0</ele><time>2026-04-01T07:58:08.797Z</time></trkpt><trkpt lat="41.8414163" lon="12.2400642"><ele>-1.0</ele><time>2026-04-01T07:58:09.787Z</time></trkpt><trkpt lat="41.8415814" lon="12.2398927"><ele>-1.3333333333333333</ele><time>2026-04-01T07:58:10.792Z</time></trkpt><trkpt lat="41.8417446" lon="12.2397371"><ele>-1.6666666666666665</ele><time>2026-04-01T07:58:11.784Z</time></trkpt><trkpt lat="41.8419071" lon="12.2395633"><ele>-2.0</ele><time>2026-04-01T07:58:12.77Z</time></trkpt><trkpt lat="41.8420675" lon="12.2394021"><ele>-2.0</ele><time>2026-04-01T07:58:13.786Z</time></trkpt><trkpt lat="41.842219" lon="12.2392493"><ele>-2.0</ele><time>2026-04-01T07:58:14.78Z</time></trkpt><trkpt lat="41.8423862" lon="12.2390924"><ele>-2.0</ele><time>2026-04-01T07:58:15.779Z</time></trkpt><trkpt lat="41.8425547" lon="12.238939"><ele>-2.333333333333333</ele><time>2026-04-01T07:58:16.786Z</time></trkpt><trkpt lat="41.8427157" lon="12.238777"><ele>-2.6666666666666665</ele><time>2026-04-01T07:58:17.79Z</time></trkpt><trkpt lat="41.8428668" lon="12.2386207"><ele>-3.0</ele><time>2026-04-01T07:58:18.791Z</time></trkpt><trkpt lat="41.8430185" lon="12.238473"><ele>-3.0</ele><time>2026-04-01T07:58:19.795Z</time></trkpt><trkpt lat="41.8431737" lon="12.2383159"><ele>-3.0</ele><time>2026-04-01T07:58:20.78Z</time></trkpt><trkpt lat="41.8433285" lon="12.2381593"><ele>-3.0</ele><time>2026-04-01T07:58:21.789Z</time></trkpt><trkpt lat="41.8435008" lon="12.2379891"><ele>-2.6666666666666665</ele><time>2026-04-01T07:58:22.79Z</time></trkpt><trkpt lat="41.8436684" lon="12.2378226"><ele>-2.333333333333333</ele><time>2026-04-01T07:58:23.783Z</time></trkpt><trkpt lat="41.8438352" lon="12.2376598"><ele>-2.0</ele><time>2026-04-01T07:58:24.771Z</time></trkpt><trkpt lat="41.8439853" lon="12.2375029"><ele>-2.0</ele><time>2026-04-01T07:58:25.774Z</time></trkpt><trkpt lat="41.844127" lon="12.2373543"><ele>-2.0</ele><time>2026-04-01T07:58:26.804Z</time></trkpt><trkpt lat="41.8442743" lon="12.2372069"><ele>-2.0</ele><time>2026-04-01T07:58:27.791Z</time></trkpt><trkpt lat="41.844434" lon="12.2370529"><ele>-1.3333333333333333</ele><time>2026-04-01T07:58:28.795Z</time></trkpt><trkpt lat="41.8445895" lon="12.2369022"><ele>-0.6666666666666666</ele><time>2026-04-01T07:58:29.781Z</time></trkpt><trkpt lat="41.8447543" lon="12.2367454"><ele>0.0</ele><time>2026-04-01T07:58:30.777Z</time></trkpt><trkpt lat="41.844916" lon="12.236574"><ele>-0.6666666666666666</ele><time>2026-04-01T07:58:31.783Z</time></trkpt><trkpt lat="41.8450807" lon="12.2364132"><ele>-1.3333333333333333</ele><time>2026-04-01T07:58:32.777Z</time></trkpt><trkpt lat="41.8452415" lon="12.2362391"><ele>-2.0</ele><time>2026-04-01T07:58:33.777Z</time></trkpt><trkpt lat="41.8453909" lon="12.2360797"><ele>-2.0</ele><time>2026-04-01T07:58:34.79Z</time></trkpt><trkpt lat="41.845546" lon="12.2359178"><ele>-2.0</ele><time>2026-04-01T07:58:35.786Z</time></trkpt><trkpt lat="41.8457077" lon="12.235762"><ele>-2.0</ele><time>2026-04-01T07:58:36.791Z</time></trkpt><trkpt lat="41.8458558" lon="12.2356085"><ele>-1.6666666666666665</ele><time>2026-04-01T07:58:37.784Z</time></trkpt><trkpt lat="41.8460045" lon="12.2354536"><ele>-1.3333333333333333</ele><time>2026-04-01T07:58:38.772Z</time></trkpt><trkpt lat="41.8461549" lon="12.235315"><ele>-1.0</ele><time>2026-04-01T07:58:39.776Z</time></trkpt><trkpt lat="41.8463065" lon="12.2351644"><ele>-1.0</ele><time>2026-04-01T07:58:40.779Z</time></trkpt><trkpt lat="41.8464542" lon="12.2350186"><ele>-1.0</ele><time>2026-04-01T07:58:41.774Z</time></trkpt><trkpt lat="41.8465936" lon="12.234874"><ele>-1.0</ele><time>2026-04-01T07:58:42.778Z</time></trkpt><trkpt lat="41.8467311" lon="12.2347301"><ele>-1.0</ele><time>2026-04-01T07:58:43.773Z</time></trkpt><trkpt lat="41.8468728" lon="12.2345967"><ele>-1.0</ele><time>2026-04-01T07:58:44.786Z</time></trkpt><trkpt lat="41.8470116" lon="12.2344531"><ele>-1.0</ele><time>2026-04-01T07:58:45.784Z</time></trkpt><trkpt lat="41.847157" lon="12.234313"><ele>-1.0</ele><time>2026-04-01T07:58:46.79Z</time></trkpt><trkpt lat="41.8472976" lon="12.2341788"><ele>-1.0</ele><time>2026-04-01T07:58:47.785Z</time></trkpt><trkpt lat="41.8474328" lon="12.2340392"><ele>-1.0</ele><time>2026-04-01T07:58:48.789Z</time></trkpt><trkpt lat="41.8475696" lon="12.2338949"><ele>-1.6666666666666665</ele><time>2026-04-01T07:58:49.792Z</time></trkpt><trkpt lat="41.84771" lon="12.2337542"><ele>-2.3333333333333335</ele><time>2026-04-01T07:58:50.782Z</time></trkpt><trkpt lat="41.8478634" lon="12.2336133"><ele>-3.0</ele><time>2026-04-01T07:58:51.784Z</time></trkpt><trkpt lat="41.8480148" lon="12.2334554"><ele>-3.0</ele><time>2026-04-01T07:58:52.78Z</time></trkpt><trkpt lat="41.848159" lon="12.2333129"><ele>-3.0</ele><time>2026-04-01T07:58:53.789Z</time></trkpt><trkpt lat="41.8483069" lon="12.2331697"><ele>-3.0</ele><time>2026-04-01T07:58:54.786Z</time></trkpt><trkpt lat="41.8484597" lon="12.2330112"><ele>-3.0</ele><time>2026-04-01T07:58:55.789Z</time></trkpt><trkpt lat="41.848613" lon="12.2328503"><ele>-3.0</ele><time>2026-04-01T07:58:56.786Z</time></trkpt><trkpt lat="41.8487735" lon="12.232692"><ele>-3.0</ele><time>2026-04-01T07:58:57.825Z</time></trkpt><trkpt lat="41.848926" lon="12.2325485"><ele>-3.0</ele><time>2026-04-01T07:58:58.787Z</time></trkpt><trkpt lat="41.8490844" lon="12.2323836"><ele>-3.0</ele><time>2026-04-01T07:58:59.797Z</time></trkpt><trkpt lat="41.8492403" lon="12.2322205"><ele>-3.0</ele><time>2026-04-01T07:59:00.788Z</time></trkpt><trkpt lat="41.8493978" lon="12.2320594"><ele>-2.3333333333333335</ele><time>2026-04-01T07:59:01.793Z</time></trkpt><trkpt lat="41.8495623" lon="12.2319029"><ele>-1.6666666666666665</ele><time>2026-04-01T07:59:02.783Z</time></trkpt><trkpt lat="41.8497314" lon="12.231733"><ele>-1.0</ele><time>2026-04-01T07:59:03.795Z</time></trkpt><trkpt lat="41.8498803" lon="12.2315668"><ele>-0.6666666666666666</ele><time>2026-04-01T07:59:04.788Z</time></trkpt><trkpt lat="41.8500286" lon="12.2314068"><ele>-0.3333333333333333</ele><time>2026-04-01T07:59:05.795Z</time></trkpt><trkpt lat="41.8501903" lon="12.2312441"><ele>0.0</ele><time>2026-04-01T07:59:06.789Z</time></trkpt><trkpt lat="41.8503529" lon="12.2310888"><ele>0.0</ele><time>2026-04-01T07:59:07.799Z</time></trkpt><trkpt lat="41.8505158" lon="12.2309295"><ele>0.0</ele><time>2026-04-01T07:59:08.788Z</time></trkpt><trkpt lat="41.8506772" lon="12.2307738"><ele>0.0</ele><time>2026-04-01T07:59:09.796Z</time></trkpt><trkpt lat="41.8508338" lon="12.2306314"><ele>0.0</ele><time>2026-04-01T07:59:10.789Z</time></trkpt><trkpt lat="41.850985" lon="12.2304917"><ele>0.0</ele><time>2026-04-01T07:59:11.793Z</time></trkpt><trkpt lat="41.8511267" lon="12.2303397"><ele>0.0</ele><time>2026-04-01T07:59:12.786Z</time></trkpt><trkpt lat="41.8512725" lon="12.2301892"><ele>0.0</ele><time>2026-04-01T07:59:13.797Z</time></trkpt><trkpt lat="41.8514108" lon="12.2300524"><ele>0.0</ele><time>2026-04-01T07:59:14.793Z</time></trkpt><trkpt lat="41.8515417" lon="12.229913"><ele>0.0</ele><time>2026-04-01T07:59:15.795Z</time></trkpt><trkpt lat="41.8516759" lon="12.2297731"><ele>-0.3333333333333333</ele><time>2026-04-01T07:59:16.789Z</time></trkpt><trkpt lat="41.8518108" lon="12.2296392"><ele>-0.6666666666666666</ele><time>2026-04-01T07:59:17.794Z</time></trkpt><trkpt lat="41.8519468" lon="12.2295109"><ele>-1.0</ele><time>2026-04-01T07:59:18.786Z</time></trkpt><trkpt lat="41.8520881" lon="12.2293783"><ele>-1.0</ele><time>2026-04-01T07:59:19.785Z</time></trkpt><trkpt lat="41.8522254" lon="12.2292423"><ele>-1.0</ele><time>2026-04-01T07:59:20.781Z</time></trkpt><trkpt lat="41.8523523" lon="12.229112"><ele>-1.0</ele><time>2026-04-01T07:59:21.785Z</time></trkpt><trkpt lat="41.8524732" lon="12.2289931"><ele>-1.0</ele><time>2026-04-01T07:59:22.769Z</time></trkpt><trkpt lat="41.852587" lon="12.2288758"><ele>-1.0</ele><time>2026-04-01T07:59:23.775Z</time></trkpt><trkpt lat="41.8527088" lon="12.2287555"><ele>-1.0</ele><time>2026-04-01T07:59:24.769Z</time></trkpt><trkpt lat="41.8528262" lon="12.2286505"><ele>-1.0</ele><time>2026-04-01T07:59:25.781Z</time></trkpt><trkpt lat="41.8529351" lon="12.2285342"><ele>-1.0</ele><time>2026-04-01T07:59:26.787Z</time></trkpt><trkpt lat="41.8530468" lon="12.2284206"><ele>-1.0</ele><time>2026-04-01T07:59:27.808Z</time></trkpt><trkpt lat="41.8531578" lon="12.228302"><ele>-1.0</ele><time>2026-04-01T07:59:28.791Z</time></trkpt><trkpt lat="41.8532668" lon="12.228185"><ele>-1.0</ele><time>2026-04-01T07:59:29.791Z</time></trkpt><trkpt lat="41.8533691" lon="12.228067"><ele>-1.25</ele><time>2026-04-01T07:59:30.794Z</time></trkpt><trkpt lat="41.8534704" lon="12.2279602"><ele>-1.5</ele><time>2026-04-01T07:59:31.787Z</time></trkpt><trkpt lat="41.8535601" lon="12.2278614"><ele>-1.75</ele><time>2026-04-01T07:59:32.793Z</time></trkpt><trkpt lat="41.8536454" lon="12.2277741"><ele>-2.0</ele><time>2026-04-01T07:59:33.791Z</time></trkpt><trkpt lat="41.8537343" lon="12.2276719"><ele>-2.0</ele><time>2026-04-01T07:59:34.798Z</time></trkpt><trkpt lat="41.8538207" lon="12.2275752"><ele>-2.0</ele><time>2026-04-01T07:59:35.791Z</time></trkpt><trkpt lat="41.8539165" lon="12.2274843"><ele>-2.0</ele><time>2026-04-01T07:59:36.798Z</time></trkpt><trkpt lat="41.8540086" lon="12.2273954"><ele>-2.0</ele><time>2026-04-01T07:59:37.793Z</time></trkpt><trkpt lat="41.8541069" lon="12.2273036"><ele>-2.0</ele><time>2026-04-01T07:59:38.796Z</time></trkpt><trkpt lat="41.8542118" lon="12.2271992"><ele>-2.0</ele><time>2026-04-01T07:59:39.787Z</time></trkpt><trkpt lat="41.8543259" lon="12.2270925"><ele>-2.0</ele><time>2026-04-01T07:59:40.795Z</time></trkpt><trkpt lat="41.8544441" lon="12.2269714"><ele>-2.0</ele><time>2026-04-01T07:59:41.786Z</time></trkpt><trkpt lat="41.8545813" lon="12.2268356"><ele>-2.0</ele><time>2026-04-01T07:59:42.796Z</time></trkpt><trkpt lat="41.8547219" lon="12.2266996"><ele>-2.0</ele><time>2026-04-01T07:59:43.789Z</time></trkpt><trkpt lat="41.8548694" lon="12.2265598"><ele>-2.0</ele><time>2026-04-01T07:59:44.798Z</time></trkpt><trkpt lat="41.8550084" lon="12.2264263"><ele>-1.6666666666666665</ele><time>2026-04-01T07:59:45.789Z</time></trkpt><trkpt lat="41.855152" lon="12.2262886"><ele>-1.3333333333333333</ele><time>2026-04-01T07:59:46.794Z</time></trkpt><trkpt lat="41.8553001" lon="12.2261544"><ele>-1.0</ele><time>2026-04-01T07:59:47.788Z</time></trkpt><trkpt lat="41.8554351" lon="12.2259998"><ele>-1.0</ele><time>2026-04-01T07:59:48.788Z</time></trkpt><trkpt lat="41.8555849" lon="12.2258572"><ele>-1.0</ele><time>2026-04-01T07:59:49.782Z</time></trkpt><trkpt lat="41.8557227" lon="12.2257189"><ele>-1.0</ele><time>2026-04-01T07:59:50.791Z</time></trkpt><trkpt lat="41.85586" lon="12.2255866"><ele>-1.3333333333333333</ele><time>2026-04-01T07:59:51.772Z</time></trkpt><trkpt lat="41.8559995" lon="12.2254434"><ele>-1.6666666666666665</ele><time>2026-04-01T07:59:52.799Z</time></trkpt><trkpt lat="41.8561546" lon="12.2253036"><ele>-2.0</ele><time>2026-04-01T07:59:53.793Z</time></trkpt><trkpt lat="41.8562927" lon="12.2251579"><ele>-2.0</ele><time>2026-04-01T07:59:54.795Z</time></trkpt><trkpt lat="41.856425" lon="12.2250087"><ele>-2.0</ele><time>2026-04-01T07:59:55.791Z</time></trkpt><trkpt lat="41.8565539" lon="12.224869"><ele>-2.0</ele><time>2026-04-01T07:59:56.796Z</time></trkpt><trkpt lat="41.8566816" lon="12.2247414"><ele>-1.5</ele><time>2026-04-01T07:59:57.798Z</time></trkpt><trkpt lat="41.8567992" lon="12.2246272"><ele>-1.0</ele><time>2026-04-01T07:59:58.804Z</time></trkpt><trkpt lat="41.856903" lon="12.2245212"><ele>-0.5</ele><time>2026-04-01T07:59:59.796Z</time></trkpt><trkpt lat="41.8570027" lon="12.2244444"><ele>0.0</ele><time>2026-04-01T08:00:00.787Z</time></trkpt><trkpt lat="41.8570736" lon="12.2243747"><ele>0.0</ele><time>2026-04-01T08:00:01.787Z</time></trkpt><trkpt lat="41.8571316" lon="12.2243157"><ele>0.0</ele><time>2026-04-01T08:00:02.787Z</time></trkpt><trkpt lat="41.857217" lon="12.2242264"><ele>0.0</ele><time>2026-04-01T08:00:04.783Z</time></trkpt><trkpt lat="41.8572623" lon="12.2241643"><ele>0.0</ele><time>2026-04-01T08:00:15.79Z</time></trkpt><trkpt lat="41.8573166" lon="12.224081"><ele>0.0</ele><time>2026-04-01T08:00:17.783Z</time></trkpt><trkpt lat="41.8573918" lon="12.2240051"><ele>0.0</ele><time>2026-04-01T08:00:18.791Z</time></trkpt><trkpt lat="41.8574912" lon="12.2238975"><ele>0.5</ele><time>2026-04-01T08:00:19.768Z</time></trkpt><trkpt lat="41.8575953" lon="12.2237893"><ele>1.0</ele><time>2026-04-01T08:00:20.792Z</time></trkpt><trkpt lat="41.8577045" lon="12.2236719"><ele>1.5</ele><time>2026-04-01T08:00:21.785Z</time></trkpt><trkpt lat="41.8578174" lon="12.2235516"><ele>2.0</ele><time>2026-04-01T08:00:22.79Z</time></trkpt><trkpt lat="41.8579401" lon="12.2234268"><ele>2.0</ele><time>2026-04-01T08:00:23.789Z</time></trkpt><trkpt lat="41.8580722" lon="12.2232967"><ele>2.0</ele><time>2026-04-01T08:00:24.774Z</time></trkpt><trkpt lat="41.8582064" lon="12.2231736"><ele>2.0</ele><time>2026-04-01T08:00:25.79Z</time></trkpt><trkpt lat="41.85834" lon="12.2230545"><ele>2.0</ele><time>2026-04-01T08:00:26.787Z</time></trkpt><trkpt lat="41.8584692" lon="12.2229257"><ele>2.0</ele><time>2026-04-01T08:00:27.786Z</time></trkpt><trkpt lat="41.8585947" lon="12.2227922"><ele>2.0</ele><time>2026-04-01T08:00:28.782Z</time></trkpt><trkpt lat="41.8587235" lon="12.2226596"><ele>2.0</ele><time>2026-04-01T08:00:29.81Z</time></trkpt><trkpt lat="41.858853" lon="12.2225238"><ele>2.0</ele><time>2026-04-01T08:00:30.781Z</time></trkpt><trkpt lat="41.8589774" lon="12.2223989"><ele>2.0</ele><time>2026-04-01T08:00:31.797Z</time></trkpt><trkpt lat="41.8591106" lon="12.2222661"><ele>2.0</ele><time>2026-04-01T08:00:32.779Z</time></trkpt><trkpt lat="41.8592396" lon="12.2221399"><ele>2.0</ele><time>2026-04-01T08:00:33.794Z</time></trkpt><trkpt lat="41.8593704" lon="12.2220086"><ele>2.0</ele><time>2026-04-01T08:00:34.782Z</time></trkpt><trkpt lat="41.859504" lon="12.2218723"><ele>2.0</ele><time>2026-04-01T08:00:35.791Z</time></trkpt><trkpt lat="41.8596386" lon="12.2217326"><ele>2.0</ele><time>2026-04-01T08:00:36.787Z</time></trkpt><trkpt lat="41.8597766" lon="12.2215946"><ele>2.0</ele><time>2026-04-01T08:00:37.791Z</time></trkpt><trkpt lat="41.8599162" lon="12.2214659"><ele>2.0</ele><time>2026-04-01T08:00:38.778Z</time></trkpt><trkpt lat="41.8600614" lon="12.2213227"><ele>2.0</ele><time>2026-04-01T08:00:39.789Z</time></trkpt><trkpt lat="41.8601999" lon="12.2211815"><ele>2.0</ele><time>2026-04-01T08:00:40.782Z</time></trkpt><trkpt lat="41.8603382" lon="12.2210443"><ele>2.0</ele><time>2026-04-01T08:00:41.791Z</time></trkpt><trkpt lat="41.8604842" lon="12.2209105"><ele>2.0</ele><time>2026-04-01T08:00:42.782Z</time></trkpt><trkpt lat="41.8606235" lon="12.2207839"><ele>2.0</ele><time>2026-04-01T08:00:43.789Z</time></trkpt><trkpt lat="41.8607484" lon="12.2206522"><ele>2.333333333333333</ele><time>2026-04-01T08:00:44.787Z</time></trkpt><trkpt lat="41.8608943" lon="12.2205203"><ele>2.6666666666666665</ele><time>2026-04-01T08:00:45.792Z</time></trkpt><trkpt lat="41.8610326" lon="12.2203857"><ele>3.0</ele><time>2026-04-01T08:00:46.785Z</time></trkpt><trkpt lat="41.8611782" lon="12.2202414"><ele>3.0</ele><time>2026-04-01T08:00:47.784Z</time></trkpt><trkpt lat="41.8613125" lon="12.2200955"><ele>3.0</ele><time>2026-04-01T08:00:48.777Z</time></trkpt><trkpt lat="41.8614454" lon="12.2199526"><ele>3.0</ele><time>2026-04-01T08:00:49.788Z</time></trkpt><trkpt lat="41.8615701" lon="12.2198229"><ele>3.0</ele><time>2026-04-01T08:00:50.784Z</time></trkpt><trkpt lat="41.8617062" lon="12.2196869"><ele>3.0</ele><time>2026-04-01T08:00:51.786Z</time></trkpt><trkpt lat="41.8618507" lon="12.2195528"><ele>3.0</ele><time>2026-04-01T08:00:52.786Z</time></trkpt><trkpt lat="41.8619882" lon="12.2194169"><ele>3.0</ele><time>2026-04-01T08:00:53.788Z</time></trkpt><trkpt lat="41.8621214" lon="12.219287"><ele>3.0</ele><time>2026-04-01T08:00:54.786Z</time></trkpt><trkpt lat="41.8622665" lon="12.2191437"><ele>3.0</ele><time>2026-04-01T08:00:55.79Z</time></trkpt><trkpt lat="41.8624015" lon="12.2190044"><ele>3.666666666666667</ele><time>2026-04-01T08:00:56.782Z</time></trkpt><trkpt lat="41.8625333" lon="12.2188715"><ele>4.333333333333334</ele><time>2026-04-01T08:00:57.789Z</time></trkpt><trkpt lat="41.8626596" lon="12.2187412"><ele>5.0</ele><time>2026-04-01T08:00:58.779Z</time></trkpt><trkpt lat="41.8627894" lon="12.2186111"><ele>5.0</ele><time>2026-04-01T08:00:59.79Z</time></trkpt><trkpt lat="41.8629267" lon="12.2184789"><ele>5.0</ele><time>2026-04-01T08:01:00.797Z</time></trkpt><trkpt lat="41.8630654" lon="12.2183522"><ele>5.0</ele><time>2026-04-01T08:01:01.787Z</time></trkpt><trkpt lat="41.8632014" lon="12.2182267"><ele>4.0</ele><time>2026-04-01T08:01:02.783Z</time></trkpt><trkpt lat="41.8633337" lon="12.2180943"><ele>3.0</ele><time>2026-04-01T08:01:03.78Z</time></trkpt><trkpt lat="41.8634622" lon="12.2179562"><ele>2.0</ele><time>2026-04-01T08:01:04.787Z</time></trkpt><trkpt lat="41.8635825" lon="12.2178216"><ele>2.0</ele><time>2026-04-01T08:01:05.784Z</time></trkpt><trkpt lat="41.8636978" lon="12.2177051"><ele>2.0</ele><time>2026-04-01T08:01:06.787Z</time></trkpt><trkpt lat="41.8638028" lon="12.2176006"><ele>2.0</ele><time>2026-04-01T08:01:07.783Z</time></trkpt><trkpt lat="41.8638992" lon="12.217512"><ele>2.0</ele><time>2026-04-01T08:01:08.794Z</time></trkpt><trkpt lat="41.8639808" lon="12.2174317"><ele>2.0</ele><time>2026-04-01T08:01:09.788Z</time></trkpt><trkpt lat="41.8640619" lon="12.2173499"><ele>2.0</ele><time>2026-04-01T08:01:10.787Z</time></trkpt><trkpt lat="41.8641502" lon="12.2172619"><ele>2.0</ele><time>2026-04-01T08:01:11.783Z</time></trkpt><trkpt lat="41.8642484" lon="12.2171674"><ele>2.0</ele><time>2026-04-01T08:01:12.79Z</time></trkpt><trkpt lat="41.8643522" lon="12.2170571"><ele>2.75</ele><time>2026-04-01T08:01:13.783Z</time></trkpt><trkpt lat="41.8644615" lon="12.2169457"><ele>3.5</ele><time>2026-04-01T08:01:14.794Z</time></trkpt><trkpt lat="41.8645758" lon="12.2168338"><ele>4.25</ele><time>2026-04-01T08:01:15.778Z</time></trkpt><trkpt lat="41.864699" lon="12.2167077"><ele>5.0</ele><time>2026-04-01T08:01:16.789Z</time></trkpt><trkpt lat="41.8648193" lon="12.2165894"><ele>4.25</ele><time>2026-04-01T08:01:17.778Z</time></trkpt><trkpt lat="41.8649386" lon="12.2164686"><ele>3.5</ele><time>2026-04-01T08:01:18.783Z</time></trkpt><trkpt lat="41.86506" lon="12.2163494"><ele>2.75</ele><time>2026-04-01T08:01:19.784Z</time></trkpt><trkpt lat="41.8651801" lon="12.2162321"><ele>2.0</ele><time>2026-04-01T08:01:20.782Z</time></trkpt><trkpt lat="41.8652965" lon="12.2161107"><ele>2.0</ele><time>2026-04-01T08:01:21.785Z</time></trkpt><trkpt lat="41.8654143" lon="12.2159879"><ele>2.0</ele><time>2026-04-01T08:01:22.775Z</time></trkpt><trkpt lat="41.8655302" lon="12.2158659"><ele>2.0</ele><time>2026-04-01T08:01:23.788Z</time></trkpt><trkpt lat="41.8656495" lon="12.2157531"><ele>2.0</ele><time>2026-04-01T08:01:24.774Z</time></trkpt><trkpt lat="41.865772" lon="12.2156327"><ele>2.0</ele><time>2026-04-01T08:01:25.782Z</time></trkpt><trkpt lat="41.8658897" lon="12.2155108"><ele>2.0</ele><time>2026-04-01T08:01:26.775Z</time></trkpt><trkpt lat="41.8660077" lon="12.2153893"><ele>2.0</ele><time>2026-04-01T08:01:27.789Z</time></trkpt><trkpt lat="41.8661264" lon="12.2152723"><ele>2.0</ele><time>2026-04-01T08:01:28.774Z</time></trkpt><trkpt lat="41.8662408" lon="12.2151543"><ele>2.25</ele><time>2026-04-01T08:01:29.785Z</time></trkpt><trkpt lat="41.8663528" lon="12.2150423"><ele>2.5</ele><time>2026-04-01T08:01:30.769Z</time></trkpt><trkpt lat="41.8664682" lon="12.214923"><ele>2.75</ele><time>2026-04-01T08:01:31.797Z</time></trkpt><trkpt lat="41.8665811" lon="12.2148"><ele>3.0</ele><time>2026-04-01T08:01:32.773Z</time></trkpt><trkpt lat="41.8666992" lon="12.2146831"><ele>2.3333333333333335</ele><time>2026-04-01T08:01:33.789Z</time></trkpt><trkpt lat="41.8668141" lon="12.214564"><ele>1.6666666666666665</ele><time>2026-04-01T08:01:34.775Z</time></trkpt><trkpt lat="41.8669414" lon="12.2144417"><ele>1.0</ele><time>2026-04-01T08:01:35.782Z</time></trkpt><trkpt lat="41.8670634" lon="12.2143198"><ele>1.0</ele><time>2026-04-01T08:01:36.774Z</time></trkpt><trkpt lat="41.867185" lon="12.2141985"><ele>1.0</ele><time>2026-04-01T08:01:37.782Z</time></trkpt><trkpt lat="41.8673106" lon="12.2140885"><ele>1.0</ele><time>2026-04-01T08:01:38.772Z</time></trkpt><trkpt lat="41.867442" lon="12.2139711"><ele>1.6666666666666665</ele><time>2026-04-01T08:01:39.772Z</time></trkpt><trkpt lat="41.8675663" lon="12.2138561"><ele>2.3333333333333335</ele><time>2026-04-01T08:01:40.772Z</time></trkpt><trkpt lat="41.8676859" lon="12.2137345"><ele>3.0</ele><time>2026-04-01T08:01:41.786Z</time></trkpt><trkpt lat="41.8678067" lon="12.2136144"><ele>1.6666666666666667</ele><time>2026-04-01T08:01:42.774Z</time></trkpt><trkpt lat="41.8679263" lon="12.2134936"><ele>0.33333333333333337</ele><time>2026-04-01T08:01:43.786Z</time></trkpt><trkpt lat="41.8680472" lon="12.2133704"><ele>-1.0</ele><time>2026-04-01T08:01:44.775Z</time></trkpt><trkpt lat="41.8681694" lon="12.2132481"><ele>-0.3333333333333333</ele><time>2026-04-01T08:01:45.79Z</time></trkpt><trkpt lat="41.8682878" lon="12.213128"><ele>0.3333333333333333</ele><time>2026-04-01T08:01:46.775Z</time></trkpt><trkpt lat="41.8684058" lon="12.213003"><ele>1.0</ele><time>2026-04-01T08:01:47.78Z</time></trkpt><trkpt lat="41.8685254" lon="12.2128791"><ele>1.0</ele><time>2026-04-01T08:01:48.78Z</time></trkpt><trkpt lat="41.8686481" lon="12.2127559"><ele>1.0</ele><time>2026-04-01T08:01:49.773Z</time></trkpt><trkpt lat="41.8687727" lon="12.212631"><ele>1.0</ele><time>2026-04-01T08:01:50.788Z</time></trkpt><trkpt lat="41.8688919" lon="12.2125087"><ele>1.0</ele><time>2026-04-01T08:01:51.783Z</time></trkpt><trkpt lat="41.86901" lon="12.2123841"><ele>1.0</ele><time>2026-04-01T08:01:52.798Z</time></trkpt><trkpt lat="41.8691308" lon="12.2122575"><ele>1.0</ele><time>2026-04-01T08:01:53.79Z</time></trkpt><trkpt lat="41.8692574" lon="12.2121315"><ele>0.6666666666666666</ele><time>2026-04-01T08:01:54.788Z</time></trkpt><trkpt lat="41.8693852" lon="12.2120018"><ele>0.3333333333333333</ele><time>2026-04-01T08:01:55.783Z</time></trkpt><trkpt lat="41.8695192" lon="12.2118637"><ele>0.0</ele><time>2026-04-01T08:01:56.796Z</time></trkpt><trkpt lat="41.8696554" lon="12.2117311"><ele>0.0</ele><time>2026-04-01T08:01:57.785Z</time></trkpt><trkpt lat="41.8697901" lon="12.2116043"><ele>0.0</ele><time>2026-04-01T08:01:58.797Z</time></trkpt><trkpt lat="41.8699166" lon="12.2114781"><ele>0.0</ele><time>2026-04-01T08:01:59.793Z</time></trkpt><trkpt lat="41.8700391" lon="12.2113508"><ele>0.3333333333333333</ele><time>2026-04-01T08:02:00.79Z</time></trkpt><trkpt lat="41.8701665" lon="12.2112268"><ele>0.6666666666666666</ele><time>2026-04-01T08:02:01.783Z</time></trkpt><trkpt lat="41.8702915" lon="12.2110987"><ele>1.0</ele><time>2026-04-01T08:02:02.802Z</time></trkpt><trkpt lat="41.8704164" lon="12.210977"><ele>1.0</ele><time>2026-04-01T08:02:03.782Z</time></trkpt><trkpt lat="41.8705365" lon="12.2108519"><ele>1.0</ele><time>2026-04-01T08:02:04.779Z</time></trkpt><trkpt lat="41.8706515" lon="12.2107213"><ele>1.0</ele><time>2026-04-01T08:02:05.779Z</time></trkpt><trkpt lat="41.870766" lon="12.2105989"><ele>1.0</ele><time>2026-04-01T08:02:06.779Z</time></trkpt><trkpt lat="41.8708869" lon="12.2104877"><ele>1.0</ele><time>2026-04-01T08:02:07.778Z</time></trkpt><trkpt lat="41.8710047" lon="12.2103857"><ele>1.0</ele><time>2026-04-01T08:02:08.778Z</time></trkpt><trkpt lat="41.8711146" lon="12.2102799"><ele>1.0</ele><time>2026-04-01T08:02:09.782Z</time></trkpt><trkpt lat="41.8712203" lon="12.210171"><ele>1.0</ele><time>2026-04-01T08:02:10.781Z</time></trkpt><trkpt lat="41.8713298" lon="12.210059"><ele>1.0</ele><time>2026-04-01T08:02:11.782Z</time></trkpt><trkpt lat="41.8714449" lon="12.209943"><ele>1.0</ele><time>2026-04-01T08:02:12.781Z</time></trkpt><trkpt lat="41.8715647" lon="12.2098255"><ele>1.0</ele><time>2026-04-01T08:02:13.785Z</time></trkpt><trkpt lat="41.8716814" lon="12.2097097"><ele>1.0</ele><time>2026-04-01T08:02:14.776Z</time></trkpt><trkpt lat="41.8717884" lon="12.209598"><ele>1.6</ele><time>2026-04-01T08:02:15.778Z</time></trkpt><trkpt lat="41.8718855" lon="12.2094915"><ele>2.2</ele><time>2026-04-01T08:02:16.782Z</time></trkpt><trkpt lat="41.8719776" lon="12.2093949"><ele>2.8000000000000003</ele><time>2026-04-01T08:02:17.77Z</time></trkpt><trkpt lat="41.8720584" lon="12.2093098"><ele>3.4000000000000004</ele><time>2026-04-01T08:02:18.768Z</time></trkpt><trkpt lat="41.8721324" lon="12.2092373"><ele>4.0</ele><time>2026-04-01T08:02:19.766Z</time></trkpt><trkpt lat="41.8721956" lon="12.2091805"><ele>4.0</ele><time>2026-04-01T08:02:20.766Z</time></trkpt><trkpt lat="41.8722592" lon="12.2091014"><ele>4.0</ele><time>2026-04-01T08:02:22.773Z</time></trkpt><trkpt lat="41.8723276" lon="12.2090667"><ele>4.0</ele><time>2026-04-01T08:02:25.776Z</time></trkpt><trkpt lat="41.8724014" lon="12.209043"><ele>4.0</ele><time>2026-04-01T08:02:29.785Z</time></trkpt><trkpt lat="41.8725464" lon="12.2090941"><ele>4.0</ele><time>2026-04-01T08:02:31.771Z</time></trkpt><trkpt lat="41.8726385" lon="12.2091242"><ele>4.0</ele><time>2026-04-01T08:02:32.763Z</time></trkpt><trkpt lat="41.8727364" lon="12.2091489"><ele>4.0</ele><time>2026-04-01T08:02:33.779Z</time></trkpt><trkpt lat="41.8728403" lon="12.2091763"><ele>4.0</ele><time>2026-04-01T08:02:34.772Z</time></trkpt><trkpt lat="41.8729452" lon="12.2092149"><ele>4.0</ele><time>2026-04-01T08:02:35.774Z</time></trkpt><trkpt lat="41.8730463" lon="12.2092622"><ele>4.0</ele><time>2026-04-01T08:02:36.775Z</time></trkpt><trkpt lat="41.8731657" lon="12.2093104"><ele>4.0</ele><time>2026-04-01T08:02:37.763Z</time></trkpt><trkpt lat="41.8732912" lon="12.2093614"><ele>4.0</ele><time>2026-04-01T08:02:38.761Z</time></trkpt><trkpt lat="41.8734161" lon="12.2094235"><ele>4.0</ele><time>2026-04-01T08:02:39.766Z</time></trkpt><trkpt lat="41.8735458" lon="12.2095056"><ele>4.0</ele><time>2026-04-01T08:02:40.77Z</time></trkpt><trkpt lat="41.8736791" lon="12.2095988"><ele>3.6666666666666665</ele><time>2026-04-01T08:02:41.762Z</time></trkpt><trkpt lat="41.8738135" lon="12.2097059"><ele>3.333333333333333</ele><time>2026-04-01T08:02:42.768Z</time></trkpt><trkpt lat="41.8739399" lon="12.2098205"><ele>3.0</ele><time>2026-04-01T08:02:43.772Z</time></trkpt><trkpt lat="41.8740563" lon="12.2099359"><ele>3.25</ele><time>2026-04-01T08:02:44.77Z</time></trkpt><trkpt lat="41.8741716" lon="12.2100551"><ele>3.5</ele><time>2026-04-01T08:02:45.787Z</time></trkpt><trkpt lat="41.8742767" lon="12.2101901"><ele>3.75</ele><time>2026-04-01T08:02:46.788Z</time></trkpt><trkpt lat="41.8743817" lon="12.2103264"><ele>4.0</ele><time>2026-04-01T08:02:47.777Z</time></trkpt><trkpt lat="41.8744801" lon="12.2104647"><ele>4.0</ele><time>2026-04-01T08:02:48.788Z</time></trkpt><trkpt lat="41.8745828" lon="12.2105996"><ele>4.0</ele><time>2026-04-01T08:02:49.788Z</time></trkpt><trkpt lat="41.8746799" lon="12.210733"><ele>4.0</ele><time>2026-04-01T08:02:50.783Z</time></trkpt><trkpt lat="41.8747755" lon="12.2108722"><ele>4.0</ele><time>2026-04-01T08:02:51.776Z</time></trkpt><trkpt lat="41.8748742" lon="12.2110138"><ele>3.75</ele><time>2026-04-01T08:02:52.785Z</time></trkpt><trkpt lat="41.874979" lon="12.2111421"><ele>3.5</ele><time>2026-04-01T08:02:53.783Z</time></trkpt><trkpt lat="41.8750883" lon="12.2112775"><ele>3.25</ele><time>2026-04-01T08:02:54.782Z</time></trkpt><trkpt lat="41.8751916" lon="12.211421"><ele>3.0</ele><time>2026-04-01T08:02:55.784Z</time></trkpt><trkpt lat="41.8752859" lon="12.2115746"><ele>2.6666666666666665</ele><time>2026-04-01T08:02:56.779Z</time></trkpt><trkpt lat="41.8753743" lon="12.2117342"><ele>2.333333333333333</ele><time>2026-04-01T08:02:57.782Z</time></trkpt><trkpt lat="41.8754564" lon="12.2119044"><ele>2.0</ele><time>2026-04-01T08:02:58.778Z</time></trkpt><trkpt lat="41.8755203" lon="12.2120883"><ele>2.0</ele><time>2026-04-01T08:02:59.791Z</time></trkpt><trkpt lat="41.875579" lon="12.2122677"><ele>2.0</ele><time>2026-04-01T08:03:00.786Z</time></trkpt><trkpt lat="41.8756399" lon="12.2124556"><ele>2.0</ele><time>2026-04-01T08:03:01.786Z</time></trkpt><trkpt lat="41.8757045" lon="12.2126539"><ele>2.333333333333333</ele><time>2026-04-01T08:03:02.782Z</time></trkpt><trkpt lat="41.8757677" lon="12.2128486"><ele>2.6666666666666665</ele><time>2026-04-01T08:03:03.785Z</time></trkpt><trkpt lat="41.8758339" lon="12.2130468"><ele>3.0</ele><time>2026-04-01T08:03:04.791Z</time></trkpt><trkpt lat="41.8758978" lon="12.2132304"><ele>3.333333333333333</ele><time>2026-04-01T08:03:05.769Z</time></trkpt><trkpt lat="41.8759634" lon="12.2134238"><ele>3.6666666666666665</ele><time>2026-04-01T08:03:06.771Z</time></trkpt><trkpt lat="41.8760228" lon="12.213611"><ele>4.0</ele><time>2026-04-01T08:03:07.772Z</time></trkpt><trkpt lat="41.8760808" lon="12.2137892"><ele>4.0</ele><time>2026-04-01T08:03:08.778Z</time></trkpt><trkpt lat="41.8761346" lon="12.2139635"><ele>4.0</ele><time>2026-04-01T08:03:09.766Z</time></trkpt><trkpt lat="41.8761861" lon="12.2141317"><ele>4.0</ele><time>2026-04-01T08:03:10.775Z</time></trkpt><trkpt lat="41.8762393" lon="12.2143024"><ele>4.0</ele><time>2026-04-01T08:03:11.77Z</time></trkpt><trkpt lat="41.8762887" lon="12.2144619"><ele>4.2</ele><time>2026-04-01T08:03:12.775Z</time></trkpt><trkpt lat="41.8763254" lon="12.2146133"><ele>4.4</ele><time>2026-04-01T08:03:13.77Z</time></trkpt><trkpt lat="41.8763456" lon="12.2147542"><ele>4.6</ele><time>2026-04-01T08:03:14.763Z</time></trkpt><trkpt lat="41.8763657" lon="12.2148821"><ele>4.8</ele><time>2026-04-01T08:03:15.762Z</time></trkpt><trkpt lat="41.8763949" lon="12.2149818"><ele>5.0</ele><time>2026-04-01T08:03:16.765Z</time></trkpt><trkpt lat="41.8764244" lon="12.2150743"><ele>5.0</ele><time>2026-04-01T08:03:17.772Z</time></trkpt><trkpt lat="41.8764499" lon="12.2151517"><ele>5.0</ele><time>2026-04-01T08:03:18.762Z</time></trkpt><trkpt lat="41.8765001" lon="12.2152637"><ele>5.0</ele><time>2026-04-01T08:03:20.78Z</time></trkpt><trkpt lat="41.8766001" lon="12.2152624"><ele>5.0</ele><time>2026-04-01T08:03:22.773Z</time></trkpt><trkpt lat="41.8766713" lon="12.2152132"><ele>5.0</ele><time>2026-04-01T08:03:23.77Z</time></trkpt><trkpt lat="41.8767459" lon="12.2151582"><ele>5.0</ele><time>2026-04-01T08:03:24.767Z</time></trkpt><trkpt lat="41.876827" lon="12.2150909"><ele>5.333333333333334</ele><time>2026-04-01T08:03:25.767Z</time></trkpt><trkpt lat="41.876905" lon="12.2150322"><ele>5.666666666666667</ele><time>2026-04-01T08:03:26.762Z</time></trkpt><trkpt lat="41.8769788" lon="12.2149802"><ele>6.0</ele><time>2026-04-01T08:03:27.766Z</time></trkpt><trkpt lat="41.8770581" lon="12.2149297"><ele>6.333333333333334</ele><time>2026-04-01T08:03:28.765Z</time></trkpt><trkpt lat="41.8771415" lon="12.2148871"><ele>6.666666666666667</ele><time>2026-04-01T08:03:29.762Z</time></trkpt><trkpt lat="41.8772284" lon="12.2148429"><ele>7.0</ele><time>2026-04-01T08:03:30.759Z</time></trkpt><trkpt lat="41.8773212" lon="12.2147959"><ele>7.0</ele><time>2026-04-01T08:03:31.76Z</time></trkpt><trkpt lat="41.8774111" lon="12.2147619"><ele>6.999999999999999</ele><time>2026-04-01T08:03:32.756Z</time></trkpt><trkpt lat="41.8774967" lon="12.2147364"><ele>6.999999999999999</ele><time>2026-04-01T08:03:33.758Z</time></trkpt><trkpt lat="41.877559" lon="12.2147071"><ele>7.0</ele><time>2026-04-01T08:03:34.759Z</time></trkpt><trkpt lat="41.8776698" lon="12.2146737"><ele>7.0</ele><time>2026-04-01T08:03:36.747Z</time></trkpt><trkpt lat="41.8777584" lon="12.2146357"><ele>6.5</ele><time>2026-04-01T08:03:38.755Z</time></trkpt><trkpt lat="41.877833" lon="12.2144901"><ele>6.0</ele><time>2026-04-01T08:03:40.758Z</time></trkpt><trkpt lat="41.8778625" lon="12.2143645"><ele>5.5</ele><time>2026-04-01T08:03:41.765Z</time></trkpt><trkpt lat="41.8778686" lon="12.2142088"><ele>5.0</ele><time>2026-04-01T08:03:42.78Z</time></trkpt><trkpt lat="41.8778749" lon="12.214065"><ele>5.0</ele><time>2026-04-01T08:03:43.761Z</time></trkpt><trkpt lat="41.8778777" lon="12.2139357"><ele>5.0</ele><time>2026-04-01T08:03:44.768Z</time></trkpt><trkpt lat="41.8778727" lon="12.2138331"><ele>5.0</ele><time>2026-04-01T08:03:45.762Z</time></trkpt><trkpt lat="41.8778664" lon="12.2137394"><ele>5.0</ele><time>2026-04-01T08:03:46.759Z</time></trkpt><trkpt lat="41.8779125" lon="12.2136446"><ele>5.0</ele><time>2026-04-01T08:03:48.774Z</time></trkpt><trkpt lat="41.8780505" lon="12.2136739"><ele>5.0</ele><time>2026-04-01T08:03:50.771Z</time></trkpt><trkpt lat="41.878149" lon="12.2137179"><ele>5.0</ele><time>2026-04-01T08:03:51.769Z</time></trkpt><trkpt lat="41.8782558" lon="12.2137631"><ele>5.0</ele><time>2026-04-01T08:03:52.775Z</time></trkpt><trkpt lat="41.8783685" lon="12.2138068"><ele>5.0</ele><time>2026-04-01T08:03:53.77Z</time></trkpt><trkpt lat="41.8784912" lon="12.2138477"><ele>4.0</ele><time>2026-04-01T08:03:54.772Z</time></trkpt><trkpt lat="41.8786206" lon="12.2138706"><ele>3.0</ele><time>2026-04-01T08:03:55.783Z</time></trkpt><trkpt lat="41.8787516" lon="12.2138975"><ele>2.0</ele><time>2026-04-01T08:03:56.78Z</time></trkpt><trkpt lat="41.8788864" lon="12.21392"><ele>1.0</ele><time>2026-04-01T08:03:57.782Z</time></trkpt><trkpt lat="41.8790239" lon="12.213943"><ele>1.0</ele><time>2026-04-01T08:03:58.779Z</time></trkpt><trkpt lat="41.8791567" lon="12.2139675"><ele>1.0</ele><time>2026-04-01T08:03:59.784Z</time></trkpt><trkpt lat="41.8792967" lon="12.2139916"><ele>1.0</ele><time>2026-04-01T08:04:00.776Z</time></trkpt><trkpt lat="41.8794375" lon="12.2140136"><ele>1.0</ele><time>2026-04-01T08:04:01.779Z</time></trkpt><trkpt lat="41.8795741" lon="12.2140356"><ele>1.0</ele><time>2026-04-01T08:04:02.767Z</time></trkpt><trkpt lat="41.8797185" lon="12.2140411"><ele>1.0</ele><time>2026-04-01T08:04:03.785Z</time></trkpt><trkpt lat="41.8798531" lon="12.2140466"><ele>1.0</ele><time>2026-04-01T08:04:04.777Z</time></trkpt><trkpt lat="41.8799833" lon="12.2140773"><ele>1.0</ele><time>2026-04-01T08:04:05.783Z</time></trkpt><trkpt lat="41.8801083" lon="12.2141269"><ele>1.25</ele><time>2026-04-01T08:04:06.791Z</time></trkpt><trkpt lat="41.8802329" lon="12.2141864"><ele>1.5</ele><time>2026-04-01T08:04:07.773Z</time></trkpt><trkpt lat="41.880338" lon="12.2142692"><ele>1.75</ele><time>2026-04-01T08:04:08.781Z</time></trkpt><trkpt lat="41.8804246" lon="12.2143856"><ele>2.0</ele><time>2026-04-01T08:04:09.782Z</time></trkpt><trkpt lat="41.880499" lon="12.2145136"><ele>2.0</ele><time>2026-04-01T08:04:10.775Z</time></trkpt><trkpt lat="41.8805745" lon="12.2146471"><ele>2.0</ele><time>2026-04-01T08:04:11.78Z</time></trkpt><trkpt lat="41.8806432" lon="12.2147972"><ele>2.0</ele><time>2026-04-01T08:04:12.779Z</time></trkpt><trkpt lat="41.8807109" lon="12.2149477"><ele>2.0</ele><time>2026-04-01T08:04:13.766Z</time></trkpt><trkpt lat="41.8807801" lon="12.2151043"><ele>2.25</ele><time>2026-04-01T08:04:14.771Z</time></trkpt><trkpt lat="41.8808523" lon="12.215266"><ele>2.5</ele><time>2026-04-01T08:04:15.767Z</time></trkpt><trkpt lat="41.8809259" lon="12.2154258"><ele>2.75</ele><time>2026-04-01T08:04:16.765Z</time></trkpt><trkpt lat="41.881005" lon="12.2155818"><ele>3.0</ele><time>2026-04-01T08:04:17.764Z</time></trkpt><trkpt lat="41.8810817" lon="12.2157361"><ele>3.25</ele><time>2026-04-01T08:04:18.762Z</time></trkpt><trkpt lat="41.8811464" lon="12.2158942"><ele>3.5</ele><time>2026-04-01T08:04:19.759Z</time></trkpt><trkpt lat="41.8812149" lon="12.2160373"><ele>3.75</ele><time>2026-04-01T08:04:20.769Z</time></trkpt><trkpt lat="41.8812892" lon="12.2161597"><ele>4.0</ele><time>2026-04-01T08:04:21.769Z</time></trkpt><trkpt lat="41.8813709" lon="12.2162607"><ele>3.9999999999999996</ele><time>2026-04-01T08:04:22.755Z</time></trkpt><trkpt lat="41.8814137" lon="12.216362"><ele>4.0</ele><time>2026-04-01T08:04:23.766Z</time></trkpt><trkpt lat="41.8814644" lon="12.2164417"><ele>4.0</ele><time>2026-04-01T08:04:24.767Z</time></trkpt><trkpt lat="41.8815125" lon="12.2165179"><ele>4.0</ele><time>2026-04-01T08:04:25.765Z</time></trkpt><trkpt lat="41.881581" lon="12.2166171"><ele>3.9999999999999996</ele><time>2026-04-01T08:04:27.777Z</time></trkpt><trkpt lat="41.8816458" lon="12.2166304"><ele>4.0</ele><time>2026-04-01T08:04:29.797Z</time></trkpt><trkpt lat="41.8816885" lon="12.21655"><ele>3.9999999999999996</ele><time>2026-04-01T08:04:31.776Z</time></trkpt><trkpt lat="41.881746" lon="12.216468"><ele>4.0</ele><time>2026-04-01T08:04:33.779Z</time></trkpt><trkpt lat="41.881799" lon="12.2164132"><ele>4.0</ele><time>2026-04-01T08:04:35.786Z</time></trkpt><trkpt lat="41.881849" lon="12.2163568"><ele>4.0</ele><time>2026-04-01T08:04:37.807Z</time></trkpt><trkpt lat="41.8819131" lon="12.2162689"><ele>3.9999999999999996</ele><time>2026-04-01T08:04:39.785Z</time></trkpt><trkpt lat="41.8820045" lon="12.2161594"><ele>4.0</ele><time>2026-04-01T08:04:41.786Z</time></trkpt><trkpt lat="41.8820682" lon="12.2160922"><ele>3.6</ele><time>2026-04-01T08:04:42.784Z</time></trkpt><trkpt lat="41.8821491" lon="12.2160062"><ele>3.2</ele><time>2026-04-01T08:04:43.786Z</time></trkpt><trkpt lat="41.882232" lon="12.2159231"><ele>2.8000000000000003</ele><time>2026-04-01T08:04:44.782Z</time></trkpt><trkpt lat="41.8823206" lon="12.2158327"><ele>2.4000000000000004</ele><time>2026-04-01T08:04:45.785Z</time></trkpt><trkpt lat="41.8824165" lon="12.2157501"><ele>2.0</ele><time>2026-04-01T08:04:46.782Z</time></trkpt><trkpt lat="41.8825091" lon="12.2156657"><ele>1.8</ele><time>2026-04-01T08:04:47.785Z</time></trkpt><trkpt lat="41.8826004" lon="12.215579"><ele>1.6</ele><time>2026-04-01T08:04:48.785Z</time></trkpt><trkpt lat="41.8826906" lon="12.215491"><ele>1.4000000000000001</ele><time>2026-04-01T08:04:49.785Z</time></trkpt><trkpt lat="41.8827827" lon="12.2154018"><ele>1.2000000000000002</ele><time>2026-04-01T08:04:50.785Z</time></trkpt><trkpt lat="41.8828732" lon="12.2153139"><ele>1.0</ele><time>2026-04-01T08:04:51.777Z</time></trkpt><trkpt lat="41.8829542" lon="12.21523"><ele>1.0</ele><time>2026-04-01T08:04:52.768Z</time></trkpt><trkpt lat="41.8830371" lon="12.215138"><ele>1.0</ele><time>2026-04-01T08:04:53.778Z</time></trkpt><trkpt lat="41.8831247" lon="12.2150452"><ele>1.0</ele><time>2026-04-01T08:04:54.771Z</time></trkpt><trkpt lat="41.883213" lon="12.2149601"><ele>1.0</ele><time>2026-04-01T08:04:55.78Z</time></trkpt><trkpt lat="41.8833004" lon="12.2148674"><ele>1.0</ele><time>2026-04-01T08:04:56.772Z</time></trkpt><trkpt lat="41.8833916" lon="12.2147731"><ele>1.0</ele><time>2026-04-01T08:04:57.787Z</time></trkpt><trkpt lat="41.8834839" lon="12.2146797"><ele>1.0</ele><time>2026-04-01T08:04:58.782Z</time></trkpt><trkpt lat="41.8835781" lon="12.2145868"><ele>1.0</ele><time>2026-04-01T08:04:59.796Z</time></trkpt><trkpt lat="41.8836768" lon="12.2144878"><ele>1.0</ele><time>2026-04-01T08:05:00.783Z</time></trkpt><trkpt lat="41.883777" lon="12.2143897"><ele>1.0</ele><time>2026-04-01T08:05:01.783Z</time></trkpt><trkpt lat="41.8838768" lon="12.2142941"><ele>1.0</ele><time>2026-04-01T08:05:02.784Z</time></trkpt><trkpt lat="41.8839732" lon="12.214202"><ele>1.0</ele><time>2026-04-01T08:05:03.778Z</time></trkpt><trkpt lat="41.8840699" lon="12.2141083"><ele>1.0</ele><time>2026-04-01T08:05:04.776Z</time></trkpt><trkpt lat="41.8841644" lon="12.2140077"><ele>1.25</ele><time>2026-04-01T08:05:05.774Z</time></trkpt><trkpt lat="41.8842651" lon="12.2139059"><ele>1.5</ele><time>2026-04-01T08:05:06.786Z</time></trkpt><trkpt lat="41.8843702" lon="12.2138017"><ele>1.75</ele><time>2026-04-01T08:05:07.779Z</time></trkpt><trkpt lat="41.8844684" lon="12.213697"><ele>2.0</ele><time>2026-04-01T08:05:08.802Z</time></trkpt><trkpt lat="41.8845685" lon="12.2135964"><ele>2.0</ele><time>2026-04-01T08:05:09.777Z</time></trkpt><trkpt lat="41.8846681" lon="12.2134983"><ele>2.0</ele><time>2026-04-01T08:05:10.789Z</time></trkpt><trkpt lat="41.8847689" lon="12.213397"><ele>2.0</ele><time>2026-04-01T08:05:11.782Z</time></trkpt><trkpt lat="41.8848709" lon="12.2132944"><ele>2.0</ele><time>2026-04-01T08:05:12.786Z</time></trkpt><trkpt lat="41.884977" lon="12.2131886"><ele>2.0</ele><time>2026-04-01T08:05:13.786Z</time></trkpt><trkpt lat="41.8850865" lon="12.2130794"><ele>2.0</ele><time>2026-04-01T08:05:14.79Z</time></trkpt><trkpt lat="41.885198" lon="12.2129724"><ele>2.0</ele><time>2026-04-01T08:05:15.791Z</time></trkpt><trkpt lat="41.8853083" lon="12.2128684"><ele>2.0</ele><time>2026-04-01T08:05:16.788Z</time></trkpt><trkpt lat="41.8854137" lon="12.2127579"><ele>2.0</ele><time>2026-04-01T08:05:17.789Z</time></trkpt><trkpt lat="41.8855196" lon="12.2126483"><ele>2.0</ele><time>2026-04-01T08:05:18.784Z</time></trkpt><trkpt lat="41.8856309" lon="12.2125434"><ele>2.0</ele><time>2026-04-01T08:05:19.779Z</time></trkpt><trkpt lat="41.8857379" lon="12.2124362"><ele>2.0</ele><time>2026-04-01T08:05:20.783Z</time></trkpt><trkpt lat="41.8858477" lon="12.2123306"><ele>2.0</ele><time>2026-04-01T08:05:21.776Z</time></trkpt><trkpt lat="41.8859677" lon="12.21222"><ele>2.0</ele><time>2026-04-01T08:05:22.778Z</time></trkpt><trkpt lat="41.8860752" lon="12.2120994"><ele>2.0</ele><time>2026-04-01T08:05:23.784Z</time></trkpt><trkpt lat="41.8861896" lon="12.2119917"><ele>2.0</ele><time>2026-04-01T08:05:24.777Z</time></trkpt><trkpt lat="41.8863071" lon="12.211891"><ele>2.0</ele><time>2026-04-01T08:05:25.787Z</time></trkpt><trkpt lat="41.8864021" lon="12.2117915"><ele>2.0</ele><time>2026-04-01T08:05:26.784Z</time></trkpt><trkpt lat="41.8864915" lon="12.2117027"><ele>2.0</ele><time>2026-04-01T08:05:27.785Z</time></trkpt><trkpt lat="41.8865887" lon="12.2116342"><ele>2.0</ele><time>2026-04-01T08:05:28.779Z</time></trkpt><trkpt lat="41.8866712" lon="12.2115316"><ele>2.25</ele><time>2026-04-01T08:05:29.789Z</time></trkpt><trkpt lat="41.8867611" lon="12.2114289"><ele>2.5</ele><time>2026-04-01T08:05:30.785Z</time></trkpt><trkpt lat="41.8868582" lon="12.2113371"><ele>2.75</ele><time>2026-04-01T08:05:31.793Z</time></trkpt><trkpt lat="41.8869541" lon="12.2112499"><ele>3.0</ele><time>2026-04-01T08:05:32.787Z</time></trkpt><trkpt lat="41.8870517" lon="12.2111582"><ele>3.0</ele><time>2026-04-01T08:05:33.782Z</time></trkpt><trkpt lat="41.8871444" lon="12.2110644"><ele>3.0</ele><time>2026-04-01T08:05:34.771Z</time></trkpt><trkpt lat="41.8872439" lon="12.2109735"><ele>3.0</ele><time>2026-04-01T08:05:35.79Z</time></trkpt><trkpt lat="41.8873456" lon="12.2108802"><ele>3.0</ele><time>2026-04-01T08:05:36.774Z</time></trkpt><trkpt lat="41.8874476" lon="12.2107837"><ele>3.0</ele><time>2026-04-01T08:05:37.785Z</time></trkpt><trkpt lat="41.8875508" lon="12.210686"><ele>3.0</ele><time>2026-04-01T08:05:38.78Z</time></trkpt><trkpt lat="41.8876537" lon="12.21059"><ele>3.0</ele><time>2026-04-01T08:05:39.802Z</time></trkpt><trkpt lat="41.8877517" lon="12.210494"><ele>3.0</ele><time>2026-04-01T08:05:40.777Z</time></trkpt><trkpt lat="41.8878499" lon="12.2103928"><ele>3.0</ele><time>2026-04-01T08:05:41.776Z</time></trkpt><trkpt lat="41.8879444" lon="12.2102934"><ele>3.0</ele><time>2026-04-01T08:05:42.774Z</time></trkpt><trkpt lat="41.8880417" lon="12.2101917"><ele>3.0</ele><time>2026-04-01T08:05:43.783Z</time></trkpt><trkpt lat="41.888141" lon="12.2100868"><ele>3.0</ele><time>2026-04-01T08:05:44.777Z</time></trkpt><trkpt lat="41.8882437" lon="12.2099827"><ele>3.0</ele><time>2026-04-01T08:05:45.783Z</time></trkpt><trkpt lat="41.8883418" lon="12.2098733"><ele>3.0</ele><time>2026-04-01T08:05:46.78Z</time></trkpt><trkpt lat="41.8884458" lon="12.2097672"><ele>3.0</ele><time>2026-04-01T08:05:47.783Z</time></trkpt><trkpt lat="41.8885509" lon="12.209663"><ele>3.0</ele><time>2026-04-01T08:05:48.78Z</time></trkpt><trkpt lat="41.8886586" lon="12.2095581"><ele>2.5</ele><time>2026-04-01T08:05:49.789Z</time></trkpt><trkpt lat="41.8887673" lon="12.2094465"><ele>2.0</ele><time>2026-04-01T08:05:50.778Z</time></trkpt><trkpt lat="41.8888769" lon="12.2093424"><ele>1.5</ele><time>2026-04-01T08:05:51.788Z</time></trkpt><trkpt lat="41.8889828" lon="12.2092389"><ele>1.0</ele><time>2026-04-01T08:05:52.783Z</time></trkpt><trkpt lat="41.8890877" lon="12.2091273"><ele>1.0</ele><time>2026-04-01T08:05:53.785Z</time></trkpt><trkpt lat="41.8891967" lon="12.2090161"><ele>1.0</ele><time>2026-04-01T08:05:54.777Z</time></trkpt><trkpt lat="41.8893021" lon="12.2089105"><ele>1.0</ele><time>2026-04-01T08:05:55.792Z</time></trkpt><trkpt lat="41.8894089" lon="12.2088001"><ele>1.0</ele><time>2026-04-01T08:05:56.781Z</time></trkpt><trkpt lat="41.8895141" lon="12.2086892"><ele>1.0</ele><time>2026-04-01T08:05:57.792Z</time></trkpt><trkpt lat="41.8896199" lon="12.2085789"><ele>1.0</ele><time>2026-04-01T08:05:58.782Z</time></trkpt><trkpt lat="41.8897295" lon="12.2084664"><ele>1.0</ele><time>2026-04-01T08:05:59.799Z</time></trkpt><trkpt lat="41.8898442" lon="12.2083582"><ele>1.0</ele><time>2026-04-01T08:06:00.781Z</time></trkpt><trkpt lat="41.8899592" lon="12.2082534"><ele>1.0</ele><time>2026-04-01T08:06:01.787Z</time></trkpt><trkpt lat="41.8900655" lon="12.2081487"><ele>1.0</ele><time>2026-04-01T08:06:02.783Z</time></trkpt><trkpt lat="41.8901714" lon="12.2080494"><ele>1.0</ele><time>2026-04-01T08:06:03.79Z</time></trkpt><trkpt lat="41.890281" lon="12.2079418"><ele>1.0</ele><time>2026-04-01T08:06:04.784Z</time></trkpt><trkpt lat="41.8903876" lon="12.2078381"><ele>1.0</ele><time>2026-04-01T08:06:05.782Z</time></trkpt><trkpt lat="41.8904901" lon="12.2077479"><ele>1.0</ele><time>2026-04-01T08:06:06.788Z</time></trkpt><trkpt lat="41.8905898" lon="12.2076547"><ele>1.0</ele><time>2026-04-01T08:06:07.783Z</time></trkpt><trkpt lat="41.8906888" lon="12.2075545"><ele>1.0</ele><time>2026-04-01T08:06:08.791Z</time></trkpt><trkpt lat="41.8907881" lon="12.207457"><ele>1.0</ele><time>2026-04-01T08:06:09.781Z</time></trkpt><trkpt lat="41.8908868" lon="12.2073566"><ele>1.0</ele><time>2026-04-01T08:06:10.807Z</time></trkpt><trkpt lat="41.8909801" lon="12.2072544"><ele>1.0</ele><time>2026-04-01T08:06:11.783Z</time></trkpt><trkpt lat="41.891072" lon="12.207154"><ele>1.0</ele><time>2026-04-01T08:06:12.79Z</time></trkpt><trkpt lat="41.8911667" lon="12.2070506"><ele>1.25</ele><time>2026-04-01T08:06:13.777Z</time></trkpt><trkpt lat="41.891267" lon="12.2069504"><ele>1.5</ele><time>2026-04-01T08:06:14.785Z</time></trkpt><trkpt lat="41.8913668" lon="12.2068502"><ele>1.75</ele><time>2026-04-01T08:06:15.777Z</time></trkpt><trkpt lat="41.8914694" lon="12.2067485"><ele>2.0</ele><time>2026-04-01T08:06:16.79Z</time></trkpt><trkpt lat="41.8915678" lon="12.2066493"><ele>2.0</ele><time>2026-04-01T08:06:17.774Z</time></trkpt><trkpt lat="41.8916678" lon="12.2065538"><ele>2.0</ele><time>2026-04-01T08:06:18.785Z</time></trkpt><trkpt lat="41.8917654" lon="12.2064584"><ele>2.0</ele><time>2026-04-01T08:06:19.779Z</time></trkpt><trkpt lat="41.8918672" lon="12.2063663"><ele>2.0</ele><time>2026-04-01T08:06:20.784Z</time></trkpt><trkpt lat="41.8919679" lon="12.2062719"><ele>2.0</ele><time>2026-04-01T08:06:21.778Z</time></trkpt><trkpt lat="41.8920748" lon="12.206172"><ele>2.0</ele><time>2026-04-01T08:06:22.793Z</time></trkpt><trkpt lat="41.8921747" lon="12.2060748"><ele>2.0</ele><time>2026-04-01T08:06:23.788Z</time></trkpt><trkpt lat="41.8922704" lon="12.2059915"><ele>2.0</ele><time>2026-04-01T08:06:24.79Z</time></trkpt><trkpt lat="41.8923523" lon="12.2059097"><ele>2.0</ele><time>2026-04-01T08:06:25.785Z</time></trkpt><trkpt lat="41.8924331" lon="12.2058298"><ele>2.0</ele><time>2026-04-01T08:06:26.796Z</time></trkpt><trkpt lat="41.8925103" lon="12.2057543"><ele>2.0</ele><time>2026-04-01T08:06:27.788Z</time></trkpt><trkpt lat="41.8925908" lon="12.2056766"><ele>2.0</ele><time>2026-04-01T08:06:28.794Z</time></trkpt><trkpt lat="41.8926719" lon="12.2056045"><ele>2.0</ele><time>2026-04-01T08:06:29.797Z</time></trkpt><trkpt lat="41.8927507" lon="12.2055396"><ele>1.4000000000000001</ele><time>2026-04-01T08:06:30.79Z</time></trkpt><trkpt lat="41.8928333" lon="12.2054708"><ele>0.8000000000000002</ele><time>2026-04-01T08:06:31.793Z</time></trkpt><trkpt lat="41.8929114" lon="12.2053936"><ele>0.19999999999999996</ele><time>2026-04-01T08:06:32.79Z</time></trkpt><trkpt lat="41.892989" lon="12.2053159"><ele>-0.4</ele><time>2026-04-01T08:06:33.796Z</time></trkpt><trkpt lat="41.8930667" lon="12.2052397"><ele>-1.0</ele><time>2026-04-01T08:06:34.784Z</time></trkpt><trkpt lat="41.8931458" lon="12.2051663"><ele>-1.0</ele><time>2026-04-01T08:06:35.79Z</time></trkpt><trkpt lat="41.8932348" lon="12.2050801"><ele>-1.0</ele><time>2026-04-01T08:06:36.78Z</time></trkpt><trkpt lat="41.8933395" lon="12.2049825"><ele>-1.0</ele><time>2026-04-01T08:06:37.788Z</time></trkpt><trkpt lat="41.8934487" lon="12.2048715"><ele>-1.0</ele><time>2026-04-01T08:06:38.785Z</time></trkpt><trkpt lat="41.8935576" lon="12.2047503"><ele>-0.75</ele><time>2026-04-01T08:06:39.801Z</time></trkpt><trkpt lat="41.8936661" lon="12.204634"><ele>-0.5</ele><time>2026-04-01T08:06:40.79Z</time></trkpt><trkpt lat="41.8937763" lon="12.2045215"><ele>-0.25</ele><time>2026-04-01T08:06:41.812Z</time></trkpt><trkpt lat="41.8938857" lon="12.2044062"><ele>0.0</ele><time>2026-04-01T08:06:42.785Z</time></trkpt><trkpt lat="41.893997" lon="12.2042911"><ele>0.0</ele><time>2026-04-01T08:06:43.789Z</time></trkpt><trkpt lat="41.8941172" lon="12.204178"><ele>0.0</ele><time>2026-04-01T08:06:44.78Z</time></trkpt><trkpt lat="41.8942268" lon="12.2040591"><ele>0.0</ele><time>2026-04-01T08:06:45.781Z</time></trkpt><trkpt lat="41.8943302" lon="12.2039373"><ele>0.0</ele><time>2026-04-01T08:06:46.781Z</time></trkpt><trkpt lat="41.8944498" lon="12.2038167"><ele>-0.3333333333333333</ele><time>2026-04-01T08:06:47.786Z</time></trkpt><trkpt lat="41.894574" lon="12.2036859"><ele>-0.6666666666666666</ele><time>2026-04-01T08:06:48.776Z</time></trkpt><trkpt lat="41.8947096" lon="12.2035481"><ele>-1.0</ele><time>2026-04-01T08:06:49.786Z</time></trkpt><trkpt lat="41.894861" lon="12.2034045"><ele>-1.0</ele><time>2026-04-01T08:06:50.779Z</time></trkpt><trkpt lat="41.8950065" lon="12.2032628"><ele>-1.0</ele><time>2026-04-01T08:06:51.784Z</time></trkpt><trkpt lat="41.8951545" lon="12.203109"><ele>-1.0</ele><time>2026-04-01T08:06:52.789Z</time></trkpt><trkpt lat="41.8953097" lon="12.2029492"><ele>-1.6666666666666665</ele><time>2026-04-01T08:06:53.79Z</time></trkpt><trkpt lat="41.8954653" lon="12.2027912"><ele>-2.3333333333333335</ele><time>2026-04-01T08:06:54.78Z</time></trkpt><trkpt lat="41.8956213" lon="12.2026322"><ele>-3.0</ele><time>2026-04-01T08:06:55.79Z</time></trkpt><trkpt lat="41.8958075" lon="12.2024586"><ele>-2.3333333333333335</ele><time>2026-04-01T08:06:56.781Z</time></trkpt><trkpt lat="41.8959947" lon="12.2022865"><ele>-1.6666666666666665</ele><time>2026-04-01T08:06:57.79Z</time></trkpt><trkpt lat="41.8961742" lon="12.2021124"><ele>-1.0</ele><time>2026-04-01T08:06:58.778Z</time></trkpt><trkpt lat="41.8963557" lon="12.2019355"><ele>-1.0</ele><time>2026-04-01T08:06:59.797Z</time></trkpt><trkpt lat="41.8965272" lon="12.2017465"><ele>-1.0</ele><time>2026-04-01T08:07:00.782Z</time></trkpt><trkpt lat="41.896722" lon="12.2015555"><ele>-1.0</ele><time>2026-04-01T08:07:01.792Z</time></trkpt><trkpt lat="41.8969155" lon="12.2013681"><ele>-1.0</ele><time>2026-04-01T08:07:02.789Z</time></trkpt><trkpt lat="41.8970906" lon="12.2011779"><ele>-1.0</ele><time>2026-04-01T08:07:03.785Z</time></trkpt><trkpt lat="41.8972619" lon="12.2009997"><ele>-1.0</ele><time>2026-04-01T08:07:04.793Z</time></trkpt><trkpt lat="41.8974355" lon="12.2008207"><ele>-1.0</ele><time>2026-04-01T08:07:05.785Z</time></trkpt><trkpt lat="41.8976185" lon="12.2006536"><ele>-0.6666666666666666</ele><time>2026-04-01T08:07:06.792Z</time></trkpt><trkpt lat="41.897795" lon="12.2004884"><ele>-0.3333333333333333</ele><time>2026-04-01T08:07:07.788Z</time></trkpt><trkpt lat="41.8979662" lon="12.2003215"><ele>0.0</ele><time>2026-04-01T08:07:08.793Z</time></trkpt><trkpt lat="41.8981392" lon="12.2001474"><ele>0.0</ele><time>2026-04-01T08:07:09.793Z</time></trkpt><trkpt lat="41.8983194" lon="12.1999668"><ele>0.0</ele><time>2026-04-01T08:07:10.791Z</time></trkpt><trkpt lat="41.8984981" lon="12.199783"><ele>-0.5</ele><time>2026-04-01T08:07:11.794Z</time></trkpt><trkpt lat="41.8986792" lon="12.1996038"><ele>-1.0</ele><time>2026-04-01T08:07:12.809Z</time></trkpt><trkpt lat="41.8988599" lon="12.1994234"><ele>-1.0</ele><time>2026-04-01T08:07:13.795Z</time></trkpt><trkpt lat="41.8990388" lon="12.199251"><ele>-1.0</ele><time>2026-04-01T08:07:14.797Z</time></trkpt><trkpt lat="41.8992018" lon="12.1990879"><ele>-1.0</ele><time>2026-04-01T08:07:15.788Z</time></trkpt><trkpt lat="41.8993663" lon="12.1989234"><ele>-0.6666666666666666</ele><time>2026-04-01T08:07:16.794Z</time></trkpt><trkpt lat="41.8995286" lon="12.1987716"><ele>-0.3333333333333333</ele><time>2026-04-01T08:07:17.783Z</time></trkpt><trkpt lat="41.89969" lon="12.1986243"><ele>0.0</ele><time>2026-04-01T08:07:18.787Z</time></trkpt><trkpt lat="41.8998465" lon="12.1984765"><ele>0.0</ele><time>2026-04-01T08:07:19.788Z</time></trkpt><trkpt lat="41.899996" lon="12.1983225"><ele>0.0</ele><time>2026-04-01T08:07:20.786Z</time></trkpt><trkpt lat="41.9001504" lon="12.1981704"><ele>0.0</ele><time>2026-04-01T08:07:21.781Z</time></trkpt><trkpt lat="41.9003041" lon="12.1980047"><ele>1.0</ele><time>2026-04-01T08:07:22.791Z</time></trkpt><trkpt lat="41.9004632" lon="12.1978537"><ele>2.0</ele><time>2026-04-01T08:07:23.785Z</time></trkpt><trkpt lat="41.9006225" lon="12.1976981"><ele>3.0</ele><time>2026-04-01T08:07:24.784Z</time></trkpt><trkpt lat="41.9007852" lon="12.1975321"><ele>3.0</ele><time>2026-04-01T08:07:25.778Z</time></trkpt><trkpt lat="41.9009497" lon="12.1973677"><ele>3.0</ele><time>2026-04-01T08:07:26.788Z</time></trkpt><trkpt lat="41.9011199" lon="12.1971942"><ele>3.0</ele><time>2026-04-01T08:07:27.779Z</time></trkpt><trkpt lat="41.9012892" lon="12.197033"><ele>3.333333333333333</ele><time>2026-04-01T08:07:28.791Z</time></trkpt><trkpt lat="41.9014518" lon="12.1968821"><ele>3.6666666666666665</ele><time>2026-04-01T08:07:29.783Z</time></trkpt><trkpt lat="41.9015869" lon="12.1967402"><ele>4.0</ele><time>2026-04-01T08:07:30.792Z</time></trkpt><trkpt lat="41.9017093" lon="12.1966257"><ele>3.25</ele><time>2026-04-01T08:07:31.786Z</time></trkpt><trkpt lat="41.9018251" lon="12.1965073"><ele>2.5</ele><time>2026-04-01T08:07:32.79Z</time></trkpt><trkpt lat="41.9019414" lon="12.1963843"><ele>1.75</ele><time>2026-04-01T08:07:33.789Z</time></trkpt><trkpt lat="41.9020604" lon="12.1962633"><ele>1.0</ele><time>2026-04-01T08:07:34.789Z</time></trkpt><trkpt lat="41.9021854" lon="12.1961407"><ele>1.0</ele><time>2026-04-01T08:07:35.786Z</time></trkpt><trkpt lat="41.9023212" lon="12.1960098"><ele>1.0</ele><time>2026-04-01T08:07:36.792Z</time></trkpt><trkpt lat="41.9024598" lon="12.1958702"><ele>1.0</ele><time>2026-04-01T08:07:37.782Z</time></trkpt><trkpt lat="41.9026051" lon="12.1957204"><ele>1.6666666666666665</ele><time>2026-04-01T08:07:38.79Z</time></trkpt><trkpt lat="41.9027518" lon="12.1955666"><ele>2.3333333333333335</ele><time>2026-04-01T08:07:39.782Z</time></trkpt><trkpt lat="41.9029156" lon="12.1954158"><ele>3.0</ele><time>2026-04-01T08:07:40.791Z</time></trkpt><trkpt lat="41.903068" lon="12.1952614"><ele>3.0</ele><time>2026-04-01T08:07:41.783Z</time></trkpt><trkpt lat="41.9032319" lon="12.1951079"><ele>3.0</ele><time>2026-04-01T08:07:42.79Z</time></trkpt><trkpt lat="41.9033814" lon="12.194967"><ele>3.0</ele><time>2026-04-01T08:07:43.801Z</time></trkpt><trkpt lat="41.9035269" lon="12.1948229"><ele>3.666666666666667</ele><time>2026-04-01T08:07:44.788Z</time></trkpt><trkpt lat="41.90367" lon="12.1946723"><ele>4.333333333333334</ele><time>2026-04-01T08:07:45.786Z</time></trkpt><trkpt lat="41.9038154" lon="12.1945231"><ele>5.0</ele><time>2026-04-01T08:07:46.782Z</time></trkpt><trkpt lat="41.9039529" lon="12.1943891"><ele>5.0</ele><time>2026-04-01T08:07:47.777Z</time></trkpt><trkpt lat="41.9040796" lon="12.1942752"><ele>5.0</ele><time>2026-04-01T08:07:48.783Z</time></trkpt><trkpt lat="41.9042018" lon="12.1941641"><ele>5.0</ele><time>2026-04-01T08:07:49.785Z</time></trkpt><trkpt lat="41.9043087" lon="12.1940646"><ele>5.0</ele><time>2026-04-01T08:07:50.783Z</time></trkpt><trkpt lat="41.9044014" lon="12.1939734"><ele>5.0</ele><time>2026-04-01T08:07:51.776Z</time></trkpt><trkpt lat="41.9044928" lon="12.193891"><ele>5.0</ele><time>2026-04-01T08:07:52.789Z</time></trkpt><trkpt lat="41.9045764" lon="12.1938082"><ele>5.0</ele><time>2026-04-01T08:07:53.782Z</time></trkpt><trkpt lat="41.9046514" lon="12.1937237"><ele>5.0</ele><time>2026-04-01T08:07:54.789Z</time></trkpt><trkpt lat="41.9047265" lon="12.193638"><ele>5.0</ele><time>2026-04-01T08:07:55.782Z</time></trkpt><trkpt lat="41.9047986" lon="12.1935667"><ele>5.0</ele><time>2026-04-01T08:07:56.792Z</time></trkpt><trkpt lat="41.9048659" lon="12.1935153"><ele>5.0</ele><time>2026-04-01T08:07:57.776Z</time></trkpt><trkpt lat="41.9049226" lon="12.1934764"><ele>5.0</ele><time>2026-04-01T08:07:58.799Z</time></trkpt><trkpt lat="41.9049832" lon="12.1934499"><ele>5.0</ele><time>2026-04-01T08:08:00.793Z</time></trkpt><trkpt lat="41.9050678" lon="12.1933355"><ele>5.0</ele><time>2026-04-01T08:08:07.771Z</time></trkpt><trkpt lat="41.9051214" lon="12.1932685"><ele>5.0</ele><time>2026-04-01T08:08:08.768Z</time></trkpt><trkpt lat="41.9051995" lon="12.1931993"><ele>5.4</ele><time>2026-04-01T08:08:09.78Z</time></trkpt><trkpt lat="41.9052726" lon="12.1931292"><ele>5.8</ele><time>2026-04-01T08:08:10.778Z</time></trkpt><trkpt lat="41.9053555" lon="12.1930488"><ele>6.199999999999999</ele><time>2026-04-01T08:08:11.783Z</time></trkpt><trkpt lat="41.9054401" lon="12.1929623"><ele>6.6</ele><time>2026-04-01T08:08:12.779Z</time></trkpt><trkpt lat="41.9055208" lon="12.1928716"><ele>7.0</ele><time>2026-04-01T08:08:13.785Z</time></trkpt><trkpt lat="41.9056" lon="12.1927837"><ele>7.0</ele><time>2026-04-01T08:08:14.816Z</time></trkpt><trkpt lat="41.9056758" lon="12.1927049"><ele>6.999999999999999</ele><time>2026-04-01T08:08:15.784Z</time></trkpt><trkpt lat="41.9057529" lon="12.1926221"><ele>6.999999999999999</ele><time>2026-04-01T08:08:16.789Z</time></trkpt><trkpt lat="41.9058354" lon="12.1925426"><ele>7.0</ele><time>2026-04-01T08:08:17.785Z</time></trkpt><trkpt lat="41.9059228" lon="12.192463"><ele>7.0</ele><time>2026-04-01T08:08:18.784Z</time></trkpt><trkpt lat="41.9060121" lon="12.1923806"><ele>6.75</ele><time>2026-04-01T08:08:19.783Z</time></trkpt><trkpt lat="41.9060997" lon="12.1922974"><ele>6.5</ele><time>2026-04-01T08:08:20.789Z</time></trkpt><trkpt lat="41.9061961" lon="12.1922098"><ele>6.25</ele><time>2026-04-01T08:08:21.775Z</time></trkpt><trkpt lat="41.9062903" lon="12.1921193"><ele>6.0</ele><time>2026-04-01T08:08:22.788Z</time></trkpt><trkpt lat="41.9063965" lon="12.1920132"><ele>6.0</ele><time>2026-04-01T08:08:23.782Z</time></trkpt><trkpt lat="41.9065034" lon="12.1918989"><ele>6.0</ele><time>2026-04-01T08:08:24.79Z</time></trkpt><trkpt lat="41.9066097" lon="12.1917888"><ele>6.0</ele><time>2026-04-01T08:08:25.783Z</time></trkpt><trkpt lat="41.9067064" lon="12.1916839"><ele>6.0</ele><time>2026-04-01T08:08:26.791Z</time></trkpt><trkpt lat="41.9068115" lon="12.1915842"><ele>6.25</ele><time>2026-04-01T08:08:27.772Z</time></trkpt><trkpt lat="41.9069118" lon="12.1914811"><ele>6.5</ele><time>2026-04-01T08:08:28.773Z</time></trkpt><trkpt lat="41.9070163" lon="12.1913798"><ele>6.75</ele><time>2026-04-01T08:08:29.774Z</time></trkpt><trkpt lat="41.9071202" lon="12.1912758"><ele>7.0</ele><time>2026-04-01T08:08:30.78Z</time></trkpt><trkpt lat="41.9072227" lon="12.1911683"><ele>7.0</ele><time>2026-04-01T08:08:31.781Z</time></trkpt><trkpt lat="41.9073286" lon="12.1910677"><ele>7.0</ele><time>2026-04-01T08:08:32.777Z</time></trkpt><trkpt lat="41.9074272" lon="12.1909654"><ele>7.0</ele><time>2026-04-01T08:08:33.78Z</time></trkpt><trkpt lat="41.907519" lon="12.1908641"><ele>7.0</ele><time>2026-04-01T08:08:34.77Z</time></trkpt><trkpt lat="41.9076197" lon="12.1907638"><ele>6.8</ele><time>2026-04-01T08:08:35.773Z</time></trkpt><trkpt lat="41.9077173" lon="12.1906853"><ele>6.6</ele><time>2026-04-01T08:08:36.775Z</time></trkpt><trkpt lat="41.9078071" lon="12.1906106"><ele>6.3999999999999995</ele><time>2026-04-01T08:08:37.779Z</time></trkpt><trkpt lat="41.9078786" lon="12.190557"><ele>6.199999999999999</ele><time>2026-04-01T08:08:38.778Z</time></trkpt><trkpt lat="41.9079841" lon="12.1904605"><ele>6.0</ele><time>2026-04-01T08:08:40.77Z</time></trkpt><trkpt lat="41.908043" lon="12.1904093"><ele>6.0</ele><time>2026-04-01T08:08:41.766Z</time></trkpt><trkpt lat="41.9081012" lon="12.1903528"><ele>6.0</ele><time>2026-04-01T08:08:42.77Z</time></trkpt><trkpt lat="41.908159" lon="12.190299"><ele>6.0</ele><time>2026-04-01T08:08:43.764Z</time></trkpt><trkpt lat="41.9082192" lon="12.1902384"><ele>6.0</ele><time>2026-04-01T08:08:44.782Z</time></trkpt><trkpt lat="41.9082793" lon="12.1901738"><ele>6.0</ele><time>2026-04-01T08:08:45.759Z</time></trkpt><trkpt lat="41.9083517" lon="12.1900968"><ele>6.0</ele><time>2026-04-01T08:08:46.764Z</time></trkpt><trkpt lat="41.9084343" lon="12.1900112"><ele>5.8</ele><time>2026-04-01T08:08:47.77Z</time></trkpt><trkpt lat="41.9085199" lon="12.189927"><ele>5.6</ele><time>2026-04-01T08:08:48.77Z</time></trkpt><trkpt lat="41.9086077" lon="12.1898371"><ele>5.4</ele><time>2026-04-01T08:08:49.775Z</time></trkpt><trkpt lat="41.9086963" lon="12.1897442"><ele>5.2</ele><time>2026-04-01T08:08:50.773Z</time></trkpt><trkpt lat="41.9087905" lon="12.1896576"><ele>5.0</ele><time>2026-04-01T08:08:51.767Z</time></trkpt><trkpt lat="41.9088639" lon="12.1895868"><ele>5.0</ele><time>2026-04-01T08:08:52.772Z</time></trkpt><trkpt lat="41.9089326" lon="12.1895307"><ele>5.0</ele><time>2026-04-01T08:08:53.776Z</time></trkpt><trkpt lat="41.9090017" lon="12.1894964"><ele>5.0</ele><time>2026-04-01T08:08:54.777Z</time></trkpt><trkpt lat="41.9090581" lon="12.1894288"><ele>5.0</ele><time>2026-04-01T08:08:59.778Z</time></trkpt><trkpt lat="41.9089765" lon="12.1894529"><ele>5.0</ele><time>2026-04-01T08:09:08.781Z</time></trkpt><trkpt lat="41.9088896" lon="12.1895523"><ele>5.0</ele><time>2026-04-01T08:09:10.774Z</time></trkpt><trkpt lat="41.908838" lon="12.1896295"><ele>5.0</ele><time>2026-04-01T08:09:12.782Z</time></trkpt><trkpt lat="41.9088535" lon="12.1897418"><ele>5.0</ele><time>2026-04-01T08:09:15.794Z</time></trkpt><trkpt lat="41.9089428" lon="12.1898725"><ele>5.0</ele><time>2026-04-01T08:09:17.775Z</time></trkpt><trkpt lat="41.9091048" lon="12.1900754"><ele>5.0</ele><time>2026-04-01T08:09:19.773Z</time></trkpt><trkpt lat="41.909193" lon="12.1901899"><ele>4.75</ele><time>2026-04-01T08:09:20.779Z</time></trkpt><trkpt lat="41.9092687" lon="12.1903044"><ele>4.5</ele><time>2026-04-01T08:09:21.781Z</time></trkpt><trkpt lat="41.909342" lon="12.190423"><ele>4.25</ele><time>2026-04-01T08:09:22.789Z</time></trkpt><trkpt lat="41.9094213" lon="12.1905504"><ele>4.0</ele><time>2026-04-01T08:09:23.782Z</time></trkpt><trkpt lat="41.9094956" lon="12.190664"><ele>4.166666666666666</ele><time>2026-04-01T08:09:24.78Z</time></trkpt><trkpt lat="41.9095561" lon="12.1907699"><ele>4.333333333333333</ele><time>2026-04-01T08:09:25.765Z</time></trkpt><trkpt lat="41.9096144" lon="12.1908667"><ele>4.5</ele><time>2026-04-01T08:09:26.778Z</time></trkpt><trkpt lat="41.9096678" lon="12.1909607"><ele>4.666666666666667</ele><time>2026-04-01T08:09:27.775Z</time></trkpt><trkpt lat="41.9097067" lon="12.1910462"><ele>4.833333333333334</ele><time>2026-04-01T08:09:28.779Z</time></trkpt><trkpt lat="41.9097307" lon="12.191137"><ele>5.0</ele><time>2026-04-01T08:09:29.772Z</time></trkpt><trkpt lat="41.9097564" lon="12.1912219"><ele>5.0</ele><time>2026-04-01T08:09:30.772Z</time></trkpt><trkpt lat="41.9097861" lon="12.1913267"><ele>5.0</ele><time>2026-04-01T08:09:31.772Z</time></trkpt><trkpt lat="41.9098201" lon="12.1914434"><ele>5.0</ele><time>2026-04-01T08:09:32.778Z</time></trkpt><trkpt lat="41.9098594" lon="12.191568"><ele>5.0</ele><time>2026-04-01T08:09:33.773Z</time></trkpt><trkpt lat="41.9099084" lon="12.1917005"><ele>5.0</ele><time>2026-04-01T08:09:34.782Z</time></trkpt><trkpt lat="41.9099525" lon="12.1918308"><ele>5.4</ele><time>2026-04-01T08:09:35.785Z</time></trkpt><trkpt lat="41.9099813" lon="12.1919634"><ele>5.8</ele><time>2026-04-01T08:09:36.785Z</time></trkpt><trkpt lat="41.910011" lon="12.1920748"><ele>6.199999999999999</ele><time>2026-04-01T08:09:37.779Z</time></trkpt><trkpt lat="41.9100413" lon="12.1921837"><ele>6.6</ele><time>2026-04-01T08:09:38.782Z</time></trkpt><trkpt lat="41.9100746" lon="12.1922883"><ele>7.0</ele><time>2026-04-01T08:09:39.77Z</time></trkpt><trkpt lat="41.9101144" lon="12.1924124"><ele>7.3999999999999995</ele><time>2026-04-01T08:09:40.778Z</time></trkpt><trkpt lat="41.9101495" lon="12.1925368"><ele>7.799999999999999</ele><time>2026-04-01T08:09:41.776Z</time></trkpt><trkpt lat="41.9101856" lon="12.1926648"><ele>8.2</ele><time>2026-04-01T08:09:42.773Z</time></trkpt><trkpt lat="41.9102265" lon="12.192799"><ele>8.6</ele><time>2026-04-01T08:09:43.781Z</time></trkpt><trkpt lat="41.9102688" lon="12.1929326"><ele>9.0</ele><time>2026-04-01T08:09:44.785Z</time></trkpt><trkpt lat="41.910313" lon="12.1930715"><ele>8.8</ele><time>2026-04-01T08:09:45.794Z</time></trkpt><trkpt lat="41.9103629" lon="12.1932156"><ele>8.600000000000001</ele><time>2026-04-01T08:09:46.794Z</time></trkpt><trkpt lat="41.9104036" lon="12.1933415"><ele>8.4</ele><time>2026-04-01T08:09:47.777Z</time></trkpt><trkpt lat="41.9104483" lon="12.1934707"><ele>8.200000000000001</ele><time>2026-04-01T08:09:48.786Z</time></trkpt><trkpt lat="41.9104879" lon="12.1936056"><ele>8.0</ele><time>2026-04-01T08:09:49.783Z</time></trkpt><trkpt lat="41.9105285" lon="12.1937352"><ele>8.0</ele><time>2026-04-01T08:09:50.779Z</time></trkpt><trkpt lat="41.9105703" lon="12.1938687"><ele>8.0</ele><time>2026-04-01T08:09:51.787Z</time></trkpt><trkpt lat="41.9106092" lon="12.1939943"><ele>8.0</ele><time>2026-04-01T08:09:52.79Z</time></trkpt><trkpt lat="41.9106451" lon="12.1941161"><ele>8.0</ele><time>2026-04-01T08:09:53.782Z</time></trkpt><trkpt lat="41.9106773" lon="12.1942173"><ele>8.0</ele><time>2026-04-01T08:09:54.785Z</time></trkpt><trkpt lat="41.9107079" lon="12.1943112"><ele>8.0</ele><time>2026-04-01T08:09:55.791Z</time></trkpt><trkpt lat="41.9107336" lon="12.1944091"><ele>8.0</ele><time>2026-04-01T08:09:56.782Z</time></trkpt><trkpt lat="41.9107716" lon="12.194518"><ele>8.0</ele><time>2026-04-01T08:09:57.782Z</time></trkpt><trkpt lat="41.9108062" lon="12.1946365"><ele>8.0</ele><time>2026-04-01T08:09:58.779Z</time></trkpt><trkpt lat="41.9108481" lon="12.1947653"><ele>8.0</ele><time>2026-04-01T08:09:59.787Z</time></trkpt><trkpt lat="41.9108839" lon="12.1948974"><ele>7.833333333333333</ele><time>2026-04-01T08:10:00.784Z</time></trkpt><trkpt lat="41.9109146" lon="12.1950165"><ele>7.666666666666666</ele><time>2026-04-01T08:10:01.777Z</time></trkpt><trkpt lat="41.9109384" lon="12.1951197"><ele>7.5</ele><time>2026-04-01T08:10:02.771Z</time></trkpt><trkpt lat="41.9109484" lon="12.1952215"><ele>7.333333333333334</ele><time>2026-04-01T08:10:03.781Z</time></trkpt><trkpt lat="41.9109461" lon="12.1953144"><ele>7.166666666666667</ele><time>2026-04-01T08:10:04.781Z</time></trkpt><trkpt lat="41.9109317" lon="12.1953981"><ele>7.0</ele><time>2026-04-01T08:10:05.776Z</time></trkpt><trkpt lat="41.9109123" lon="12.1954879"><ele>7.0</ele><time>2026-04-01T08:10:06.769Z</time></trkpt><trkpt lat="41.9108952" lon="12.1955901"><ele>6.999999999999999</ele><time>2026-04-01T08:10:07.771Z</time></trkpt><trkpt lat="41.9108647" lon="12.1957152"><ele>6.999999999999999</ele><time>2026-04-01T08:10:08.779Z</time></trkpt><trkpt lat="41.9108281" lon="12.1958555"><ele>7.0</ele><time>2026-04-01T08:10:09.792Z</time></trkpt><trkpt lat="41.9107988" lon="12.1960079"><ele>7.0</ele><time>2026-04-01T08:10:10.785Z</time></trkpt><trkpt lat="41.9107716" lon="12.1961479"><ele>7.000000000000001</ele><time>2026-04-01T08:10:11.792Z</time></trkpt><trkpt lat="41.9107504" lon="12.1962746"><ele>7.0</ele><time>2026-04-01T08:10:12.778Z</time></trkpt><trkpt lat="41.910725" lon="12.1963961"><ele>7.0</ele><time>2026-04-01T08:10:13.773Z</time></trkpt><trkpt lat="41.9107036" lon="12.1965064"><ele>7.0</ele><time>2026-04-01T08:10:14.776Z</time></trkpt><trkpt lat="41.9106911" lon="12.1966026"><ele>7.000000000000001</ele><time>2026-04-01T08:10:15.773Z</time></trkpt><trkpt lat="41.9106842" lon="12.196688"><ele>7.0</ele><time>2026-04-01T08:10:16.775Z</time></trkpt><trkpt lat="41.9107059" lon="12.1968335"><ele>7.166666666666667</ele><time>2026-04-01T08:10:18.779Z</time></trkpt><trkpt lat="41.9107569" lon="12.1969577"><ele>7.333333333333334</ele><time>2026-04-01T08:10:20.78Z</time></trkpt><trkpt lat="41.910803" lon="12.197024"><ele>7.5</ele><time>2026-04-01T08:10:21.78Z</time></trkpt><trkpt lat="41.9108688" lon="12.1971026"><ele>7.666666666666666</ele><time>2026-04-01T08:10:22.776Z</time></trkpt><trkpt lat="41.9109401" lon="12.1971814"><ele>7.833333333333333</ele><time>2026-04-01T08:10:23.779Z</time></trkpt><trkpt lat="41.9110071" lon="12.1972597"><ele>8.0</ele><time>2026-04-01T08:10:24.775Z</time></trkpt><trkpt lat="41.9110826" lon="12.197333"><ele>7.6000000000000005</ele><time>2026-04-01T08:10:25.78Z</time></trkpt><trkpt lat="41.9111496" lon="12.1974096"><ele>7.200000000000001</ele><time>2026-04-01T08:10:26.78Z</time></trkpt><trkpt lat="41.9112201" lon="12.1974936"><ele>6.8</ele><time>2026-04-01T08:10:27.772Z</time></trkpt><trkpt lat="41.9113024" lon="12.1975786"><ele>6.4</ele><time>2026-04-01T08:10:28.771Z</time></trkpt><trkpt lat="41.911391" lon="12.1976759"><ele>6.0</ele><time>2026-04-01T08:10:29.771Z</time></trkpt><trkpt lat="41.9114712" lon="12.1977558"><ele>6.0</ele><time>2026-04-01T08:10:30.776Z</time></trkpt><trkpt lat="41.9115414" lon="12.1978273"><ele>6.0</ele><time>2026-04-01T08:10:31.784Z</time></trkpt><trkpt lat="41.9115994" lon="12.1979033"><ele>6.0</ele><time>2026-04-01T08:10:32.779Z</time></trkpt><trkpt lat="41.9116786" lon="12.1980054"><ele>6.0</ele><time>2026-04-01T08:10:34.778Z</time></trkpt><trkpt lat="41.9117599" lon="12.1981131"><ele>6.0</ele><time>2026-04-01T08:10:36.792Z</time></trkpt><trkpt lat="41.9118282" lon="12.1982554"><ele>6.333333333333333</ele><time>2026-04-01T08:10:38.765Z</time></trkpt><trkpt lat="41.9118578" lon="12.1983478"><ele>6.666666666666666</ele><time>2026-04-01T08:10:39.77Z</time></trkpt><trkpt lat="41.9118814" lon="12.1984506"><ele>7.0</ele><time>2026-04-01T08:10:40.759Z</time></trkpt><trkpt lat="41.9119046" lon="12.1985588"><ele>7.333333333333333</ele><time>2026-04-01T08:10:41.772Z</time></trkpt><trkpt lat="41.9119193" lon="12.1986634"><ele>7.666666666666666</ele><time>2026-04-01T08:10:42.776Z</time></trkpt><trkpt lat="41.9119325" lon="12.1987754"><ele>8.0</ele><time>2026-04-01T08:10:43.771Z</time></trkpt><trkpt lat="41.9119552" lon="12.1989036"><ele>7.6000000000000005</ele><time>2026-04-01T08:10:44.782Z</time></trkpt><trkpt lat="41.9119727" lon="12.199056"><ele>7.200000000000001</ele><time>2026-04-01T08:10:45.779Z</time></trkpt><trkpt lat="41.9119901" lon="12.1991964"><ele>6.8</ele><time>2026-04-01T08:10:46.793Z</time></trkpt><trkpt lat="41.9120062" lon="12.1993158"><ele>6.4</ele><time>2026-04-01T08:10:47.786Z</time></trkpt><trkpt lat="41.912021" lon="12.1994264"><ele>6.0</ele><time>2026-04-01T08:10:48.786Z</time></trkpt><trkpt lat="41.9120507" lon="12.1995204"><ele>6.0</ele><time>2026-04-01T08:10:49.779Z</time></trkpt><trkpt lat="41.9120877" lon="12.199615"><ele>6.0</ele><time>2026-04-01T08:10:50.774Z</time></trkpt><trkpt lat="41.9121225" lon="12.1997166"><ele>6.0</ele><time>2026-04-01T08:10:51.775Z</time></trkpt><trkpt lat="41.9121558" lon="12.1997949"><ele>6.0</ele><time>2026-04-01T08:10:52.771Z</time></trkpt><trkpt lat="41.9122334" lon="12.1999146"><ele>6.0</ele><time>2026-04-01T08:10:54.773Z</time></trkpt><trkpt lat="41.9123526" lon="12.2000031"><ele>6.333333333333333</ele><time>2026-04-01T08:10:56.779Z</time></trkpt><trkpt lat="41.9124324" lon="12.2000563"><ele>6.666666666666666</ele><time>2026-04-01T08:10:57.765Z</time></trkpt><trkpt lat="41.912493" lon="12.2001243"><ele>7.0</ele><time>2026-04-01T08:10:58.781Z</time></trkpt><trkpt lat="41.9125507" lon="12.2001904"><ele>7.333333333333333</ele><time>2026-04-01T08:10:59.782Z</time></trkpt><trkpt lat="41.9126014" lon="12.2002559"><ele>7.666666666666666</ele><time>2026-04-01T08:11:00.783Z</time></trkpt><trkpt lat="41.9126513" lon="12.2003179"><ele>8.0</ele><time>2026-04-01T08:11:01.783Z</time></trkpt><trkpt lat="41.9127116" lon="12.2003916"><ele>8.0</ele><time>2026-04-01T08:11:02.777Z</time></trkpt><trkpt lat="41.9127718" lon="12.2004643"><ele>7.999999999999999</ele><time>2026-04-01T08:11:03.776Z</time></trkpt><trkpt lat="41.9128287" lon="12.20054"><ele>8.0</ele><time>2026-04-01T08:11:04.78Z</time></trkpt><trkpt lat="41.9128844" lon="12.2006097"><ele>8.0</ele><time>2026-04-01T08:11:05.782Z</time></trkpt><trkpt lat="41.9129314" lon="12.2006823"><ele>7.999999999999999</ele><time>2026-04-01T08:11:06.781Z</time></trkpt><trkpt lat="41.912975" lon="12.2007539"><ele>8.0</ele><time>2026-04-01T08:11:07.783Z</time></trkpt><trkpt lat="41.9130201" lon="12.2008215"><ele>8.0</ele><time>2026-04-01T08:11:08.779Z</time></trkpt><trkpt lat="41.9130662" lon="12.2008884"><ele>8.166666666666666</ele><time>2026-04-01T08:11:09.782Z</time></trkpt><trkpt lat="41.9131268" lon="12.2009507"><ele>8.333333333333332</ele><time>2026-04-01T08:11:10.779Z</time></trkpt><trkpt lat="41.9131948" lon="12.2010248"><ele>8.5</ele><time>2026-04-01T08:11:11.776Z</time></trkpt><trkpt lat="41.9132684" lon="12.2010981"><ele>8.666666666666666</ele><time>2026-04-01T08:11:12.782Z</time></trkpt><trkpt lat="41.9133416" lon="12.2011639"><ele>8.833333333333334</ele><time>2026-04-01T08:11:13.784Z</time></trkpt><trkpt lat="41.9134017" lon="12.2012148"><ele>9.0</ele><time>2026-04-01T08:11:14.779Z</time></trkpt><trkpt lat="41.9134879" lon="12.2013031"><ele>9.8</ele><time>2026-04-01T08:11:16.774Z</time></trkpt><trkpt lat="41.9135425" lon="12.2013754"><ele>10.600000000000001</ele><time>2026-04-01T08:11:19.795Z</time></trkpt><trkpt lat="41.9136219" lon="12.2013165"><ele>11.4</ele><time>2026-04-01T08:11:24.767Z</time></trkpt><trkpt lat="41.9136978" lon="12.2011822"><ele>12.200000000000001</ele><time>2026-04-01T08:11:26.782Z</time></trkpt><trkpt lat="41.9137505" lon="12.2010948"><ele>13.0</ele><time>2026-04-01T08:11:27.779Z</time></trkpt><trkpt lat="41.9138078" lon="12.2010073"><ele>13.0</ele><time>2026-04-01T08:11:28.781Z</time></trkpt><trkpt lat="41.9138734" lon="12.2009202"><ele>13.0</ele><time>2026-04-01T08:11:29.776Z</time></trkpt><trkpt lat="41.9139432" lon="12.200841"><ele>13.0</ele><time>2026-04-01T08:11:30.776Z</time></trkpt><trkpt lat="41.9140071" lon="12.2007586"><ele>13.0</ele><time>2026-04-01T08:11:31.772Z</time></trkpt><trkpt lat="41.9140805" lon="12.2006743"><ele>13.0</ele><time>2026-04-01T08:11:32.782Z</time></trkpt><trkpt lat="41.9141527" lon="12.2005814"><ele>13.0</ele><time>2026-04-01T08:11:33.775Z</time></trkpt><trkpt lat="41.9142236" lon="12.2004865"><ele>13.0</ele><time>2026-04-01T08:11:34.777Z</time></trkpt><trkpt lat="41.914299" lon="12.2003883"><ele>13.0</ele><time>2026-04-01T08:11:35.779Z</time></trkpt><trkpt lat="41.9143779" lon="12.2002825"><ele>13.0</ele><time>2026-04-01T08:11:36.777Z</time></trkpt><trkpt lat="41.9144546" lon="12.2001713"><ele>13.0</ele><time>2026-04-01T08:11:37.776Z</time></trkpt><trkpt lat="41.914534" lon="12.2000608"><ele>13.0</ele><time>2026-04-01T08:11:38.778Z</time></trkpt><trkpt lat="41.9146141" lon="12.1999453"><ele>13.0</ele><time>2026-04-01T08:11:39.772Z</time></trkpt><trkpt lat="41.9146953" lon="12.1998302"><ele>13.0</ele><time>2026-04-01T08:11:40.776Z</time></trkpt><trkpt lat="41.9147788" lon="12.1997088"><ele>13.0</ele><time>2026-04-01T08:11:41.776Z</time></trkpt><trkpt lat="41.9148639" lon="12.1995912"><ele>13.25</ele><time>2026-04-01T08:11:42.778Z</time></trkpt><trkpt lat="41.9149522" lon="12.1994677"><ele>13.5</ele><time>2026-04-01T08:11:43.781Z</time></trkpt><trkpt lat="41.9150412" lon="12.199338"><ele>13.75</ele><time>2026-04-01T08:11:44.778Z</time></trkpt><trkpt lat="41.9151332" lon="12.1992065"><ele>14.0</ele><time>2026-04-01T08:11:45.774Z</time></trkpt><trkpt lat="41.9152199" lon="12.1990735"><ele>14.0</ele><time>2026-04-01T08:11:46.773Z</time></trkpt><trkpt lat="41.9153081" lon="12.1989507"><ele>14.0</ele><time>2026-04-01T08:11:47.778Z</time></trkpt><trkpt lat="41.9153931" lon="12.1988216"><ele>14.0</ele><time>2026-04-01T08:11:48.765Z</time></trkpt><trkpt lat="41.9154811" lon="12.1986842"><ele>14.0</ele><time>2026-04-01T08:11:49.766Z</time></trkpt><trkpt lat="41.915568" lon="12.1985396"><ele>14.0</ele><time>2026-04-01T08:11:50.786Z</time></trkpt><trkpt lat="41.9156605" lon="12.1983967"><ele>14.0</ele><time>2026-04-01T08:11:51.772Z</time></trkpt><trkpt lat="41.9157531" lon="12.1982509"><ele>14.0</ele><time>2026-04-01T08:11:52.776Z</time></trkpt><trkpt lat="41.9158565" lon="12.1980858"><ele>14.0</ele><time>2026-04-01T08:11:53.77Z</time></trkpt><trkpt lat="41.9159425" lon="12.1979218"><ele>14.0</ele><time>2026-04-01T08:11:54.778Z</time></trkpt><trkpt lat="41.9160318" lon="12.1977542"><ele>14.0</ele><time>2026-04-01T08:11:55.783Z</time></trkpt><trkpt lat="41.916123" lon="12.1976014"><ele>14.0</ele><time>2026-04-01T08:11:56.784Z</time></trkpt><trkpt lat="41.9162135" lon="12.1974426"><ele>14.0</ele><time>2026-04-01T08:11:57.782Z</time></trkpt><trkpt lat="41.9162949" lon="12.1972929"><ele>14.25</ele><time>2026-04-01T08:11:58.771Z</time></trkpt><trkpt lat="41.9163668" lon="12.1971365"><ele>14.5</ele><time>2026-04-01T08:11:59.775Z</time></trkpt><trkpt lat="41.916429" lon="12.1970088"><ele>14.75</ele><time>2026-04-01T08:12:00.774Z</time></trkpt><trkpt lat="41.9164975" lon="12.1968854"><ele>15.0</ele><time>2026-04-01T08:12:01.781Z</time></trkpt><trkpt lat="41.9165598" lon="12.1967805"><ele>15.0</ele><time>2026-04-01T08:12:02.773Z</time></trkpt><trkpt lat="41.9166441" lon="12.1967179"><ele>15.0</ele><time>2026-04-01T08:12:03.78Z</time></trkpt><trkpt lat="41.9167358" lon="12.1966826"><ele>15.0</ele><time>2026-04-01T08:12:04.781Z</time></trkpt><trkpt lat="41.9168158" lon="12.1966848"><ele>15.0</ele><time>2026-04-01T08:12:05.778Z</time></trkpt><trkpt lat="41.9168899" lon="12.1967213"><ele>15.0</ele><time>2026-04-01T08:12:07.782Z</time></trkpt><trkpt lat="41.9169355" lon="12.1967822"><ele>15.0</ele><time>2026-04-01T08:12:10.774Z</time></trkpt><trkpt lat="41.9170007" lon="12.1967852"><ele>14.8</ele><time>2026-04-01T08:12:33.773Z</time></trkpt><trkpt lat="41.9170675" lon="12.1968249"><ele>14.6</ele><time>2026-04-01T08:12:34.765Z</time></trkpt><trkpt lat="41.9171281" lon="12.196922"><ele>14.399999999999999</ele><time>2026-04-01T08:12:35.766Z</time></trkpt><trkpt lat="41.9172104" lon="12.1970443"><ele>14.2</ele><time>2026-04-01T08:12:36.766Z</time></trkpt><trkpt lat="41.917309" lon="12.1971865"><ele>14.0</ele><time>2026-04-01T08:12:37.756Z</time></trkpt><trkpt lat="41.9173995" lon="12.1973233"><ele>14.2</ele><time>2026-04-01T08:12:38.752Z</time></trkpt><trkpt lat="41.9174738" lon="12.197417"><ele>14.399999999999999</ele><time>2026-04-01T08:12:39.777Z</time></trkpt><trkpt lat="41.9175501" lon="12.1974906"><ele>14.6</ele><time>2026-04-01T08:12:40.768Z</time></trkpt><trkpt lat="41.9176109" lon="12.1975589"><ele>14.8</ele><time>2026-04-01T08:12:41.768Z</time></trkpt><trkpt lat="41.9176633" lon="12.1976063"><ele>15.0</ele><time>2026-04-01T08:12:42.776Z</time></trkpt><trkpt lat="41.9177082" lon="12.1977589"><ele>15.166666666666666</ele><time>2026-04-01T08:12:53.782Z</time></trkpt><trkpt lat="41.9177402" lon="12.1978623"><ele>15.333333333333332</ele><time>2026-04-01T08:12:54.77Z</time></trkpt><trkpt lat="41.9177823" lon="12.1979539"><ele>15.5</ele><time>2026-04-01T08:12:55.775Z</time></trkpt><trkpt lat="41.9178516" lon="12.1980373"><ele>15.666666666666666</ele><time>2026-04-01T08:12:56.787Z</time></trkpt><trkpt lat="41.9179257" lon="12.1981188"><ele>15.833333333333332</ele><time>2026-04-01T08:12:57.784Z</time></trkpt><trkpt lat="41.9179817" lon="12.1982103"><ele>16.0</ele><time>2026-04-01T08:12:58.784Z</time></trkpt><trkpt lat="41.9180431" lon="12.1983198"><ele>16.833333333333332</ele><time>2026-04-01T08:12:59.769Z</time></trkpt><trkpt lat="41.9180879" lon="12.198434"><ele>17.666666666666664</ele><time>2026-04-01T08:13:00.775Z</time></trkpt><trkpt lat="41.9181351" lon="12.1985371"><ele>18.5</ele><time>2026-04-01T08:13:01.769Z</time></trkpt><trkpt lat="41.9181766" lon="12.1986248"><ele>19.333333333333332</ele><time>2026-04-01T08:13:02.777Z</time></trkpt><trkpt lat="41.9182154" lon="12.1986927"><ele>20.166666666666668</ele><time>2026-04-01T08:13:03.776Z</time></trkpt><trkpt lat="41.9182809" lon="12.1988253"><ele>21.0</ele><time>2026-04-01T08:13:05.772Z</time></trkpt><trkpt lat="41.91833" lon="12.1989348"><ele>21.166666666666668</ele><time>2026-04-01T08:13:07.775Z</time></trkpt><trkpt lat="41.9183616" lon="12.1990268"><ele>21.333333333333332</ele><time>2026-04-01T08:13:09.78Z</time></trkpt><trkpt lat="41.9184128" lon="12.1991448"><ele>21.5</ele><time>2026-04-01T08:13:27.778Z</time></trkpt><trkpt lat="41.9184558" lon="12.1992327"><ele>21.666666666666664</ele><time>2026-04-01T08:13:28.784Z</time></trkpt><trkpt lat="41.9185019" lon="12.1993279"><ele>21.833333333333332</ele><time>2026-04-01T08:13:29.778Z</time></trkpt><trkpt lat="41.9185476" lon="12.1994284"><ele>22.0</ele><time>2026-04-01T08:13:30.78Z</time></trkpt><trkpt lat="41.9185978" lon="12.1995376"><ele>22.0</ele><time>2026-04-01T08:13:31.779Z</time></trkpt><trkpt lat="41.9186493" lon="12.1996525"><ele>22.0</ele><time>2026-04-01T08:13:32.776Z</time></trkpt><trkpt lat="41.9187036" lon="12.1997657"><ele>22.0</ele><time>2026-04-01T08:13:33.775Z</time></trkpt><trkpt lat="41.9187597" lon="12.199878"><ele>22.0</ele><time>2026-04-01T08:13:34.774Z</time></trkpt><trkpt lat="41.9188158" lon="12.1999917"><ele>22.0</ele><time>2026-04-01T08:13:35.771Z</time></trkpt><trkpt lat="41.9188678" lon="12.2001125"><ele>22.0</ele><time>2026-04-01T08:13:36.77Z</time></trkpt><trkpt lat="41.9189258" lon="12.2002383"><ele>22.0</ele><time>2026-04-01T08:13:37.769Z</time></trkpt><trkpt lat="41.9189878" lon="12.2003652"><ele>22.0</ele><time>2026-04-01T08:13:38.765Z</time></trkpt><trkpt lat="41.9190499" lon="12.200497"><ele>22.0</ele><time>2026-04-01T08:13:39.763Z</time></trkpt><trkpt lat="41.9191142" lon="12.2006354"><ele>21.400000000000002</ele><time>2026-04-01T08:13:40.756Z</time></trkpt><trkpt lat="41.9191782" lon="12.2007798"><ele>20.8</ele><time>2026-04-01T08:13:41.759Z</time></trkpt><trkpt lat="41.9192354" lon="12.2009116"><ele>20.2</ele><time>2026-04-01T08:13:42.756Z</time></trkpt><trkpt lat="41.9193021" lon="12.2010247"><ele>19.6</ele><time>2026-04-01T08:13:43.765Z</time></trkpt><trkpt lat="41.9193652" lon="12.2011298"><ele>19.0</ele><time>2026-04-01T08:13:44.763Z</time></trkpt><trkpt lat="41.9194277" lon="12.2012359"><ele>19.0</ele><time>2026-04-01T08:13:45.764Z</time></trkpt><trkpt lat="41.9194829" lon="12.2013603"><ele>19.0</ele><time>2026-04-01T08:13:46.765Z</time></trkpt><trkpt lat="41.9195338" lon="12.20148"><ele>19.0</ele><time>2026-04-01T08:13:47.766Z</time></trkpt><trkpt lat="41.919598" lon="12.2015933"><ele>19.0</ele><time>2026-04-01T08:13:48.773Z</time></trkpt><trkpt lat="41.9196612" lon="12.2017104"><ele>19.0</ele><time>2026-04-01T08:13:49.776Z</time></trkpt><trkpt lat="41.9197234" lon="12.2018241"><ele>18.8</ele><time>2026-04-01T08:13:50.775Z</time></trkpt><trkpt lat="41.9197876" lon="12.2019395"><ele>18.599999999999998</ele><time>2026-04-01T08:13:51.769Z</time></trkpt><trkpt lat="41.9198456" lon="12.2020454"><ele>18.4</ele><time>2026-04-01T08:13:52.778Z</time></trkpt><trkpt lat="41.9199009" lon="12.2021433"><ele>18.2</ele><time>2026-04-01T08:13:53.789Z</time></trkpt><trkpt lat="41.9199512" lon="12.2022304"><ele>18.0</ele><time>2026-04-01T08:13:54.768Z</time></trkpt><trkpt lat="41.9200023" lon="12.2023043"><ele>19.6</ele><time>2026-04-01T08:13:55.763Z</time></trkpt><trkpt lat="41.9200671" lon="12.2023861"><ele>21.200000000000003</ele><time>2026-04-01T08:13:57.762Z</time></trkpt><trkpt lat="41.9201162" lon="12.2024993"><ele>22.8</ele><time>2026-04-01T08:14:00.772Z</time></trkpt><trkpt lat="41.9201863" lon="12.2026687"><ele>24.400000000000002</ele><time>2026-04-01T08:14:02.767Z</time></trkpt><trkpt lat="41.920233" lon="12.2027599"><ele>26.0</ele><time>2026-04-01T08:14:03.756Z</time></trkpt><trkpt lat="41.9202763" lon="12.2028564"><ele>25.999999999999996</ele><time>2026-04-01T08:14:04.744Z</time></trkpt><trkpt lat="41.9203222" lon="12.202948"><ele>26.0</ele><time>2026-04-01T08:14:05.737Z</time></trkpt><trkpt lat="41.9203691" lon="12.2030419"><ele>26.0</ele><time>2026-04-01T08:14:06.717Z</time></trkpt><trkpt lat="41.9204135" lon="12.2031429"><ele>26.0</ele><time>2026-04-01T08:14:07.726Z</time></trkpt><trkpt lat="41.9204534" lon="12.2032468"><ele>25.999999999999996</ele><time>2026-04-01T08:14:08.738Z</time></trkpt><trkpt lat="41.9204991" lon="12.2033287"><ele>26.0</ele><time>2026-04-01T08:14:10.756Z</time></trkpt><trkpt lat="41.9205653" lon="12.2033196"><ele>26.0</ele><time>2026-04-01T08:14:12.773Z</time></trkpt><trkpt lat="41.9206348" lon="12.2032674"><ele>26.0</ele><time>2026-04-01T08:14:15.778Z</time></trkpt><trkpt lat="41.9206619" lon="12.20319"><ele>26.0</ele><time>2026-04-01T08:14:34.78Z</time></trkpt><trkpt lat="41.920748" lon="12.2031606"><ele>26.0</ele><time>2026-04-01T08:14:49.771Z</time></trkpt><trkpt lat="41.9208467" lon="12.2030867"><ele>26.0</ele><time>2026-04-01T08:14:51.777Z</time></trkpt><trkpt lat="41.9209462" lon="12.2029965"><ele>26.0</ele><time>2026-04-01T08:14:53.765Z</time></trkpt><trkpt lat="41.9210295" lon="12.2029357"><ele>26.0</ele><time>2026-04-01T08:14:55.784Z</time></trkpt><trkpt lat="41.9211251" lon="12.2028747"><ele>26.0</ele><time>2026-04-01T08:14:57.768Z</time></trkpt><trkpt lat="41.9212249" lon="12.2027774"><ele>26.0</ele><time>2026-04-01T08:14:59.774Z</time></trkpt><trkpt lat="41.921268" lon="12.2027134"><ele>26.0</ele><time>2026-04-01T08:15:00.776Z</time></trkpt><trkpt lat="41.92131" lon="12.2026454"><ele>25.999999999999996</ele><time>2026-04-01T08:15:01.772Z</time></trkpt><trkpt lat="41.9213591" lon="12.2025817"><ele>26.0</ele><time>2026-04-01T08:15:02.775Z</time></trkpt><trkpt lat="41.9214372" lon="12.2024508"><ele>26.0</ele><time>2026-04-01T08:15:04.785Z</time></trkpt><trkpt lat="41.9214909" lon="12.2023827"><ele>26.0</ele><time>2026-04-01T08:15:05.783Z</time></trkpt><trkpt lat="41.9215368" lon="12.2023121"><ele>25.999999999999996</ele><time>2026-04-01T08:15:06.788Z</time></trkpt><trkpt lat="41.9215814" lon="12.2022444"><ele>26.0</ele><time>2026-04-01T08:15:07.784Z</time></trkpt><trkpt lat="41.9216264" lon="12.2021711"><ele>25.833333333333332</ele><time>2026-04-01T08:15:08.781Z</time></trkpt><trkpt lat="41.9216737" lon="12.2021023"><ele>25.666666666666664</ele><time>2026-04-01T08:15:09.79Z</time></trkpt><trkpt lat="41.9217383" lon="12.2019899"><ele>25.5</ele><time>2026-04-01T08:15:11.774Z</time></trkpt><trkpt lat="41.9218112" lon="12.2019478"><ele>25.333333333333336</ele><time>2026-04-01T08:15:13.767Z</time></trkpt><trkpt lat="41.9218548" lon="12.2020523"><ele>25.166666666666668</ele><time>2026-04-01T08:15:15.776Z</time></trkpt><trkpt lat="41.9218856" lon="12.2021416"><ele>25.0</ele><time>2026-04-01T08:15:16.775Z</time></trkpt><trkpt lat="41.9219453" lon="12.2022303"><ele>25.000000000000004</ele><time>2026-04-01T08:15:17.772Z</time></trkpt><trkpt lat="41.9219926" lon="12.2022975"><ele>25.0</ele><time>2026-04-01T08:15:18.778Z</time></trkpt><trkpt lat="41.9220452" lon="12.2023518"><ele>25.0</ele><time>2026-04-01T08:15:19.768Z</time></trkpt><trkpt lat="41.9220945" lon="12.2024075"><ele>25.0</ele><time>2026-04-01T08:15:20.775Z</time></trkpt><trkpt lat="41.9221656" lon="12.2025134"><ele>25.000000000000004</ele><time>2026-04-01T08:15:22.774Z</time></trkpt><trkpt lat="41.9222435" lon="12.20261"><ele>25.0</ele><time>2026-04-01T08:15:24.774Z</time></trkpt><trkpt lat="41.9223122" lon="12.2026962"><ele>24.833333333333336</ele><time>2026-04-01T08:15:26.792Z</time></trkpt><trkpt lat="41.9223849" lon="12.2027566"><ele>24.666666666666668</ele><time>2026-04-01T08:15:28.784Z</time></trkpt><trkpt lat="41.9224561" lon="12.2028072"><ele>24.5</ele><time>2026-04-01T08:15:30.775Z</time></trkpt><trkpt lat="41.92255" lon="12.2028117"><ele>24.333333333333336</ele><time>2026-04-01T08:15:32.784Z</time></trkpt><trkpt lat="41.9226386" lon="12.2028081"><ele>24.166666666666668</ele><time>2026-04-01T08:15:34.785Z</time></trkpt><trkpt lat="41.9227156" lon="12.2028073"><ele>24.0</ele><time>2026-04-01T08:15:36.789Z</time></trkpt><trkpt lat="41.9228113" lon="12.202801"><ele>24.5</ele><time>2026-04-01T08:15:38.786Z</time></trkpt><trkpt lat="41.9229163" lon="12.2028029"><ele>25.0</ele><time>2026-04-01T08:15:40.782Z</time></trkpt><trkpt lat="41.9230495" lon="12.2028018"><ele>25.5</ele><time>2026-04-01T08:15:42.778Z</time></trkpt><trkpt lat="41.9231512" lon="12.2028011"><ele>26.0</ele><time>2026-04-01T08:15:44.781Z</time></trkpt><trkpt lat="41.9232642" lon="12.202808"><ele>25.999999999999996</ele><time>2026-04-01T08:15:46.785Z</time></trkpt><trkpt lat="41.9233391" lon="12.2027908"><ele>26.0</ele><time>2026-04-01T08:15:47.783Z</time></trkpt><trkpt lat="41.9234196" lon="12.2027772"><ele>26.0</ele><time>2026-04-01T08:15:48.791Z</time></trkpt><trkpt lat="41.9234996" lon="12.2027489"><ele>26.0</ele><time>2026-04-01T08:15:49.788Z</time></trkpt><trkpt lat="41.923577" lon="12.2027013"><ele>25.999999999999996</ele><time>2026-04-01T08:15:50.786Z</time></trkpt><trkpt lat="41.9236523" lon="12.2026563"><ele>26.0</ele><time>2026-04-01T08:15:51.779Z</time></trkpt><trkpt lat="41.9237227" lon="12.2026104"><ele>25.857142857142858</ele><time>2026-04-01T08:15:52.791Z</time></trkpt><trkpt lat="41.9237906" lon="12.2025658"><ele>25.714285714285715</ele><time>2026-04-01T08:15:53.79Z</time></trkpt><trkpt lat="41.9238352" lon="12.2024969"><ele>25.571428571428573</ele><time>2026-04-01T08:15:54.796Z</time></trkpt><trkpt lat="41.9238726" lon="12.2024263"><ele>25.42857142857143</ele><time>2026-04-01T08:15:55.787Z</time></trkpt><trkpt lat="41.9239269" lon="12.2023698"><ele>25.285714285714285</ele><time>2026-04-01T08:15:56.785Z</time></trkpt><trkpt lat="41.9239872" lon="12.2023199"><ele>25.142857142857146</ele><time>2026-04-01T08:15:57.801Z</time></trkpt><trkpt lat="41.9240519" lon="12.2022646"><ele>25.0</ele><time>2026-04-01T08:15:58.787Z</time></trkpt><trkpt lat="41.9241233" lon="12.2022128"><ele>25.333333333333336</ele><time>2026-04-01T08:15:59.783Z</time></trkpt><trkpt lat="41.9241809" lon="12.2021604"><ele>25.666666666666668</ele><time>2026-04-01T08:16:00.782Z</time></trkpt><trkpt lat="41.9242401" lon="12.2021156"><ele>26.0</ele><time>2026-04-01T08:16:01.78Z</time></trkpt><trkpt lat="41.9243111" lon="12.2020271"><ele>26.333333333333336</ele><time>2026-04-01T08:16:03.768Z</time></trkpt><trkpt lat="41.9244202" lon="12.2019432"><ele>26.666666666666668</ele><time>2026-04-01T08:16:05.781Z</time></trkpt><trkpt lat="41.9244854" lon="12.201886"><ele>27.0</ele><time>2026-04-01T08:16:06.78Z</time></trkpt><trkpt lat="41.9245545" lon="12.2018249"><ele>27.0</ele><time>2026-04-01T08:16:07.773Z</time></trkpt><trkpt lat="41.9246396" lon="12.2017704"><ele>27.000000000000004</ele><time>2026-04-01T08:16:08.786Z</time></trkpt><trkpt lat="41.924725" lon="12.2017088"><ele>27.000000000000004</ele><time>2026-04-01T08:16:09.778Z</time></trkpt><trkpt lat="41.9248134" lon="12.2016385"><ele>27.0</ele><time>2026-04-01T08:16:10.784Z</time></trkpt><trkpt lat="41.9249082" lon="12.2015712"><ele>27.0</ele><time>2026-04-01T08:16:11.786Z</time></trkpt><trkpt lat="41.9249964" lon="12.2015028"><ele>26.5</ele><time>2026-04-01T08:16:12.783Z</time></trkpt><trkpt lat="41.9250892" lon="12.2014335"><ele>26.0</ele><time>2026-04-01T08:16:13.783Z</time></trkpt><trkpt lat="41.9251885" lon="12.2013482"><ele>25.5</ele><time>2026-04-01T08:16:14.781Z</time></trkpt><trkpt lat="41.9252956" lon="12.2012609"><ele>25.0</ele><time>2026-04-01T08:16:15.788Z</time></trkpt><trkpt lat="41.925401" lon="12.2011648"><ele>25.0</ele><time>2026-04-01T08:16:16.785Z</time></trkpt><trkpt lat="41.9254984" lon="12.2010775"><ele>25.0</ele><time>2026-04-01T08:16:17.777Z</time></trkpt><trkpt lat="41.9255906" lon="12.2010007"><ele>25.0</ele><time>2026-04-01T08:16:18.776Z</time></trkpt><trkpt lat="41.9256706" lon="12.2009307"><ele>25.0</ele><time>2026-04-01T08:16:19.787Z</time></trkpt><trkpt lat="41.9257307" lon="12.2008794"><ele>25.0</ele><time>2026-04-01T08:16:20.784Z</time></trkpt><trkpt lat="41.9258058" lon="12.200822"><ele>25.0</ele><time>2026-04-01T08:16:22.784Z</time></trkpt><trkpt lat="41.9257357" lon="12.2007125"><ele>25.0</ele><time>2026-04-01T08:16:28.792Z</time></trkpt><trkpt lat="41.9256766" lon="12.2006362"><ele>25.0</ele><time>2026-04-01T08:16:29.769Z</time></trkpt><trkpt lat="41.9255992" lon="12.2005543"><ele>25.0</ele><time>2026-04-01T08:16:30.778Z</time></trkpt><trkpt lat="41.9255256" lon="12.2004782"><ele>25.0</ele><time>2026-04-01T08:16:31.779Z</time></trkpt><trkpt lat="41.9254365" lon="12.2003818"><ele>25.0</ele><time>2026-04-01T08:16:32.776Z</time></trkpt><trkpt lat="41.9253535" lon="12.2002705"><ele>25.0</ele><time>2026-04-01T08:16:33.789Z</time></trkpt><trkpt lat="41.9252668" lon="12.2001708"><ele>25.0</ele><time>2026-04-01T08:16:34.784Z</time></trkpt><trkpt lat="41.9251844" lon="12.2000724"><ele>25.0</ele><time>2026-04-01T08:16:35.795Z</time></trkpt><trkpt lat="41.925099" lon="12.1999783"><ele>25.4</ele><time>2026-04-01T08:16:36.784Z</time></trkpt><trkpt lat="41.9250199" lon="12.199878"><ele>25.8</ele><time>2026-04-01T08:16:37.782Z</time></trkpt><trkpt lat="41.9249454" lon="12.1997818"><ele>26.200000000000003</ele><time>2026-04-01T08:16:38.786Z</time></trkpt><trkpt lat="41.9248911" lon="12.1997321"><ele>26.6</ele><time>2026-04-01T08:16:39.797Z</time></trkpt><trkpt lat="41.9247889" lon="12.1996966"><ele>27.0</ele><time>2026-04-01T08:16:41.795Z</time></trkpt><trkpt lat="41.9246556" lon="12.1997177"><ele>27.0</ele><time>2026-04-01T08:16:43.798Z</time></trkpt><trkpt lat="41.9245576" lon="12.1997271"><ele>27.000000000000004</ele><time>2026-04-01T08:16:44.802Z</time></trkpt><trkpt lat="41.9244414" lon="12.1997343"><ele>27.000000000000004</ele><time>2026-04-01T08:16:45.796Z</time></trkpt><trkpt lat="41.9243313" lon="12.1997345"><ele>27.0</ele><time>2026-04-01T08:16:46.783Z</time></trkpt><trkpt lat="41.9242347" lon="12.1997269"><ele>27.0</ele><time>2026-04-01T08:16:47.791Z</time></trkpt><trkpt lat="41.9241547" lon="12.1997173"><ele>27.333333333333332</ele><time>2026-04-01T08:16:48.797Z</time></trkpt><trkpt lat="41.9240852" lon="12.1996957"><ele>27.666666666666664</ele><time>2026-04-01T08:16:49.792Z</time></trkpt><trkpt lat="41.9240202" lon="12.1996535"><ele>28.0</ele><time>2026-04-01T08:16:50.783Z</time></trkpt><trkpt lat="41.9239529" lon="12.1995975"><ele>28.333333333333332</ele><time>2026-04-01T08:16:51.786Z</time></trkpt><trkpt lat="41.923892" lon="12.1995259"><ele>28.666666666666664</ele><time>2026-04-01T08:16:52.79Z</time></trkpt><trkpt lat="41.9238342" lon="12.1994379"><ele>29.0</ele><time>2026-04-01T08:16:53.785Z</time></trkpt><trkpt lat="41.9237867" lon="12.1993339"><ele>29.0</ele><time>2026-04-01T08:16:54.785Z</time></trkpt><trkpt lat="41.9237278" lon="12.1992299"><ele>29.0</ele><time>2026-04-01T08:16:55.786Z</time></trkpt><trkpt lat="41.9236625" lon="12.1991322"><ele>29.0</ele><time>2026-04-01T08:16:56.785Z</time></trkpt><trkpt lat="41.9236013" lon="12.199033"><ele>29.0</ele><time>2026-04-01T08:16:57.794Z</time></trkpt><trkpt lat="41.9235382" lon="12.1989488"><ele>29.0</ele><time>2026-04-01T08:16:58.791Z</time></trkpt><trkpt lat="41.9234777" lon="12.1988585"><ele>28.499999999999996</ele><time>2026-04-01T08:16:59.805Z</time></trkpt><trkpt lat="41.9234128" lon="12.198775"><ele>28.0</ele><time>2026-04-01T08:17:00.777Z</time></trkpt><trkpt lat="41.9233441" lon="12.1986932"><ele>27.5</ele><time>2026-04-01T08:17:01.783Z</time></trkpt><trkpt lat="41.9232803" lon="12.1986162"><ele>27.0</ele><time>2026-04-01T08:17:02.783Z</time></trkpt><trkpt lat="41.9232153" lon="12.1985424"><ele>26.499999999999996</ele><time>2026-04-01T08:17:03.781Z</time></trkpt><trkpt lat="41.9231456" lon="12.1984664"><ele>26.0</ele><time>2026-04-01T08:17:04.785Z</time></trkpt><trkpt lat="41.9230731" lon="12.198381"><ele>25.333333333333332</ele><time>2026-04-01T08:17:05.785Z</time></trkpt><trkpt lat="41.9230098" lon="12.1983017"><ele>24.666666666666664</ele><time>2026-04-01T08:17:06.783Z</time></trkpt><trkpt lat="41.9229506" lon="12.1982312"><ele>24.0</ele><time>2026-04-01T08:17:07.79Z</time></trkpt><trkpt lat="41.9228939" lon="12.1981572"><ele>23.333333333333332</ele><time>2026-04-01T08:17:08.789Z</time></trkpt><trkpt lat="41.9228367" lon="12.1980755"><ele>22.666666666666664</ele><time>2026-04-01T08:17:09.779Z</time></trkpt><trkpt lat="41.9227774" lon="12.1979895"><ele>22.0</ele><time>2026-04-01T08:17:10.795Z</time></trkpt><trkpt lat="41.9227038" lon="12.1978946"><ele>21.6</ele><time>2026-04-01T08:17:11.791Z</time></trkpt><trkpt lat="41.9226339" lon="12.197803"><ele>21.200000000000003</ele><time>2026-04-01T08:17:12.776Z</time></trkpt><trkpt lat="41.9225742" lon="12.1977215"><ele>20.8</ele><time>2026-04-01T08:17:13.782Z</time></trkpt><trkpt lat="41.922511" lon="12.1976422"><ele>20.4</ele><time>2026-04-01T08:17:14.79Z</time></trkpt><trkpt lat="41.922439" lon="12.1975609"><ele>20.0</ele><time>2026-04-01T08:17:15.785Z</time></trkpt><trkpt lat="41.9223632" lon="12.1974672"><ele>20.0</ele><time>2026-04-01T08:17:16.785Z</time></trkpt><trkpt lat="41.9222857" lon="12.1973639"><ele>20.0</ele><time>2026-04-01T08:17:17.785Z</time></trkpt><trkpt lat="41.9222086" lon="12.1972506"><ele>20.0</ele><time>2026-04-01T08:17:18.783Z</time></trkpt><trkpt lat="41.922127" lon="12.1971458"><ele>20.0</ele><time>2026-04-01T08:17:19.777Z</time></trkpt><trkpt lat="41.9220448" lon="12.1970603"><ele>20.0</ele><time>2026-04-01T08:17:20.777Z</time></trkpt><trkpt lat="41.9219619" lon="12.1969743"><ele>20.0</ele><time>2026-04-01T08:17:21.774Z</time></trkpt><trkpt lat="41.9218947" lon="12.1969165"><ele>20.0</ele><time>2026-04-01T08:17:22.776Z</time></trkpt><trkpt lat="41.9218364" lon="12.1968774"><ele>20.0</ele><time>2026-04-01T08:17:23.772Z</time></trkpt><trkpt lat="41.9217698" lon="12.196848"><ele>20.0</ele><time>2026-04-01T08:17:25.77Z</time></trkpt><trkpt lat="41.9217707" lon="12.1967526"><ele>20.0</ele><time>2026-04-01T08:17:31.785Z</time></trkpt><trkpt lat="41.9218252" lon="12.1966736"><ele>20.0</ele><time>2026-04-01T08:17:33.787Z</time></trkpt><trkpt lat="41.9219425" lon="12.1966048"><ele>20.0</ele><time>2026-04-01T08:17:35.785Z</time></trkpt><trkpt lat="41.9220071" lon="12.196572"><ele>20.0</ele><time>2026-04-01T08:17:36.786Z</time></trkpt><trkpt lat="41.9220935" lon="12.1965041"><ele>20.0</ele><time>2026-04-01T08:17:38.777Z</time></trkpt><trkpt lat="41.9221808" lon="12.196387"><ele>20.0</ele><time>2026-04-01T08:17:40.787Z</time></trkpt><trkpt lat="41.9222248" lon="12.1963163"><ele>20.0</ele><time>2026-04-01T08:17:41.79Z</time></trkpt><trkpt lat="41.9222804" lon="12.196233"><ele>20.0</ele><time>2026-04-01T08:17:42.783Z</time></trkpt><trkpt lat="41.9223401" lon="12.1961544"><ele>19.833333333333336</ele><time>2026-04-01T08:17:43.771Z</time></trkpt><trkpt lat="41.9223988" lon="12.1960779"><ele>19.666666666666668</ele><time>2026-04-01T08:17:44.775Z</time></trkpt><trkpt lat="41.9224567" lon="12.1959935"><ele>19.5</ele><time>2026-04-01T08:17:45.769Z</time></trkpt><trkpt lat="41.9225303" lon="12.1958565"><ele>19.333333333333332</ele><time>2026-04-01T08:17:47.775Z</time></trkpt><trkpt lat="41.9225789" lon="12.1957811"><ele>19.166666666666664</ele><time>2026-04-01T08:17:48.772Z</time></trkpt><trkpt lat="41.9226263" lon="12.1957103"><ele>19.0</ele><time>2026-04-01T08:17:49.773Z</time></trkpt><trkpt lat="41.9226857" lon="12.1956301"><ele>18.666666666666664</ele><time>2026-04-01T08:17:50.778Z</time></trkpt><trkpt lat="41.9227467" lon="12.1955552"><ele>18.333333333333332</ele><time>2026-04-01T08:17:51.777Z</time></trkpt><trkpt lat="41.922796" lon="12.195472"><ele>18.0</ele><time>2026-04-01T08:17:52.778Z</time></trkpt><trkpt lat="41.9228525" lon="12.1953904"><ele>17.666666666666668</ele><time>2026-04-01T08:17:53.78Z</time></trkpt><trkpt lat="41.922917" lon="12.1953044"><ele>17.333333333333336</ele><time>2026-04-01T08:17:54.781Z</time></trkpt><trkpt lat="41.9229821" lon="12.1952178"><ele>17.0</ele><time>2026-04-01T08:17:55.782Z</time></trkpt><trkpt lat="41.9230497" lon="12.195125"><ele>17.0</ele><time>2026-04-01T08:17:56.781Z</time></trkpt><trkpt lat="41.9231151" lon="12.1950354"><ele>17.0</ele><time>2026-04-01T08:17:57.778Z</time></trkpt><trkpt lat="41.9231771" lon="12.1949396"><ele>17.0</ele><time>2026-04-01T08:17:58.782Z</time></trkpt><trkpt lat="41.9232368" lon="12.1948465"><ele>17.0</ele><time>2026-04-01T08:17:59.778Z</time></trkpt><trkpt lat="41.9232946" lon="12.1947545"><ele>17.0</ele><time>2026-04-01T08:18:00.797Z</time></trkpt><trkpt lat="41.9233537" lon="12.1946646"><ele>17.333333333333336</ele><time>2026-04-01T08:18:01.78Z</time></trkpt><trkpt lat="41.9234126" lon="12.1945715"><ele>17.666666666666668</ele><time>2026-04-01T08:18:02.777Z</time></trkpt><trkpt lat="41.923481" lon="12.1944906"><ele>18.0</ele><time>2026-04-01T08:18:03.778Z</time></trkpt><trkpt lat="41.9235463" lon="12.1944088"><ele>18.333333333333332</ele><time>2026-04-01T08:18:04.779Z</time></trkpt><trkpt lat="41.9236025" lon="12.1943228"><ele>18.666666666666664</ele><time>2026-04-01T08:18:05.775Z</time></trkpt><trkpt lat="41.9236565" lon="12.1942337"><ele>19.0</ele><time>2026-04-01T08:18:06.782Z</time></trkpt><trkpt lat="41.9237168" lon="12.1941385"><ele>19.0</ele><time>2026-04-01T08:18:07.781Z</time></trkpt><trkpt lat="41.9237676" lon="12.1940508"><ele>19.0</ele><time>2026-04-01T08:18:08.776Z</time></trkpt><trkpt lat="41.9238211" lon="12.1939514"><ele>19.0</ele><time>2026-04-01T08:18:09.774Z</time></trkpt><trkpt lat="41.9238756" lon="12.1938347"><ele>19.0</ele><time>2026-04-01T08:18:10.771Z</time></trkpt><trkpt lat="41.9239368" lon="12.1937126"><ele>19.0</ele><time>2026-04-01T08:18:11.794Z</time></trkpt><trkpt lat="41.9239978" lon="12.1935878"><ele>18.75</ele><time>2026-04-01T08:18:12.779Z</time></trkpt><trkpt lat="41.92406" lon="12.1934518"><ele>18.5</ele><time>2026-04-01T08:18:13.766Z</time></trkpt><trkpt lat="41.9241201" lon="12.1933209"><ele>18.25</ele><time>2026-04-01T08:18:14.767Z</time></trkpt><trkpt lat="41.9241893" lon="12.1931817"><ele>18.0</ele><time>2026-04-01T08:18:15.771Z</time></trkpt><trkpt lat="41.9242581" lon="12.1930432"><ele>17.75</ele><time>2026-04-01T08:18:16.766Z</time></trkpt><trkpt lat="41.9243282" lon="12.1929054"><ele>17.5</ele><time>2026-04-01T08:18:17.771Z</time></trkpt><trkpt lat="41.9243985" lon="12.192769"><ele>17.25</ele><time>2026-04-01T08:18:18.779Z</time></trkpt><trkpt lat="41.9244686" lon="12.1926495"><ele>17.0</ele><time>2026-04-01T08:18:19.779Z</time></trkpt><trkpt lat="41.9245349" lon="12.1925277"><ele>17.0</ele><time>2026-04-01T08:18:20.785Z</time></trkpt><trkpt lat="41.9246038" lon="12.1924023"><ele>17.0</ele><time>2026-04-01T08:18:21.778Z</time></trkpt><trkpt lat="41.924667" lon="12.1922722"><ele>17.0</ele><time>2026-04-01T08:18:22.778Z</time></trkpt><trkpt lat="41.9247281" lon="12.1921459"><ele>17.0</ele><time>2026-04-01T08:18:23.78Z</time></trkpt><trkpt lat="41.9247885" lon="12.192028"><ele>17.6</ele><time>2026-04-01T08:18:24.785Z</time></trkpt><trkpt lat="41.9248491" lon="12.1919127"><ele>18.2</ele><time>2026-04-01T08:18:25.783Z</time></trkpt><trkpt lat="41.9249061" lon="12.1918035"><ele>18.8</ele><time>2026-04-01T08:18:26.783Z</time></trkpt><trkpt lat="41.9249662" lon="12.1916944"><ele>19.4</ele><time>2026-04-01T08:18:27.784Z</time></trkpt><trkpt lat="41.9250223" lon="12.1915901"><ele>20.0</ele><time>2026-04-01T08:18:28.781Z</time></trkpt><trkpt lat="41.9250754" lon="12.1914971"><ele>20.166666666666668</ele><time>2026-04-01T08:18:29.781Z</time></trkpt><trkpt lat="41.9251236" lon="12.1914092"><ele>20.333333333333336</ele><time>2026-04-01T08:18:30.785Z</time></trkpt><trkpt lat="41.9251663" lon="12.1913228"><ele>20.5</ele><time>2026-04-01T08:18:31.801Z</time></trkpt><trkpt lat="41.9252066" lon="12.191239"><ele>20.666666666666668</ele><time>2026-04-01T08:18:32.775Z</time></trkpt><trkpt lat="41.925269" lon="12.1911522"><ele>20.833333333333332</ele><time>2026-04-01T08:18:34.784Z</time></trkpt><trkpt lat="41.925235" lon="12.1910223"><ele>21.0</ele><time>2026-04-01T08:18:47.782Z</time></trkpt><trkpt lat="41.9251525" lon="12.1909223"><ele>21.0</ele><time>2026-04-01T08:18:48.79Z</time></trkpt><trkpt lat="41.925069" lon="12.1908421"><ele>21.0</ele><time>2026-04-01T08:18:49.765Z</time></trkpt><trkpt lat="41.9249946" lon="12.1907616"><ele>21.0</ele><time>2026-04-01T08:18:50.773Z</time></trkpt><trkpt lat="41.9249184" lon="12.1906663"><ele>21.0</ele><time>2026-04-01T08:18:51.771Z</time></trkpt><trkpt lat="41.9248099" lon="12.1905867"><ele>21.0</ele><time>2026-04-01T08:18:52.778Z</time></trkpt><trkpt lat="41.9246977" lon="12.1904774"><ele>21.0</ele><time>2026-04-01T08:18:53.772Z</time></trkpt><trkpt lat="41.9245842" lon="12.1903811"><ele>21.0</ele><time>2026-04-01T08:18:54.783Z</time></trkpt><trkpt lat="41.9244759" lon="12.190278"><ele>21.0</ele><time>2026-04-01T08:18:55.781Z</time></trkpt><trkpt lat="41.9243582" lon="12.1901752"><ele>21.0</ele><time>2026-04-01T08:18:56.786Z</time></trkpt><trkpt lat="41.9242382" lon="12.1900715"><ele>20.0</ele><time>2026-04-01T08:18:57.782Z</time></trkpt><trkpt lat="41.9241319" lon="12.1899782"><ele>19.0</ele><time>2026-04-01T08:18:58.78Z</time></trkpt><trkpt lat="41.9240288" lon="12.1898747"><ele>18.0</ele><time>2026-04-01T08:18:59.791Z</time></trkpt><trkpt lat="41.9239233" lon="12.1897776"><ele>17.0</ele><time>2026-04-01T08:19:00.792Z</time></trkpt><trkpt lat="41.9238161" lon="12.1896874"><ele>17.0</ele><time>2026-04-01T08:19:01.789Z</time></trkpt><trkpt lat="41.9237142" lon="12.1895899"><ele>17.0</ele><time>2026-04-01T08:19:02.799Z</time></trkpt><trkpt lat="41.9236134" lon="12.1894959"><ele>17.0</ele><time>2026-04-01T08:19:03.786Z</time></trkpt><trkpt lat="41.9235226" lon="12.1894063"><ele>17.0</ele><time>2026-04-01T08:19:04.784Z</time></trkpt><trkpt lat="41.9234363" lon="12.1893218"><ele>16.0</ele><time>2026-04-01T08:19:05.791Z</time></trkpt><trkpt lat="41.9233532" lon="12.1892441"><ele>15.0</ele><time>2026-04-01T08:19:06.783Z</time></trkpt><trkpt lat="41.9232756" lon="12.1891656"><ele>14.0</ele><time>2026-04-01T08:19:07.775Z</time></trkpt><trkpt lat="41.9232065" lon="12.1890929"><ele>13.0</ele><time>2026-04-01T08:19:08.776Z</time></trkpt><trkpt lat="41.9231488" lon="12.1890129"><ele>12.0</ele><time>2026-04-01T08:19:09.789Z</time></trkpt><trkpt lat="41.9231176" lon="12.1889371"><ele>11.0</ele><time>2026-04-01T08:19:10.792Z</time></trkpt><trkpt lat="41.9231223" lon="12.1888135"><ele>10.600000000000001</ele><time>2026-04-01T08:19:12.783Z</time></trkpt><trkpt lat="41.9231531" lon="12.1887041"><ele>10.200000000000001</ele><time>2026-04-01T08:19:14.783Z</time></trkpt><trkpt lat="41.9232084" lon="12.1885801"><ele>9.8</ele><time>2026-04-01T08:19:16.782Z</time></trkpt><trkpt lat="41.9232572" lon="12.1884947"><ele>9.4</ele><time>2026-04-01T08:19:17.78Z</time></trkpt><trkpt lat="41.9233107" lon="12.1884039"><ele>9.0</ele><time>2026-04-01T08:19:18.779Z</time></trkpt><trkpt lat="41.9233675" lon="12.1883053"><ele>9.75</ele><time>2026-04-01T08:19:19.784Z</time></trkpt><trkpt lat="41.9234405" lon="12.1881855"><ele>10.5</ele><time>2026-04-01T08:19:20.788Z</time></trkpt><trkpt lat="41.9235123" lon="12.1880553"><ele>11.25</ele><time>2026-04-01T08:19:21.784Z</time></trkpt><trkpt lat="41.9235858" lon="12.1879252"><ele>12.0</ele><time>2026-04-01T08:19:22.794Z</time></trkpt><trkpt lat="41.923658" lon="12.1877947"><ele>12.0</ele><time>2026-04-01T08:19:23.781Z</time></trkpt><trkpt lat="41.9237314" lon="12.187664"><ele>12.0</ele><time>2026-04-01T08:19:24.782Z</time></trkpt><trkpt lat="41.9238057" lon="12.1875203"><ele>12.0</ele><time>2026-04-01T08:19:25.788Z</time></trkpt><trkpt lat="41.9238801" lon="12.1873858"><ele>12.0</ele><time>2026-04-01T08:19:26.791Z</time></trkpt><trkpt lat="41.9239555" lon="12.1872437"><ele>12.0</ele><time>2026-04-01T08:19:27.79Z</time></trkpt><trkpt lat="41.9240313" lon="12.1871013"><ele>12.0</ele><time>2026-04-01T08:19:28.787Z</time></trkpt><trkpt lat="41.9241088" lon="12.186957"><ele>12.0</ele><time>2026-04-01T08:19:29.787Z</time></trkpt><trkpt lat="41.9241882" lon="12.186806"><ele>12.0</ele><time>2026-04-01T08:19:30.786Z</time></trkpt><trkpt lat="41.9242645" lon="12.1866599"><ele>12.0</ele><time>2026-04-01T08:19:31.787Z</time></trkpt><trkpt lat="41.9243454" lon="12.1865123"><ele>12.0</ele><time>2026-04-01T08:19:32.788Z</time></trkpt><trkpt lat="41.9244281" lon="12.1863578"><ele>12.0</ele><time>2026-04-01T08:19:33.799Z</time></trkpt><trkpt lat="41.9245042" lon="12.1862051"><ele>12.0</ele><time>2026-04-01T08:19:34.783Z</time></trkpt><trkpt lat="41.9245845" lon="12.1860452"><ele>12.0</ele><time>2026-04-01T08:19:35.793Z</time></trkpt><trkpt lat="41.924664" lon="12.185879"><ele>12.0</ele><time>2026-04-01T08:19:36.79Z</time></trkpt><trkpt lat="41.9247521" lon="12.1857136"><ele>12.0</ele><time>2026-04-01T08:19:37.779Z</time></trkpt><trkpt lat="41.9248349" lon="12.1855491"><ele>12.0</ele><time>2026-04-01T08:19:38.775Z</time></trkpt><trkpt lat="41.9249168" lon="12.1853934"><ele>12.0</ele><time>2026-04-01T08:19:39.787Z</time></trkpt><trkpt lat="41.9249954" lon="12.1852343"><ele>12.0</ele><time>2026-04-01T08:19:40.784Z</time></trkpt><trkpt lat="41.9250808" lon="12.1850752"><ele>12.0</ele><time>2026-04-01T08:19:41.792Z</time></trkpt><trkpt lat="41.92516" lon="12.1849215"><ele>12.0</ele><time>2026-04-01T08:19:42.783Z</time></trkpt><trkpt lat="41.9252319" lon="12.1847642"><ele>12.75</ele><time>2026-04-01T08:19:43.794Z</time></trkpt><trkpt lat="41.92531" lon="12.1846096"><ele>13.5</ele><time>2026-04-01T08:19:44.782Z</time></trkpt><trkpt lat="41.9253705" lon="12.1844851"><ele>14.25</ele><time>2026-04-01T08:19:45.781Z</time></trkpt><trkpt lat="41.9254472" lon="12.1843394"><ele>15.0</ele><time>2026-04-01T08:19:46.783Z</time></trkpt><trkpt lat="41.925531" lon="12.1841967"><ele>15.0</ele><time>2026-04-01T08:19:47.794Z</time></trkpt><trkpt lat="41.9256015" lon="12.1840564"><ele>15.0</ele><time>2026-04-01T08:19:48.787Z</time></trkpt><trkpt lat="41.9256715" lon="12.1839035"><ele>15.0</ele><time>2026-04-01T08:19:49.791Z</time></trkpt><trkpt lat="41.9257408" lon="12.183738"><ele>15.0</ele><time>2026-04-01T08:19:50.788Z</time></trkpt><trkpt lat="41.9258139" lon="12.1835701"><ele>15.0</ele><time>2026-04-01T08:19:51.794Z</time></trkpt><trkpt lat="41.9258913" lon="12.1834042"><ele>15.0</ele><time>2026-04-01T08:19:52.787Z</time></trkpt><trkpt lat="41.9259798" lon="12.1832472"><ele>15.0</ele><time>2026-04-01T08:19:53.79Z</time></trkpt><trkpt lat="41.926046" lon="12.1830836"><ele>15.0</ele><time>2026-04-01T08:19:54.788Z</time></trkpt><trkpt lat="41.926116" lon="12.1829215"><ele>14.75</ele><time>2026-04-01T08:19:55.788Z</time></trkpt><trkpt lat="41.9261914" lon="12.1827623"><ele>14.5</ele><time>2026-04-01T08:19:56.786Z</time></trkpt><trkpt lat="41.9262657" lon="12.1825891"><ele>14.25</ele><time>2026-04-01T08:19:57.797Z</time></trkpt><trkpt lat="41.9263384" lon="12.1824067"><ele>14.0</ele><time>2026-04-01T08:19:58.79Z</time></trkpt><trkpt lat="41.9264083" lon="12.1822327"><ele>13.5</ele><time>2026-04-01T08:19:59.796Z</time></trkpt><trkpt lat="41.9264888" lon="12.1820715"><ele>13.0</ele><time>2026-04-01T08:20:00.793Z</time></trkpt><trkpt lat="41.9265659" lon="12.1819251"><ele>12.5</ele><time>2026-04-01T08:20:01.797Z</time></trkpt><trkpt lat="41.9266303" lon="12.1817576"><ele>12.0</ele><time>2026-04-01T08:20:02.793Z</time></trkpt><trkpt lat="41.9267019" lon="12.1815958"><ele>12.0</ele><time>2026-04-01T08:20:03.791Z</time></trkpt><trkpt lat="41.926779" lon="12.1814405"><ele>12.0</ele><time>2026-04-01T08:20:04.808Z</time></trkpt><trkpt lat="41.926854" lon="12.181284"><ele>12.0</ele><time>2026-04-01T08:20:05.777Z</time></trkpt><trkpt lat="41.9269249" lon="12.1811218"><ele>12.0</ele><time>2026-04-01T08:20:06.789Z</time></trkpt><trkpt lat="41.9269992" lon="12.1809653"><ele>12.0</ele><time>2026-04-01T08:20:07.784Z</time></trkpt><trkpt lat="41.9270753" lon="12.1808112"><ele>12.0</ele><time>2026-04-01T08:20:08.783Z</time></trkpt><trkpt lat="41.9271493" lon="12.1806389"><ele>12.0</ele><time>2026-04-01T08:20:09.779Z</time></trkpt><trkpt lat="41.927215" lon="12.180463"><ele>12.0</ele><time>2026-04-01T08:20:10.786Z</time></trkpt><trkpt lat="41.9272896" lon="12.1802982"><ele>12.0</ele><time>2026-04-01T08:20:11.784Z</time></trkpt><trkpt lat="41.9273651" lon="12.1801454"><ele>12.0</ele><time>2026-04-01T08:20:12.788Z</time></trkpt><trkpt lat="41.927433" lon="12.1799873"><ele>12.0</ele><time>2026-04-01T08:20:13.783Z</time></trkpt><trkpt lat="41.9275062" lon="12.1798328"><ele>12.0</ele><time>2026-04-01T08:20:14.782Z</time></trkpt><trkpt lat="41.9275906" lon="12.1796891"><ele>12.0</ele><time>2026-04-01T08:20:15.78Z</time></trkpt><trkpt lat="41.9276774" lon="12.1795522"><ele>12.0</ele><time>2026-04-01T08:20:16.778Z</time></trkpt><trkpt lat="41.9277704" lon="12.1794142"><ele>12.0</ele><time>2026-04-01T08:20:17.776Z</time></trkpt><trkpt lat="41.9278605" lon="12.1792914"><ele>12.0</ele><time>2026-04-01T08:20:18.779Z</time></trkpt><trkpt lat="41.9279506" lon="12.1791815"><ele>12.0</ele><time>2026-04-01T08:20:19.781Z</time></trkpt><trkpt lat="41.9280413" lon="12.1790609"><ele>12.0</ele><time>2026-04-01T08:20:20.79Z</time></trkpt><trkpt lat="41.9281412" lon="12.1789354"><ele>12.0</ele><time>2026-04-01T08:20:21.782Z</time></trkpt><trkpt lat="41.9282425" lon="12.1788163"><ele>12.0</ele><time>2026-04-01T08:20:22.784Z</time></trkpt><trkpt lat="41.9283422" lon="12.1786974"><ele>11.75</ele><time>2026-04-01T08:20:23.782Z</time></trkpt><trkpt lat="41.9284438" lon="12.1785828"><ele>11.5</ele><time>2026-04-01T08:20:24.783Z</time></trkpt><trkpt lat="41.9285454" lon="12.1784662"><ele>11.25</ele><time>2026-04-01T08:20:25.78Z</time></trkpt><trkpt lat="41.9286491" lon="12.1783581"><ele>11.0</ele><time>2026-04-01T08:20:26.781Z</time></trkpt><trkpt lat="41.92875" lon="12.1782564"><ele>10.75</ele><time>2026-04-01T08:20:27.78Z</time></trkpt><trkpt lat="41.9288576" lon="12.1781593"><ele>10.5</ele><time>2026-04-01T08:20:28.781Z</time></trkpt><trkpt lat="41.9289609" lon="12.1780731"><ele>10.25</ele><time>2026-04-01T08:20:29.784Z</time></trkpt><trkpt lat="41.9290629" lon="12.1779944"><ele>10.0</ele><time>2026-04-01T08:20:30.787Z</time></trkpt><trkpt lat="41.929151" lon="12.1779327"><ele>10.0</ele><time>2026-04-01T08:20:31.781Z</time></trkpt><trkpt lat="41.929225" lon="12.1778774"><ele>10.0</ele><time>2026-04-01T08:20:32.782Z</time></trkpt><trkpt lat="41.929314" lon="12.1778238"><ele>10.0</ele><time>2026-04-01T08:20:34.787Z</time></trkpt><trkpt lat="41.9294003" lon="12.1778483"><ele>10.0</ele><time>2026-04-01T08:20:37.777Z</time></trkpt><trkpt lat="41.9294805" lon="12.1778871"><ele>10.0</ele><time>2026-04-01T08:20:39.782Z</time></trkpt><trkpt lat="41.9296127" lon="12.1779469"><ele>10.8</ele><time>2026-04-01T08:20:41.787Z</time></trkpt><trkpt lat="41.9296987" lon="12.1779932"><ele>11.6</ele><time>2026-04-01T08:20:42.791Z</time></trkpt><trkpt lat="41.9297983" lon="12.1780434"><ele>12.399999999999999</ele><time>2026-04-01T08:20:43.772Z</time></trkpt><trkpt lat="41.9299127" lon="12.1780782"><ele>13.2</ele><time>2026-04-01T08:20:44.775Z</time></trkpt><trkpt lat="41.9300156" lon="12.1781034"><ele>14.0</ele><time>2026-04-01T08:20:45.78Z</time></trkpt><trkpt lat="41.9301157" lon="12.1781273"><ele>14.0</ele><time>2026-04-01T08:20:46.78Z</time></trkpt><trkpt lat="41.9302188" lon="12.1781496"><ele>13.999999999999998</ele><time>2026-04-01T08:20:47.774Z</time></trkpt><trkpt lat="41.9303156" lon="12.1781725"><ele>13.999999999999998</ele><time>2026-04-01T08:20:48.767Z</time></trkpt><trkpt lat="41.9304211" lon="12.1781988"><ele>14.0</ele><time>2026-04-01T08:20:49.768Z</time></trkpt><trkpt lat="41.9304948" lon="12.178224"><ele>14.0</ele><time>2026-04-01T08:20:50.774Z</time></trkpt><trkpt lat="41.9305858" lon="12.1782595"><ele>14.0</ele><time>2026-04-01T08:20:51.765Z</time></trkpt><trkpt lat="41.930676" lon="12.1782689"><ele>13.999999999999998</ele><time>2026-04-01T08:20:52.783Z</time></trkpt><trkpt lat="41.9307643" lon="12.1782834"><ele>13.999999999999998</ele><time>2026-04-01T08:20:53.772Z</time></trkpt><trkpt lat="41.9308693" lon="12.1783082"><ele>14.0</ele><time>2026-04-01T08:20:54.773Z</time></trkpt><trkpt lat="41.9309741" lon="12.178327"><ele>14.0</ele><time>2026-04-01T08:20:55.774Z</time></trkpt><trkpt lat="41.9310746" lon="12.1783509"><ele>14.0</ele><time>2026-04-01T08:20:56.774Z</time></trkpt><trkpt lat="41.9311806" lon="12.1783744"><ele>13.999999999999998</ele><time>2026-04-01T08:20:57.772Z</time></trkpt><trkpt lat="41.9312876" lon="12.1784012"><ele>13.999999999999998</ele><time>2026-04-01T08:20:58.776Z</time></trkpt><trkpt lat="41.9313926" lon="12.1784344"><ele>14.0</ele><time>2026-04-01T08:20:59.767Z</time></trkpt><trkpt lat="41.9314969" lon="12.1784687"><ele>14.0</ele><time>2026-04-01T08:21:00.762Z</time></trkpt><trkpt lat="41.93161" lon="12.1785235"><ele>14.0</ele><time>2026-04-01T08:21:01.766Z</time></trkpt><trkpt lat="41.9317133" lon="12.1785976"><ele>14.0</ele><time>2026-04-01T08:21:02.76Z</time></trkpt><trkpt lat="41.9318204" lon="12.1786717"><ele>14.0</ele><time>2026-04-01T08:21:03.773Z</time></trkpt><trkpt lat="41.9319258" lon="12.1787652"><ele>14.0</ele><time>2026-04-01T08:21:04.781Z</time></trkpt><trkpt lat="41.9320296" lon="12.1788575"><ele>14.0</ele><time>2026-04-01T08:21:05.781Z</time></trkpt><trkpt lat="41.9321335" lon="12.1789391"><ele>14.0</ele><time>2026-04-01T08:21:06.798Z</time></trkpt><trkpt lat="41.9322379" lon="12.1790167"><ele>14.0</ele><time>2026-04-01T08:21:07.782Z</time></trkpt><trkpt lat="41.9323405" lon="12.179092"><ele>14.0</ele><time>2026-04-01T08:21:08.78Z</time></trkpt><trkpt lat="41.932434" lon="12.1791622"><ele>14.000000000000002</ele><time>2026-04-01T08:21:09.776Z</time></trkpt><trkpt lat="41.9325242" lon="12.1792313"><ele>14.0</ele><time>2026-04-01T08:21:10.777Z</time></trkpt><trkpt lat="41.9326113" lon="12.1792952"><ele>14.0</ele><time>2026-04-01T08:21:11.779Z</time></trkpt><trkpt lat="41.9326907" lon="12.1793483"><ele>14.0</ele><time>2026-04-01T08:21:12.773Z</time></trkpt><trkpt lat="41.9327691" lon="12.1793948"><ele>14.000000000000002</ele><time>2026-04-01T08:21:13.772Z</time></trkpt><trkpt lat="41.9328305" lon="12.1794385"><ele>14.0</ele><time>2026-04-01T08:21:14.769Z</time></trkpt><trkpt lat="41.9328872" lon="12.1794765"><ele>14.0</ele><time>2026-04-01T08:21:15.769Z</time></trkpt><trkpt lat="41.9329784" lon="12.1794908"><ele>13.999999999999998</ele><time>2026-04-01T08:21:17.768Z</time></trkpt><trkpt lat="41.9330583" lon="12.1794378"><ele>13.999999999999998</ele><time>2026-04-01T08:21:19.774Z</time></trkpt><trkpt lat="41.9331646" lon="12.1793502"><ele>14.0</ele><time>2026-04-01T08:21:21.777Z</time></trkpt><trkpt lat="41.9332601" lon="12.1792511"><ele>14.0</ele><time>2026-04-01T08:21:23.78Z</time></trkpt><trkpt lat="41.9333254" lon="12.1792057"><ele>14.0</ele><time>2026-04-01T08:21:24.781Z</time></trkpt><trkpt lat="41.9333998" lon="12.1791608"><ele>14.0</ele><time>2026-04-01T08:21:25.779Z</time></trkpt><trkpt lat="41.9334734" lon="12.1791219"><ele>14.0</ele><time>2026-04-01T08:21:26.789Z</time></trkpt><trkpt lat="41.9335485" lon="12.1790907"><ele>14.0</ele><time>2026-04-01T08:21:27.782Z</time></trkpt><trkpt lat="41.9336168" lon="12.1790591"><ele>14.0</ele><time>2026-04-01T08:21:28.791Z</time></trkpt><trkpt lat="41.9336806" lon="12.1790321"><ele>14.0</ele><time>2026-04-01T08:21:29.788Z</time></trkpt><trkpt lat="41.933745" lon="12.1790011"><ele>14.0</ele><time>2026-04-01T08:21:30.792Z</time></trkpt><trkpt lat="41.9338136" lon="12.1789611"><ele>14.2</ele><time>2026-04-01T08:21:31.786Z</time></trkpt><trkpt lat="41.9338892" lon="12.1789189"><ele>14.399999999999999</ele><time>2026-04-01T08:21:32.782Z</time></trkpt><trkpt lat="41.9339688" lon="12.1788702"><ele>14.6</ele><time>2026-04-01T08:21:33.787Z</time></trkpt><trkpt lat="41.9340597" lon="12.1788214"><ele>14.8</ele><time>2026-04-01T08:21:34.785Z</time></trkpt><trkpt lat="41.934151" lon="12.1787716"><ele>15.0</ele><time>2026-04-01T08:21:35.785Z</time></trkpt><trkpt lat="41.9342506" lon="12.1787251"><ele>15.8</ele><time>2026-04-01T08:21:36.783Z</time></trkpt><trkpt lat="41.934359" lon="12.1786778"><ele>16.6</ele><time>2026-04-01T08:21:37.799Z</time></trkpt><trkpt lat="41.9344641" lon="12.1786389"><ele>17.4</ele><time>2026-04-01T08:21:38.786Z</time></trkpt><trkpt lat="41.9345616" lon="12.1785987"><ele>18.2</ele><time>2026-04-01T08:21:39.775Z</time></trkpt><trkpt lat="41.9346503" lon="12.1785612"><ele>19.0</ele><time>2026-04-01T08:21:40.78Z</time></trkpt><trkpt lat="41.9347312" lon="12.1785336"><ele>19.0</ele><time>2026-04-01T08:21:41.773Z</time></trkpt><trkpt lat="41.9348055" lon="12.1785176"><ele>19.0</ele><time>2026-04-01T08:21:42.776Z</time></trkpt><trkpt lat="41.934874" lon="12.1785167"><ele>19.0</ele><time>2026-04-01T08:21:43.763Z</time></trkpt><trkpt lat="41.9349439" lon="12.1785219"><ele>19.0</ele><time>2026-04-01T08:21:44.78Z</time></trkpt><trkpt lat="41.9350112" lon="12.1785572"><ele>19.0</ele><time>2026-04-01T08:21:45.775Z</time></trkpt><trkpt lat="41.9350699" lon="12.1786024"><ele>19.0</ele><time>2026-04-01T08:21:46.776Z</time></trkpt><trkpt lat="41.9351351" lon="12.178658"><ele>19.0</ele><time>2026-04-01T08:21:47.771Z</time></trkpt><trkpt lat="41.9351942" lon="12.1787123"><ele>19.71428571428571</ele><time>2026-04-01T08:21:48.776Z</time></trkpt><trkpt lat="41.9352533" lon="12.1787681"><ele>20.42857142857143</ele><time>2026-04-01T08:21:49.779Z</time></trkpt><trkpt lat="41.9353135" lon="12.1788308"><ele>21.142857142857142</ele><time>2026-04-01T08:21:50.782Z</time></trkpt><trkpt lat="41.9353726" lon="12.1788972"><ele>21.857142857142854</ele><time>2026-04-01T08:21:51.772Z</time></trkpt><trkpt lat="41.9354281" lon="12.1789485"><ele>22.57142857142857</ele><time>2026-04-01T08:21:52.78Z</time></trkpt><trkpt lat="41.9354885" lon="12.1790025"><ele>23.285714285714285</ele><time>2026-04-01T08:21:53.765Z</time></trkpt><trkpt lat="41.9355397" lon="12.1790551"><ele>24.0</ele><time>2026-04-01T08:21:54.782Z</time></trkpt><trkpt lat="41.9355991" lon="12.1791097"><ele>24.166666666666668</ele><time>2026-04-01T08:21:55.778Z</time></trkpt><trkpt lat="41.9356559" lon="12.1791781"><ele>24.333333333333336</ele><time>2026-04-01T08:21:56.787Z</time></trkpt><trkpt lat="41.9357085" lon="12.1792455"><ele>24.5</ele><time>2026-04-01T08:21:57.778Z</time></trkpt><trkpt lat="41.9357559" lon="12.1793072"><ele>24.666666666666668</ele><time>2026-04-01T08:21:58.785Z</time></trkpt><trkpt lat="41.935856" lon="12.1794044"><ele>24.833333333333336</ele><time>2026-04-01T08:22:00.783Z</time></trkpt><trkpt lat="41.9359142" lon="12.1794487"><ele>25.0</ele><time>2026-04-01T08:22:01.786Z</time></trkpt><trkpt lat="41.9359744" lon="12.1794977"><ele>25.000000000000004</ele><time>2026-04-01T08:22:02.782Z</time></trkpt><trkpt lat="41.9360365" lon="12.1795453"><ele>25.0</ele><time>2026-04-01T08:22:03.787Z</time></trkpt><trkpt lat="41.9361002" lon="12.1796016"><ele>25.0</ele><time>2026-04-01T08:22:04.778Z</time></trkpt><trkpt lat="41.9361724" lon="12.1796554"><ele>25.0</ele><time>2026-04-01T08:22:05.794Z</time></trkpt><trkpt lat="41.9362434" lon="12.1797061"><ele>25.000000000000004</ele><time>2026-04-01T08:22:06.783Z</time></trkpt><trkpt lat="41.9363171" lon="12.1797663"><ele>25.0</ele><time>2026-04-01T08:22:07.79Z</time></trkpt><trkpt lat="41.9363955" lon="12.179833"><ele>25.4</ele><time>2026-04-01T08:22:08.815Z</time></trkpt><trkpt lat="41.9364747" lon="12.179904"><ele>25.8</ele><time>2026-04-01T08:22:09.785Z</time></trkpt><trkpt lat="41.9365574" lon="12.1799798"><ele>26.200000000000003</ele><time>2026-04-01T08:22:10.787Z</time></trkpt><trkpt lat="41.9366408" lon="12.1800687"><ele>26.6</ele><time>2026-04-01T08:22:11.784Z</time></trkpt><trkpt lat="41.9367299" lon="12.180163"><ele>27.0</ele><time>2026-04-01T08:22:12.788Z</time></trkpt><trkpt lat="41.9368214" lon="12.1802469"><ele>27.25</ele><time>2026-04-01T08:22:13.77Z</time></trkpt><trkpt lat="41.9369209" lon="12.1803357"><ele>27.5</ele><time>2026-04-01T08:22:14.795Z</time></trkpt><trkpt lat="41.937023" lon="12.1804413"><ele>27.75</ele><time>2026-04-01T08:22:15.785Z</time></trkpt><trkpt lat="41.9371307" lon="12.1805475"><ele>28.0</ele><time>2026-04-01T08:22:16.779Z</time></trkpt><trkpt lat="41.9372294" lon="12.1806377"><ele>27.799999999999997</ele><time>2026-04-01T08:22:17.782Z</time></trkpt><trkpt lat="41.9373264" lon="12.1807299"><ele>27.599999999999998</ele><time>2026-04-01T08:22:18.776Z</time></trkpt><trkpt lat="41.9374236" lon="12.1808064"><ele>27.400000000000002</ele><time>2026-04-01T08:22:19.785Z</time></trkpt><trkpt lat="41.9375189" lon="12.1808682"><ele>27.200000000000003</ele><time>2026-04-01T08:22:20.788Z</time></trkpt><trkpt lat="41.9376224" lon="12.1809266"><ele>27.0</ele><time>2026-04-01T08:22:21.784Z</time></trkpt><trkpt lat="41.9377284" lon="12.1809808"><ele>27.0</ele><time>2026-04-01T08:22:22.778Z</time></trkpt><trkpt lat="41.9378309" lon="12.1810442"><ele>27.0</ele><time>2026-04-01T08:22:23.785Z</time></trkpt><trkpt lat="41.9379425" lon="12.1810711"><ele>27.0</ele><time>2026-04-01T08:22:24.784Z</time></trkpt><trkpt lat="41.9380694" lon="12.1810904"><ele>27.0</ele><time>2026-04-01T08:22:25.785Z</time></trkpt><trkpt lat="41.9381997" lon="12.1811152"><ele>27.0</ele><time>2026-04-01T08:22:26.782Z</time></trkpt><trkpt lat="41.9383149" lon="12.1811404"><ele>27.0</ele><time>2026-04-01T08:22:27.788Z</time></trkpt><trkpt lat="41.9384387" lon="12.1811708"><ele>27.0</ele><time>2026-04-01T08:22:28.785Z</time></trkpt><trkpt lat="41.9385507" lon="12.1811973"><ele>27.0</ele><time>2026-04-01T08:22:29.793Z</time></trkpt><trkpt lat="41.9386595" lon="12.1812261"><ele>27.200000000000003</ele><time>2026-04-01T08:22:30.787Z</time></trkpt><trkpt lat="41.9387703" lon="12.1812563"><ele>27.400000000000002</ele><time>2026-04-01T08:22:31.801Z</time></trkpt><trkpt lat="41.9388766" lon="12.1812839"><ele>27.599999999999998</ele><time>2026-04-01T08:22:32.784Z</time></trkpt><trkpt lat="41.9389763" lon="12.1813111"><ele>27.799999999999997</ele><time>2026-04-01T08:22:33.777Z</time></trkpt><trkpt lat="41.9390705" lon="12.1813375"><ele>28.0</ele><time>2026-04-01T08:22:34.787Z</time></trkpt><trkpt lat="41.9391629" lon="12.1813634"><ele>28.0</ele><time>2026-04-01T08:22:35.777Z</time></trkpt><trkpt lat="41.9392588" lon="12.1813852"><ele>27.999999999999996</ele><time>2026-04-01T08:22:36.786Z</time></trkpt><trkpt lat="41.9393563" lon="12.181415"><ele>27.999999999999996</ele><time>2026-04-01T08:22:37.782Z</time></trkpt><trkpt lat="41.9394477" lon="12.1814472"><ele>28.0</ele><time>2026-04-01T08:22:38.8Z</time></trkpt><trkpt lat="41.9395378" lon="12.1814666"><ele>28.0</ele><time>2026-04-01T08:22:39.768Z</time></trkpt><trkpt lat="41.9396303" lon="12.1814848"><ele>28.000000000000004</ele><time>2026-04-01T08:22:40.789Z</time></trkpt><trkpt lat="41.9397107" lon="12.1814871"><ele>28.0</ele><time>2026-04-01T08:22:41.777Z</time></trkpt><trkpt lat="41.9398002" lon="12.1814843"><ele>28.0</ele><time>2026-04-01T08:22:42.78Z</time></trkpt><trkpt lat="41.9398896" lon="12.1814679"><ele>28.0</ele><time>2026-04-01T08:22:43.776Z</time></trkpt><trkpt lat="41.9399756" lon="12.1814347"><ele>28.000000000000004</ele><time>2026-04-01T08:22:44.781Z</time></trkpt><trkpt lat="41.9400626" lon="12.1813891"><ele>28.0</ele><time>2026-04-01T08:22:45.784Z</time></trkpt><trkpt lat="41.9401525" lon="12.1813579"><ele>28.799999999999997</ele><time>2026-04-01T08:22:46.785Z</time></trkpt><trkpt lat="41.9402474" lon="12.1813163"><ele>29.599999999999998</ele><time>2026-04-01T08:22:47.781Z</time></trkpt><trkpt lat="41.9403425" lon="12.181265"><ele>30.400000000000002</ele><time>2026-04-01T08:22:48.791Z</time></trkpt><trkpt lat="41.9404483" lon="12.1812167"><ele>31.200000000000003</ele><time>2026-04-01T08:22:49.782Z</time></trkpt><trkpt lat="41.9405575" lon="12.1811696"><ele>32.0</ele><time>2026-04-01T08:22:50.79Z</time></trkpt><trkpt lat="41.940664" lon="12.1811274"><ele>32.0</ele><time>2026-04-01T08:22:51.775Z</time></trkpt><trkpt lat="41.9407725" lon="12.181089"><ele>32.0</ele><time>2026-04-01T08:22:52.779Z</time></trkpt><trkpt lat="41.9408822" lon="12.1810652"><ele>32.0</ele><time>2026-04-01T08:22:53.775Z</time></trkpt><trkpt lat="41.9409922" lon="12.1810505"><ele>32.0</ele><time>2026-04-01T08:22:54.773Z</time></trkpt><trkpt lat="41.9411059" lon="12.1810414"><ele>32.0</ele><time>2026-04-01T08:22:55.77Z</time></trkpt><trkpt lat="41.9412203" lon="12.1810304"><ele>32.75</ele><time>2026-04-01T08:22:56.762Z</time></trkpt><trkpt lat="41.9413268" lon="12.1810306"><ele>33.5</ele><time>2026-04-01T08:22:57.762Z</time></trkpt><trkpt lat="41.9414478" lon="12.1810366"><ele>34.25</ele><time>2026-04-01T08:22:58.761Z</time></trkpt><trkpt lat="41.9415673" lon="12.1810418"><ele>35.0</ele><time>2026-04-01T08:22:59.768Z</time></trkpt><trkpt lat="41.9416923" lon="12.1810485"><ele>35.75</ele><time>2026-04-01T08:23:00.761Z</time></trkpt><trkpt lat="41.9418148" lon="12.1810546"><ele>36.5</ele><time>2026-04-01T08:23:01.776Z</time></trkpt><trkpt lat="41.941941" lon="12.1810661"><ele>37.25</ele><time>2026-04-01T08:23:02.769Z</time></trkpt><trkpt lat="41.9420656" lon="12.1810787"><ele>38.0</ele><time>2026-04-01T08:23:03.773Z</time></trkpt><trkpt lat="41.9421851" lon="12.1810939"><ele>38.0</ele><time>2026-04-01T08:23:04.783Z</time></trkpt><trkpt lat="41.9423075" lon="12.1811095"><ele>38.0</ele><time>2026-04-01T08:23:05.776Z</time></trkpt><trkpt lat="41.9424343" lon="12.1811249"><ele>38.0</ele><time>2026-04-01T08:23:06.783Z</time></trkpt><trkpt lat="41.9425599" lon="12.1811366"><ele>38.0</ele><time>2026-04-01T08:23:07.781Z</time></trkpt><trkpt lat="41.9426885" lon="12.1811447"><ele>38.4</ele><time>2026-04-01T08:23:08.782Z</time></trkpt><trkpt lat="41.9428059" lon="12.1811456"><ele>38.8</ele><time>2026-04-01T08:23:09.793Z</time></trkpt><trkpt lat="41.942921" lon="12.181153"><ele>39.2</ele><time>2026-04-01T08:23:10.785Z</time></trkpt><trkpt lat="41.9430272" lon="12.1811666"><ele>39.6</ele><time>2026-04-01T08:23:11.767Z</time></trkpt><trkpt lat="41.9431209" lon="12.1811816"><ele>40.0</ele><time>2026-04-01T08:23:12.77Z</time></trkpt><trkpt lat="41.9432055" lon="12.1812038"><ele>40.0</ele><time>2026-04-01T08:23:13.763Z</time></trkpt><trkpt lat="41.9432859" lon="12.1812395"><ele>40.0</ele><time>2026-04-01T08:23:14.77Z</time></trkpt><trkpt lat="41.94335" lon="12.1812814"><ele>40.0</ele><time>2026-04-01T08:23:15.758Z</time></trkpt><trkpt lat="41.9434157" lon="12.1813488"><ele>40.0</ele><time>2026-04-01T08:23:16.774Z</time></trkpt><trkpt lat="41.943465" lon="12.1814492"><ele>40.0</ele><time>2026-04-01T08:23:17.771Z</time></trkpt><trkpt lat="41.9434841" lon="12.1815882"><ele>40.0</ele><time>2026-04-01T08:23:18.767Z</time></trkpt><trkpt lat="41.9434938" lon="12.1817372"><ele>40.8</ele><time>2026-04-01T08:23:19.764Z</time></trkpt><trkpt lat="41.9435061" lon="12.1818865"><ele>41.6</ele><time>2026-04-01T08:23:20.774Z</time></trkpt><trkpt lat="41.9435237" lon="12.1820245"><ele>42.400000000000006</ele><time>2026-04-01T08:23:21.77Z</time></trkpt><trkpt lat="41.9435584" lon="12.1821572"><ele>43.2</ele><time>2026-04-01T08:23:22.783Z</time></trkpt><trkpt lat="41.9435955" lon="12.182297"><ele>44.0</ele><time>2026-04-01T08:23:23.774Z</time></trkpt><trkpt lat="41.943642" lon="12.1824386"><ele>47.0</ele><time>2026-04-01T08:23:24.782Z</time></trkpt><trkpt lat="41.9436867" lon="12.1825862"><ele>50.0</ele><time>2026-04-01T08:23:25.774Z</time></trkpt><trkpt lat="41.943734" lon="12.1827449"><ele>53.0</ele><time>2026-04-01T08:23:26.77Z</time></trkpt><trkpt lat="41.9437813" lon="12.18289"><ele>56.0</ele><time>2026-04-01T08:23:27.765Z</time></trkpt><trkpt lat="41.9438275" lon="12.1830249"><ele>56.0</ele><time>2026-04-01T08:23:28.778Z</time></trkpt><trkpt lat="41.9438586" lon="12.1831581"><ele>55.99999999999999</ele><time>2026-04-01T08:23:29.766Z</time></trkpt><trkpt lat="41.9438927" lon="12.1832778"><ele>55.99999999999999</ele><time>2026-04-01T08:23:30.772Z</time></trkpt><trkpt lat="41.9439298" lon="12.18338"><ele>56.0</ele><time>2026-04-01T08:23:31.78Z</time></trkpt><trkpt lat="41.9440377" lon="12.1834508"><ele>56.0</ele><time>2026-04-01T08:23:33.769Z</time></trkpt><trkpt lat="41.9441062" lon="12.1834618"><ele>56.333333333333336</ele><time>2026-04-01T08:23:34.77Z</time></trkpt><trkpt lat="41.9441676" lon="12.1834907"><ele>56.66666666666667</ele><time>2026-04-01T08:23:35.782Z</time></trkpt><trkpt lat="41.9442245" lon="12.1835721"><ele>57.0</ele><time>2026-04-01T08:23:36.783Z</time></trkpt><trkpt lat="41.9442571" lon="12.1836707"><ele>57.33333333333333</ele><time>2026-04-01T08:23:37.766Z</time></trkpt><trkpt lat="41.9442776" lon="12.183793"><ele>57.666666666666664</ele><time>2026-04-01T08:23:38.769Z</time></trkpt><trkpt lat="41.9442931" lon="12.1839161"><ele>58.0</ele><time>2026-04-01T08:23:39.779Z</time></trkpt><trkpt lat="41.9443108" lon="12.1840485"><ele>59.0</ele><time>2026-04-01T08:23:40.794Z</time></trkpt><trkpt lat="41.9443338" lon="12.1841928"><ele>60.0</ele><time>2026-04-01T08:23:41.777Z</time></trkpt><trkpt lat="41.9443619" lon="12.184342"><ele>61.0</ele><time>2026-04-01T08:23:42.776Z</time></trkpt><trkpt lat="41.9443962" lon="12.1844893"><ele>62.0</ele><time>2026-04-01T08:23:43.783Z</time></trkpt><trkpt lat="41.9444438" lon="12.1846346"><ele>62.0</ele><time>2026-04-01T08:23:44.777Z</time></trkpt><trkpt lat="41.9444988" lon="12.1847825"><ele>62.0</ele><time>2026-04-01T08:23:45.773Z</time></trkpt><trkpt lat="41.9445551" lon="12.1849253"><ele>62.0</ele><time>2026-04-01T08:23:46.784Z</time></trkpt><trkpt lat="41.9446167" lon="12.185059"><ele>62.0</ele><time>2026-04-01T08:23:47.787Z</time></trkpt><trkpt lat="41.944689" lon="12.1851679"><ele>63.400000000000006</ele><time>2026-04-01T08:23:48.791Z</time></trkpt><trkpt lat="41.9447764" lon="12.1852558"><ele>64.80000000000001</ele><time>2026-04-01T08:23:49.78Z</time></trkpt><trkpt lat="41.9448625" lon="12.1853397"><ele>66.2</ele><time>2026-04-01T08:23:50.791Z</time></trkpt><trkpt lat="41.9449452" lon="12.1854066"><ele>67.60000000000001</ele><time>2026-04-01T08:23:51.787Z</time></trkpt><trkpt lat="41.9450319" lon="12.1854564"><ele>69.0</ele><time>2026-04-01T08:23:52.798Z</time></trkpt><trkpt lat="41.9451266" lon="12.1855049"><ele>69.0</ele><time>2026-04-01T08:23:53.779Z</time></trkpt><trkpt lat="41.9452118" lon="12.1855572"><ele>69.0</ele><time>2026-04-01T08:23:54.793Z</time></trkpt><trkpt lat="41.9453054" lon="12.1856074"><ele>69.0</ele><time>2026-04-01T08:23:55.789Z</time></trkpt><trkpt lat="41.9453958" lon="12.185674"><ele>69.0</ele><time>2026-04-01T08:23:56.794Z</time></trkpt><trkpt lat="41.9454872" lon="12.1857407"><ele>69.0</ele><time>2026-04-01T08:23:57.795Z</time></trkpt><trkpt lat="41.9455827" lon="12.1858087"><ele>70.16666666666667</ele><time>2026-04-01T08:23:58.793Z</time></trkpt><trkpt lat="41.9456677" lon="12.1858779"><ele>71.33333333333333</ele><time>2026-04-01T08:23:59.788Z</time></trkpt><trkpt lat="41.9457554" lon="12.1859317"><ele>72.5</ele><time>2026-04-01T08:24:00.788Z</time></trkpt><trkpt lat="41.9458328" lon="12.1859792"><ele>73.66666666666666</ele><time>2026-04-01T08:24:01.791Z</time></trkpt><trkpt lat="41.9459069" lon="12.1860336"><ele>74.83333333333333</ele><time>2026-04-01T08:24:02.794Z</time></trkpt><trkpt lat="41.945977" lon="12.1860888"><ele>76.0</ele><time>2026-04-01T08:24:03.79Z</time></trkpt><trkpt lat="41.9460416" lon="12.1861421"><ele>76.0</ele><time>2026-04-01T08:24:04.794Z</time></trkpt><trkpt lat="41.9461058" lon="12.1861939"><ele>76.0</ele><time>2026-04-01T08:24:05.789Z</time></trkpt><trkpt lat="41.9461671" lon="12.1862348"><ele>76.0</ele><time>2026-04-01T08:24:06.787Z</time></trkpt><trkpt lat="41.94627" lon="12.1862991"><ele>76.0</ele><time>2026-04-01T08:24:08.777Z</time></trkpt><trkpt lat="41.9463627" lon="12.1863374"><ele>76.0</ele><time>2026-04-01T08:24:10.784Z</time></trkpt><trkpt lat="41.9464452" lon="12.1863625"><ele>76.0</ele><time>2026-04-01T08:24:12.78Z</time></trkpt><trkpt lat="41.9465489" lon="12.1863976"><ele>76.0</ele><time>2026-04-01T08:24:14.792Z</time></trkpt><trkpt lat="41.9466705" lon="12.1864186"><ele>76.0</ele><time>2026-04-01T08:24:16.785Z</time></trkpt><trkpt lat="41.9467339" lon="12.1864204"><ele>76.0</ele><time>2026-04-01T08:24:17.786Z</time></trkpt><trkpt lat="41.9468016" lon="12.1864245"><ele>76.0</ele><time>2026-04-01T08:24:18.778Z</time></trkpt><trkpt lat="41.9468735" lon="12.1864231"><ele>76.0</ele><time>2026-04-01T08:24:19.787Z</time></trkpt><trkpt lat="41.9469541" lon="12.1864162"><ele>76.0</ele><time>2026-04-01T08:24:20.784Z</time></trkpt><trkpt lat="41.9470357" lon="12.1864169"><ele>76.2</ele><time>2026-04-01T08:24:21.792Z</time></trkpt><trkpt lat="41.9471259" lon="12.1864155"><ele>76.39999999999999</ele><time>2026-04-01T08:24:22.795Z</time></trkpt><trkpt lat="41.9472147" lon="12.1864213"><ele>76.6</ele><time>2026-04-01T08:24:23.797Z</time></trkpt><trkpt lat="41.94731" lon="12.1864336"><ele>76.8</ele><time>2026-04-01T08:24:24.792Z</time></trkpt><trkpt lat="41.9474012" lon="12.1864454"><ele>77.0</ele><time>2026-04-01T08:24:25.798Z</time></trkpt><trkpt lat="41.9474918" lon="12.186456"><ele>77.0</ele><time>2026-04-01T08:24:26.788Z</time></trkpt><trkpt lat="41.9475841" lon="12.1864634"><ele>77.0</ele><time>2026-04-01T08:24:27.799Z</time></trkpt><trkpt lat="41.947671" lon="12.1864682"><ele>77.0</ele><time>2026-04-01T08:24:28.787Z</time></trkpt><trkpt lat="41.9477619" lon="12.1864749"><ele>77.0</ele><time>2026-04-01T08:24:29.789Z</time></trkpt><trkpt lat="41.9478515" lon="12.1864823"><ele>77.0</ele><time>2026-04-01T08:24:30.786Z</time></trkpt><trkpt lat="41.9479447" lon="12.1864936"><ele>77.0</ele><time>2026-04-01T08:24:31.797Z</time></trkpt><trkpt lat="41.9480421" lon="12.1865035"><ele>77.0</ele><time>2026-04-01T08:24:32.79Z</time></trkpt><trkpt lat="41.9481429" lon="12.1865108"><ele>77.0</ele><time>2026-04-01T08:24:33.795Z</time></trkpt><trkpt lat="41.9482392" lon="12.186517"><ele>77.0</ele><time>2026-04-01T08:24:34.791Z</time></trkpt><trkpt lat="41.948338" lon="12.1865237"><ele>77.0</ele><time>2026-04-01T08:24:35.786Z</time></trkpt><trkpt lat="41.9484263" lon="12.186531"><ele>77.8</ele><time>2026-04-01T08:24:36.79Z</time></trkpt><trkpt lat="41.9485261" lon="12.1865384"><ele>78.6</ele><time>2026-04-01T08:24:37.79Z</time></trkpt><trkpt lat="41.9486191" lon="12.1865477"><ele>79.39999999999999</ele><time>2026-04-01T08:24:38.787Z</time></trkpt><trkpt lat="41.9487136" lon="12.1865629"><ele>80.2</ele><time>2026-04-01T08:24:39.796Z</time></trkpt><trkpt lat="41.9488038" lon="12.1865927"><ele>81.0</ele><time>2026-04-01T08:24:40.793Z</time></trkpt><trkpt lat="41.9488903" lon="12.1866369"><ele>81.0</ele><time>2026-04-01T08:24:41.784Z</time></trkpt><trkpt lat="41.9489849" lon="12.1866877"><ele>81.0</ele><time>2026-04-01T08:24:42.798Z</time></trkpt><trkpt lat="41.9490742" lon="12.1867418"><ele>81.0</ele><time>2026-04-01T08:24:43.78Z</time></trkpt><trkpt lat="41.9491626" lon="12.1868078"><ele>81.0</ele><time>2026-04-01T08:24:44.779Z</time></trkpt><trkpt lat="41.9492477" lon="12.1868653"><ele>81.0</ele><time>2026-04-01T08:24:45.777Z</time></trkpt><trkpt lat="41.9493235" lon="12.1869088"><ele>81.0</ele><time>2026-04-01T08:24:46.78Z</time></trkpt><trkpt lat="41.9493932" lon="12.1869437"><ele>81.0</ele><time>2026-04-01T08:24:47.776Z</time></trkpt><trkpt lat="41.9495035" lon="12.186976"><ele>81.0</ele><time>2026-04-01T08:24:49.782Z</time></trkpt><trkpt lat="41.9495655" lon="12.1869611"><ele>81.0</ele><time>2026-04-01T08:24:51.785Z</time></trkpt><trkpt lat="41.9495032" lon="12.1869373"><ele>81.0</ele><time>2026-04-01T08:24:59.774Z</time></trkpt><trkpt lat="41.9494566" lon="12.1869955"><ele>81.0</ele><time>2026-04-01T08:27:22.776Z</time></trkpt><trkpt lat="41.9493928" lon="12.1869785"><ele>81.0</ele><time>2026-04-01T08:27:25.775Z</time></trkpt><trkpt lat="41.9493069" lon="12.1869181"><ele>81.0</ele><time>2026-04-01T08:27:27.789Z</time></trkpt><trkpt lat="41.9492464" lon="12.1868766"><ele>81.0</ele><time>2026-04-01T08:27:28.779Z</time></trkpt><trkpt lat="41.9491797" lon="12.1868338"><ele>81.0</ele><time>2026-04-01T08:27:29.775Z</time></trkpt><trkpt lat="41.9491075" lon="12.1867892"><ele>81.0</ele><time>2026-04-01T08:27:30.775Z</time></trkpt><trkpt lat="41.9490295" lon="12.18674"><ele>81.0</ele><time>2026-04-01T08:27:31.778Z</time></trkpt><trkpt lat="41.9488769" lon="12.1866431"><ele>81.0</ele><time>2026-04-01T08:27:33.79Z</time></trkpt><trkpt lat="41.9487913" lon="12.1865962"><ele>81.0</ele><time>2026-04-01T08:27:34.784Z</time></trkpt><trkpt lat="41.9487094" lon="12.1865582"><ele>81.0</ele><time>2026-04-01T08:27:35.769Z</time></trkpt><trkpt lat="41.9486263" lon="12.1865344"><ele>81.0</ele><time>2026-04-01T08:27:36.78Z</time></trkpt><trkpt lat="41.948539" lon="12.186516"><ele>81.0</ele><time>2026-04-01T08:27:37.787Z</time></trkpt><trkpt lat="41.9484441" lon="12.1865045"><ele>81.0</ele><time>2026-04-01T08:27:38.77Z</time></trkpt><trkpt lat="41.9483493" lon="12.1864993"><ele>80.2</ele><time>2026-04-01T08:27:39.784Z</time></trkpt><trkpt lat="41.9482577" lon="12.1864948"><ele>79.39999999999999</ele><time>2026-04-01T08:27:40.784Z</time></trkpt><trkpt lat="41.9481569" lon="12.1864962"><ele>78.6</ele><time>2026-04-01T08:27:41.784Z</time></trkpt><trkpt lat="41.9480632" lon="12.1865011"><ele>77.8</ele><time>2026-04-01T08:27:42.769Z</time></trkpt><trkpt lat="41.9479667" lon="12.18651"><ele>77.0</ele><time>2026-04-01T08:27:43.783Z</time></trkpt><trkpt lat="41.9478709" lon="12.1865083"><ele>77.0</ele><time>2026-04-01T08:27:44.781Z</time></trkpt><trkpt lat="41.9477828" lon="12.1865042"><ele>77.0</ele><time>2026-04-01T08:27:45.789Z</time></trkpt><trkpt lat="41.9476958" lon="12.1864964"><ele>77.0</ele><time>2026-04-01T08:27:46.787Z</time></trkpt><trkpt lat="41.9476054" lon="12.1864843"><ele>77.0</ele><time>2026-04-01T08:27:47.807Z</time></trkpt><trkpt lat="41.9475125" lon="12.1864739"><ele>77.0</ele><time>2026-04-01T08:27:48.789Z</time></trkpt><trkpt lat="41.9474155" lon="12.1864636"><ele>77.0</ele><time>2026-04-01T08:27:49.791Z</time></trkpt><trkpt lat="41.9473208" lon="12.1864515"><ele>77.0</ele><time>2026-04-01T08:27:50.79Z</time></trkpt><trkpt lat="41.9472257" lon="12.1864393"><ele>77.0</ele><time>2026-04-01T08:27:51.793Z</time></trkpt><trkpt lat="41.9471343" lon="12.186427"><ele>77.0</ele><time>2026-04-01T08:27:52.793Z</time></trkpt><trkpt lat="41.9470421" lon="12.1864096"><ele>77.0</ele><time>2026-04-01T08:27:53.788Z</time></trkpt><trkpt lat="41.9469544" lon="12.1863972"><ele>77.0</ele><time>2026-04-01T08:27:54.8Z</time></trkpt><trkpt lat="41.9468664" lon="12.1863903"><ele>77.0</ele><time>2026-04-01T08:27:55.799Z</time></trkpt><trkpt lat="41.9467763" lon="12.1863821"><ele>77.0</ele><time>2026-04-01T08:27:56.792Z</time></trkpt><trkpt lat="41.9466895" lon="12.1863771"><ele>77.0</ele><time>2026-04-01T08:27:57.792Z</time></trkpt><trkpt lat="41.9466071" lon="12.186371"><ele>77.0</ele><time>2026-04-01T08:27:58.797Z</time></trkpt><trkpt lat="41.9465306" lon="12.1863579"><ele>77.0</ele><time>2026-04-01T08:27:59.798Z</time></trkpt><trkpt lat="41.9464557" lon="12.1863425"><ele>76.8</ele><time>2026-04-01T08:28:00.79Z</time></trkpt><trkpt lat="41.9463847" lon="12.1863212"><ele>76.6</ele><time>2026-04-01T08:28:01.791Z</time></trkpt><trkpt lat="41.9462745" lon="12.1862843"><ele>76.39999999999999</ele><time>2026-04-01T08:28:03.783Z</time></trkpt><trkpt lat="41.946185" lon="12.1862428"><ele>76.2</ele><time>2026-04-01T08:28:05.793Z</time></trkpt><trkpt lat="41.9460857" lon="12.1861646"><ele>76.0</ele><time>2026-04-01T08:28:07.79Z</time></trkpt><trkpt lat="41.9460232" lon="12.1861128"><ele>76.0</ele><time>2026-04-01T08:28:08.785Z</time></trkpt><trkpt lat="41.9459617" lon="12.1860601"><ele>76.0</ele><time>2026-04-01T08:28:09.794Z</time></trkpt><trkpt lat="41.9458904" lon="12.1859919"><ele>76.0</ele><time>2026-04-01T08:28:10.79Z</time></trkpt><trkpt lat="41.9458159" lon="12.1859091"><ele>76.0</ele><time>2026-04-01T08:28:11.794Z</time></trkpt><trkpt lat="41.9457366" lon="12.1858326"><ele>76.0</ele><time>2026-04-01T08:28:12.797Z</time></trkpt><trkpt lat="41.9456641" lon="12.1857717"><ele>76.0</ele><time>2026-04-01T08:28:13.786Z</time></trkpt><trkpt lat="41.9455885" lon="12.1857192"><ele>74.83333333333333</ele><time>2026-04-01T08:28:14.794Z</time></trkpt><trkpt lat="41.9455161" lon="12.1856746"><ele>73.66666666666666</ele><time>2026-04-01T08:28:15.797Z</time></trkpt><trkpt lat="41.9454456" lon="12.185623"><ele>72.5</ele><time>2026-04-01T08:28:16.791Z</time></trkpt><trkpt lat="41.9453729" lon="12.1855654"><ele>71.33333333333333</ele><time>2026-04-01T08:28:17.798Z</time></trkpt><trkpt lat="41.9453002" lon="12.1855133"><ele>70.16666666666667</ele><time>2026-04-01T08:28:18.8Z</time></trkpt><trkpt lat="41.9452177" lon="12.1854508"><ele>69.0</ele><time>2026-04-01T08:28:19.792Z</time></trkpt><trkpt lat="41.9451327" lon="12.185387"><ele>69.0</ele><time>2026-04-01T08:28:20.791Z</time></trkpt><trkpt lat="41.9450516" lon="12.1853198"><ele>69.0</ele><time>2026-04-01T08:28:21.792Z</time></trkpt><trkpt lat="41.9449667" lon="12.1852584"><ele>69.0</ele><time>2026-04-01T08:28:22.8Z</time></trkpt><trkpt lat="41.9448859" lon="12.1852016"><ele>69.0</ele><time>2026-04-01T08:28:23.791Z</time></trkpt><trkpt lat="41.944805" lon="12.1851411"><ele>69.0</ele><time>2026-04-01T08:28:24.79Z</time></trkpt><trkpt lat="41.9447333" lon="12.1850775"><ele>69.0</ele><time>2026-04-01T08:28:25.791Z</time></trkpt><trkpt lat="41.9446553" lon="12.1850045"><ele>69.0</ele><time>2026-04-01T08:28:26.784Z</time></trkpt><trkpt lat="41.944576" lon="12.1849192"><ele>69.0</ele><time>2026-04-01T08:28:27.79Z</time></trkpt><trkpt lat="41.9445091" lon="12.1848281"><ele>69.0</ele><time>2026-04-01T08:28:28.78Z</time></trkpt><trkpt lat="41.9444533" lon="12.1847172"><ele>69.0</ele><time>2026-04-01T08:28:29.781Z</time></trkpt><trkpt lat="41.9444074" lon="12.1846036"><ele>67.60000000000001</ele><time>2026-04-01T08:28:30.777Z</time></trkpt><trkpt lat="41.9443612" lon="12.1844864"><ele>66.2</ele><time>2026-04-01T08:28:31.78Z</time></trkpt><trkpt lat="41.9443246" lon="12.1843477"><ele>64.80000000000001</ele><time>2026-04-01T08:28:32.772Z</time></trkpt><trkpt lat="41.94429" lon="12.1842172"><ele>63.400000000000006</ele><time>2026-04-01T08:28:33.777Z</time></trkpt><trkpt lat="41.9442606" lon="12.1840727"><ele>62.0</ele><time>2026-04-01T08:28:34.774Z</time></trkpt><trkpt lat="41.9442399" lon="12.1839306"><ele>61.8</ele><time>2026-04-01T08:28:35.779Z</time></trkpt><trkpt lat="41.9442238" lon="12.1837844"><ele>61.6</ele><time>2026-04-01T08:28:36.776Z</time></trkpt><trkpt lat="41.9442158" lon="12.1836429"><ele>61.39999999999999</ele><time>2026-04-01T08:28:37.777Z</time></trkpt><trkpt lat="41.9442023" lon="12.1835156"><ele>61.199999999999996</ele><time>2026-04-01T08:28:38.78Z</time></trkpt><trkpt lat="41.9441776" lon="12.1834009"><ele>61.0</ele><time>2026-04-01T08:28:39.78Z</time></trkpt><trkpt lat="41.9441348" lon="12.1833143"><ele>60.99999999999999</ele><time>2026-04-01T08:28:40.783Z</time></trkpt><trkpt lat="41.9440707" lon="12.1832651"><ele>61.0</ele><time>2026-04-01T08:28:41.78Z</time></trkpt><trkpt lat="41.9439942" lon="12.183247"><ele>61.0</ele><time>2026-04-01T08:28:42.774Z</time></trkpt><trkpt lat="41.9439298" lon="12.1832303"><ele>61.0</ele><time>2026-04-01T08:28:43.773Z</time></trkpt><trkpt lat="41.9438694" lon="12.1831993"><ele>60.99999999999999</ele><time>2026-04-01T08:28:44.769Z</time></trkpt><trkpt lat="41.9437851" lon="12.183059"><ele>61.0</ele><time>2026-04-01T08:28:46.78Z</time></trkpt><trkpt lat="41.9437615" lon="12.1829029"><ele>59.75</ele><time>2026-04-01T08:28:47.772Z</time></trkpt><trkpt lat="41.9437277" lon="12.1827428"><ele>58.5</ele><time>2026-04-01T08:28:48.772Z</time></trkpt><trkpt lat="41.9436832" lon="12.1825897"><ele>57.25</ele><time>2026-04-01T08:28:49.79Z</time></trkpt><trkpt lat="41.9436369" lon="12.1824416"><ele>56.0</ele><time>2026-04-01T08:28:50.78Z</time></trkpt><trkpt lat="41.9435857" lon="12.1822944"><ele>53.599999999999994</ele><time>2026-04-01T08:28:51.781Z</time></trkpt><trkpt lat="41.9435289" lon="12.1821542"><ele>51.199999999999996</ele><time>2026-04-01T08:28:52.781Z</time></trkpt><trkpt lat="41.943474" lon="12.1820168"><ele>48.8</ele><time>2026-04-01T08:28:53.775Z</time></trkpt><trkpt lat="41.9434286" lon="12.1818976"><ele>46.400000000000006</ele><time>2026-04-01T08:28:54.774Z</time></trkpt><trkpt lat="41.9433807" lon="12.1817767"><ele>44.0</ele><time>2026-04-01T08:28:55.776Z</time></trkpt><trkpt lat="41.9433358" lon="12.1816523"><ele>44.0</ele><time>2026-04-01T08:28:56.769Z</time></trkpt><trkpt lat="41.9433068" lon="12.1815393"><ele>44.0</ele><time>2026-04-01T08:28:57.773Z</time></trkpt><trkpt lat="41.94329" lon="12.1814438"><ele>44.0</ele><time>2026-04-01T08:28:58.773Z</time></trkpt><trkpt lat="41.9432719" lon="12.1813606"><ele>44.0</ele><time>2026-04-01T08:28:59.784Z</time></trkpt><trkpt lat="41.9432179" lon="12.1812216"><ele>44.0</ele><time>2026-04-01T08:29:01.777Z</time></trkpt><trkpt lat="41.9431199" lon="12.1811248"><ele>43.33333333333333</ele><time>2026-04-01T08:29:03.77Z</time></trkpt><trkpt lat="41.943048" lon="12.181096"><ele>42.666666666666664</ele><time>2026-04-01T08:29:04.766Z</time></trkpt><trkpt lat="41.9429735" lon="12.1810791"><ele>42.0</ele><time>2026-04-01T08:29:05.765Z</time></trkpt><trkpt lat="41.9428944" lon="12.1810735"><ele>41.333333333333336</ele><time>2026-04-01T08:29:06.772Z</time></trkpt><trkpt lat="41.9427977" lon="12.1810763"><ele>40.66666666666667</ele><time>2026-04-01T08:29:07.774Z</time></trkpt><trkpt lat="41.9426898" lon="12.1810829"><ele>40.0</ele><time>2026-04-01T08:29:08.774Z</time></trkpt><trkpt lat="41.9425713" lon="12.1810924"><ele>39.5</ele><time>2026-04-01T08:29:09.78Z</time></trkpt><trkpt lat="41.9424526" lon="12.1810974"><ele>39.0</ele><time>2026-04-01T08:29:10.784Z</time></trkpt><trkpt lat="41.9423273" lon="12.1811007"><ele>38.5</ele><time>2026-04-01T08:29:11.791Z</time></trkpt><trkpt lat="41.942205" lon="12.1810879"><ele>38.0</ele><time>2026-04-01T08:29:12.785Z</time></trkpt><trkpt lat="41.9420841" lon="12.1810752"><ele>38.0</ele><time>2026-04-01T08:29:13.79Z</time></trkpt><trkpt lat="41.9419692" lon="12.1810638"><ele>38.0</ele><time>2026-04-01T08:29:14.787Z</time></trkpt><trkpt lat="41.9418632" lon="12.1810597"><ele>38.0</ele><time>2026-04-01T08:29:15.787Z</time></trkpt><trkpt lat="41.9417571" lon="12.181051"><ele>38.0</ele><time>2026-04-01T08:29:16.793Z</time></trkpt><trkpt lat="41.9416454" lon="12.1810376"><ele>38.0</ele><time>2026-04-01T08:29:17.794Z</time></trkpt><trkpt lat="41.9415301" lon="12.1810272"><ele>37.25</ele><time>2026-04-01T08:29:18.796Z</time></trkpt><trkpt lat="41.9414119" lon="12.181022"><ele>36.5</ele><time>2026-04-01T08:29:19.782Z</time></trkpt><trkpt lat="41.9412941" lon="12.18102"><ele>35.75</ele><time>2026-04-01T08:29:20.795Z</time></trkpt><trkpt lat="41.9411833" lon="12.1810219"><ele>35.0</ele><time>2026-04-01T08:29:21.776Z</time></trkpt><trkpt lat="41.9410802" lon="12.1810195"><ele>35.0</ele><time>2026-04-01T08:29:22.791Z</time></trkpt><trkpt lat="41.9409749" lon="12.1810159"><ele>35.0</ele><time>2026-04-01T08:29:23.77Z</time></trkpt><trkpt lat="41.940878" lon="12.1810306"><ele>35.0</ele><time>2026-04-01T08:29:24.776Z</time></trkpt><trkpt lat="41.9407765" lon="12.1810537"><ele>35.0</ele><time>2026-04-01T08:29:25.779Z</time></trkpt><trkpt lat="41.9406805" lon="12.1810577"><ele>35.0</ele><time>2026-04-01T08:29:26.78Z</time></trkpt><trkpt lat="41.9405952" lon="12.1810621"><ele>34.5</ele><time>2026-04-01T08:29:27.779Z</time></trkpt><trkpt lat="41.9405121" lon="12.1810924"><ele>34.0</ele><time>2026-04-01T08:29:28.778Z</time></trkpt><trkpt lat="41.9404404" lon="12.1811273"><ele>33.5</ele><time>2026-04-01T08:29:29.786Z</time></trkpt><trkpt lat="41.9403638" lon="12.181167"><ele>33.0</ele><time>2026-04-01T08:29:30.792Z</time></trkpt><trkpt lat="41.9402815" lon="12.1812164"><ele>32.5</ele><time>2026-04-01T08:29:31.785Z</time></trkpt><trkpt lat="41.9401973" lon="12.1812632"><ele>32.0</ele><time>2026-04-01T08:29:32.792Z</time></trkpt><trkpt lat="41.9401163" lon="12.1813003"><ele>31.333333333333332</ele><time>2026-04-01T08:29:33.789Z</time></trkpt><trkpt lat="41.9400372" lon="12.1813418"><ele>30.666666666666664</ele><time>2026-04-01T08:29:34.792Z</time></trkpt><trkpt lat="41.9399569" lon="12.1813793"><ele>30.0</ele><time>2026-04-01T08:29:35.794Z</time></trkpt><trkpt lat="41.9398791" lon="12.1814121"><ele>29.333333333333336</ele><time>2026-04-01T08:29:36.794Z</time></trkpt><trkpt lat="41.9398018" lon="12.1814418"><ele>28.666666666666668</ele><time>2026-04-01T08:29:37.794Z</time></trkpt><trkpt lat="41.9397238" lon="12.181467"><ele>28.0</ele><time>2026-04-01T08:29:38.783Z</time></trkpt><trkpt lat="41.9396411" lon="12.1814816"><ele>28.000000000000004</ele><time>2026-04-01T08:29:39.785Z</time></trkpt><trkpt lat="41.9395597" lon="12.1814834"><ele>28.0</ele><time>2026-04-01T08:29:40.783Z</time></trkpt><trkpt lat="41.9394817" lon="12.1814705"><ele>28.0</ele><time>2026-04-01T08:29:41.791Z</time></trkpt><trkpt lat="41.9394006" lon="12.1814435"><ele>28.0</ele><time>2026-04-01T08:29:42.781Z</time></trkpt><trkpt lat="41.9393183" lon="12.1814105"><ele>28.000000000000004</ele><time>2026-04-01T08:29:43.79Z</time></trkpt><trkpt lat="41.9392304" lon="12.1813705"><ele>28.0</ele><time>2026-04-01T08:29:44.792Z</time></trkpt><trkpt lat="41.9391375" lon="12.1813347"><ele>28.0</ele><time>2026-04-01T08:29:45.793Z</time></trkpt><trkpt lat="41.9390391" lon="12.1812992"><ele>27.999999999999996</ele><time>2026-04-01T08:29:46.787Z</time></trkpt><trkpt lat="41.938939" lon="12.1812621"><ele>27.999999999999996</ele><time>2026-04-01T08:29:47.792Z</time></trkpt><trkpt lat="41.9388287" lon="12.1812271"><ele>28.0</ele><time>2026-04-01T08:29:48.794Z</time></trkpt><trkpt lat="41.938722" lon="12.1811964"><ele>28.0</ele><time>2026-04-01T08:29:49.796Z</time></trkpt><trkpt lat="41.9386094" lon="12.1811631"><ele>28.0</ele><time>2026-04-01T08:29:50.796Z</time></trkpt><trkpt lat="41.9384994" lon="12.1811286"><ele>28.0</ele><time>2026-04-01T08:29:51.809Z</time></trkpt><trkpt lat="41.9383883" lon="12.1810956"><ele>28.0</ele><time>2026-04-01T08:29:52.792Z</time></trkpt><trkpt lat="41.9382748" lon="12.1810605"><ele>28.0</ele><time>2026-04-01T08:29:53.791Z</time></trkpt><trkpt lat="41.9381593" lon="12.1810251"><ele>27.75</ele><time>2026-04-01T08:29:54.786Z</time></trkpt><trkpt lat="41.938043" lon="12.1809833"><ele>27.5</ele><time>2026-04-01T08:29:55.785Z</time></trkpt><trkpt lat="41.937919" lon="12.1809453"><ele>27.25</ele><time>2026-04-01T08:29:56.785Z</time></trkpt><trkpt lat="41.9377956" lon="12.1809119"><ele>27.0</ele><time>2026-04-01T08:29:57.788Z</time></trkpt><trkpt lat="41.9376766" lon="12.1808724"><ele>27.0</ele><time>2026-04-01T08:29:58.788Z</time></trkpt><trkpt lat="41.9375611" lon="12.1808352"><ele>27.0</ele><time>2026-04-01T08:29:59.793Z</time></trkpt><trkpt lat="41.9374499" lon="12.1807963"><ele>27.0</ele><time>2026-04-01T08:30:00.78Z</time></trkpt><trkpt lat="41.9373461" lon="12.1807394"><ele>27.0</ele><time>2026-04-01T08:30:01.783Z</time></trkpt><trkpt lat="41.93725" lon="12.1806661"><ele>27.25</ele><time>2026-04-01T08:30:02.791Z</time></trkpt><trkpt lat="41.9371636" lon="12.1805692"><ele>27.5</ele><time>2026-04-01T08:30:03.788Z</time></trkpt><trkpt lat="41.9370727" lon="12.1804672"><ele>27.75</ele><time>2026-04-01T08:30:04.792Z</time></trkpt><trkpt lat="41.9369779" lon="12.1803665"><ele>28.0</ele><time>2026-04-01T08:30:05.796Z</time></trkpt><trkpt lat="41.9368842" lon="12.1802633"><ele>28.0</ele><time>2026-04-01T08:30:06.795Z</time></trkpt><trkpt lat="41.9367929" lon="12.1801672"><ele>28.0</ele><time>2026-04-01T08:30:07.804Z</time></trkpt><trkpt lat="41.9366995" lon="12.1800689"><ele>28.0</ele><time>2026-04-01T08:30:08.794Z</time></trkpt><trkpt lat="41.9366115" lon="12.1799797"><ele>28.0</ele><time>2026-04-01T08:30:09.799Z</time></trkpt><trkpt lat="41.936524" lon="12.1798913"><ele>27.4</ele><time>2026-04-01T08:30:10.794Z</time></trkpt><trkpt lat="41.9364364" lon="12.1798018"><ele>26.799999999999997</ele><time>2026-04-01T08:30:11.796Z</time></trkpt><trkpt lat="41.9363486" lon="12.1797102"><ele>26.2</ele><time>2026-04-01T08:30:12.798Z</time></trkpt><trkpt lat="41.9362555" lon="12.1796226"><ele>25.6</ele><time>2026-04-01T08:30:13.799Z</time></trkpt><trkpt lat="41.9361656" lon="12.1795416"><ele>25.0</ele><time>2026-04-01T08:30:14.79Z</time></trkpt><trkpt lat="41.9360769" lon="12.1794657"><ele>25.000000000000004</ele><time>2026-04-01T08:30:15.795Z</time></trkpt><trkpt lat="41.9359965" lon="12.1794002"><ele>25.0</ele><time>2026-04-01T08:30:16.787Z</time></trkpt><trkpt lat="41.9359213" lon="12.1793415"><ele>25.0</ele><time>2026-04-01T08:30:17.792Z</time></trkpt><trkpt lat="41.9358539" lon="12.1792882"><ele>25.0</ele><time>2026-04-01T08:30:18.784Z</time></trkpt><trkpt lat="41.9357939" lon="12.1792389"><ele>25.000000000000004</ele><time>2026-04-01T08:30:19.795Z</time></trkpt><trkpt lat="41.9356917" lon="12.1791552"><ele>25.0</ele><time>2026-04-01T08:30:21.785Z</time></trkpt><trkpt lat="41.9356354" lon="12.1791154"><ele>25.166666666666668</ele><time>2026-04-01T08:30:22.798Z</time></trkpt><trkpt lat="41.9355827" lon="12.1790676"><ele>25.333333333333336</ele><time>2026-04-01T08:30:23.779Z</time></trkpt><trkpt lat="41.9355242" lon="12.1790075"><ele>25.5</ele><time>2026-04-01T08:30:24.784Z</time></trkpt><trkpt lat="41.9354649" lon="12.1789402"><ele>25.666666666666664</ele><time>2026-04-01T08:30:25.778Z</time></trkpt><trkpt lat="41.9353901" lon="12.1788639"><ele>25.833333333333332</ele><time>2026-04-01T08:30:26.779Z</time></trkpt><trkpt lat="41.9353155" lon="12.1787905"><ele>26.0</ele><time>2026-04-01T08:30:27.772Z</time></trkpt><trkpt lat="41.9352415" lon="12.1787235"><ele>25.666666666666664</ele><time>2026-04-01T08:30:28.785Z</time></trkpt><trkpt lat="41.935175" lon="12.178677"><ele>25.333333333333332</ele><time>2026-04-01T08:30:29.782Z</time></trkpt><trkpt lat="41.9351056" lon="12.1786304"><ele>25.0</ele><time>2026-04-01T08:30:30.791Z</time></trkpt><trkpt lat="41.9350462" lon="12.1785884"><ele>24.666666666666664</ele><time>2026-04-01T08:30:31.795Z</time></trkpt><trkpt lat="41.9349385" lon="12.1785257"><ele>24.333333333333332</ele><time>2026-04-01T08:30:33.787Z</time></trkpt><trkpt lat="41.9348549" lon="12.1784839"><ele>24.0</ele><time>2026-04-01T08:30:35.786Z</time></trkpt><trkpt lat="41.9348295" lon="12.1783971"><ele>23.0</ele><time>2026-04-01T08:30:42.765Z</time></trkpt><trkpt lat="41.9348378" lon="12.1782938"><ele>22.0</ele><time>2026-04-01T08:30:44.774Z</time></trkpt><trkpt lat="41.9348892" lon="12.1782359"><ele>21.0</ele><time>2026-04-01T08:30:45.772Z</time></trkpt><trkpt lat="41.9349665" lon="12.1781389"><ele>20.0</ele><time>2026-04-01T08:30:46.778Z</time></trkpt><trkpt lat="41.9350349" lon="12.1780367"><ele>19.0</ele><time>2026-04-01T08:30:47.78Z</time></trkpt><trkpt lat="41.9351097" lon="12.1779267"><ele>18.75</ele><time>2026-04-01T08:30:48.787Z</time></trkpt><trkpt lat="41.9351913" lon="12.1778259"><ele>18.5</ele><time>2026-04-01T08:30:49.783Z</time></trkpt><trkpt lat="41.9352647" lon="12.1777138"><ele>18.25</ele><time>2026-04-01T08:30:50.779Z</time></trkpt><trkpt lat="41.9353404" lon="12.1776037"><ele>18.0</ele><time>2026-04-01T08:30:51.78Z</time></trkpt><trkpt lat="41.9354191" lon="12.1774747"><ele>17.5</ele><time>2026-04-01T08:30:52.788Z</time></trkpt><trkpt lat="41.935493" lon="12.1773359"><ele>17.0</ele><time>2026-04-01T08:30:53.794Z</time></trkpt><trkpt lat="41.9355768" lon="12.1772039"><ele>16.5</ele><time>2026-04-01T08:30:54.773Z</time></trkpt><trkpt lat="41.9356516" lon="12.1770661"><ele>16.0</ele><time>2026-04-01T08:30:55.779Z</time></trkpt><trkpt lat="41.9357198" lon="12.1769304"><ele>16.0</ele><time>2026-04-01T08:30:56.783Z</time></trkpt><trkpt lat="41.9357892" lon="12.1768014"><ele>16.0</ele><time>2026-04-01T08:30:57.785Z</time></trkpt><trkpt lat="41.9358591" lon="12.1766683"><ele>16.0</ele><time>2026-04-01T08:30:58.787Z</time></trkpt><trkpt lat="41.9359308" lon="12.1765396"><ele>16.0</ele><time>2026-04-01T08:30:59.782Z</time></trkpt><trkpt lat="41.9360054" lon="12.1764145"><ele>17.5</ele><time>2026-04-01T08:31:00.785Z</time></trkpt><trkpt lat="41.9360882" lon="12.1762984"><ele>19.0</ele><time>2026-04-01T08:31:01.784Z</time></trkpt><trkpt lat="41.9361726" lon="12.1761914"><ele>20.5</ele><time>2026-04-01T08:31:02.779Z</time></trkpt><trkpt lat="41.9362653" lon="12.1761147"><ele>22.0</ele><time>2026-04-01T08:31:03.773Z</time></trkpt><trkpt lat="41.9363627" lon="12.1760424"><ele>22.0</ele><time>2026-04-01T08:31:04.786Z</time></trkpt><trkpt lat="41.9364592" lon="12.1759852"><ele>22.0</ele><time>2026-04-01T08:31:05.781Z</time></trkpt><trkpt lat="41.9365613" lon="12.1759408"><ele>22.0</ele><time>2026-04-01T08:31:06.786Z</time></trkpt><trkpt lat="41.9366536" lon="12.1759091"><ele>22.0</ele><time>2026-04-01T08:31:07.784Z</time></trkpt><trkpt lat="41.9367463" lon="12.1758814"><ele>22.0</ele><time>2026-04-01T08:31:08.776Z</time></trkpt><trkpt lat="41.9368304" lon="12.1758566"><ele>23.0</ele><time>2026-04-01T08:31:09.793Z</time></trkpt><trkpt lat="41.9369007" lon="12.1758383"><ele>24.0</ele><time>2026-04-01T08:31:10.788Z</time></trkpt><trkpt lat="41.9370083" lon="12.1758122"><ele>25.000000000000004</ele><time>2026-04-01T08:31:12.789Z</time></trkpt><trkpt lat="41.9371272" lon="12.1757833"><ele>26.0</ele><time>2026-04-01T08:31:14.783Z</time></trkpt><trkpt lat="41.9372164" lon="12.1757525"><ele>27.0</ele><time>2026-04-01T08:31:16.786Z</time></trkpt><trkpt lat="41.9372791" lon="12.1757225"><ele>27.333333333333332</ele><time>2026-04-01T08:31:18.791Z</time></trkpt><trkpt lat="41.9373472" lon="12.1756811"><ele>27.666666666666664</ele><time>2026-04-01T08:31:20.791Z</time></trkpt><trkpt lat="41.9374175" lon="12.1756393"><ele>28.0</ele><time>2026-04-01T08:31:22.791Z</time></trkpt><trkpt lat="41.9375032" lon="12.1756117"><ele>28.333333333333332</ele><time>2026-04-01T08:31:25.791Z</time></trkpt><trkpt lat="41.9376011" lon="12.1755805"><ele>28.666666666666664</ele><time>2026-04-01T08:31:28.777Z</time></trkpt><trkpt lat="41.9376821" lon="12.1755589"><ele>29.0</ele><time>2026-04-01T08:31:30.79Z</time></trkpt><trkpt lat="41.9377661" lon="12.1755327"><ele>29.4</ele><time>2026-04-01T08:31:32.781Z</time></trkpt><trkpt lat="41.9378576" lon="12.1755106"><ele>29.799999999999997</ele><time>2026-04-01T08:31:34.79Z</time></trkpt><trkpt lat="41.937952" lon="12.1754736"><ele>30.200000000000003</ele><time>2026-04-01T08:31:36.791Z</time></trkpt><trkpt lat="41.9380392" lon="12.1754312"><ele>30.6</ele><time>2026-04-01T08:31:38.791Z</time></trkpt><trkpt lat="41.9381174" lon="12.175395"><ele>31.0</ele><time>2026-04-01T08:31:40.791Z</time></trkpt><trkpt lat="41.9382013" lon="12.1753584"><ele>31.000000000000004</ele><time>2026-04-01T08:31:42.788Z</time></trkpt><trkpt lat="41.9382882" lon="12.175377"><ele>31.0</ele><time>2026-04-01T08:31:44.789Z</time></trkpt><trkpt lat="41.9383852" lon="12.1754197"><ele>31.0</ele><time>2026-04-01T08:31:46.789Z</time></trkpt><trkpt lat="41.9384489" lon="12.1754438"><ele>31.0</ele><time>2026-04-01T08:31:47.794Z</time></trkpt><trkpt lat="41.9385321" lon="12.1754701"><ele>31.000000000000004</ele><time>2026-04-01T08:31:48.786Z</time></trkpt><trkpt lat="41.9386079" lon="12.1755007"><ele>31.0</ele><time>2026-04-01T08:31:49.787Z</time></trkpt><trkpt lat="41.9386916" lon="12.1755313"><ele>31.4</ele><time>2026-04-01T08:31:50.789Z</time></trkpt><trkpt lat="41.9387864" lon="12.1755611"><ele>31.8</ele><time>2026-04-01T08:31:51.785Z</time></trkpt><trkpt lat="41.9388804" lon="12.1755969"><ele>32.199999999999996</ele><time>2026-04-01T08:31:52.793Z</time></trkpt><trkpt lat="41.9389777" lon="12.1756261"><ele>32.6</ele><time>2026-04-01T08:31:53.776Z</time></trkpt><trkpt lat="41.9390849" lon="12.1756614"><ele>33.0</ele><time>2026-04-01T08:31:54.809Z</time></trkpt><trkpt lat="41.939194" lon="12.17572"><ele>34.0</ele><time>2026-04-01T08:31:55.78Z</time></trkpt><trkpt lat="41.9393217" lon="12.1757727"><ele>35.0</ele><time>2026-04-01T08:31:56.788Z</time></trkpt><trkpt lat="41.9394498" lon="12.1758245"><ele>36.0</ele><time>2026-04-01T08:31:57.782Z</time></trkpt><trkpt lat="41.9395814" lon="12.175872"><ele>37.0</ele><time>2026-04-01T08:31:58.788Z</time></trkpt><trkpt lat="41.9397136" lon="12.1759211"><ele>37.0</ele><time>2026-04-01T08:31:59.792Z</time></trkpt><trkpt lat="41.9398427" lon="12.1759737"><ele>37.0</ele><time>2026-04-01T08:32:00.787Z</time></trkpt><trkpt lat="41.9399787" lon="12.1760284"><ele>37.0</ele><time>2026-04-01T08:32:01.789Z</time></trkpt><trkpt lat="41.9401119" lon="12.176079"><ele>37.0</ele><time>2026-04-01T08:32:02.784Z</time></trkpt><trkpt lat="41.9402452" lon="12.1761374"><ele>37.75</ele><time>2026-04-01T08:32:03.793Z</time></trkpt><trkpt lat="41.940376" lon="12.1761893"><ele>38.5</ele><time>2026-04-01T08:32:04.791Z</time></trkpt><trkpt lat="41.940521" lon="12.1762365"><ele>39.25</ele><time>2026-04-01T08:32:05.798Z</time></trkpt><trkpt lat="41.9406486" lon="12.1762825"><ele>40.0</ele><time>2026-04-01T08:32:06.794Z</time></trkpt><trkpt lat="41.9407814" lon="12.1763314"><ele>40.5</ele><time>2026-04-01T08:32:07.796Z</time></trkpt><trkpt lat="41.9409047" lon="12.1763821"><ele>41.0</ele><time>2026-04-01T08:32:08.797Z</time></trkpt><trkpt lat="41.9410162" lon="12.1764378"><ele>41.5</ele><time>2026-04-01T08:32:09.795Z</time></trkpt><trkpt lat="41.9411278" lon="12.1764968"><ele>42.0</ele><time>2026-04-01T08:32:10.796Z</time></trkpt><trkpt lat="41.9412191" lon="12.1765835"><ele>42.8</ele><time>2026-04-01T08:32:11.792Z</time></trkpt><trkpt lat="41.9412924" lon="12.1766819"><ele>43.6</ele><time>2026-04-01T08:32:12.792Z</time></trkpt><trkpt lat="41.9413416" lon="12.1767959"><ele>44.4</ele><time>2026-04-01T08:32:13.789Z</time></trkpt><trkpt lat="41.9413842" lon="12.1769082"><ele>45.199999999999996</ele><time>2026-04-01T08:32:14.782Z</time></trkpt><trkpt lat="41.9414299" lon="12.1770329"><ele>46.0</ele><time>2026-04-01T08:32:15.787Z</time></trkpt><trkpt lat="41.9414812" lon="12.1771602"><ele>46.0</ele><time>2026-04-01T08:32:16.791Z</time></trkpt><trkpt lat="41.9415423" lon="12.177284"><ele>46.0</ele><time>2026-04-01T08:32:17.794Z</time></trkpt><trkpt lat="41.9416086" lon="12.177409"><ele>46.0</ele><time>2026-04-01T08:32:18.789Z</time></trkpt><trkpt lat="41.9416795" lon="12.1775377"><ele>46.0</ele><time>2026-04-01T08:32:19.791Z</time></trkpt><trkpt lat="41.9417634" lon="12.1776589"><ele>47.25</ele><time>2026-04-01T08:32:20.782Z</time></trkpt><trkpt lat="41.9418572" lon="12.1777781"><ele>48.5</ele><time>2026-04-01T08:32:21.783Z</time></trkpt><trkpt lat="41.9419418" lon="12.1779029"><ele>49.75</ele><time>2026-04-01T08:32:22.788Z</time></trkpt><trkpt lat="41.9420336" lon="12.1780188"><ele>51.0</ele><time>2026-04-01T08:32:23.791Z</time></trkpt><trkpt lat="41.942134" lon="12.1781199"><ele>52.0</ele><time>2026-04-01T08:32:24.789Z</time></trkpt><trkpt lat="41.9422365" lon="12.1782086"><ele>53.0</ele><time>2026-04-01T08:32:25.805Z</time></trkpt><trkpt lat="41.9423372" lon="12.1782954"><ele>54.0</ele><time>2026-04-01T08:32:26.786Z</time></trkpt><trkpt lat="41.942441" lon="12.1783767"><ele>55.0</ele><time>2026-04-01T08:32:27.784Z</time></trkpt><trkpt lat="41.9425447" lon="12.1784481"><ele>55.0</ele><time>2026-04-01T08:32:28.783Z</time></trkpt><trkpt lat="41.9426567" lon="12.1785025"><ele>55.0</ele><time>2026-04-01T08:32:29.798Z</time></trkpt><trkpt lat="41.9427729" lon="12.1785572"><ele>55.0</ele><time>2026-04-01T08:32:30.788Z</time></trkpt><trkpt lat="41.9428853" lon="12.1786121"><ele>55.0</ele><time>2026-04-01T08:32:31.787Z</time></trkpt><trkpt lat="41.9430037" lon="12.1786668"><ele>55.0</ele><time>2026-04-01T08:32:32.786Z</time></trkpt><trkpt lat="41.9431259" lon="12.1787144"><ele>55.0</ele><time>2026-04-01T08:32:33.786Z</time></trkpt><trkpt lat="41.9432458" lon="12.1787556"><ele>55.0</ele><time>2026-04-01T08:32:34.779Z</time></trkpt><trkpt lat="41.9433654" lon="12.1788044"><ele>55.0</ele><time>2026-04-01T08:32:35.787Z</time></trkpt><trkpt lat="41.9434901" lon="12.1788488"><ele>55.75</ele><time>2026-04-01T08:32:36.785Z</time></trkpt><trkpt lat="41.9436103" lon="12.1789095"><ele>56.5</ele><time>2026-04-01T08:32:37.778Z</time></trkpt><trkpt lat="41.9437266" lon="12.1789724"><ele>57.25</ele><time>2026-04-01T08:32:38.788Z</time></trkpt><trkpt lat="41.9438403" lon="12.1790487"><ele>58.0</ele><time>2026-04-01T08:32:39.789Z</time></trkpt><trkpt lat="41.9439542" lon="12.1791284"><ele>58.75</ele><time>2026-04-01T08:32:40.792Z</time></trkpt><trkpt lat="41.9440632" lon="12.1792004"><ele>59.5</ele><time>2026-04-01T08:32:41.793Z</time></trkpt><trkpt lat="41.9441704" lon="12.179276"><ele>60.25</ele><time>2026-04-01T08:32:42.794Z</time></trkpt><trkpt lat="41.9442799" lon="12.1793453"><ele>61.0</ele><time>2026-04-01T08:32:43.792Z</time></trkpt><trkpt lat="41.9443961" lon="12.179416"><ele>61.75</ele><time>2026-04-01T08:32:44.793Z</time></trkpt><trkpt lat="41.9445147" lon="12.1794873"><ele>62.5</ele><time>2026-04-01T08:32:45.793Z</time></trkpt><trkpt lat="41.9446335" lon="12.1795596"><ele>63.25</ele><time>2026-04-01T08:32:46.795Z</time></trkpt><trkpt lat="41.9447498" lon="12.1796312"><ele>64.0</ele><time>2026-04-01T08:32:47.794Z</time></trkpt><trkpt lat="41.9448681" lon="12.1797071"><ele>64.0</ele><time>2026-04-01T08:32:48.795Z</time></trkpt><trkpt lat="41.9449843" lon="12.1797798"><ele>64.0</ele><time>2026-04-01T08:32:49.794Z</time></trkpt><trkpt lat="41.9450998" lon="12.1798467"><ele>64.0</ele><time>2026-04-01T08:32:50.796Z</time></trkpt><trkpt lat="41.9452121" lon="12.1799238"><ele>64.0</ele><time>2026-04-01T08:32:51.795Z</time></trkpt><trkpt lat="41.9453239" lon="12.1799929"><ele>65.75</ele><time>2026-04-01T08:32:52.799Z</time></trkpt><trkpt lat="41.9454357" lon="12.1800613"><ele>67.5</ele><time>2026-04-01T08:32:53.795Z</time></trkpt><trkpt lat="41.9455458" lon="12.1801257"><ele>69.25</ele><time>2026-04-01T08:32:54.799Z</time></trkpt><trkpt lat="41.9456543" lon="12.1801891"><ele>71.0</ele><time>2026-04-01T08:32:55.798Z</time></trkpt><trkpt lat="41.9457563" lon="12.1802499"><ele>71.0</ele><time>2026-04-01T08:32:56.814Z</time></trkpt><trkpt lat="41.9458568" lon="12.180299"><ele>71.0</ele><time>2026-04-01T08:32:57.793Z</time></trkpt><trkpt lat="41.9459534" lon="12.180348"><ele>71.0</ele><time>2026-04-01T08:32:58.795Z</time></trkpt><trkpt lat="41.9460457" lon="12.1803924"><ele>71.0</ele><time>2026-04-01T08:32:59.797Z</time></trkpt><trkpt lat="41.9461286" lon="12.1804225"><ele>71.0</ele><time>2026-04-01T08:33:00.797Z</time></trkpt><trkpt lat="41.9462113" lon="12.1804516"><ele>70.33333333333334</ele><time>2026-04-01T08:33:01.793Z</time></trkpt><trkpt lat="41.9462917" lon="12.1804817"><ele>69.66666666666667</ele><time>2026-04-01T08:33:02.791Z</time></trkpt><trkpt lat="41.946374" lon="12.1805205"><ele>69.0</ele><time>2026-04-01T08:33:03.793Z</time></trkpt><trkpt lat="41.9464548" lon="12.1805608"><ele>68.33333333333333</ele><time>2026-04-01T08:33:04.794Z</time></trkpt><trkpt lat="41.9465424" lon="12.1806013"><ele>67.66666666666666</ele><time>2026-04-01T08:33:05.786Z</time></trkpt><trkpt lat="41.9466283" lon="12.1806528"><ele>67.0</ele><time>2026-04-01T08:33:06.79Z</time></trkpt><trkpt lat="41.9467224" lon="12.1807024"><ele>67.0</ele><time>2026-04-01T08:33:07.792Z</time></trkpt><trkpt lat="41.9468187" lon="12.1807453"><ele>67.0</ele><time>2026-04-01T08:33:08.795Z</time></trkpt><trkpt lat="41.9469129" lon="12.1807823"><ele>67.0</ele><time>2026-04-01T08:33:09.793Z</time></trkpt><trkpt lat="41.9470122" lon="12.1808181"><ele>67.0</ele><time>2026-04-01T08:33:10.795Z</time></trkpt><trkpt lat="41.9471194" lon="12.1808587"><ele>67.0</ele><time>2026-04-01T08:33:11.798Z</time></trkpt><trkpt lat="41.9472284" lon="12.1808965"><ele>67.0</ele><time>2026-04-01T08:33:12.794Z</time></trkpt><trkpt lat="41.9473407" lon="12.1809343"><ele>67.0</ele><time>2026-04-01T08:33:13.799Z</time></trkpt><trkpt lat="41.9474544" lon="12.1809727"><ele>67.0</ele><time>2026-04-01T08:33:14.802Z</time></trkpt><trkpt lat="41.9475656" lon="12.181016"><ele>67.0</ele><time>2026-04-01T08:33:15.795Z</time></trkpt><trkpt lat="41.9476768" lon="12.1810585"><ele>66.5</ele><time>2026-04-01T08:33:16.799Z</time></trkpt><trkpt lat="41.947789" lon="12.1810944"><ele>66.0</ele><time>2026-04-01T08:33:17.794Z</time></trkpt><trkpt lat="41.9479083" lon="12.1811342"><ele>65.5</ele><time>2026-04-01T08:33:18.796Z</time></trkpt><trkpt lat="41.9480321" lon="12.1811701"><ele>65.0</ele><time>2026-04-01T08:33:19.794Z</time></trkpt><trkpt lat="41.9481554" lon="12.181203"><ele>65.0</ele><time>2026-04-01T08:33:20.79Z</time></trkpt><trkpt lat="41.948279" lon="12.1812293"><ele>65.0</ele><time>2026-04-01T08:33:21.788Z</time></trkpt><trkpt lat="41.9484016" lon="12.1812619"><ele>65.0</ele><time>2026-04-01T08:33:22.792Z</time></trkpt><trkpt lat="41.9485233" lon="12.1812871"><ele>65.0</ele><time>2026-04-01T08:33:23.784Z</time></trkpt><trkpt lat="41.9486476" lon="12.1813019"><ele>65.5</ele><time>2026-04-01T08:33:24.795Z</time></trkpt><trkpt lat="41.9487715" lon="12.1813139"><ele>66.0</ele><time>2026-04-01T08:33:25.786Z</time></trkpt><trkpt lat="41.9488845" lon="12.181323"><ele>66.5</ele><time>2026-04-01T08:33:26.783Z</time></trkpt><trkpt lat="41.9490008" lon="12.1813168"><ele>67.0</ele><time>2026-04-01T08:33:27.803Z</time></trkpt><trkpt lat="41.9491178" lon="12.1813263"><ele>67.0</ele><time>2026-04-01T08:33:28.792Z</time></trkpt><trkpt lat="41.9492301" lon="12.1813506"><ele>67.0</ele><time>2026-04-01T08:33:29.785Z</time></trkpt><trkpt lat="41.9493202" lon="12.1813842"><ele>67.0</ele><time>2026-04-01T08:33:30.785Z</time></trkpt><trkpt lat="41.9493863" lon="12.1814186"><ele>67.0</ele><time>2026-04-01T08:33:31.791Z</time></trkpt><trkpt lat="41.9494495" lon="12.1814565"><ele>67.0</ele><time>2026-04-01T08:33:32.788Z</time></trkpt><trkpt lat="41.9495468" lon="12.1815346"><ele>68.0</ele><time>2026-04-01T08:33:34.782Z</time></trkpt><trkpt lat="41.9495473" lon="12.1816314"><ele>69.0</ele><time>2026-04-01T08:34:21.795Z</time></trkpt><trkpt lat="41.949599" lon="12.181687"><ele>70.0</ele><time>2026-04-01T08:34:23.793Z</time></trkpt><trkpt lat="41.9496409" lon="12.1817782"><ele>71.0</ele><time>2026-04-01T08:35:11.798Z</time></trkpt><trkpt lat="41.9496852" lon="12.1819348"><ele>72.0</ele><time>2026-04-01T08:35:13.792Z</time></trkpt><trkpt lat="41.9497154" lon="12.1820358"><ele>73.0</ele><time>2026-04-01T08:35:14.79Z</time></trkpt><trkpt lat="41.9497453" lon="12.182143"><ele>73.0</ele><time>2026-04-01T08:35:15.795Z</time></trkpt><trkpt lat="41.949781" lon="12.1822469"><ele>73.0</ele><time>2026-04-01T08:35:16.79Z</time></trkpt><trkpt lat="41.9498187" lon="12.182357"><ele>73.0</ele><time>2026-04-01T08:35:17.788Z</time></trkpt><trkpt lat="41.9498538" lon="12.1824655"><ele>73.0</ele><time>2026-04-01T08:35:18.782Z</time></trkpt><trkpt lat="41.9498873" lon="12.1825784"><ele>73.0</ele><time>2026-04-01T08:35:19.785Z</time></trkpt><trkpt lat="41.9499189" lon="12.1826956"><ele>73.0</ele><time>2026-04-01T08:35:20.782Z</time></trkpt><trkpt lat="41.9499518" lon="12.1828132"><ele>73.2</ele><time>2026-04-01T08:35:21.773Z</time></trkpt><trkpt lat="41.9499877" lon="12.1829443"><ele>73.4</ele><time>2026-04-01T08:35:22.782Z</time></trkpt><trkpt lat="41.950027" lon="12.1830639"><ele>73.60000000000001</ele><time>2026-04-01T08:35:23.781Z</time></trkpt><trkpt lat="41.9500654" lon="12.1831877"><ele>73.8</ele><time>2026-04-01T08:35:24.779Z</time></trkpt><trkpt lat="41.950101" lon="12.1833111"><ele>74.0</ele><time>2026-04-01T08:35:25.788Z</time></trkpt><trkpt lat="41.950134" lon="12.1834357"><ele>73.8</ele><time>2026-04-01T08:35:26.783Z</time></trkpt><trkpt lat="41.9501639" lon="12.18356"><ele>73.60000000000001</ele><time>2026-04-01T08:35:27.788Z</time></trkpt><trkpt lat="41.9501988" lon="12.1836848"><ele>73.4</ele><time>2026-04-01T08:35:28.79Z</time></trkpt><trkpt lat="41.9502306" lon="12.1837999"><ele>73.2</ele><time>2026-04-01T08:35:29.797Z</time></trkpt><trkpt lat="41.9502594" lon="12.1839193"><ele>73.0</ele><time>2026-04-01T08:35:30.789Z</time></trkpt><trkpt lat="41.9502807" lon="12.1840292"><ele>73.0</ele><time>2026-04-01T08:35:31.811Z</time></trkpt><trkpt lat="41.9502953" lon="12.1841445"><ele>73.0</ele><time>2026-04-01T08:35:32.786Z</time></trkpt><trkpt lat="41.9502992" lon="12.1842589"><ele>73.0</ele><time>2026-04-01T08:35:33.781Z</time></trkpt><trkpt lat="41.9502956" lon="12.1843676"><ele>73.0</ele><time>2026-04-01T08:35:34.792Z</time></trkpt><trkpt lat="41.9502937" lon="12.184469"><ele>73.0</ele><time>2026-04-01T08:35:35.789Z</time></trkpt><trkpt lat="41.9502959" lon="12.1845787"><ele>73.0</ele><time>2026-04-01T08:35:36.786Z</time></trkpt><trkpt lat="41.9503015" lon="12.1846941"><ele>73.0</ele><time>2026-04-01T08:35:37.788Z</time></trkpt><trkpt lat="41.9503189" lon="12.1848155"><ele>73.0</ele><time>2026-04-01T08:35:38.792Z</time></trkpt><trkpt lat="41.9503413" lon="12.1849322"><ele>73.0</ele><time>2026-04-01T08:35:39.793Z</time></trkpt><trkpt lat="41.9503685" lon="12.1850353"><ele>73.0</ele><time>2026-04-01T08:35:40.789Z</time></trkpt><trkpt lat="41.9503932" lon="12.1851297"><ele>73.0</ele><time>2026-04-01T08:35:41.782Z</time></trkpt><trkpt lat="41.9504148" lon="12.1852201"><ele>73.0</ele><time>2026-04-01T08:35:42.787Z</time></trkpt><trkpt lat="41.9504419" lon="12.1853256"><ele>74.4</ele><time>2026-04-01T08:35:43.787Z</time></trkpt><trkpt lat="41.9504731" lon="12.1854435"><ele>75.8</ele><time>2026-04-01T08:35:44.789Z</time></trkpt><trkpt lat="41.9505155" lon="12.1855628"><ele>77.2</ele><time>2026-04-01T08:35:45.786Z</time></trkpt><trkpt lat="41.9505491" lon="12.1856862"><ele>78.6</ele><time>2026-04-01T08:35:46.787Z</time></trkpt><trkpt lat="41.9505714" lon="12.1858027"><ele>80.0</ele><time>2026-04-01T08:35:47.787Z</time></trkpt><trkpt lat="41.9505965" lon="12.1859248"><ele>79.8</ele><time>2026-04-01T08:35:48.79Z</time></trkpt><trkpt lat="41.9506229" lon="12.1860387"><ele>79.6</ele><time>2026-04-01T08:35:49.788Z</time></trkpt><trkpt lat="41.9506482" lon="12.1861516"><ele>79.4</ele><time>2026-04-01T08:35:50.791Z</time></trkpt><trkpt lat="41.9506862" lon="12.186284"><ele>79.2</ele><time>2026-04-01T08:35:51.79Z</time></trkpt><trkpt lat="41.9507258" lon="12.1864238"><ele>79.0</ele><time>2026-04-01T08:35:52.788Z</time></trkpt><trkpt lat="41.9507669" lon="12.1865729"><ele>79.0</ele><time>2026-04-01T08:35:53.785Z</time></trkpt><trkpt lat="41.9508104" lon="12.1867067"><ele>79.0</ele><time>2026-04-01T08:35:54.793Z</time></trkpt><trkpt lat="41.950842" lon="12.1868198"><ele>79.0</ele><time>2026-04-01T08:35:55.785Z</time></trkpt><trkpt lat="41.9508726" lon="12.1869212"><ele>79.0</ele><time>2026-04-01T08:35:56.791Z</time></trkpt><trkpt lat="41.9508936" lon="12.1870125"><ele>79.0</ele><time>2026-04-01T08:35:57.774Z</time></trkpt><trkpt lat="41.9509451" lon="12.1871547"><ele>77.4</ele><time>2026-04-01T08:35:59.786Z</time></trkpt><trkpt lat="41.9510267" lon="12.1872075"><ele>75.80000000000001</ele><time>2026-04-01T08:36:01.788Z</time></trkpt><trkpt lat="41.9511465" lon="12.1871596"><ele>74.19999999999999</ele><time>2026-04-01T08:36:03.785Z</time></trkpt><trkpt lat="41.9511849" lon="12.1870859"><ele>72.6</ele><time>2026-04-01T08:36:04.788Z</time></trkpt><trkpt lat="41.9512337" lon="12.1869931"><ele>71.0</ele><time>2026-04-01T08:36:05.774Z</time></trkpt><trkpt lat="41.9512929" lon="12.1868988"><ele>71.0</ele><time>2026-04-01T08:36:06.78Z</time></trkpt><trkpt lat="41.95136" lon="12.1868015"><ele>71.0</ele><time>2026-04-01T08:36:07.788Z</time></trkpt><trkpt lat="41.9514358" lon="12.1866913"><ele>71.0</ele><time>2026-04-01T08:36:08.788Z</time></trkpt><trkpt lat="41.9515204" lon="12.1865585"><ele>71.0</ele><time>2026-04-01T08:36:09.792Z</time></trkpt><trkpt lat="41.9515941" lon="12.186429"><ele>71.39999999999999</ele><time>2026-04-01T08:36:10.785Z</time></trkpt><trkpt lat="41.9516636" lon="12.1863129"><ele>71.8</ele><time>2026-04-01T08:36:11.786Z</time></trkpt><trkpt lat="41.9517331" lon="12.1861946"><ele>72.19999999999999</ele><time>2026-04-01T08:36:12.783Z</time></trkpt><trkpt lat="41.9517966" lon="12.1860734"><ele>72.6</ele><time>2026-04-01T08:36:13.79Z</time></trkpt><trkpt lat="41.9518584" lon="12.1859501"><ele>73.0</ele><time>2026-04-01T08:36:14.785Z</time></trkpt><trkpt lat="41.9519114" lon="12.185828"><ele>72.4</ele><time>2026-04-01T08:36:15.784Z</time></trkpt><trkpt lat="41.9519529" lon="12.185698"><ele>71.8</ele><time>2026-04-01T08:36:16.784Z</time></trkpt><trkpt lat="41.9519949" lon="12.1855686"><ele>71.2</ele><time>2026-04-01T08:36:17.779Z</time></trkpt><trkpt lat="41.9520277" lon="12.1854434"><ele>70.6</ele><time>2026-04-01T08:36:18.779Z</time></trkpt><trkpt lat="41.9520513" lon="12.1853098"><ele>70.0</ele><time>2026-04-01T08:36:19.781Z</time></trkpt><trkpt lat="41.952061" lon="12.185177"><ele>70.0</ele><time>2026-04-01T08:36:20.782Z</time></trkpt><trkpt lat="41.952062" lon="12.1850395"><ele>70.0</ele><time>2026-04-01T08:36:21.78Z</time></trkpt><trkpt lat="41.9520414" lon="12.1849039"><ele>70.0</ele><time>2026-04-01T08:36:22.788Z</time></trkpt><trkpt lat="41.9520089" lon="12.1847736"><ele>70.0</ele><time>2026-04-01T08:36:23.799Z</time></trkpt><trkpt lat="41.9519602" lon="12.1846541"><ele>70.0</ele><time>2026-04-01T08:36:24.79Z</time></trkpt><trkpt lat="41.9519059" lon="12.1845322"><ele>69.75</ele><time>2026-04-01T08:36:25.785Z</time></trkpt><trkpt lat="41.9518584" lon="12.1843672"><ele>69.5</ele><time>2026-04-01T08:36:26.775Z</time></trkpt><trkpt lat="41.9518142" lon="12.1842097"><ele>69.25</ele><time>2026-04-01T08:36:27.78Z</time></trkpt><trkpt lat="41.9517745" lon="12.1840628"><ele>69.0</ele><time>2026-04-01T08:36:28.785Z</time></trkpt><trkpt lat="41.9517425" lon="12.183912"><ele>69.0</ele><time>2026-04-01T08:36:29.784Z</time></trkpt><trkpt lat="41.9517268" lon="12.1837707"><ele>69.0</ele><time>2026-04-01T08:36:30.786Z</time></trkpt><trkpt lat="41.9517269" lon="12.1836329"><ele>69.0</ele><time>2026-04-01T08:36:31.783Z</time></trkpt><trkpt lat="41.9517388" lon="12.1835024"><ele>69.0</ele><time>2026-04-01T08:36:32.795Z</time></trkpt><trkpt lat="41.951761" lon="12.1833785"><ele>69.0</ele><time>2026-04-01T08:36:33.782Z</time></trkpt><trkpt lat="41.9517917" lon="12.1832768"><ele>69.0</ele><time>2026-04-01T08:36:34.78Z</time></trkpt><trkpt lat="41.9518225" lon="12.1831862"><ele>69.0</ele><time>2026-04-01T08:36:35.791Z</time></trkpt><trkpt lat="41.9518584" lon="12.1830801"><ele>69.0</ele><time>2026-04-01T08:36:37.79Z</time></trkpt><trkpt lat="41.9519012" lon="12.1831527"><ele>69.0</ele><time>2026-04-01T08:36:42.772Z</time></trkpt><trkpt lat="41.9519349" lon="12.1830633"><ele>69.0</ele><time>2026-04-01T08:37:11.792Z</time></trkpt><trkpt lat="41.951965" lon="12.1829769"><ele>69.0</ele><time>2026-04-01T08:37:14.802Z</time></trkpt><trkpt lat="41.9519851" lon="12.1828636"><ele>68.60000000000001</ele><time>2026-04-01T08:37:51.798Z</time></trkpt><trkpt lat="41.9519883" lon="12.1827588"><ele>68.2</ele><time>2026-04-01T08:37:52.798Z</time></trkpt><trkpt lat="41.951986" lon="12.1826381"><ele>67.80000000000001</ele><time>2026-04-01T08:37:53.794Z</time></trkpt><trkpt lat="41.9519706" lon="12.1825032"><ele>67.4</ele><time>2026-04-01T08:37:54.798Z</time></trkpt><trkpt lat="41.9519518" lon="12.18238"><ele>67.0</ele><time>2026-04-01T08:37:55.797Z</time></trkpt><trkpt lat="41.9519319" lon="12.1822538"><ele>66.2</ele><time>2026-04-01T08:37:56.799Z</time></trkpt><trkpt lat="41.9519189" lon="12.1821226"><ele>65.4</ele><time>2026-04-01T08:37:57.801Z</time></trkpt><trkpt lat="41.9519004" lon="12.1819861"><ele>64.6</ele><time>2026-04-01T08:37:58.797Z</time></trkpt><trkpt lat="41.9518773" lon="12.181843"><ele>63.8</ele><time>2026-04-01T08:37:59.796Z</time></trkpt><trkpt lat="41.9518615" lon="12.1817043"><ele>63.0</ele><time>2026-04-01T08:38:00.788Z</time></trkpt><trkpt lat="41.9518395" lon="12.1815867"><ele>62.166666666666664</ele><time>2026-04-01T08:38:01.793Z</time></trkpt><trkpt lat="41.9518104" lon="12.1814865"><ele>61.33333333333333</ele><time>2026-04-01T08:38:02.789Z</time></trkpt><trkpt lat="41.9517848" lon="12.1813943"><ele>60.5</ele><time>2026-04-01T08:38:03.786Z</time></trkpt><trkpt lat="41.9517594" lon="12.1813046"><ele>59.666666666666664</ele><time>2026-04-01T08:38:04.776Z</time></trkpt><trkpt lat="41.9517769" lon="12.1811902"><ele>58.83333333333333</ele><time>2026-04-01T08:38:06.779Z</time></trkpt><trkpt lat="41.9518649" lon="12.1811079"><ele>58.0</ele><time>2026-04-01T08:38:08.794Z</time></trkpt><trkpt lat="41.951929" lon="12.1811048"><ele>57.99999999999999</ele><time>2026-04-01T08:38:09.783Z</time></trkpt><trkpt lat="41.9519964" lon="12.1811078"><ele>58.0</ele><time>2026-04-01T08:38:10.785Z</time></trkpt><trkpt lat="41.9520771" lon="12.1811262"><ele>58.0</ele><time>2026-04-01T08:38:11.783Z</time></trkpt><trkpt lat="41.9521621" lon="12.1811472"><ele>58.0</ele><time>2026-04-01T08:38:12.776Z</time></trkpt><trkpt lat="41.9522556" lon="12.1811731"><ele>57.99999999999999</ele><time>2026-04-01T08:38:13.779Z</time></trkpt><trkpt lat="41.9523577" lon="12.1811967"><ele>58.0</ele><time>2026-04-01T08:38:14.794Z</time></trkpt><trkpt lat="41.9524745" lon="12.1812254"><ele>58.75</ele><time>2026-04-01T08:38:15.792Z</time></trkpt><trkpt lat="41.9525929" lon="12.1812517"><ele>59.5</ele><time>2026-04-01T08:38:16.795Z</time></trkpt><trkpt lat="41.9527108" lon="12.1812865"><ele>60.25</ele><time>2026-04-01T08:38:17.797Z</time></trkpt><trkpt lat="41.9528334" lon="12.1813237"><ele>61.0</ele><time>2026-04-01T08:38:18.791Z</time></trkpt><trkpt lat="41.9529473" lon="12.1813664"><ele>61.0</ele><time>2026-04-01T08:38:19.791Z</time></trkpt><trkpt lat="41.9530567" lon="12.1814248"><ele>60.99999999999999</ele><time>2026-04-01T08:38:20.788Z</time></trkpt><trkpt lat="41.9531615" lon="12.181489"><ele>60.99999999999999</ele><time>2026-04-01T08:38:21.783Z</time></trkpt><trkpt lat="41.9532542" lon="12.181554"><ele>61.0</ele><time>2026-04-01T08:38:22.789Z</time></trkpt><trkpt lat="41.9533306" lon="12.1816138"><ele>61.0</ele><time>2026-04-01T08:38:23.786Z</time></trkpt><trkpt lat="41.9533925" lon="12.1816586"><ele>61.199999999999996</ele><time>2026-04-01T08:38:24.78Z</time></trkpt><trkpt lat="41.953453" lon="12.1817015"><ele>61.39999999999999</ele><time>2026-04-01T08:38:25.783Z</time></trkpt><trkpt lat="41.9535422" lon="12.1817766"><ele>61.6</ele><time>2026-04-01T08:38:27.786Z</time></trkpt><trkpt lat="41.9536273" lon="12.1818483"><ele>61.8</ele><time>2026-04-01T08:38:29.799Z</time></trkpt><trkpt lat="41.9537356" lon="12.1819437"><ele>62.0</ele><time>2026-04-01T08:38:31.791Z</time></trkpt><trkpt lat="41.9538054" lon="12.1819968"><ele>62.00000000000001</ele><time>2026-04-01T08:38:32.788Z</time></trkpt><trkpt lat="41.9538811" lon="12.1820516"><ele>62.0</ele><time>2026-04-01T08:38:33.788Z</time></trkpt><trkpt lat="41.9539611" lon="12.1820994"><ele>62.0</ele><time>2026-04-01T08:38:34.789Z</time></trkpt><trkpt lat="41.9540269" lon="12.1821501"><ele>62.0</ele><time>2026-04-01T08:38:35.786Z</time></trkpt><trkpt lat="41.9540812" lon="12.1822061"><ele>62.00000000000001</ele><time>2026-04-01T08:38:36.806Z</time></trkpt><trkpt lat="41.9541387" lon="12.1822727"><ele>62.0</ele><time>2026-04-01T08:38:37.785Z</time></trkpt><trkpt lat="41.954209" lon="12.1823471"><ele>62.8</ele><time>2026-04-01T08:38:38.783Z</time></trkpt><trkpt lat="41.954279" lon="12.1824223"><ele>63.6</ele><time>2026-04-01T08:38:39.792Z</time></trkpt><trkpt lat="41.954357" lon="12.1825105"><ele>64.39999999999999</ele><time>2026-04-01T08:38:40.785Z</time></trkpt><trkpt lat="41.9544323" lon="12.1825948"><ele>65.2</ele><time>2026-04-01T08:38:41.777Z</time></trkpt><trkpt lat="41.9544981" lon="12.1826862"><ele>66.0</ele><time>2026-04-01T08:38:42.778Z</time></trkpt><trkpt lat="41.9545571" lon="12.1827756"><ele>66.0</ele><time>2026-04-01T08:38:43.782Z</time></trkpt><trkpt lat="41.954608" lon="12.1828616"><ele>66.0</ele><time>2026-04-01T08:38:44.782Z</time></trkpt><trkpt lat="41.9546636" lon="12.1829333"><ele>66.0</ele><time>2026-04-01T08:38:45.787Z</time></trkpt><trkpt lat="41.9547225" lon="12.182979"><ele>66.0</ele><time>2026-04-01T08:38:46.793Z</time></trkpt><trkpt lat="41.9547913" lon="12.1829135"><ele>66.0</ele><time>2026-04-01T08:38:49.794Z</time></trkpt><trkpt lat="41.9548326" lon="12.1828317"><ele>66.0</ele><time>2026-04-01T08:38:51.79Z</time></trkpt><trkpt lat="41.95491" lon="12.1827296"><ele>66.0</ele><time>2026-04-01T08:38:53.788Z</time></trkpt><trkpt lat="41.9549916" lon="12.182635"><ele>66.0</ele><time>2026-04-01T08:38:55.797Z</time></trkpt><trkpt lat="41.9550804" lon="12.1826663"><ele>66.0</ele><time>2026-04-01T08:39:28.801Z</time></trkpt><trkpt lat="41.9551879" lon="12.1827549"><ele>66.0</ele><time>2026-04-01T08:39:30.798Z</time></trkpt><trkpt lat="41.9552606" lon="12.1828132"><ele>66.0</ele><time>2026-04-01T08:39:31.796Z</time></trkpt><trkpt lat="41.9553313" lon="12.1828924"><ele>66.6</ele><time>2026-04-01T08:39:32.803Z</time></trkpt><trkpt lat="41.9554094" lon="12.1829884"><ele>67.19999999999999</ele><time>2026-04-01T08:39:33.807Z</time></trkpt><trkpt lat="41.9554898" lon="12.1830904"><ele>67.80000000000001</ele><time>2026-04-01T08:39:34.803Z</time></trkpt><trkpt lat="41.9555761" lon="12.1831899"><ele>68.4</ele><time>2026-04-01T08:39:35.811Z</time></trkpt><trkpt lat="41.9556546" lon="12.1832941"><ele>69.0</ele><time>2026-04-01T08:39:36.803Z</time></trkpt><trkpt lat="41.9557283" lon="12.183404"><ele>69.0</ele><time>2026-04-01T08:39:37.807Z</time></trkpt><trkpt lat="41.9557999" lon="12.1835097"><ele>69.0</ele><time>2026-04-01T08:39:38.82Z</time></trkpt><trkpt lat="41.9558705" lon="12.1836131"><ele>69.0</ele><time>2026-04-01T08:39:39.806Z</time></trkpt><trkpt lat="41.9559389" lon="12.183721"><ele>69.0</ele><time>2026-04-01T08:39:40.807Z</time></trkpt><trkpt lat="41.9560055" lon="12.1838322"><ele>69.0</ele><time>2026-04-01T08:39:41.799Z</time></trkpt><trkpt lat="41.9560765" lon="12.1839448"><ele>70.25</ele><time>2026-04-01T08:39:42.811Z</time></trkpt><trkpt lat="41.956154" lon="12.184063"><ele>71.5</ele><time>2026-04-01T08:39:43.803Z</time></trkpt><trkpt lat="41.9562383" lon="12.1841759"><ele>72.75</ele><time>2026-04-01T08:39:44.809Z</time></trkpt><trkpt lat="41.9563237" lon="12.1842839"><ele>74.0</ele><time>2026-04-01T08:39:45.802Z</time></trkpt><trkpt lat="41.9564059" lon="12.1843793"><ele>74.0</ele><time>2026-04-01T08:39:46.809Z</time></trkpt><trkpt lat="41.9564831" lon="12.1844814"><ele>74.0</ele><time>2026-04-01T08:39:47.803Z</time></trkpt><trkpt lat="41.9565649" lon="12.1845903"><ele>74.0</ele><time>2026-04-01T08:39:48.811Z</time></trkpt><trkpt lat="41.9566493" lon="12.1846994"><ele>74.0</ele><time>2026-04-01T08:39:49.806Z</time></trkpt><trkpt lat="41.9567318" lon="12.1848079"><ele>74.60000000000001</ele><time>2026-04-01T08:39:50.794Z</time></trkpt><trkpt lat="41.9568125" lon="12.1849149"><ele>75.2</ele><time>2026-04-01T08:39:51.796Z</time></trkpt><trkpt lat="41.9568877" lon="12.185024"><ele>75.80000000000001</ele><time>2026-04-01T08:39:52.806Z</time></trkpt><trkpt lat="41.9569558" lon="12.1851244"><ele>76.4</ele><time>2026-04-01T08:39:53.805Z</time></trkpt><trkpt lat="41.9570263" lon="12.1852164"><ele>77.0</ele><time>2026-04-01T08:39:54.804Z</time></trkpt><trkpt lat="41.957094" lon="12.1853104"><ele>77.0</ele><time>2026-04-01T08:39:55.804Z</time></trkpt><trkpt lat="41.9571625" lon="12.1854142"><ele>77.0</ele><time>2026-04-01T08:39:56.801Z</time></trkpt><trkpt lat="41.9572374" lon="12.1855102"><ele>77.0</ele><time>2026-04-01T08:39:57.799Z</time></trkpt><trkpt lat="41.9573145" lon="12.1855966"><ele>77.0</ele><time>2026-04-01T08:39:58.791Z</time></trkpt><trkpt lat="41.9573904" lon="12.1856815"><ele>77.0</ele><time>2026-04-01T08:39:59.796Z</time></trkpt><trkpt lat="41.9574634" lon="12.1857895"><ele>77.2</ele><time>2026-04-01T08:40:00.791Z</time></trkpt><trkpt lat="41.9575354" lon="12.1858961"><ele>77.4</ele><time>2026-04-01T08:40:01.798Z</time></trkpt><trkpt lat="41.9576122" lon="12.1860022"><ele>77.6</ele><time>2026-04-01T08:40:02.795Z</time></trkpt><trkpt lat="41.9576902" lon="12.1861013"><ele>77.8</ele><time>2026-04-01T08:40:03.79Z</time></trkpt><trkpt lat="41.9577708" lon="12.186188"><ele>78.0</ele><time>2026-04-01T08:40:04.801Z</time></trkpt><trkpt lat="41.9578459" lon="12.1862777"><ele>78.0</ele><time>2026-04-01T08:40:05.791Z</time></trkpt><trkpt lat="41.9579232" lon="12.1863721"><ele>78.0</ele><time>2026-04-01T08:40:06.796Z</time></trkpt><trkpt lat="41.9580024" lon="12.1864685"><ele>78.0</ele><time>2026-04-01T08:40:07.803Z</time></trkpt><trkpt lat="41.9580777" lon="12.1865593"><ele>78.0</ele><time>2026-04-01T08:40:08.805Z</time></trkpt><trkpt lat="41.9581514" lon="12.1866468"><ele>78.0</ele><time>2026-04-01T08:40:09.812Z</time></trkpt><trkpt lat="41.9582217" lon="12.1867284"><ele>78.33333333333333</ele><time>2026-04-01T08:40:10.806Z</time></trkpt><trkpt lat="41.9582781" lon="12.186793"><ele>78.66666666666667</ele><time>2026-04-01T08:40:11.803Z</time></trkpt><trkpt lat="41.9583325" lon="12.1868543"><ele>79.0</ele><time>2026-04-01T08:40:12.802Z</time></trkpt><trkpt lat="41.9583886" lon="12.1869133"><ele>79.33333333333334</ele><time>2026-04-01T08:40:13.801Z</time></trkpt><trkpt lat="41.9584477" lon="12.186968"><ele>79.66666666666667</ele><time>2026-04-01T08:40:14.796Z</time></trkpt><trkpt lat="41.9585468" lon="12.1870534"><ele>80.0</ele><time>2026-04-01T08:40:16.806Z</time></trkpt><trkpt lat="41.9586276" lon="12.1870738"><ele>80.66666666666667</ele><time>2026-04-01T08:40:18.806Z</time></trkpt><trkpt lat="41.9587105" lon="12.1870076"><ele>81.33333333333334</ele><time>2026-04-01T08:40:20.792Z</time></trkpt><trkpt lat="41.9587722" lon="12.1868607"><ele>82.0</ele><time>2026-04-01T08:40:22.788Z</time></trkpt><trkpt lat="41.9588023" lon="12.1867622"><ele>82.66666666666667</ele><time>2026-04-01T08:40:23.802Z</time></trkpt><trkpt lat="41.9588281" lon="12.1866755"><ele>83.33333333333333</ele><time>2026-04-01T08:40:24.798Z</time></trkpt><trkpt lat="41.9588519" lon="12.1865936"><ele>84.0</ele><time>2026-04-01T08:40:25.806Z</time></trkpt><trkpt lat="41.9588989" lon="12.1865091"><ele>84.80000000000001</ele><time>2026-04-01T08:40:27.798Z</time></trkpt><trkpt lat="41.9589767" lon="12.186604"><ele>85.60000000000001</ele><time>2026-04-01T08:40:36.805Z</time></trkpt><trkpt lat="41.9590622" lon="12.1867041"><ele>86.4</ele><time>2026-04-01T08:40:38.807Z</time></trkpt><trkpt lat="41.9591503" lon="12.1867895"><ele>87.2</ele><time>2026-04-01T08:40:40.844Z</time></trkpt><trkpt lat="41.9592406" lon="12.1868647"><ele>88.0</ele><time>2026-04-01T08:40:42.803Z</time></trkpt><trkpt lat="41.9593214" lon="12.186946"><ele>88.16666666666666</ele><time>2026-04-01T08:40:44.81Z</time></trkpt><trkpt lat="41.9593971" lon="12.187024"><ele>88.33333333333333</ele><time>2026-04-01T08:40:46.806Z</time></trkpt><trkpt lat="41.9594652" lon="12.187082"><ele>88.5</ele><time>2026-04-01T08:40:48.795Z</time></trkpt><trkpt lat="41.9594761" lon="12.1871777"><ele>88.66666666666667</ele><time>2026-04-01T08:41:22.774Z</time></trkpt><trkpt lat="41.9595403" lon="12.1872639"><ele>88.83333333333334</ele><time>2026-04-01T08:41:24.805Z</time></trkpt><trkpt lat="41.9596309" lon="12.1873123"><ele>89.0</ele><time>2026-04-01T08:41:26.793Z</time></trkpt><trkpt lat="41.9596951" lon="12.1874075"><ele>89.2</ele><time>2026-04-01T08:41:28.795Z</time></trkpt><trkpt lat="41.9597359" lon="12.1875423"><ele>89.4</ele><time>2026-04-01T08:41:30.799Z</time></trkpt><trkpt lat="41.9597737" lon="12.1876996"><ele>89.6</ele><time>2026-04-01T08:41:32.805Z</time></trkpt><trkpt lat="41.9598225" lon="12.1878299"><ele>89.8</ele><time>2026-04-01T08:41:34.805Z</time></trkpt><trkpt lat="41.959834" lon="12.1879159"><ele>90.0</ele><time>2026-04-01T08:41:35.789Z</time></trkpt><trkpt lat="41.9598664" lon="12.1880706"><ele>90.0</ele><time>2026-04-01T08:41:37.808Z</time></trkpt><trkpt lat="41.9599075" lon="12.1882214"><ele>90.0</ele><time>2026-04-01T08:41:39.806Z</time></trkpt><trkpt lat="41.9599324" lon="12.1883008"><ele>90.0</ele><time>2026-04-01T08:41:40.806Z</time></trkpt><trkpt lat="41.9599658" lon="12.1883811"><ele>90.0</ele><time>2026-04-01T08:41:41.824Z</time></trkpt><trkpt lat="41.9600043" lon="12.1885233"><ele>90.0</ele><time>2026-04-01T08:41:43.818Z</time></trkpt><trkpt lat="41.960033" lon="12.1886537"><ele>90.4</ele><time>2026-04-01T08:41:45.819Z</time></trkpt><trkpt lat="41.9600663" lon="12.1887804"><ele>90.8</ele><time>2026-04-01T08:41:47.813Z</time></trkpt><trkpt lat="41.9600995" lon="12.1888956"><ele>91.19999999999999</ele><time>2026-04-01T08:41:49.806Z</time></trkpt><trkpt lat="41.9601269" lon="12.18901"><ele>91.6</ele><time>2026-04-01T08:41:51.798Z</time></trkpt><trkpt lat="41.9601517" lon="12.1891328"><ele>92.0</ele><time>2026-04-01T08:41:53.795Z</time></trkpt><trkpt lat="41.960205" lon="12.1892516"><ele>92.0</ele><time>2026-04-01T08:41:55.788Z</time></trkpt><trkpt lat="41.9602378" lon="12.1893435"><ele>92.0</ele><time>2026-04-01T08:41:57.792Z</time></trkpt><trkpt lat="41.9602577" lon="12.1894525"><ele>92.0</ele><time>2026-04-01T08:41:59.797Z</time></trkpt><trkpt lat="41.9602835" lon="12.1895399"><ele>92.0</ele><time>2026-04-01T08:42:01.791Z</time></trkpt><trkpt lat="41.9603248" lon="12.1896512"><ele>92.0</ele><time>2026-04-01T08:42:15.771Z</time></trkpt><trkpt lat="41.9603805" lon="12.1897246"><ele>92.0</ele><time>2026-04-01T08:42:16.77Z</time></trkpt><trkpt lat="41.9604404" lon="12.1898092"><ele>91.75</ele><time>2026-04-01T08:42:17.772Z</time></trkpt><trkpt lat="41.9605235" lon="12.1899438"><ele>91.5</ele><time>2026-04-01T08:42:18.768Z</time></trkpt><trkpt lat="41.9606545" lon="12.190075"><ele>91.25</ele><time>2026-04-01T08:42:19.771Z</time></trkpt><trkpt lat="41.9607492" lon="12.1901936"><ele>91.0</ele><time>2026-04-01T08:42:20.778Z</time></trkpt><trkpt lat="41.9608556" lon="12.1902954"><ele>91.8</ele><time>2026-04-01T08:42:21.775Z</time></trkpt><trkpt lat="41.9609657" lon="12.1903942"><ele>92.6</ele><time>2026-04-01T08:42:22.787Z</time></trkpt><trkpt lat="41.9610545" lon="12.1904884"><ele>93.4</ele><time>2026-04-01T08:42:23.785Z</time></trkpt><trkpt lat="41.9611358" lon="12.1905905"><ele>94.2</ele><time>2026-04-01T08:42:24.787Z</time></trkpt><trkpt lat="41.9612043" lon="12.1906734"><ele>95.0</ele><time>2026-04-01T08:42:25.789Z</time></trkpt><trkpt lat="41.9612708" lon="12.1907453"><ele>95.0</ele><time>2026-04-01T08:42:26.792Z</time></trkpt><trkpt lat="41.9613251" lon="12.1908078"><ele>95.0</ele><time>2026-04-01T08:42:27.784Z</time></trkpt><trkpt lat="41.9613748" lon="12.1908713"><ele>95.0</ele><time>2026-04-01T08:42:28.789Z</time></trkpt><trkpt lat="41.9614495" lon="12.1909596"><ele>95.0</ele><time>2026-04-01T08:42:30.788Z</time></trkpt><trkpt lat="41.9613961" lon="12.191066"><ele>95.0</ele><time>2026-04-01T08:44:12.8Z</time></trkpt><trkpt lat="41.9613535" lon="12.19113"><ele>95.0</ele><time>2026-04-01T08:44:13.796Z</time></trkpt><trkpt lat="41.9612853" lon="12.1912107"><ele>95.0</ele><time>2026-04-01T08:44:14.799Z</time></trkpt><trkpt lat="41.9612309" lon="12.1913329"><ele>95.0</ele><time>2026-04-01T08:44:15.795Z</time></trkpt><trkpt lat="41.9611773" lon="12.1914373"><ele>95.0</ele><time>2026-04-01T08:44:16.799Z</time></trkpt><trkpt lat="41.9611174" lon="12.1915304"><ele>95.0</ele><time>2026-04-01T08:44:17.777Z</time></trkpt><trkpt lat="41.9610434" lon="12.1916385"><ele>95.0</ele><time>2026-04-01T08:44:18.783Z</time></trkpt><trkpt lat="41.9609797" lon="12.1917667"><ele>95.0</ele><time>2026-04-01T08:44:19.785Z</time></trkpt><trkpt lat="41.9609167" lon="12.1918867"><ele>95.0</ele><time>2026-04-01T08:44:20.79Z</time></trkpt><trkpt lat="41.9608511" lon="12.1919992"><ele>95.0</ele><time>2026-04-01T08:44:21.79Z</time></trkpt><trkpt lat="41.9607835" lon="12.1921084"><ele>95.0</ele><time>2026-04-01T08:44:22.792Z</time></trkpt><trkpt lat="41.9607118" lon="12.1922306"><ele>95.0</ele><time>2026-04-01T08:44:23.782Z</time></trkpt><trkpt lat="41.9606357" lon="12.1923519"><ele>94.4</ele><time>2026-04-01T08:44:24.786Z</time></trkpt><trkpt lat="41.9605594" lon="12.1924658"><ele>93.8</ele><time>2026-04-01T08:44:25.793Z</time></trkpt><trkpt lat="41.9604942" lon="12.1925831"><ele>93.19999999999999</ele><time>2026-04-01T08:44:26.792Z</time></trkpt><trkpt lat="41.9604315" lon="12.1926913"><ele>92.6</ele><time>2026-04-01T08:44:27.796Z</time></trkpt><trkpt lat="41.9603703" lon="12.1928044"><ele>92.0</ele><time>2026-04-01T08:44:28.795Z</time></trkpt><trkpt lat="41.9603077" lon="12.192918"><ele>92.0</ele><time>2026-04-01T08:44:29.799Z</time></trkpt><trkpt lat="41.9602469" lon="12.1930273"><ele>92.0</ele><time>2026-04-01T08:44:30.801Z</time></trkpt><trkpt lat="41.9601898" lon="12.1931362"><ele>92.0</ele><time>2026-04-01T08:44:31.799Z</time></trkpt><trkpt lat="41.9601366" lon="12.1932377"><ele>92.0</ele><time>2026-04-01T08:44:32.797Z</time></trkpt><trkpt lat="41.9600862" lon="12.193327"><ele>92.0</ele><time>2026-04-01T08:44:33.802Z</time></trkpt><trkpt lat="41.9600376" lon="12.1934208"><ele>91.19999999999999</ele><time>2026-04-01T08:44:34.792Z</time></trkpt><trkpt lat="41.9599932" lon="12.1935138"><ele>90.4</ele><time>2026-04-01T08:44:35.794Z</time></trkpt><trkpt lat="41.9599396" lon="12.1935998"><ele>89.6</ele><time>2026-04-01T08:44:36.803Z</time></trkpt><trkpt lat="41.9598687" lon="12.1937073"><ele>88.80000000000001</ele><time>2026-04-01T08:44:37.799Z</time></trkpt><trkpt lat="41.9597964" lon="12.1938324"><ele>88.0</ele><time>2026-04-01T08:44:38.796Z</time></trkpt><trkpt lat="41.9597291" lon="12.1939437"><ele>88.0</ele><time>2026-04-01T08:44:39.79Z</time></trkpt><trkpt lat="41.9596709" lon="12.1940524"><ele>88.0</ele><time>2026-04-01T08:44:40.791Z</time></trkpt><trkpt lat="41.9596217" lon="12.194146"><ele>88.0</ele><time>2026-04-01T08:44:41.787Z</time></trkpt><trkpt lat="41.959578" lon="12.1942317"><ele>88.0</ele><time>2026-04-01T08:44:42.965Z</time></trkpt><trkpt lat="41.9595039" lon="12.1943682"><ele>88.0</ele><time>2026-04-01T08:44:44.765Z</time></trkpt><trkpt lat="41.9594828" lon="12.1944618"><ele>88.0</ele><time>2026-04-01T08:44:46.777Z</time></trkpt><trkpt lat="41.959545" lon="12.1945052"><ele>88.0</ele><time>2026-04-01T08:44:48.781Z</time></trkpt><trkpt lat="41.9596355" lon="12.1945135"><ele>88.0</ele><time>2026-04-01T08:44:50.776Z</time></trkpt><trkpt lat="41.9597083" lon="12.1945286"><ele>88.0</ele><time>2026-04-01T08:44:52.784Z</time></trkpt><trkpt lat="41.9597805" lon="12.1945435"><ele>88.0</ele><time>2026-04-01T08:45:13.789Z</time></trkpt><trkpt lat="41.9597301" lon="12.1944441"><ele>88.0</ele><time>2026-04-01T08:45:18.814Z</time></trkpt><trkpt lat="41.9596482" lon="12.1943867"><ele>88.0</ele><time>2026-04-01T08:45:20.794Z</time></trkpt><trkpt lat="41.9595972" lon="12.1943338"><ele>88.0</ele><time>2026-04-01T08:45:22.776Z</time></trkpt><trkpt lat="41.9596325" lon="12.1942545"><ele>88.0</ele><time>2026-04-01T08:45:42.778Z</time></trkpt><trkpt lat="41.9596808" lon="12.1941283"><ele>88.0</ele><time>2026-04-01T08:45:44.777Z</time></trkpt><trkpt lat="41.9597598" lon="12.1939656"><ele>88.0</ele><time>2026-04-01T08:45:46.768Z</time></trkpt><trkpt lat="41.9598056" lon="12.1938728"><ele>88.0</ele><time>2026-04-01T08:45:47.769Z</time></trkpt><trkpt lat="41.9598667" lon="12.1937709"><ele>88.0</ele><time>2026-04-01T08:45:48.784Z</time></trkpt><trkpt lat="41.9599261" lon="12.1936762"><ele>88.0</ele><time>2026-04-01T08:45:49.771Z</time></trkpt><trkpt lat="41.9599944" lon="12.1935795"><ele>88.0</ele><time>2026-04-01T08:45:50.767Z</time></trkpt><trkpt lat="41.9600591" lon="12.1934728"><ele>88.0</ele><time>2026-04-01T08:45:51.761Z</time></trkpt><trkpt lat="41.9601202" lon="12.1933665"><ele>88.80000000000001</ele><time>2026-04-01T08:45:52.767Z</time></trkpt><trkpt lat="41.96018" lon="12.1932678"><ele>89.6</ele><time>2026-04-01T08:45:53.761Z</time></trkpt><trkpt lat="41.9602336" lon="12.1931692"><ele>90.4</ele><time>2026-04-01T08:45:54.76Z</time></trkpt><trkpt lat="41.9602941" lon="12.1930707"><ele>91.19999999999999</ele><time>2026-04-01T08:45:55.76Z</time></trkpt><trkpt lat="41.9603536" lon="12.1929588"><ele>92.0</ele><time>2026-04-01T08:45:56.757Z</time></trkpt><trkpt lat="41.9604157" lon="12.1928404"><ele>92.0</ele><time>2026-04-01T08:45:57.766Z</time></trkpt><trkpt lat="41.9604815" lon="12.1927284"><ele>92.0</ele><time>2026-04-01T08:45:58.764Z</time></trkpt><trkpt lat="41.96055" lon="12.1926067"><ele>92.0</ele><time>2026-04-01T08:45:59.766Z</time></trkpt><trkpt lat="41.9606239" lon="12.1924819"><ele>92.0</ele><time>2026-04-01T08:46:00.761Z</time></trkpt><trkpt lat="41.9606964" lon="12.1923497"><ele>92.25</ele><time>2026-04-01T08:46:01.758Z</time></trkpt><trkpt lat="41.960771" lon="12.192219"><ele>92.5</ele><time>2026-04-01T08:46:02.763Z</time></trkpt><trkpt lat="41.960845" lon="12.1920897"><ele>92.75</ele><time>2026-04-01T08:46:03.764Z</time></trkpt><trkpt lat="41.9609196" lon="12.1919578"><ele>93.0</ele><time>2026-04-01T08:46:04.769Z</time></trkpt><trkpt lat="41.9609974" lon="12.1918207"><ele>93.5</ele><time>2026-04-01T08:46:05.771Z</time></trkpt><trkpt lat="41.9610719" lon="12.1916734"><ele>94.0</ele><time>2026-04-01T08:46:06.774Z</time></trkpt><trkpt lat="41.9611521" lon="12.1915319"><ele>94.5</ele><time>2026-04-01T08:46:07.774Z</time></trkpt><trkpt lat="41.9612267" lon="12.1913975"><ele>95.0</ele><time>2026-04-01T08:46:08.78Z</time></trkpt><trkpt lat="41.961305" lon="12.1912534"><ele>95.0</ele><time>2026-04-01T08:46:09.781Z</time></trkpt><trkpt lat="41.9613806" lon="12.1911128"><ele>95.0</ele><time>2026-04-01T08:46:10.775Z</time></trkpt><trkpt lat="41.9614562" lon="12.190979"><ele>95.0</ele><time>2026-04-01T08:46:11.78Z</time></trkpt><trkpt lat="41.9615308" lon="12.1908488"><ele>95.0</ele><time>2026-04-01T08:46:12.782Z</time></trkpt><trkpt lat="41.9616057" lon="12.1907184"><ele>95.0</ele><time>2026-04-01T08:46:13.78Z</time></trkpt><trkpt lat="41.9616845" lon="12.1905956"><ele>95.0</ele><time>2026-04-01T08:46:14.781Z</time></trkpt><trkpt lat="41.9617603" lon="12.1904719"><ele>95.0</ele><time>2026-04-01T08:46:15.787Z</time></trkpt><trkpt lat="41.9618445" lon="12.1903471"><ele>95.0</ele><time>2026-04-01T08:46:16.779Z</time></trkpt><trkpt lat="41.9619241" lon="12.1902318"><ele>94.5</ele><time>2026-04-01T08:46:17.784Z</time></trkpt><trkpt lat="41.9620051" lon="12.1901068"><ele>94.0</ele><time>2026-04-01T08:46:18.787Z</time></trkpt><trkpt lat="41.9620928" lon="12.1899872"><ele>93.5</ele><time>2026-04-01T08:46:19.798Z</time></trkpt><trkpt lat="41.9621808" lon="12.1898613"><ele>93.0</ele><time>2026-04-01T08:46:20.775Z</time></trkpt><trkpt lat="41.9622722" lon="12.1897346"><ele>92.75</ele><time>2026-04-01T08:46:21.768Z</time></trkpt><trkpt lat="41.9623659" lon="12.1896178"><ele>92.5</ele><time>2026-04-01T08:46:22.772Z</time></trkpt><trkpt lat="41.9624599" lon="12.1895074"><ele>92.25</ele><time>2026-04-01T08:46:23.778Z</time></trkpt><trkpt lat="41.9625618" lon="12.1894018"><ele>92.0</ele><time>2026-04-01T08:46:24.773Z</time></trkpt><trkpt lat="41.9626719" lon="12.1893123"><ele>91.25</ele><time>2026-04-01T08:46:25.775Z</time></trkpt><trkpt lat="41.9627878" lon="12.1892464"><ele>90.5</ele><time>2026-04-01T08:46:26.771Z</time></trkpt><trkpt lat="41.9629096" lon="12.1891921"><ele>89.75</ele><time>2026-04-01T08:46:27.777Z</time></trkpt><trkpt lat="41.9630404" lon="12.1891656"><ele>89.0</ele><time>2026-04-01T08:46:28.778Z</time></trkpt><trkpt lat="41.9631732" lon="12.1891501"><ele>89.0</ele><time>2026-04-01T08:46:29.788Z</time></trkpt><trkpt lat="41.9633159" lon="12.1891393"><ele>89.0</ele><time>2026-04-01T08:46:30.787Z</time></trkpt><trkpt lat="41.9634529" lon="12.1891269"><ele>89.0</ele><time>2026-04-01T08:46:31.785Z</time></trkpt><trkpt lat="41.9635898" lon="12.1891116"><ele>89.0</ele><time>2026-04-01T08:46:32.789Z</time></trkpt><trkpt lat="41.9637287" lon="12.1890927"><ele>88.75</ele><time>2026-04-01T08:46:33.783Z</time></trkpt><trkpt lat="41.9638671" lon="12.1890715"><ele>88.5</ele><time>2026-04-01T08:46:34.788Z</time></trkpt><trkpt lat="41.964005" lon="12.1890568"><ele>88.25</ele><time>2026-04-01T08:46:35.785Z</time></trkpt><trkpt lat="41.9641422" lon="12.1890346"><ele>88.0</ele><time>2026-04-01T08:46:36.784Z</time></trkpt><trkpt lat="41.9642767" lon="12.189014"><ele>87.25</ele><time>2026-04-01T08:46:37.786Z</time></trkpt><trkpt lat="41.9644037" lon="12.1889885"><ele>86.5</ele><time>2026-04-01T08:46:38.787Z</time></trkpt><trkpt lat="41.9645331" lon="12.1889645"><ele>85.75</ele><time>2026-04-01T08:46:39.781Z</time></trkpt><trkpt lat="41.9646605" lon="12.188943"><ele>85.0</ele><time>2026-04-01T08:46:40.773Z</time></trkpt><trkpt lat="41.9647892" lon="12.1889371"><ele>85.0</ele><time>2026-04-01T08:46:41.769Z</time></trkpt><trkpt lat="41.9649115" lon="12.1889325"><ele>85.0</ele><time>2026-04-01T08:46:42.777Z</time></trkpt><trkpt lat="41.9650181" lon="12.188928"><ele>85.0</ele><time>2026-04-01T08:46:43.778Z</time></trkpt><trkpt lat="41.965146" lon="12.1889465"><ele>85.0</ele><time>2026-04-01T08:46:44.774Z</time></trkpt><trkpt lat="41.9652729" lon="12.1889643"><ele>85.0</ele><time>2026-04-01T08:46:45.776Z</time></trkpt><trkpt lat="41.9653963" lon="12.1889833"><ele>85.0</ele><time>2026-04-01T08:46:46.778Z</time></trkpt><trkpt lat="41.9655234" lon="12.1890073"><ele>85.0</ele><time>2026-04-01T08:46:47.782Z</time></trkpt><trkpt lat="41.9656506" lon="12.1890345"><ele>85.0</ele><time>2026-04-01T08:46:48.777Z</time></trkpt><trkpt lat="41.9657827" lon="12.1890627"><ele>85.0</ele><time>2026-04-01T08:46:49.782Z</time></trkpt><trkpt lat="41.9659139" lon="12.1890876"><ele>85.0</ele><time>2026-04-01T08:46:50.797Z</time></trkpt><trkpt lat="41.9660437" lon="12.1891036"><ele>85.0</ele><time>2026-04-01T08:46:51.785Z</time></trkpt><trkpt lat="41.9661761" lon="12.1891275"><ele>85.0</ele><time>2026-04-01T08:46:52.781Z</time></trkpt><trkpt lat="41.966306" lon="12.1891493"><ele>85.0</ele><time>2026-04-01T08:46:53.774Z</time></trkpt><trkpt lat="41.9664352" lon="12.1891788"><ele>85.0</ele><time>2026-04-01T08:46:54.775Z</time></trkpt><trkpt lat="41.9665623" lon="12.1891965"><ele>85.0</ele><time>2026-04-01T08:46:55.779Z</time></trkpt><trkpt lat="41.9666891" lon="12.1892073"><ele>85.0</ele><time>2026-04-01T08:46:56.783Z</time></trkpt><trkpt lat="41.9668204" lon="12.1892247"><ele>84.5</ele><time>2026-04-01T08:46:57.779Z</time></trkpt><trkpt lat="41.9669455" lon="12.189242"><ele>84.0</ele><time>2026-04-01T08:46:58.776Z</time></trkpt><trkpt lat="41.9670677" lon="12.1892598"><ele>83.5</ele><time>2026-04-01T08:46:59.781Z</time></trkpt><trkpt lat="41.9671859" lon="12.1892682"><ele>83.0</ele><time>2026-04-01T08:47:00.773Z</time></trkpt><trkpt lat="41.9673098" lon="12.189288"><ele>83.0</ele><time>2026-04-01T08:47:01.77Z</time></trkpt><trkpt lat="41.9674325" lon="12.1893133"><ele>83.0</ele><time>2026-04-01T08:47:02.775Z</time></trkpt><trkpt lat="41.9675505" lon="12.1893391"><ele>83.0</ele><time>2026-04-01T08:47:03.777Z</time></trkpt><trkpt lat="41.9676753" lon="12.1893721"><ele>83.0</ele><time>2026-04-01T08:47:04.779Z</time></trkpt><trkpt lat="41.9678002" lon="12.1894103"><ele>83.25</ele><time>2026-04-01T08:47:05.771Z</time></trkpt><trkpt lat="41.9679296" lon="12.1894602"><ele>83.5</ele><time>2026-04-01T08:47:06.769Z</time></trkpt><trkpt lat="41.968055" lon="12.1895131"><ele>83.75</ele><time>2026-04-01T08:47:07.769Z</time></trkpt><trkpt lat="41.9681707" lon="12.1895846"><ele>84.0</ele><time>2026-04-01T08:47:08.778Z</time></trkpt><trkpt lat="41.9682868" lon="12.1896513"><ele>84.75</ele><time>2026-04-01T08:47:09.768Z</time></trkpt><trkpt lat="41.9684082" lon="12.1897108"><ele>85.5</ele><time>2026-04-01T08:47:10.772Z</time></trkpt><trkpt lat="41.968531" lon="12.1897862"><ele>86.25</ele><time>2026-04-01T08:47:11.78Z</time></trkpt><trkpt lat="41.9686476" lon="12.1898573"><ele>87.0</ele><time>2026-04-01T08:47:12.784Z</time></trkpt><trkpt lat="41.9687705" lon="12.189923"><ele>87.0</ele><time>2026-04-01T08:47:13.788Z</time></trkpt><trkpt lat="41.9688894" lon="12.1899746"><ele>87.0</ele><time>2026-04-01T08:47:14.784Z</time></trkpt><trkpt lat="41.9690033" lon="12.1900035"><ele>87.0</ele><time>2026-04-01T08:47:15.786Z</time></trkpt><trkpt lat="41.9691184" lon="12.1900215"><ele>87.0</ele><time>2026-04-01T08:47:16.779Z</time></trkpt><trkpt lat="41.9692398" lon="12.190027"><ele>86.75</ele><time>2026-04-01T08:47:17.79Z</time></trkpt><trkpt lat="41.9693584" lon="12.1899949"><ele>86.5</ele><time>2026-04-01T08:47:18.784Z</time></trkpt><trkpt lat="41.9694851" lon="12.1899456"><ele>86.25</ele><time>2026-04-01T08:47:19.769Z</time></trkpt><trkpt lat="41.969609" lon="12.1898987"><ele>86.0</ele><time>2026-04-01T08:47:20.772Z</time></trkpt><trkpt lat="41.9697403" lon="12.1898251"><ele>86.75</ele><time>2026-04-01T08:47:21.786Z</time></trkpt><trkpt lat="41.9698579" lon="12.1897521"><ele>87.5</ele><time>2026-04-01T08:47:22.767Z</time></trkpt><trkpt lat="41.9699799" lon="12.1896867"><ele>88.25</ele><time>2026-04-01T08:47:23.775Z</time></trkpt><trkpt lat="41.9700977" lon="12.1896122"><ele>89.0</ele><time>2026-04-01T08:47:24.77Z</time></trkpt><trkpt lat="41.9702296" lon="12.1895471"><ele>89.0</ele><time>2026-04-01T08:47:25.779Z</time></trkpt><trkpt lat="41.9703526" lon="12.1894863"><ele>89.0</ele><time>2026-04-01T08:47:26.776Z</time></trkpt><trkpt lat="41.9704703" lon="12.1894358"><ele>89.0</ele><time>2026-04-01T08:47:27.776Z</time></trkpt><trkpt lat="41.9705868" lon="12.1893921"><ele>89.0</ele><time>2026-04-01T08:47:28.773Z</time></trkpt><trkpt lat="41.9707081" lon="12.189368"><ele>89.0</ele><time>2026-04-01T08:47:29.782Z</time></trkpt><trkpt lat="41.9708231" lon="12.1893584"><ele>89.0</ele><time>2026-04-01T08:47:30.777Z</time></trkpt><trkpt lat="41.9709359" lon="12.189373"><ele>89.0</ele><time>2026-04-01T08:47:31.783Z</time></trkpt><trkpt lat="41.9710466" lon="12.1894113"><ele>89.0</ele><time>2026-04-01T08:47:32.766Z</time></trkpt><trkpt lat="41.9711652" lon="12.1894595"><ele>89.5</ele><time>2026-04-01T08:47:33.771Z</time></trkpt><trkpt lat="41.9712886" lon="12.1895055"><ele>90.0</ele><time>2026-04-01T08:47:34.768Z</time></trkpt><trkpt lat="41.9714198" lon="12.1895366"><ele>90.5</ele><time>2026-04-01T08:47:35.779Z</time></trkpt><trkpt lat="41.9715516" lon="12.189576"><ele>91.0</ele><time>2026-04-01T08:47:36.778Z</time></trkpt><trkpt lat="41.9716764" lon="12.18962"><ele>90.25</ele><time>2026-04-01T08:47:37.776Z</time></trkpt><trkpt lat="41.9718012" lon="12.189662"><ele>89.5</ele><time>2026-04-01T08:47:38.778Z</time></trkpt><trkpt lat="41.9719245" lon="12.1896906"><ele>88.75</ele><time>2026-04-01T08:47:39.78Z</time></trkpt><trkpt lat="41.972044" lon="12.1897199"><ele>88.0</ele><time>2026-04-01T08:47:40.779Z</time></trkpt><trkpt lat="41.9721687" lon="12.1897512"><ele>88.0</ele><time>2026-04-01T08:47:41.777Z</time></trkpt><trkpt lat="41.9722978" lon="12.1897811"><ele>88.0</ele><time>2026-04-01T08:47:42.773Z</time></trkpt><trkpt lat="41.9724214" lon="12.1898078"><ele>88.0</ele><time>2026-04-01T08:47:43.769Z</time></trkpt><trkpt lat="41.9725488" lon="12.1898419"><ele>88.0</ele><time>2026-04-01T08:47:44.773Z</time></trkpt><trkpt lat="41.9726772" lon="12.1898675"><ele>89.0</ele><time>2026-04-01T08:47:45.776Z</time></trkpt><trkpt lat="41.9728093" lon="12.1898923"><ele>90.0</ele><time>2026-04-01T08:47:46.779Z</time></trkpt><trkpt lat="41.972942" lon="12.1899237"><ele>91.0</ele><time>2026-04-01T08:47:47.774Z</time></trkpt><trkpt lat="41.97307" lon="12.189949"><ele>92.0</ele><time>2026-04-01T08:47:48.77Z</time></trkpt><trkpt lat="41.9731962" lon="12.1899653"><ele>92.0</ele><time>2026-04-01T08:47:49.771Z</time></trkpt><trkpt lat="41.9733237" lon="12.1899843"><ele>92.0</ele><time>2026-04-01T08:47:50.78Z</time></trkpt><trkpt lat="41.9734602" lon="12.1900054"><ele>92.0</ele><time>2026-04-01T08:47:51.77Z</time></trkpt><trkpt lat="41.9735911" lon="12.1900172"><ele>92.0</ele><time>2026-04-01T08:47:52.79Z</time></trkpt><trkpt lat="41.9737259" lon="12.1900282"><ele>92.0</ele><time>2026-04-01T08:47:53.77Z</time></trkpt><trkpt lat="41.9738507" lon="12.1900322"><ele>92.0</ele><time>2026-04-01T08:47:54.778Z</time></trkpt><trkpt lat="41.9739836" lon="12.1900482"><ele>92.0</ele><time>2026-04-01T08:47:55.784Z</time></trkpt><trkpt lat="41.9741227" lon="12.1900632"><ele>92.0</ele><time>2026-04-01T08:47:56.777Z</time></trkpt><trkpt lat="41.9742646" lon="12.1900721"><ele>93.0</ele><time>2026-04-01T08:47:57.776Z</time></trkpt><trkpt lat="41.9744028" lon="12.1900918"><ele>94.0</ele><time>2026-04-01T08:47:58.781Z</time></trkpt><trkpt lat="41.9745305" lon="12.1901013"><ele>95.0</ele><time>2026-04-01T08:47:59.785Z</time></trkpt><trkpt lat="41.9746602" lon="12.190113"><ele>96.0</ele><time>2026-04-01T08:48:00.781Z</time></trkpt><trkpt lat="41.9747857" lon="12.1901209"><ele>96.0</ele><time>2026-04-01T08:48:01.785Z</time></trkpt><trkpt lat="41.9749064" lon="12.1901385"><ele>96.0</ele><time>2026-04-01T08:48:02.774Z</time></trkpt><trkpt lat="41.975013" lon="12.1901648"><ele>96.0</ele><time>2026-04-01T08:48:03.778Z</time></trkpt><trkpt lat="41.975125" lon="12.1902014"><ele>96.0</ele><time>2026-04-01T08:48:04.776Z</time></trkpt><trkpt lat="41.9752394" lon="12.1902428"><ele>97.25</ele><time>2026-04-01T08:48:05.775Z</time></trkpt><trkpt lat="41.9753523" lon="12.1902939"><ele>98.5</ele><time>2026-04-01T08:48:06.769Z</time></trkpt><trkpt lat="41.9754594" lon="12.1903657"><ele>99.75</ele><time>2026-04-01T08:48:07.771Z</time></trkpt><trkpt lat="41.9755586" lon="12.1904644"><ele>101.0</ele><time>2026-04-01T08:48:08.774Z</time></trkpt><trkpt lat="41.9756439" lon="12.1905885"><ele>100.75</ele><time>2026-04-01T08:48:09.77Z</time></trkpt><trkpt lat="41.9757207" lon="12.1907347"><ele>100.5</ele><time>2026-04-01T08:48:10.76Z</time></trkpt><trkpt lat="41.9757968" lon="12.1908825"><ele>100.25</ele><time>2026-04-01T08:48:11.768Z</time></trkpt><trkpt lat="41.9758752" lon="12.1910257"><ele>100.0</ele><time>2026-04-01T08:48:12.771Z</time></trkpt><trkpt lat="41.975954" lon="12.1911731"><ele>101.0</ele><time>2026-04-01T08:48:13.763Z</time></trkpt><trkpt lat="41.9760427" lon="12.1913223"><ele>102.0</ele><time>2026-04-01T08:48:14.765Z</time></trkpt><trkpt lat="41.9761434" lon="12.1914583"><ele>103.0</ele><time>2026-04-01T08:48:15.768Z</time></trkpt><trkpt lat="41.9762303" lon="12.1916142"><ele>104.0</ele><time>2026-04-01T08:48:16.775Z</time></trkpt><trkpt lat="41.9763146" lon="12.1917755"><ele>104.0</ele><time>2026-04-01T08:48:17.777Z</time></trkpt><trkpt lat="41.9764041" lon="12.1919064"><ele>104.0</ele><time>2026-04-01T08:48:18.775Z</time></trkpt><trkpt lat="41.9764936" lon="12.1920207"><ele>104.0</ele><time>2026-04-01T08:48:19.773Z</time></trkpt><trkpt lat="41.9765944" lon="12.1921029"><ele>104.0</ele><time>2026-04-01T08:48:20.774Z</time></trkpt><trkpt lat="41.9767006" lon="12.1921748"><ele>105.5</ele><time>2026-04-01T08:48:21.774Z</time></trkpt><trkpt lat="41.9768118" lon="12.1922207"><ele>107.0</ele><time>2026-04-01T08:48:22.77Z</time></trkpt><trkpt lat="41.9769278" lon="12.1922429"><ele>108.5</ele><time>2026-04-01T08:48:23.8Z</time></trkpt><trkpt lat="41.977046" lon="12.1922262"><ele>110.0</ele><time>2026-04-01T08:48:24.784Z</time></trkpt><trkpt lat="41.9771683" lon="12.1921859"><ele>110.0</ele><time>2026-04-01T08:48:25.783Z</time></trkpt><trkpt lat="41.977294" lon="12.1921158"><ele>110.0</ele><time>2026-04-01T08:48:26.777Z</time></trkpt><trkpt lat="41.9774321" lon="12.1920546"><ele>110.0</ele><time>2026-04-01T08:48:27.769Z</time></trkpt><trkpt lat="41.9775667" lon="12.191992"><ele>110.0</ele><time>2026-04-01T08:48:28.768Z</time></trkpt><trkpt lat="41.9777076" lon="12.1919396"><ele>112.0</ele><time>2026-04-01T08:48:29.779Z</time></trkpt><trkpt lat="41.9778582" lon="12.1918677"><ele>114.0</ele><time>2026-04-01T08:48:30.772Z</time></trkpt><trkpt lat="41.9780116" lon="12.1917779"><ele>116.0</ele><time>2026-04-01T08:48:31.77Z</time></trkpt><trkpt lat="41.9781356" lon="12.1917098"><ele>116.0</ele><time>2026-04-01T08:48:32.766Z</time></trkpt><trkpt lat="41.978271" lon="12.1916722"><ele>116.0</ele><time>2026-04-01T08:48:33.763Z</time></trkpt><trkpt lat="41.9783939" lon="12.1916319"><ele>116.0</ele><time>2026-04-01T08:48:34.761Z</time></trkpt><trkpt lat="41.9785261" lon="12.1916208"><ele>116.0</ele><time>2026-04-01T08:48:35.768Z</time></trkpt><trkpt lat="41.9786469" lon="12.1916281"><ele>116.25</ele><time>2026-04-01T08:48:36.766Z</time></trkpt><trkpt lat="41.9787711" lon="12.1916498"><ele>116.5</ele><time>2026-04-01T08:48:37.772Z</time></trkpt><trkpt lat="41.9788765" lon="12.1917002"><ele>116.75</ele><time>2026-04-01T08:48:38.761Z</time></trkpt><trkpt lat="41.9789856" lon="12.1917656"><ele>117.0</ele><time>2026-04-01T08:48:39.755Z</time></trkpt><trkpt lat="41.9791083" lon="12.1918426"><ele>116.5</ele><time>2026-04-01T08:48:40.765Z</time></trkpt><trkpt lat="41.9792447" lon="12.1919041"><ele>116.0</ele><time>2026-04-01T08:48:41.764Z</time></trkpt><trkpt lat="41.9793783" lon="12.1919584"><ele>115.5</ele><time>2026-04-01T08:48:42.767Z</time></trkpt><trkpt lat="41.9795062" lon="12.1920116"><ele>115.0</ele><time>2026-04-01T08:48:43.773Z</time></trkpt><trkpt lat="41.9796373" lon="12.192051"><ele>115.0</ele><time>2026-04-01T08:48:44.772Z</time></trkpt><trkpt lat="41.979764" lon="12.1920937"><ele>115.0</ele><time>2026-04-01T08:48:45.775Z</time></trkpt><trkpt lat="41.9798788" lon="12.1921344"><ele>115.0</ele><time>2026-04-01T08:48:46.77Z</time></trkpt><trkpt lat="41.9799792" lon="12.1921793"><ele>115.0</ele><time>2026-04-01T08:48:47.767Z</time></trkpt><trkpt lat="41.9800737" lon="12.192221"><ele>114.83333333333334</ele><time>2026-04-01T08:48:48.765Z</time></trkpt><trkpt lat="41.9801463" lon="12.1922656"><ele>114.66666666666667</ele><time>2026-04-01T08:48:49.775Z</time></trkpt><trkpt lat="41.9802052" lon="12.1923245"><ele>114.5</ele><time>2026-04-01T08:48:50.775Z</time></trkpt><trkpt lat="41.9802625" lon="12.1923984"><ele>114.33333333333334</ele><time>2026-04-01T08:48:51.77Z</time></trkpt><trkpt lat="41.9803252" lon="12.1924772"><ele>114.16666666666667</ele><time>2026-04-01T08:48:52.777Z</time></trkpt><trkpt lat="41.9803691" lon="12.1925752"><ele>114.0</ele><time>2026-04-01T08:48:53.767Z</time></trkpt><trkpt lat="41.9804147" lon="12.1926786"><ele>114.0</ele><time>2026-04-01T08:48:54.787Z</time></trkpt><trkpt lat="41.9804583" lon="12.1927829"><ele>114.0</ele><time>2026-04-01T08:48:55.774Z</time></trkpt><trkpt lat="41.9804939" lon="12.1928718"><ele>114.0</ele><time>2026-04-01T08:48:56.773Z</time></trkpt><trkpt lat="41.9805324" lon="12.1929583"><ele>114.0</ele><time>2026-04-01T08:48:57.778Z</time></trkpt><trkpt lat="41.9805718" lon="12.1930364"><ele>114.0</ele><time>2026-04-01T08:48:58.769Z</time></trkpt><trkpt lat="41.980632" lon="12.1931129"><ele>114.0</ele><time>2026-04-01T08:49:00.789Z</time></trkpt><trkpt lat="41.9807123" lon="12.1930648"><ele>114.0</ele><time>2026-04-01T08:49:02.783Z</time></trkpt><trkpt lat="41.9807866" lon="12.1929745"><ele>114.0</ele><time>2026-04-01T08:49:04.775Z</time></trkpt><trkpt lat="41.9808476" lon="12.192939"><ele>114.0</ele><time>2026-04-01T08:49:05.779Z</time></trkpt><trkpt lat="41.9809293" lon="12.1929059"><ele>114.0</ele><time>2026-04-01T08:49:06.787Z</time></trkpt><trkpt lat="41.9810328" lon="12.1928636"><ele>114.0</ele><time>2026-04-01T08:49:07.777Z</time></trkpt><trkpt lat="41.981151" lon="12.1928089"><ele>113.0</ele><time>2026-04-01T08:49:08.771Z</time></trkpt><trkpt lat="41.9812708" lon="12.1927515"><ele>112.0</ele><time>2026-04-01T08:49:09.78Z</time></trkpt><trkpt lat="41.9814115" lon="12.1926888"><ele>111.0</ele><time>2026-04-01T08:49:10.784Z</time></trkpt><trkpt lat="41.9815643" lon="12.1926222"><ele>110.0</ele><time>2026-04-01T08:49:11.78Z</time></trkpt><trkpt lat="41.9817259" lon="12.1925533"><ele>110.0</ele><time>2026-04-01T08:49:12.779Z</time></trkpt><trkpt lat="41.9818815" lon="12.1924716"><ele>110.0</ele><time>2026-04-01T08:49:13.769Z</time></trkpt><trkpt lat="41.9820181" lon="12.1924119"><ele>110.0</ele><time>2026-04-01T08:49:14.781Z</time></trkpt><trkpt lat="41.9821534" lon="12.1923451"><ele>109.25</ele><time>2026-04-01T08:49:15.784Z</time></trkpt><trkpt lat="41.9822888" lon="12.1922742"><ele>108.5</ele><time>2026-04-01T08:49:16.779Z</time></trkpt><trkpt lat="41.982411" lon="12.1922065"><ele>107.75</ele><time>2026-04-01T08:49:17.771Z</time></trkpt><trkpt lat="41.9825154" lon="12.1921305"><ele>107.0</ele><time>2026-04-01T08:49:18.769Z</time></trkpt><trkpt lat="41.9826283" lon="12.1920667"><ele>107.0</ele><time>2026-04-01T08:49:19.773Z</time></trkpt><trkpt lat="41.9827275" lon="12.1920053"><ele>106.99999999999999</ele><time>2026-04-01T08:49:20.779Z</time></trkpt><trkpt lat="41.9828151" lon="12.19195"><ele>106.99999999999999</ele><time>2026-04-01T08:49:21.779Z</time></trkpt><trkpt lat="41.982924" lon="12.1918985"><ele>107.0</ele><time>2026-04-01T08:49:22.775Z</time></trkpt><trkpt lat="41.9830384" lon="12.1918392"><ele>107.0</ele><time>2026-04-01T08:49:23.782Z</time></trkpt><trkpt lat="41.9831285" lon="12.1917849"><ele>106.99999999999999</ele><time>2026-04-01T08:49:24.783Z</time></trkpt><trkpt lat="41.9832259" lon="12.191737"><ele>107.0</ele><time>2026-04-01T08:49:25.802Z</time></trkpt><trkpt lat="41.9833161" lon="12.1916836"><ele>107.0</ele><time>2026-04-01T08:49:26.783Z</time></trkpt><trkpt lat="41.9833971" lon="12.1916299"><ele>107.0</ele><time>2026-04-01T08:49:27.783Z</time></trkpt><trkpt lat="41.9834723" lon="12.1915843"><ele>106.99999999999999</ele><time>2026-04-01T08:49:28.776Z</time></trkpt><trkpt lat="41.983533" lon="12.1915407"><ele>107.0</ele><time>2026-04-01T08:49:29.784Z</time></trkpt><trkpt lat="41.9836193" lon="12.1914717"><ele>105.19999999999999</ele><time>2026-04-01T08:49:31.783Z</time></trkpt><trkpt lat="41.9837049" lon="12.1914074"><ele>103.39999999999999</ele><time>2026-04-01T08:49:33.79Z</time></trkpt><trkpt lat="41.983821" lon="12.1913419"><ele>101.6</ele><time>2026-04-01T08:49:35.781Z</time></trkpt><trkpt lat="41.9838986" lon="12.1913151"><ele>99.80000000000001</ele><time>2026-04-01T08:49:36.78Z</time></trkpt><trkpt lat="41.9839761" lon="12.1912926"><ele>98.0</ele><time>2026-04-01T08:49:37.771Z</time></trkpt><trkpt lat="41.9840534" lon="12.191265"><ele>97.99999999999999</ele><time>2026-04-01T08:49:38.778Z</time></trkpt><trkpt lat="41.9841369" lon="12.1912383"><ele>98.0</ele><time>2026-04-01T08:49:39.771Z</time></trkpt><trkpt lat="41.9842073" lon="12.1912138"><ele>98.0</ele><time>2026-04-01T08:49:40.77Z</time></trkpt><trkpt lat="41.9842716" lon="12.1912032"><ele>98.0</ele><time>2026-04-01T08:49:41.77Z</time></trkpt><trkpt lat="41.984391" lon="12.1912031"><ele>97.99999999999999</ele><time>2026-04-01T08:49:43.767Z</time></trkpt><trkpt lat="41.9844546" lon="12.1912188"><ele>98.0</ele><time>2026-04-01T08:49:44.766Z</time></trkpt><trkpt lat="41.9845357" lon="12.1912324"><ele>98.66666666666666</ele><time>2026-04-01T08:49:45.754Z</time></trkpt><trkpt lat="41.9846112" lon="12.191246"><ele>99.33333333333333</ele><time>2026-04-01T08:49:46.746Z</time></trkpt><trkpt lat="41.9846895" lon="12.1912673"><ele>100.0</ele><time>2026-04-01T08:49:47.747Z</time></trkpt><trkpt lat="41.9847686" lon="12.1912756"><ele>100.66666666666666</ele><time>2026-04-01T08:49:48.752Z</time></trkpt><trkpt lat="41.9848404" lon="12.1912851"><ele>101.33333333333333</ele><time>2026-04-01T08:49:49.746Z</time></trkpt><trkpt lat="41.9849122" lon="12.1912915"><ele>102.0</ele><time>2026-04-01T08:49:50.76Z</time></trkpt><trkpt lat="41.9849867" lon="12.1913353"><ele>102.0</ele><time>2026-04-01T08:49:51.75Z</time></trkpt><trkpt lat="41.9850537" lon="12.1913751"><ele>102.0</ele><time>2026-04-01T08:49:52.743Z</time></trkpt><trkpt lat="41.9849824" lon="12.1914201"><ele>102.0</ele><time>2026-04-01T08:49:58.774Z</time></trkpt><trkpt lat="41.9849146" lon="12.1914411"><ele>102.0</ele><time>2026-04-01T08:50:05.78Z</time></trkpt><trkpt lat="41.9848449" lon="12.1914167"><ele>102.0</ele><time>2026-04-01T08:50:30.769Z</time></trkpt><trkpt lat="41.9847156" lon="12.1913768"><ele>102.0</ele><time>2026-04-01T08:50:32.766Z</time></trkpt><trkpt lat="41.9846392" lon="12.1913566"><ele>102.0</ele><time>2026-04-01T08:50:33.762Z</time></trkpt><trkpt lat="41.9845615" lon="12.191328"><ele>102.0</ele><time>2026-04-01T08:50:34.764Z</time></trkpt><trkpt lat="41.9844811" lon="12.1912909"><ele>102.0</ele><time>2026-04-01T08:50:35.765Z</time></trkpt><trkpt lat="41.9843998" lon="12.1912534"><ele>102.0</ele><time>2026-04-01T08:50:36.759Z</time></trkpt><trkpt lat="41.9843279" lon="12.1912242"><ele>102.0</ele><time>2026-04-01T08:50:37.765Z</time></trkpt><trkpt lat="41.9842579" lon="12.1912196"><ele>102.0</ele><time>2026-04-01T08:50:38.77Z</time></trkpt><trkpt lat="41.9841407" lon="12.1912109"><ele>101.33333333333333</ele><time>2026-04-01T08:50:40.769Z</time></trkpt><trkpt lat="41.9840654" lon="12.1912135"><ele>100.66666666666666</ele><time>2026-04-01T08:50:42.774Z</time></trkpt><trkpt lat="41.9839992" lon="12.1912607"><ele>100.0</ele><time>2026-04-01T08:50:46.774Z</time></trkpt><trkpt lat="41.983907" lon="12.1913031"><ele>99.33333333333333</ele><time>2026-04-01T08:51:18.753Z</time></trkpt><trkpt lat="41.9838263" lon="12.1913324"><ele>98.66666666666666</ele><time>2026-04-01T08:51:19.753Z</time></trkpt><trkpt lat="41.9837352" lon="12.1913638"><ele>98.0</ele><time>2026-04-01T08:51:20.76Z</time></trkpt><trkpt lat="41.9836394" lon="12.1914114"><ele>98.0</ele><time>2026-04-01T08:51:21.769Z</time></trkpt><trkpt lat="41.9835412" lon="12.1914667"><ele>98.0</ele><time>2026-04-01T08:51:22.782Z</time></trkpt><trkpt lat="41.9834525" lon="12.1915313"><ele>98.0</ele><time>2026-04-01T08:51:23.781Z</time></trkpt><trkpt lat="41.9833565" lon="12.1915948"><ele>98.0</ele><time>2026-04-01T08:51:24.78Z</time></trkpt><trkpt lat="41.9832519" lon="12.1916669"><ele>98.0</ele><time>2026-04-01T08:51:25.78Z</time></trkpt><trkpt lat="41.9831457" lon="12.1917513"><ele>100.25</ele><time>2026-04-01T08:51:26.793Z</time></trkpt><trkpt lat="41.9830226" lon="12.1918328"><ele>102.5</ele><time>2026-04-01T08:51:27.786Z</time></trkpt><trkpt lat="41.9829074" lon="12.1918999"><ele>104.75</ele><time>2026-04-01T08:51:28.798Z</time></trkpt><trkpt lat="41.982807" lon="12.1919525"><ele>107.0</ele><time>2026-04-01T08:51:29.785Z</time></trkpt><trkpt lat="41.9827081" lon="12.1920123"><ele>107.0</ele><time>2026-04-01T08:51:30.794Z</time></trkpt><trkpt lat="41.9825932" lon="12.1920677"><ele>107.0</ele><time>2026-04-01T08:51:31.794Z</time></trkpt><trkpt lat="41.9824786" lon="12.1921304"><ele>107.0</ele><time>2026-04-01T08:51:32.781Z</time></trkpt><trkpt lat="41.9823568" lon="12.1921995"><ele>107.0</ele><time>2026-04-01T08:51:33.802Z</time></trkpt><trkpt lat="41.9822314" lon="12.1922666"><ele>107.0</ele><time>2026-04-01T08:51:34.789Z</time></trkpt><trkpt lat="41.9821121" lon="12.1923383"><ele>107.0</ele><time>2026-04-01T08:51:35.792Z</time></trkpt><trkpt lat="41.9819909" lon="12.1924124"><ele>107.0</ele><time>2026-04-01T08:51:36.789Z</time></trkpt><trkpt lat="41.9818655" lon="12.1924819"><ele>107.0</ele><time>2026-04-01T08:51:37.787Z</time></trkpt><trkpt lat="41.9817408" lon="12.1925379"><ele>107.75</ele><time>2026-04-01T08:51:38.785Z</time></trkpt><trkpt lat="41.9816134" lon="12.1925889"><ele>108.5</ele><time>2026-04-01T08:51:39.785Z</time></trkpt><trkpt lat="41.9814783" lon="12.1926458"><ele>109.25</ele><time>2026-04-01T08:51:40.79Z</time></trkpt><trkpt lat="41.9813339" lon="12.1927102"><ele>110.0</ele><time>2026-04-01T08:51:41.788Z</time></trkpt><trkpt lat="41.9811839" lon="12.1927729"><ele>110.0</ele><time>2026-04-01T08:51:42.79Z</time></trkpt><trkpt lat="41.9810561" lon="12.1928092"><ele>110.0</ele><time>2026-04-01T08:51:43.783Z</time></trkpt><trkpt lat="41.9809508" lon="12.1928567"><ele>110.0</ele><time>2026-04-01T08:51:44.776Z</time></trkpt><trkpt lat="41.9808643" lon="12.1928959"><ele>110.0</ele><time>2026-04-01T08:51:45.777Z</time></trkpt><trkpt lat="41.9807884" lon="12.192925"><ele>110.0</ele><time>2026-04-01T08:51:46.781Z</time></trkpt><trkpt lat="41.980725" lon="12.1929526"><ele>110.66666666666666</ele><time>2026-04-01T08:51:47.781Z</time></trkpt><trkpt lat="41.9806245" lon="12.1929889"><ele>111.33333333333333</ele><time>2026-04-01T08:51:49.779Z</time></trkpt><trkpt lat="41.9805707" lon="12.1930447"><ele>112.0</ele><time>2026-04-01T08:51:52.782Z</time></trkpt><trkpt lat="41.9805923" lon="12.1931607"><ele>112.66666666666666</ele><time>2026-04-01T08:51:56.77Z</time></trkpt><trkpt lat="41.9806407" lon="12.1932202"><ele>113.33333333333333</ele><time>2026-04-01T08:51:57.766Z</time></trkpt><trkpt lat="41.9807068" lon="12.1932974"><ele>114.0</ele><time>2026-04-01T08:51:58.768Z</time></trkpt><trkpt lat="41.9807801" lon="12.193395"><ele>114.0</ele><time>2026-04-01T08:51:59.79Z</time></trkpt><trkpt lat="41.9808421" lon="12.1935222"><ele>114.0</ele><time>2026-04-01T08:52:00.763Z</time></trkpt><trkpt lat="41.9809082" lon="12.1936379"><ele>114.0</ele><time>2026-04-01T08:52:01.759Z</time></trkpt><trkpt lat="41.9809969" lon="12.1937499"><ele>114.0</ele><time>2026-04-01T08:52:02.761Z</time></trkpt><trkpt lat="41.9810741" lon="12.1938825"><ele>114.75</ele><time>2026-04-01T08:52:03.771Z</time></trkpt><trkpt lat="41.9811584" lon="12.1940253"><ele>115.5</ele><time>2026-04-01T08:52:04.773Z</time></trkpt><trkpt lat="41.9812363" lon="12.1941701"><ele>116.25</ele><time>2026-04-01T08:52:05.768Z</time></trkpt><trkpt lat="41.9813155" lon="12.1943096"><ele>117.0</ele><time>2026-04-01T08:52:06.774Z</time></trkpt><trkpt lat="41.9813996" lon="12.1944463"><ele>117.0</ele><time>2026-04-01T08:52:07.78Z</time></trkpt><trkpt lat="41.9814823" lon="12.1945932"><ele>117.0</ele><time>2026-04-01T08:52:08.768Z</time></trkpt><trkpt lat="41.9815646" lon="12.194727"><ele>117.0</ele><time>2026-04-01T08:52:09.778Z</time></trkpt><trkpt lat="41.9816475" lon="12.1948558"><ele>117.0</ele><time>2026-04-01T08:52:10.769Z</time></trkpt><trkpt lat="41.9817258" lon="12.194984"><ele>116.5</ele><time>2026-04-01T08:52:11.766Z</time></trkpt><trkpt lat="41.981808" lon="12.1951075"><ele>116.0</ele><time>2026-04-01T08:52:12.779Z</time></trkpt><trkpt lat="41.9818863" lon="12.1952333"><ele>115.5</ele><time>2026-04-01T08:52:13.769Z</time></trkpt><trkpt lat="41.981965" lon="12.1953418"><ele>115.0</ele><time>2026-04-01T08:52:14.778Z</time></trkpt><trkpt lat="41.9820621" lon="12.19542"><ele>115.0</ele><time>2026-04-01T08:52:15.773Z</time></trkpt><trkpt lat="41.9821717" lon="12.1954923"><ele>115.0</ele><time>2026-04-01T08:52:16.775Z</time></trkpt><trkpt lat="41.9822951" lon="12.1955515"><ele>115.0</ele><time>2026-04-01T08:52:17.778Z</time></trkpt><trkpt lat="41.9824266" lon="12.1955809"><ele>115.0</ele><time>2026-04-01T08:52:18.775Z</time></trkpt><trkpt lat="41.9825531" lon="12.1956159"><ele>115.0</ele><time>2026-04-01T08:52:19.771Z</time></trkpt><trkpt lat="41.9826675" lon="12.1956455"><ele>115.0</ele><time>2026-04-01T08:52:20.783Z</time></trkpt><trkpt lat="41.982776" lon="12.1956754"><ele>115.0</ele><time>2026-04-01T08:52:21.776Z</time></trkpt><trkpt lat="41.9828919" lon="12.1957122"><ele>115.0</ele><time>2026-04-01T08:52:22.771Z</time></trkpt><trkpt lat="41.9830183" lon="12.1957555"><ele>115.0</ele><time>2026-04-01T08:52:23.774Z</time></trkpt><trkpt lat="41.98314" lon="12.1958073"><ele>115.0</ele><time>2026-04-01T08:52:24.77Z</time></trkpt><trkpt lat="41.9832571" lon="12.1958717"><ele>115.0</ele><time>2026-04-01T08:52:25.771Z</time></trkpt><trkpt lat="41.9833731" lon="12.1959407"><ele>115.0</ele><time>2026-04-01T08:52:26.769Z</time></trkpt><trkpt lat="41.9834858" lon="12.1960174"><ele>113.75</ele><time>2026-04-01T08:52:27.775Z</time></trkpt><trkpt lat="41.9835933" lon="12.1960768"><ele>112.5</ele><time>2026-04-01T08:52:28.778Z</time></trkpt><trkpt lat="41.9837082" lon="12.1961435"><ele>111.25</ele><time>2026-04-01T08:52:29.783Z</time></trkpt><trkpt lat="41.9838235" lon="12.1961954"><ele>110.0</ele><time>2026-04-01T08:52:30.794Z</time></trkpt><trkpt lat="41.9839373" lon="12.1962369"><ele>110.0</ele><time>2026-04-01T08:52:31.783Z</time></trkpt><trkpt lat="41.9840515" lon="12.1962512"><ele>110.0</ele><time>2026-04-01T08:52:32.765Z</time></trkpt><trkpt lat="41.9841689" lon="12.1962388"><ele>110.0</ele><time>2026-04-01T08:52:33.772Z</time></trkpt><trkpt lat="41.9842833" lon="12.1962059"><ele>110.0</ele><time>2026-04-01T08:52:34.777Z</time></trkpt><trkpt lat="41.9843936" lon="12.1961521"><ele>109.75</ele><time>2026-04-01T08:52:35.779Z</time></trkpt><trkpt lat="41.9845057" lon="12.1960519"><ele>109.5</ele><time>2026-04-01T08:52:36.776Z</time></trkpt><trkpt lat="41.9846193" lon="12.1959402"><ele>109.25</ele><time>2026-04-01T08:52:37.777Z</time></trkpt><trkpt lat="41.9847374" lon="12.1958386"><ele>109.0</ele><time>2026-04-01T08:52:38.765Z</time></trkpt><trkpt lat="41.9848583" lon="12.1957341"><ele>109.0</ele><time>2026-04-01T08:52:39.766Z</time></trkpt><trkpt lat="41.9849763" lon="12.1956367"><ele>109.0</ele><time>2026-04-01T08:52:40.77Z</time></trkpt><trkpt lat="41.9850908" lon="12.1955387"><ele>109.0</ele><time>2026-04-01T08:52:41.771Z</time></trkpt><trkpt lat="41.9852045" lon="12.1954397"><ele>109.0</ele><time>2026-04-01T08:52:42.772Z</time></trkpt><trkpt lat="41.9853188" lon="12.1953463"><ele>109.0</ele><time>2026-04-01T08:52:43.772Z</time></trkpt><trkpt lat="41.9854256" lon="12.1952509"><ele>109.0</ele><time>2026-04-01T08:52:44.769Z</time></trkpt><trkpt lat="41.9855251" lon="12.1951634"><ele>109.0</ele><time>2026-04-01T08:52:45.77Z</time></trkpt><trkpt lat="41.9856269" lon="12.1950872"><ele>109.0</ele><time>2026-04-01T08:52:46.763Z</time></trkpt><trkpt lat="41.9857288" lon="12.1950032"><ele>109.0</ele><time>2026-04-01T08:52:47.779Z</time></trkpt><trkpt lat="41.9858203" lon="12.1949024"><ele>109.0</ele><time>2026-04-01T08:52:48.766Z</time></trkpt><trkpt lat="41.9859233" lon="12.1947963"><ele>109.0</ele><time>2026-04-01T08:52:49.765Z</time></trkpt><trkpt lat="41.9860357" lon="12.1947054"><ele>109.0</ele><time>2026-04-01T08:52:50.773Z</time></trkpt><trkpt lat="41.9861491" lon="12.1946069"><ele>109.25</ele><time>2026-04-01T08:52:51.776Z</time></trkpt><trkpt lat="41.9862618" lon="12.1945032"><ele>109.5</ele><time>2026-04-01T08:52:52.78Z</time></trkpt><trkpt lat="41.9863565" lon="12.1944311"><ele>109.75</ele><time>2026-04-01T08:52:53.77Z</time></trkpt><trkpt lat="41.9864749" lon="12.1943341"><ele>110.0</ele><time>2026-04-01T08:52:54.77Z</time></trkpt><trkpt lat="41.9865957" lon="12.1942351"><ele>112.0</ele><time>2026-04-01T08:52:55.771Z</time></trkpt><trkpt lat="41.9867146" lon="12.1941631"><ele>114.0</ele><time>2026-04-01T08:52:56.774Z</time></trkpt><trkpt lat="41.9868442" lon="12.1941047"><ele>116.0</ele><time>2026-04-01T08:52:57.771Z</time></trkpt><trkpt lat="41.9869752" lon="12.1940697"><ele>118.0</ele><time>2026-04-01T08:52:58.776Z</time></trkpt><trkpt lat="41.9871137" lon="12.1940692"><ele>118.0</ele><time>2026-04-01T08:52:59.776Z</time></trkpt><trkpt lat="41.9872568" lon="12.1940744"><ele>118.0</ele><time>2026-04-01T08:53:00.771Z</time></trkpt><trkpt lat="41.987392" lon="12.1940823"><ele>118.0</ele><time>2026-04-01T08:53:01.792Z</time></trkpt><trkpt lat="41.9875291" lon="12.1940852"><ele>118.0</ele><time>2026-04-01T08:53:02.778Z</time></trkpt><trkpt lat="41.9876609" lon="12.1940803"><ele>117.75</ele><time>2026-04-01T08:53:03.775Z</time></trkpt><trkpt lat="41.9878008" lon="12.1940881"><ele>117.5</ele><time>2026-04-01T08:53:04.756Z</time></trkpt><trkpt lat="41.987947" lon="12.194082"><ele>117.25</ele><time>2026-04-01T08:53:05.774Z</time></trkpt><trkpt lat="41.9880912" lon="12.1940752"><ele>117.0</ele><time>2026-04-01T08:53:06.771Z</time></trkpt><trkpt lat="41.988235" lon="12.1940682"><ele>116.5</ele><time>2026-04-01T08:53:07.766Z</time></trkpt><trkpt lat="41.9883674" lon="12.194062"><ele>116.0</ele><time>2026-04-01T08:53:08.757Z</time></trkpt><trkpt lat="41.9885125" lon="12.1940721"><ele>115.5</ele><time>2026-04-01T08:53:09.762Z</time></trkpt><trkpt lat="41.9886597" lon="12.1940776"><ele>115.0</ele><time>2026-04-01T08:53:10.762Z</time></trkpt><trkpt lat="41.9887966" lon="12.1940774"><ele>115.0</ele><time>2026-04-01T08:53:11.77Z</time></trkpt><trkpt lat="41.9889285" lon="12.194078"><ele>115.0</ele><time>2026-04-01T08:53:12.768Z</time></trkpt><trkpt lat="41.9890781" lon="12.1940753"><ele>115.0</ele><time>2026-04-01T08:53:13.768Z</time></trkpt><trkpt lat="41.9892261" lon="12.1940822"><ele>115.0</ele><time>2026-04-01T08:53:14.763Z</time></trkpt><trkpt lat="41.98936" lon="12.1940886"><ele>116.0</ele><time>2026-04-01T08:53:15.772Z</time></trkpt><trkpt lat="41.9895099" lon="12.1940883"><ele>117.0</ele><time>2026-04-01T08:53:16.773Z</time></trkpt><trkpt lat="41.9896424" lon="12.1941126"><ele>118.0</ele><time>2026-04-01T08:53:17.765Z</time></trkpt><trkpt lat="41.9897669" lon="12.1940941"><ele>119.0</ele><time>2026-04-01T08:53:18.762Z</time></trkpt><trkpt lat="41.9899105" lon="12.194108"><ele>120.0</ele><time>2026-04-01T08:53:19.755Z</time></trkpt><trkpt lat="41.9900703" lon="12.1941208"><ele>121.0</ele><time>2026-04-01T08:53:20.767Z</time></trkpt><trkpt lat="41.9902141" lon="12.1941367"><ele>122.0</ele><time>2026-04-01T08:53:21.771Z</time></trkpt><trkpt lat="41.9903591" lon="12.1941262"><ele>122.0</ele><time>2026-04-01T08:53:22.779Z</time></trkpt><trkpt lat="41.9905126" lon="12.1941337"><ele>122.0</ele><time>2026-04-01T08:53:23.773Z</time></trkpt><trkpt lat="41.99066" lon="12.1941373"><ele>122.0</ele><time>2026-04-01T08:53:24.769Z</time></trkpt><trkpt lat="41.9908201" lon="12.194145"><ele>121.5</ele><time>2026-04-01T08:53:25.773Z</time></trkpt><trkpt lat="41.9909692" lon="12.1941332"><ele>121.0</ele><time>2026-04-01T08:53:26.773Z</time></trkpt><trkpt lat="41.9911039" lon="12.1941329"><ele>120.5</ele><time>2026-04-01T08:53:27.774Z</time></trkpt><trkpt lat="41.9912355" lon="12.1941163"><ele>120.0</ele><time>2026-04-01T08:53:28.771Z</time></trkpt><trkpt lat="41.9913706" lon="12.1940737"><ele>120.0</ele><time>2026-04-01T08:53:29.779Z</time></trkpt><trkpt lat="41.9915024" lon="12.1940068"><ele>120.0</ele><time>2026-04-01T08:53:30.774Z</time></trkpt><trkpt lat="41.9916358" lon="12.1939175"><ele>120.0</ele><time>2026-04-01T08:53:31.778Z</time></trkpt><trkpt lat="41.9917728" lon="12.1938181"><ele>120.0</ele><time>2026-04-01T08:53:32.79Z</time></trkpt><trkpt lat="41.9919007" lon="12.1937228"><ele>120.66666666666666</ele><time>2026-04-01T08:53:33.779Z</time></trkpt><trkpt lat="41.9920309" lon="12.1936254"><ele>121.33333333333333</ele><time>2026-04-01T08:53:34.78Z</time></trkpt><trkpt lat="41.9921663" lon="12.1935331"><ele>122.0</ele><time>2026-04-01T08:53:35.779Z</time></trkpt><trkpt lat="41.9923033" lon="12.19345"><ele>122.0</ele><time>2026-04-01T08:53:36.774Z</time></trkpt><trkpt lat="41.9924316" lon="12.1933612"><ele>122.0</ele><time>2026-04-01T08:53:37.777Z</time></trkpt><trkpt lat="41.9925645" lon="12.1932905"><ele>122.0</ele><time>2026-04-01T08:53:38.764Z</time></trkpt><trkpt lat="41.9926863" lon="12.1932099"><ele>122.0</ele><time>2026-04-01T08:53:39.767Z</time></trkpt><trkpt lat="41.9928331" lon="12.1931539"><ele>120.75</ele><time>2026-04-01T08:53:40.765Z</time></trkpt><trkpt lat="41.9929828" lon="12.1931114"><ele>119.5</ele><time>2026-04-01T08:53:41.767Z</time></trkpt><trkpt lat="41.9931208" lon="12.1930623"><ele>118.25</ele><time>2026-04-01T08:53:42.77Z</time></trkpt><trkpt lat="41.993265" lon="12.1930257"><ele>117.0</ele><time>2026-04-01T08:53:43.767Z</time></trkpt><trkpt lat="41.9934039" lon="12.1929818"><ele>117.0</ele><time>2026-04-01T08:53:44.767Z</time></trkpt><trkpt lat="41.9935457" lon="12.1929423"><ele>117.0</ele><time>2026-04-01T08:53:45.776Z</time></trkpt><trkpt lat="41.9936885" lon="12.1928993"><ele>117.0</ele><time>2026-04-01T08:53:46.777Z</time></trkpt><trkpt lat="41.9938344" lon="12.1928704"><ele>117.0</ele><time>2026-04-01T08:53:47.774Z</time></trkpt><trkpt lat="41.993977" lon="12.1928341"><ele>117.0</ele><time>2026-04-01T08:53:48.778Z</time></trkpt><trkpt lat="41.9941108" lon="12.1928068"><ele>117.0</ele><time>2026-04-01T08:53:49.776Z</time></trkpt><trkpt lat="41.9942287" lon="12.1927616"><ele>117.0</ele><time>2026-04-01T08:53:50.78Z</time></trkpt><trkpt lat="41.9943579" lon="12.1927267"><ele>117.0</ele><time>2026-04-01T08:53:51.782Z</time></trkpt><trkpt lat="41.9944909" lon="12.1926791"><ele>117.75</ele><time>2026-04-01T08:53:52.775Z</time></trkpt><trkpt lat="41.9946205" lon="12.1926502"><ele>118.5</ele><time>2026-04-01T08:53:53.782Z</time></trkpt><trkpt lat="41.9947527" lon="12.1926119"><ele>119.25</ele><time>2026-04-01T08:53:54.78Z</time></trkpt><trkpt lat="41.9948904" lon="12.1925686"><ele>120.0</ele><time>2026-04-01T08:53:55.782Z</time></trkpt><trkpt lat="41.995028" lon="12.1925209"><ele>121.0</ele><time>2026-04-01T08:53:56.781Z</time></trkpt><trkpt lat="41.9951776" lon="12.1924817"><ele>122.0</ele><time>2026-04-01T08:53:57.779Z</time></trkpt><trkpt lat="41.9953093" lon="12.1924399"><ele>123.0</ele><time>2026-04-01T08:53:58.779Z</time></trkpt><trkpt lat="41.9954538" lon="12.1923932"><ele>124.0</ele><time>2026-04-01T08:53:59.787Z</time></trkpt><trkpt lat="41.9955955" lon="12.1923506"><ele>124.75</ele><time>2026-04-01T08:54:00.784Z</time></trkpt><trkpt lat="41.9957348" lon="12.1923025"><ele>125.5</ele><time>2026-04-01T08:54:01.786Z</time></trkpt><trkpt lat="41.99588" lon="12.1922689"><ele>126.25</ele><time>2026-04-01T08:54:02.78Z</time></trkpt><trkpt lat="41.9960184" lon="12.1922206"><ele>127.0</ele><time>2026-04-01T08:54:03.799Z</time></trkpt><trkpt lat="41.9961511" lon="12.1921765"><ele>127.0</ele><time>2026-04-01T08:54:04.786Z</time></trkpt><trkpt lat="41.9962894" lon="12.1921345"><ele>127.0</ele><time>2026-04-01T08:54:05.784Z</time></trkpt><trkpt lat="41.9964293" lon="12.1920972"><ele>127.0</ele><time>2026-04-01T08:54:06.785Z</time></trkpt><trkpt lat="41.9965653" lon="12.1920551"><ele>127.0</ele><time>2026-04-01T08:54:07.789Z</time></trkpt><trkpt lat="41.9967068" lon="12.1920161"><ele>127.0</ele><time>2026-04-01T08:54:08.784Z</time></trkpt><trkpt lat="41.9968448" lon="12.1919784"><ele>127.0</ele><time>2026-04-01T08:54:09.79Z</time></trkpt><trkpt lat="41.9969857" lon="12.1919351"><ele>127.0</ele><time>2026-04-01T08:54:10.784Z</time></trkpt><trkpt lat="41.9971125" lon="12.1918864"><ele>127.0</ele><time>2026-04-01T08:54:11.781Z</time></trkpt><trkpt lat="41.9972383" lon="12.1918453"><ele>127.0</ele><time>2026-04-01T08:54:12.783Z</time></trkpt><trkpt lat="41.9973726" lon="12.1918084"><ele>127.0</ele><time>2026-04-01T08:54:13.78Z</time></trkpt><trkpt lat="41.9975108" lon="12.1917761"><ele>127.0</ele><time>2026-04-01T08:54:14.783Z</time></trkpt><trkpt lat="41.9976461" lon="12.191737"><ele>127.0</ele><time>2026-04-01T08:54:15.782Z</time></trkpt><trkpt lat="41.9977735" lon="12.1916917"><ele>127.5</ele><time>2026-04-01T08:54:16.778Z</time></trkpt><trkpt lat="41.9979019" lon="12.1916495"><ele>128.0</ele><time>2026-04-01T08:54:17.784Z</time></trkpt><trkpt lat="41.9980338" lon="12.1916103"><ele>128.5</ele><time>2026-04-01T08:54:18.779Z</time></trkpt><trkpt lat="41.9981663" lon="12.1915653"><ele>129.0</ele><time>2026-04-01T08:54:19.776Z</time></trkpt><trkpt lat="41.9983134" lon="12.1915187"><ele>128.66666666666666</ele><time>2026-04-01T08:54:20.782Z</time></trkpt><trkpt lat="41.9984582" lon="12.1914726"><ele>128.33333333333331</ele><time>2026-04-01T08:54:21.781Z</time></trkpt><trkpt lat="41.9986128" lon="12.1914256"><ele>128.0</ele><time>2026-04-01T08:54:22.783Z</time></trkpt><trkpt lat="41.9987666" lon="12.1913752"><ele>128.0</ele><time>2026-04-01T08:54:23.781Z</time></trkpt><trkpt lat="41.9989173" lon="12.1913342"><ele>128.0</ele><time>2026-04-01T08:54:24.78Z</time></trkpt><trkpt lat="41.9990711" lon="12.1912992"><ele>128.0</ele><time>2026-04-01T08:54:25.779Z</time></trkpt><trkpt lat="41.9992155" lon="12.1912586"><ele>128.75</ele><time>2026-04-01T08:54:26.78Z</time></trkpt><trkpt lat="41.9993565" lon="12.1912216"><ele>129.5</ele><time>2026-04-01T08:54:27.776Z</time></trkpt><trkpt lat="41.9995024" lon="12.1911693"><ele>130.25</ele><time>2026-04-01T08:54:28.783Z</time></trkpt><trkpt lat="41.9996508" lon="12.1911262"><ele>131.0</ele><time>2026-04-01T08:54:29.787Z</time></trkpt><trkpt lat="41.9997858" lon="12.1910783"><ele>131.0</ele><time>2026-04-01T08:54:30.779Z</time></trkpt><trkpt lat="41.9999299" lon="12.1910328"><ele>131.0</ele><time>2026-04-01T08:54:31.778Z</time></trkpt><trkpt lat="42.000068" lon="12.1909755"><ele>131.0</ele><time>2026-04-01T08:54:32.769Z</time></trkpt><trkpt lat="42.00021" lon="12.1909331"><ele>131.0</ele><time>2026-04-01T08:54:33.775Z</time></trkpt><trkpt lat="42.0003549" lon="12.1908922"><ele>131.0</ele><time>2026-04-01T08:54:34.808Z</time></trkpt><trkpt lat="42.0004957" lon="12.190847"><ele>131.0</ele><time>2026-04-01T08:54:35.777Z</time></trkpt><trkpt lat="42.0006476" lon="12.1908"><ele>131.0</ele><time>2026-04-01T08:54:36.779Z</time></trkpt><trkpt lat="42.000795" lon="12.1907538"><ele>131.25</ele><time>2026-04-01T08:54:37.783Z</time></trkpt><trkpt lat="42.0009455" lon="12.1907122"><ele>131.5</ele><time>2026-04-01T08:54:38.782Z</time></trkpt><trkpt lat="42.0010946" lon="12.1906733"><ele>131.75</ele><time>2026-04-01T08:54:39.776Z</time></trkpt><trkpt lat="42.0012331" lon="12.1906355"><ele>132.0</ele><time>2026-04-01T08:54:40.776Z</time></trkpt><trkpt lat="42.0013859" lon="12.1905908"><ele>132.0</ele><time>2026-04-01T08:54:41.776Z</time></trkpt><trkpt lat="42.0015324" lon="12.1905412"><ele>132.0</ele><time>2026-04-01T08:54:42.783Z</time></trkpt><trkpt lat="42.0016657" lon="12.1904967"><ele>132.0</ele><time>2026-04-01T08:54:43.783Z</time></trkpt><trkpt lat="42.0018075" lon="12.1904627"><ele>132.0</ele><time>2026-04-01T08:54:44.779Z</time></trkpt><trkpt lat="42.0019276" lon="12.1904395"><ele>132.75</ele><time>2026-04-01T08:54:45.777Z</time></trkpt><trkpt lat="42.0020491" lon="12.190426"><ele>133.5</ele><time>2026-04-01T08:54:46.779Z</time></trkpt><trkpt lat="42.0021729" lon="12.1904176"><ele>134.25</ele><time>2026-04-01T08:54:47.775Z</time></trkpt><trkpt lat="42.0023054" lon="12.190435"><ele>135.0</ele><time>2026-04-01T08:54:48.781Z</time></trkpt><trkpt lat="42.0024358" lon="12.1904437"><ele>135.25</ele><time>2026-04-01T08:54:49.771Z</time></trkpt><trkpt lat="42.0025678" lon="12.190449"><ele>135.5</ele><time>2026-04-01T08:54:50.785Z</time></trkpt><trkpt lat="42.0027073" lon="12.1904506"><ele>135.75</ele><time>2026-04-01T08:54:51.777Z</time></trkpt><trkpt lat="42.0028387" lon="12.1904481"><ele>136.0</ele><time>2026-04-01T08:54:52.792Z</time></trkpt><trkpt lat="42.0029896" lon="12.190451"><ele>136.0</ele><time>2026-04-01T08:54:53.78Z</time></trkpt><trkpt lat="42.003145" lon="12.1904527"><ele>136.0</ele><time>2026-04-01T08:54:54.786Z</time></trkpt><trkpt lat="42.0033009" lon="12.1904589"><ele>136.0</ele><time>2026-04-01T08:54:55.781Z</time></trkpt><trkpt lat="42.0034387" lon="12.1904663"><ele>136.0</ele><time>2026-04-01T08:54:56.786Z</time></trkpt><trkpt lat="42.0035902" lon="12.1904669"><ele>136.5</ele><time>2026-04-01T08:54:57.782Z</time></trkpt><trkpt lat="42.0037313" lon="12.1904723"><ele>137.0</ele><time>2026-04-01T08:54:58.784Z</time></trkpt><trkpt lat="42.0038748" lon="12.1904747"><ele>137.5</ele><time>2026-04-01T08:54:59.792Z</time></trkpt><trkpt lat="42.0040319" lon="12.1904826"><ele>138.0</ele><time>2026-04-01T08:55:00.788Z</time></trkpt><trkpt lat="42.0041693" lon="12.1904801"><ele>138.5</ele><time>2026-04-01T08:55:01.787Z</time></trkpt><trkpt lat="42.0043123" lon="12.1904849"><ele>139.0</ele><time>2026-04-01T08:55:02.783Z</time></trkpt><trkpt lat="42.0044606" lon="12.190486"><ele>139.5</ele><time>2026-04-01T08:55:03.783Z</time></trkpt><trkpt lat="42.0045959" lon="12.1904952"><ele>140.0</ele><time>2026-04-01T08:55:04.799Z</time></trkpt><trkpt lat="42.0047429" lon="12.1905063"><ele>140.0</ele><time>2026-04-01T08:55:05.783Z</time></trkpt><trkpt lat="42.004885" lon="12.1905305"><ele>140.0</ele><time>2026-04-01T08:55:06.784Z</time></trkpt><trkpt lat="42.0050186" lon="12.19056"><ele>140.0</ele><time>2026-04-01T08:55:07.783Z</time></trkpt><trkpt lat="42.0051625" lon="12.1905918"><ele>140.0</ele><time>2026-04-01T08:55:08.785Z</time></trkpt><trkpt lat="42.0053144" lon="12.1906244"><ele>140.0</ele><time>2026-04-01T08:55:09.785Z</time></trkpt><trkpt lat="42.0054494" lon="12.1906494"><ele>140.0</ele><time>2026-04-01T08:55:10.784Z</time></trkpt><trkpt lat="42.0055875" lon="12.1906779"><ele>140.0</ele><time>2026-04-01T08:55:11.78Z</time></trkpt><trkpt lat="42.0057195" lon="12.1907037"><ele>140.0</ele><time>2026-04-01T08:55:12.783Z</time></trkpt><trkpt lat="42.0058492" lon="12.1907297"><ele>140.25</ele><time>2026-04-01T08:55:13.783Z</time></trkpt><trkpt lat="42.0059854" lon="12.1907613"><ele>140.5</ele><time>2026-04-01T08:55:14.786Z</time></trkpt><trkpt lat="42.0061071" lon="12.1907829"><ele>140.75</ele><time>2026-04-01T08:55:15.783Z</time></trkpt><trkpt lat="42.0062362" lon="12.1907999"><ele>141.0</ele><time>2026-04-01T08:55:16.784Z</time></trkpt><trkpt lat="42.0063666" lon="12.1908008"><ele>141.0</ele><time>2026-04-01T08:55:17.791Z</time></trkpt><trkpt lat="42.006495" lon="12.1908"><ele>141.0</ele><time>2026-04-01T08:55:18.786Z</time></trkpt><trkpt lat="42.0066235" lon="12.1908142"><ele>141.0</ele><time>2026-04-01T08:55:19.79Z</time></trkpt><trkpt lat="42.0067596" lon="12.1908258"><ele>141.0</ele><time>2026-04-01T08:55:20.79Z</time></trkpt><trkpt lat="42.0068882" lon="12.1908362"><ele>141.25</ele><time>2026-04-01T08:55:21.785Z</time></trkpt><trkpt lat="42.0070172" lon="12.1908505"><ele>141.5</ele><time>2026-04-01T08:55:22.788Z</time></trkpt><trkpt lat="42.0071467" lon="12.1908633"><ele>141.75</ele><time>2026-04-01T08:55:23.779Z</time></trkpt><trkpt lat="42.0072746" lon="12.1908783"><ele>142.0</ele><time>2026-04-01T08:55:24.791Z</time></trkpt><trkpt lat="42.0073976" lon="12.1909072"><ele>142.25</ele><time>2026-04-01T08:55:25.777Z</time></trkpt><trkpt lat="42.0075204" lon="12.1909428"><ele>142.5</ele><time>2026-04-01T08:55:26.773Z</time></trkpt><trkpt lat="42.0076432" lon="12.1909961"><ele>142.75</ele><time>2026-04-01T08:55:27.787Z</time></trkpt><trkpt lat="42.0077575" lon="12.1910934"><ele>143.0</ele><time>2026-04-01T08:55:28.778Z</time></trkpt><trkpt lat="42.0078723" lon="12.1911947"><ele>143.0</ele><time>2026-04-01T08:55:29.795Z</time></trkpt><trkpt lat="42.007979" lon="12.1913045"><ele>143.0</ele><time>2026-04-01T08:55:30.78Z</time></trkpt><trkpt lat="42.0080979" lon="12.1914035"><ele>143.0</ele><time>2026-04-01T08:55:31.787Z</time></trkpt><trkpt lat="42.0082096" lon="12.1914977"><ele>143.0</ele><time>2026-04-01T08:55:32.782Z</time></trkpt><trkpt lat="42.0083316" lon="12.1915806"><ele>142.5</ele><time>2026-04-01T08:55:33.791Z</time></trkpt><trkpt lat="42.0084561" lon="12.1916618"><ele>142.0</ele><time>2026-04-01T08:55:34.776Z</time></trkpt><trkpt lat="42.0085719" lon="12.1917493"><ele>141.5</ele><time>2026-04-01T08:55:35.798Z</time></trkpt><trkpt lat="42.0086856" lon="12.1918481"><ele>141.0</ele><time>2026-04-01T08:55:36.782Z</time></trkpt><trkpt lat="42.0088073" lon="12.1919445"><ele>141.0</ele><time>2026-04-01T08:55:37.784Z</time></trkpt><trkpt lat="42.0089291" lon="12.1920415"><ele>141.0</ele><time>2026-04-01T08:55:38.788Z</time></trkpt><trkpt lat="42.0090534" lon="12.1921313"><ele>141.0</ele><time>2026-04-01T08:55:39.782Z</time></trkpt><trkpt lat="42.0091805" lon="12.1922295"><ele>141.0</ele><time>2026-04-01T08:55:40.779Z</time></trkpt><trkpt lat="42.0093058" lon="12.1923111"><ele>141.0</ele><time>2026-04-01T08:55:41.786Z</time></trkpt><trkpt lat="42.0094321" lon="12.192359"><ele>141.0</ele><time>2026-04-01T08:55:42.781Z</time></trkpt><trkpt lat="42.009571" lon="12.192402"><ele>141.0</ele><time>2026-04-01T08:55:43.786Z</time></trkpt><trkpt lat="42.0097158" lon="12.1924358"><ele>141.0</ele><time>2026-04-01T08:55:44.78Z</time></trkpt><trkpt lat="42.0098442" lon="12.192459"><ele>141.0</ele><time>2026-04-01T08:55:45.783Z</time></trkpt><trkpt lat="42.0099851" lon="12.1924904"><ele>141.0</ele><time>2026-04-01T08:55:46.778Z</time></trkpt><trkpt lat="42.0101098" lon="12.1925328"><ele>141.0</ele><time>2026-04-01T08:55:47.777Z</time></trkpt><trkpt lat="42.010225" lon="12.19257"><ele>141.0</ele><time>2026-04-01T08:55:48.768Z</time></trkpt><trkpt lat="42.010331" lon="12.192629"><ele>140.0</ele><time>2026-04-01T08:55:49.771Z</time></trkpt><trkpt lat="42.0104289" lon="12.1927127"><ele>139.0</ele><time>2026-04-01T08:55:50.775Z</time></trkpt><trkpt lat="42.0105078" lon="12.192819"><ele>138.0</ele><time>2026-04-01T08:55:51.771Z</time></trkpt><trkpt lat="42.0105635" lon="12.1929522"><ele>137.0</ele><time>2026-04-01T08:55:52.77Z</time></trkpt><trkpt lat="42.0106256" lon="12.1930815"><ele>138.5</ele><time>2026-04-01T08:55:53.768Z</time></trkpt><trkpt lat="42.0106944" lon="12.1932429"><ele>140.0</ele><time>2026-04-01T08:55:54.766Z</time></trkpt><trkpt lat="42.010774" lon="12.1933948"><ele>141.5</ele><time>2026-04-01T08:55:55.774Z</time></trkpt><trkpt lat="42.0108503" lon="12.1935366"><ele>143.0</ele><time>2026-04-01T08:55:56.769Z</time></trkpt><trkpt lat="42.010928" lon="12.1936598"><ele>143.0</ele><time>2026-04-01T08:55:57.767Z</time></trkpt><trkpt lat="42.0109954" lon="12.1937848"><ele>143.0</ele><time>2026-04-01T08:55:58.766Z</time></trkpt><trkpt lat="42.0110821" lon="12.1938867"><ele>143.0</ele><time>2026-04-01T08:55:59.778Z</time></trkpt><trkpt lat="42.011189" lon="12.1939656"><ele>143.0</ele><time>2026-04-01T08:56:00.761Z</time></trkpt><trkpt lat="42.0113065" lon="12.1940269"><ele>142.25</ele><time>2026-04-01T08:56:01.77Z</time></trkpt><trkpt lat="42.0114279" lon="12.1940691"><ele>141.5</ele><time>2026-04-01T08:56:02.773Z</time></trkpt><trkpt lat="42.0115481" lon="12.1941074"><ele>140.75</ele><time>2026-04-01T08:56:03.777Z</time></trkpt><trkpt lat="42.0116646" lon="12.1941406"><ele>140.0</ele><time>2026-04-01T08:56:04.77Z</time></trkpt><trkpt lat="42.0117735" lon="12.1941756"><ele>139.0</ele><time>2026-04-01T08:56:05.769Z</time></trkpt><trkpt lat="42.0118703" lon="12.1942082"><ele>138.0</ele><time>2026-04-01T08:56:06.787Z</time></trkpt><trkpt lat="42.0119567" lon="12.194246"><ele>137.0</ele><time>2026-04-01T08:56:07.77Z</time></trkpt><trkpt lat="42.0120245" lon="12.1942842"><ele>136.0</ele><time>2026-04-01T08:56:08.762Z</time></trkpt><trkpt lat="42.0120824" lon="12.1943342"><ele>135.0</ele><time>2026-04-01T08:56:09.76Z</time></trkpt><trkpt lat="42.0121571" lon="12.1943798"><ele>134.0</ele><time>2026-04-01T08:56:11.769Z</time></trkpt><trkpt lat="42.0121969" lon="12.1943123"><ele>134.0</ele><time>2026-04-01T08:56:14.785Z</time></trkpt><trkpt lat="42.0122137" lon="12.1941767"><ele>134.0</ele><time>2026-04-01T08:56:16.784Z</time></trkpt><trkpt lat="42.0122345" lon="12.1940347"><ele>134.0</ele><time>2026-04-01T08:56:18.782Z</time></trkpt><trkpt lat="42.0122568" lon="12.1939176"><ele>134.0</ele><time>2026-04-01T08:56:20.782Z</time></trkpt><trkpt lat="42.012268" lon="12.1938174"><ele>134.0</ele><time>2026-04-01T08:56:25.778Z</time></trkpt><trkpt lat="42.0123055" lon="12.1937231"><ele>135.33333333333331</ele><time>2026-04-01T08:56:28.779Z</time></trkpt><trkpt lat="42.0122839" lon="12.1938099"><ele>136.66666666666666</ele><time>2026-04-01T08:59:33.733Z</time></trkpt><trkpt lat="42.0122819" lon="12.1937207"><ele>138.0</ele><time>2026-04-01T09:07:27.784Z</time></trkpt><trkpt lat="42.0122226" lon="12.1936754"><ele>139.33333333333334</ele><time>2026-04-01T09:07:31.788Z</time></trkpt><trkpt lat="42.0122084" lon="12.1937852"><ele>140.66666666666669</ele><time>2026-04-01T09:07:34.775Z</time></trkpt><trkpt lat="42.0121523" lon="12.1939048"><ele>142.0</ele><time>2026-04-01T09:07:37.773Z</time></trkpt><trkpt lat="42.0121182" lon="12.1939943"><ele>140.66666666666669</ele><time>2026-04-01T09:08:04.76Z</time></trkpt><trkpt lat="42.0120668" lon="12.1940574"><ele>139.33333333333334</ele><time>2026-04-01T09:08:05.763Z</time></trkpt><trkpt lat="42.0120536" lon="12.194142"><ele>138.0</ele><time>2026-04-01T09:08:06.762Z</time></trkpt><trkpt lat="42.0120239" lon="12.1942269"><ele>136.66666666666666</ele><time>2026-04-01T09:08:07.763Z</time></trkpt><trkpt lat="42.0119384" lon="12.1942399"><ele>135.33333333333331</ele><time>2026-04-01T09:08:09.767Z</time></trkpt><trkpt lat="42.0118729" lon="12.1942947"><ele>134.0</ele><time>2026-04-01T09:08:10.744Z</time></trkpt><trkpt lat="42.0118048" lon="12.1943701"><ele>134.0</ele><time>2026-04-01T09:08:12.771Z</time></trkpt><trkpt lat="42.0117595" lon="12.194445"><ele>134.0</ele><time>2026-04-01T09:08:15.766Z</time></trkpt><trkpt lat="42.0117558" lon="12.1945894"><ele>134.0</ele><time>2026-04-01T09:08:18.758Z</time></trkpt><trkpt lat="42.0117633" lon="12.1946804"><ele>134.0</ele><time>2026-04-01T09:08:19.757Z</time></trkpt><trkpt lat="42.0117476" lon="12.1947708"><ele>134.0</ele><time>2026-04-01T09:08:22.755Z</time></trkpt><trkpt lat="42.011769" lon="12.1949318"><ele>134.0</ele><time>2026-04-01T09:08:24.756Z</time></trkpt><trkpt lat="42.0118209" lon="12.1950324"><ele>133.5</ele><time>2026-04-01T09:08:25.75Z</time></trkpt><trkpt lat="42.0118847" lon="12.1951339"><ele>133.0</ele><time>2026-04-01T09:08:26.757Z</time></trkpt><trkpt lat="42.0119624" lon="12.1952577"><ele>132.5</ele><time>2026-04-01T09:08:27.753Z</time></trkpt><trkpt lat="42.011986" lon="12.1954034"><ele>132.0</ele><time>2026-04-01T09:08:28.763Z</time></trkpt><trkpt lat="42.0120652" lon="12.1955709"><ele>132.0</ele><time>2026-04-01T09:08:29.764Z</time></trkpt><trkpt lat="42.0121573" lon="12.1958181"><ele>132.0</ele><time>2026-04-01T09:08:30.774Z</time></trkpt><trkpt lat="42.0122163" lon="12.1959474"><ele>132.0</ele><time>2026-04-01T09:08:31.762Z</time></trkpt><trkpt lat="42.0122993" lon="12.1961423"><ele>132.0</ele><time>2026-04-01T09:08:32.764Z</time></trkpt><trkpt lat="42.0124669" lon="12.1963351"><ele>132.0</ele><time>2026-04-01T09:08:33.762Z</time></trkpt><trkpt lat="42.0125675" lon="12.1964849"><ele>132.0</ele><time>2026-04-01T09:08:34.763Z</time></trkpt><trkpt lat="42.0127292" lon="12.1965531"><ele>133.33333333333334</ele><time>2026-04-01T09:08:35.763Z</time></trkpt><trkpt lat="42.0129386" lon="12.196593"><ele>134.66666666666669</ele><time>2026-04-01T09:08:36.769Z</time></trkpt><trkpt lat="42.013162" lon="12.1966553"><ele>136.0</ele><time>2026-04-01T09:08:37.764Z</time></trkpt><trkpt lat="42.0133141" lon="12.1966771"><ele>136.5</ele><time>2026-04-01T09:08:38.764Z</time></trkpt><trkpt lat="42.0134063" lon="12.1966237"><ele>137.0</ele><time>2026-04-01T09:08:39.763Z</time></trkpt><trkpt lat="42.01349" lon="12.1965318"><ele>137.5</ele><time>2026-04-01T09:08:40.762Z</time></trkpt><trkpt lat="42.0136168" lon="12.1964418"><ele>138.0</ele><time>2026-04-01T09:08:41.753Z</time></trkpt><trkpt lat="42.0137645" lon="12.1963224"><ele>140.0</ele><time>2026-04-01T09:08:42.755Z</time></trkpt><trkpt lat="42.0139047" lon="12.1962537"><ele>142.0</ele><time>2026-04-01T09:08:43.771Z</time></trkpt><trkpt lat="42.0141107" lon="12.196194"><ele>144.0</ele><time>2026-04-01T09:08:44.767Z</time></trkpt><trkpt lat="42.0143141" lon="12.1961467"><ele>144.66666666666666</ele><time>2026-04-01T09:08:45.758Z</time></trkpt><trkpt lat="42.0144549" lon="12.1961017"><ele>145.33333333333331</ele><time>2026-04-01T09:08:46.762Z</time></trkpt><trkpt lat="42.0145954" lon="12.1960562"><ele>146.0</ele><time>2026-04-01T09:08:47.76Z</time></trkpt><trkpt lat="42.0147567" lon="12.1960387"><ele>146.0</ele><time>2026-04-01T09:08:48.759Z</time></trkpt><trkpt lat="42.0149276" lon="12.1959922"><ele>146.0</ele><time>2026-04-01T09:08:49.761Z</time></trkpt><trkpt lat="42.0151079" lon="12.1959493"><ele>146.0</ele><time>2026-04-01T09:08:50.766Z</time></trkpt><trkpt lat="42.0153316" lon="12.1959935"><ele>147.33333333333331</ele><time>2026-04-01T09:08:51.759Z</time></trkpt><trkpt lat="42.0155689" lon="12.1960538"><ele>148.66666666666666</ele><time>2026-04-01T09:08:52.764Z</time></trkpt><trkpt lat="42.0157683" lon="12.1961021"><ele>150.0</ele><time>2026-04-01T09:08:53.755Z</time></trkpt><trkpt lat="42.015975" lon="12.196147"><ele>151.0</ele><time>2026-04-01T09:08:54.754Z</time></trkpt><trkpt lat="42.016191" lon="12.1962219"><ele>152.0</ele><time>2026-04-01T09:08:55.761Z</time></trkpt><trkpt lat="42.0163928" lon="12.1962908"><ele>153.0</ele><time>2026-04-01T09:08:56.754Z</time></trkpt><trkpt lat="42.0166089" lon="12.196367"><ele>152.0</ele><time>2026-04-01T09:08:57.76Z</time></trkpt><trkpt lat="42.016785" lon="12.1964472"><ele>151.0</ele><time>2026-04-01T09:08:58.782Z</time></trkpt><trkpt lat="42.0169345" lon="12.19649"><ele>150.0</ele><time>2026-04-01T09:08:59.761Z</time></trkpt><trkpt lat="42.0170505" lon="12.1965282"><ele>150.0</ele><time>2026-04-01T09:09:00.766Z</time></trkpt><trkpt lat="42.0171868" lon="12.1965846"><ele>150.0</ele><time>2026-04-01T09:09:01.759Z</time></trkpt><trkpt lat="42.0173074" lon="12.1966155"><ele>150.0</ele><time>2026-04-01T09:09:02.759Z</time></trkpt><trkpt lat="42.0174152" lon="12.1966737"><ele>150.0</ele><time>2026-04-01T09:09:03.756Z</time></trkpt><trkpt lat="42.0175239" lon="12.1966871"><ele>150.8</ele><time>2026-04-01T09:09:04.764Z</time></trkpt><trkpt lat="42.0176164" lon="12.1967645"><ele>151.6</ele><time>2026-04-01T09:09:05.753Z</time></trkpt><trkpt lat="42.0177206" lon="12.1968416"><ele>152.4</ele><time>2026-04-01T09:09:06.75Z</time></trkpt><trkpt lat="42.0178086" lon="12.1969359"><ele>153.2</ele><time>2026-04-01T09:09:07.761Z</time></trkpt><trkpt lat="42.0178813" lon="12.1970368"><ele>154.0</ele><time>2026-04-01T09:09:08.748Z</time></trkpt><trkpt lat="42.0179509" lon="12.1971393"><ele>154.0</ele><time>2026-04-01T09:09:09.745Z</time></trkpt><trkpt lat="42.0180261" lon="12.1972699"><ele>154.0</ele><time>2026-04-01T09:09:10.75Z</time></trkpt><trkpt lat="42.0180981" lon="12.1974155"><ele>154.0</ele><time>2026-04-01T09:09:11.754Z</time></trkpt><trkpt lat="42.0181862" lon="12.1975578"><ele>154.0</ele><time>2026-04-01T09:09:12.757Z</time></trkpt><trkpt lat="42.0182795" lon="12.1976884"><ele>155.25</ele><time>2026-04-01T09:09:13.755Z</time></trkpt><trkpt lat="42.0183598" lon="12.1977804"><ele>156.5</ele><time>2026-04-01T09:09:14.755Z</time></trkpt><trkpt lat="42.0184344" lon="12.1978973"><ele>157.75</ele><time>2026-04-01T09:09:15.755Z</time></trkpt><trkpt lat="42.0185103" lon="12.198009"><ele>159.0</ele><time>2026-04-01T09:09:16.761Z</time></trkpt><trkpt lat="42.0186001" lon="12.1981236"><ele>159.6</ele><time>2026-04-01T09:09:17.762Z</time></trkpt><trkpt lat="42.0186702" lon="12.1982251"><ele>160.2</ele><time>2026-04-01T09:09:18.761Z</time></trkpt><trkpt lat="42.0187317" lon="12.1983326"><ele>160.79999999999998</ele><time>2026-04-01T09:09:19.766Z</time></trkpt><trkpt lat="42.0187978" lon="12.198439"><ele>161.4</ele><time>2026-04-01T09:09:20.772Z</time></trkpt><trkpt lat="42.0188698" lon="12.1985369"><ele>162.0</ele><time>2026-04-01T09:09:21.775Z</time></trkpt><trkpt lat="42.0189438" lon="12.1986033"><ele>162.0</ele><time>2026-04-01T09:09:22.774Z</time></trkpt><trkpt lat="42.0190481" lon="12.1986511"><ele>162.0</ele><time>2026-04-01T09:09:23.77Z</time></trkpt><trkpt lat="42.0191771" lon="12.1986978"><ele>162.0</ele><time>2026-04-01T09:09:24.771Z</time></trkpt><trkpt lat="42.0192829" lon="12.1987368"><ele>162.0</ele><time>2026-04-01T09:09:25.757Z</time></trkpt><trkpt lat="42.0194384" lon="12.1988334"><ele>162.0</ele><time>2026-04-01T09:09:26.757Z</time></trkpt><trkpt lat="42.0195579" lon="12.1988977"><ele>162.0</ele><time>2026-04-01T09:09:27.756Z</time></trkpt><trkpt lat="42.0196543" lon="12.1989444"><ele>162.0</ele><time>2026-04-01T09:09:28.766Z</time></trkpt><trkpt lat="42.0197317" lon="12.1989727"><ele>162.0</ele><time>2026-04-01T09:09:29.785Z</time></trkpt><trkpt lat="42.0198648" lon="12.1990331"><ele>161.83333333333334</ele><time>2026-04-01T09:09:31.771Z</time></trkpt><trkpt lat="42.019929" lon="12.1990593"><ele>161.66666666666666</ele><time>2026-04-01T09:09:32.773Z</time></trkpt><trkpt lat="42.0200334" lon="12.1990697"><ele>161.5</ele><time>2026-04-01T09:09:34.75Z</time></trkpt><trkpt lat="42.0200998" lon="12.1990481"><ele>161.33333333333331</ele><time>2026-04-01T09:09:35.766Z</time></trkpt><trkpt lat="42.0201623" lon="12.1989516"><ele>161.16666666666666</ele><time>2026-04-01T09:09:36.763Z</time></trkpt><trkpt lat="42.0202053" lon="12.1988201"><ele>161.0</ele><time>2026-04-01T09:09:37.767Z</time></trkpt><trkpt lat="42.0202556" lon="12.1986655"><ele>161.66666666666666</ele><time>2026-04-01T09:09:38.768Z</time></trkpt><trkpt lat="42.0202914" lon="12.1984983"><ele>162.33333333333334</ele><time>2026-04-01T09:09:39.763Z</time></trkpt><trkpt lat="42.0202961" lon="12.1983016"><ele>163.0</ele><time>2026-04-01T09:09:40.756Z</time></trkpt><trkpt lat="42.020286" lon="12.1980601"><ele>163.5</ele><time>2026-04-01T09:09:41.762Z</time></trkpt><trkpt lat="42.0202813" lon="12.1978657"><ele>164.0</ele><time>2026-04-01T09:09:42.764Z</time></trkpt><trkpt lat="42.0202831" lon="12.1977212"><ele>164.5</ele><time>2026-04-01T09:09:43.754Z</time></trkpt><trkpt lat="42.020271" lon="12.1975666"><ele>165.0</ele><time>2026-04-01T09:09:44.769Z</time></trkpt><trkpt lat="42.0202316" lon="12.1974166"><ele>165.0</ele><time>2026-04-01T09:09:45.768Z</time></trkpt><trkpt lat="42.0201952" lon="12.1972648"><ele>165.0</ele><time>2026-04-01T09:09:46.761Z</time></trkpt><trkpt lat="42.0201803" lon="12.1971005"><ele>165.0</ele><time>2026-04-01T09:09:47.765Z</time></trkpt><trkpt lat="42.0201695" lon="12.1969169"><ele>165.0</ele><time>2026-04-01T09:09:48.756Z</time></trkpt><trkpt lat="42.0201437" lon="12.1967464"><ele>165.0</ele><time>2026-04-01T09:09:49.75Z</time></trkpt><trkpt lat="42.0200828" lon="12.196588"><ele>165.0</ele><time>2026-04-01T09:09:50.75Z</time></trkpt><trkpt lat="42.0200251" lon="12.1963971"><ele>165.0</ele><time>2026-04-01T09:09:51.744Z</time></trkpt><trkpt lat="42.0199675" lon="12.1962139"><ele>165.0</ele><time>2026-04-01T09:09:52.757Z</time></trkpt><trkpt lat="42.0199006" lon="12.196004"><ele>164.66666666666666</ele><time>2026-04-01T09:09:53.757Z</time></trkpt><trkpt lat="42.0198263" lon="12.1958056"><ele>164.33333333333331</ele><time>2026-04-01T09:09:54.768Z</time></trkpt><trkpt lat="42.0197445" lon="12.1956081"><ele>164.0</ele><time>2026-04-01T09:09:55.763Z</time></trkpt><trkpt lat="42.0196789" lon="12.1954263"><ele>165.0</ele><time>2026-04-01T09:09:56.766Z</time></trkpt><trkpt lat="42.0196134" lon="12.1952348"><ele>166.0</ele><time>2026-04-01T09:09:57.775Z</time></trkpt><trkpt lat="42.0195433" lon="12.1950498"><ele>167.0</ele><time>2026-04-01T09:09:58.768Z</time></trkpt><trkpt lat="42.0194881" lon="12.1948718"><ele>165.75</ele><time>2026-04-01T09:09:59.762Z</time></trkpt><trkpt lat="42.0194436" lon="12.1946957"><ele>164.5</ele><time>2026-04-01T09:10:00.787Z</time></trkpt><trkpt lat="42.0193745" lon="12.1944898"><ele>163.25</ele><time>2026-04-01T09:10:01.778Z</time></trkpt><trkpt lat="42.0193151" lon="12.194345"><ele>162.0</ele><time>2026-04-01T09:10:02.763Z</time></trkpt><trkpt lat="42.0192575" lon="12.1941513"><ele>161.5</ele><time>2026-04-01T09:10:03.761Z</time></trkpt><trkpt lat="42.0192092" lon="12.1940028"><ele>161.0</ele><time>2026-04-01T09:10:04.764Z</time></trkpt><trkpt lat="42.0191701" lon="12.1938283"><ele>160.5</ele><time>2026-04-01T09:10:05.771Z</time></trkpt><trkpt lat="42.0191201" lon="12.1936298"><ele>160.0</ele><time>2026-04-01T09:10:06.772Z</time></trkpt><trkpt lat="42.0190603" lon="12.1934233"><ele>159.66666666666669</ele><time>2026-04-01T09:10:07.775Z</time></trkpt><trkpt lat="42.0189953" lon="12.1932133"><ele>159.33333333333334</ele><time>2026-04-01T09:10:08.764Z</time></trkpt><trkpt lat="42.0189453" lon="12.1930047"><ele>159.0</ele><time>2026-04-01T09:10:09.764Z</time></trkpt><trkpt lat="42.018921" lon="12.1927954"><ele>158.5</ele><time>2026-04-01T09:10:10.768Z</time></trkpt><trkpt lat="42.0188961" lon="12.192574"><ele>158.0</ele><time>2026-04-01T09:10:11.757Z</time></trkpt><trkpt lat="42.018835" lon="12.192376"><ele>157.5</ele><time>2026-04-01T09:10:12.753Z</time></trkpt><trkpt lat="42.0187987" lon="12.1922214"><ele>157.0</ele><time>2026-04-01T09:10:13.754Z</time></trkpt><trkpt lat="42.0187435" lon="12.1920676"><ele>157.0</ele><time>2026-04-01T09:10:14.756Z</time></trkpt><trkpt lat="42.0186846" lon="12.1918968"><ele>157.0</ele><time>2026-04-01T09:10:15.761Z</time></trkpt><trkpt lat="42.0186176" lon="12.1917592"><ele>157.0</ele><time>2026-04-01T09:10:16.755Z</time></trkpt><trkpt lat="42.0185136" lon="12.1916227"><ele>157.0</ele><time>2026-04-01T09:10:17.758Z</time></trkpt><trkpt lat="42.0184124" lon="12.1915045"><ele>157.66666666666669</ele><time>2026-04-01T09:10:18.759Z</time></trkpt><trkpt lat="42.0183162" lon="12.1913872"><ele>158.33333333333334</ele><time>2026-04-01T09:10:19.762Z</time></trkpt><trkpt lat="42.0182046" lon="12.1913183"><ele>159.0</ele><time>2026-04-01T09:10:20.764Z</time></trkpt><trkpt lat="42.0178916" lon="12.1912462"><ele>159.0</ele><time>2026-04-01T09:10:22.768Z</time></trkpt><trkpt lat="42.0177526" lon="12.1911954"><ele>159.0</ele><time>2026-04-01T09:10:23.768Z</time></trkpt><trkpt lat="42.0176182" lon="12.1911194"><ele>159.0</ele><time>2026-04-01T09:10:24.765Z</time></trkpt><trkpt lat="42.017486" lon="12.1910454"><ele>159.0</ele><time>2026-04-01T09:10:25.767Z</time></trkpt><trkpt lat="42.0173415" lon="12.1909793"><ele>158.6</ele><time>2026-04-01T09:10:26.763Z</time></trkpt><trkpt lat="42.0172145" lon="12.1909111"><ele>158.2</ele><time>2026-04-01T09:10:27.765Z</time></trkpt><trkpt lat="42.0171222" lon="12.190876"><ele>157.79999999999998</ele><time>2026-04-01T09:10:28.764Z</time></trkpt><trkpt lat="42.0170183" lon="12.1908291"><ele>157.4</ele><time>2026-04-01T09:10:29.769Z</time></trkpt><trkpt lat="42.0169443" lon="12.1907713"><ele>157.0</ele><time>2026-04-01T09:10:30.778Z</time></trkpt><trkpt lat="42.0168722" lon="12.1907033"><ele>156.75</ele><time>2026-04-01T09:10:31.788Z</time></trkpt><trkpt lat="42.0168669" lon="12.1905621"><ele>156.5</ele><time>2026-04-01T09:10:32.77Z</time></trkpt><trkpt lat="42.0168799" lon="12.1903834"><ele>156.25</ele><time>2026-04-01T09:10:33.769Z</time></trkpt><trkpt lat="42.0168812" lon="12.1902154"><ele>156.0</ele><time>2026-04-01T09:10:34.77Z</time></trkpt><trkpt lat="42.0168588" lon="12.1900406"><ele>156.0</ele><time>2026-04-01T09:10:35.761Z</time></trkpt><trkpt lat="42.0168322" lon="12.1898583"><ele>156.0</ele><time>2026-04-01T09:10:36.763Z</time></trkpt><trkpt lat="42.0168013" lon="12.1896733"><ele>156.0</ele><time>2026-04-01T09:10:37.767Z</time></trkpt><trkpt lat="42.0167733" lon="12.1894882"><ele>156.0</ele><time>2026-04-01T09:10:38.778Z</time></trkpt><trkpt lat="42.0167379" lon="12.1893171"><ele>155.8</ele><time>2026-04-01T09:10:39.773Z</time></trkpt><trkpt lat="42.0166985" lon="12.1891642"><ele>155.6</ele><time>2026-04-01T09:10:40.772Z</time></trkpt><trkpt lat="42.0166514" lon="12.1890337"><ele>155.4</ele><time>2026-04-01T09:10:41.779Z</time></trkpt><trkpt lat="42.0165896" lon="12.1889321"><ele>155.2</ele><time>2026-04-01T09:10:42.779Z</time></trkpt><trkpt lat="42.016505" lon="12.1888605"><ele>155.0</ele><time>2026-04-01T09:10:43.784Z</time></trkpt><trkpt lat="42.0163943" lon="12.1888196"><ele>154.75</ele><time>2026-04-01T09:10:44.773Z</time></trkpt><trkpt lat="42.0162711" lon="12.1887812"><ele>154.5</ele><time>2026-04-01T09:10:45.772Z</time></trkpt><trkpt lat="42.0161453" lon="12.1887707"><ele>154.25</ele><time>2026-04-01T09:10:46.778Z</time></trkpt><trkpt lat="42.0160062" lon="12.1887639"><ele>154.0</ele><time>2026-04-01T09:10:47.774Z</time></trkpt><trkpt lat="42.0158561" lon="12.18877"><ele>153.66666666666669</ele><time>2026-04-01T09:10:48.764Z</time></trkpt><trkpt lat="42.0157039" lon="12.1887826"><ele>153.33333333333334</ele><time>2026-04-01T09:10:49.771Z</time></trkpt><trkpt lat="42.0155562" lon="12.1887894"><ele>153.0</ele><time>2026-04-01T09:10:50.767Z</time></trkpt><trkpt lat="42.0153972" lon="12.188799"><ele>153.0</ele><time>2026-04-01T09:10:51.768Z</time></trkpt><trkpt lat="42.0152562" lon="12.1887917"><ele>153.0</ele><time>2026-04-01T09:10:52.774Z</time></trkpt><trkpt lat="42.0151221" lon="12.1887849"><ele>153.0</ele><time>2026-04-01T09:10:53.776Z</time></trkpt><trkpt lat="42.0149851" lon="12.188763"><ele>153.0</ele><time>2026-04-01T09:10:54.774Z</time></trkpt><trkpt lat="42.0148448" lon="12.1887349"><ele>152.0</ele><time>2026-04-01T09:10:55.772Z</time></trkpt><trkpt lat="42.0147016" lon="12.188704"><ele>151.0</ele><time>2026-04-01T09:10:56.776Z</time></trkpt><trkpt lat="42.0145468" lon="12.1886755"><ele>150.0</ele><time>2026-04-01T09:10:57.771Z</time></trkpt><trkpt lat="42.0144099" lon="12.188685"><ele>149.0</ele><time>2026-04-01T09:10:58.767Z</time></trkpt><trkpt lat="42.0142832" lon="12.1886789"><ele>149.5</ele><time>2026-04-01T09:10:59.777Z</time></trkpt><trkpt lat="42.0141491" lon="12.1886567"><ele>150.0</ele><time>2026-04-01T09:11:00.773Z</time></trkpt><trkpt lat="42.0140199" lon="12.18861"><ele>150.5</ele><time>2026-04-01T09:11:01.776Z</time></trkpt><trkpt lat="42.0139102" lon="12.1886258"><ele>151.0</ele><time>2026-04-01T09:11:02.784Z</time></trkpt><trkpt lat="42.0137833" lon="12.1886076"><ele>151.0</ele><time>2026-04-01T09:11:03.762Z</time></trkpt><trkpt lat="42.013673" lon="12.188554"><ele>151.0</ele><time>2026-04-01T09:11:04.763Z</time></trkpt><trkpt lat="42.0135592" lon="12.1885032"><ele>151.0</ele><time>2026-04-01T09:11:05.763Z</time></trkpt><trkpt lat="42.0134608" lon="12.1884031"><ele>151.0</ele><time>2026-04-01T09:11:06.757Z</time></trkpt><trkpt lat="42.0133792" lon="12.1883024"><ele>150.8</ele><time>2026-04-01T09:11:07.752Z</time></trkpt><trkpt lat="42.0132985" lon="12.1882234"><ele>150.6</ele><time>2026-04-01T09:11:08.759Z</time></trkpt><trkpt lat="42.0132184" lon="12.1881501"><ele>150.4</ele><time>2026-04-01T09:11:09.771Z</time></trkpt><trkpt lat="42.0131439" lon="12.1880789"><ele>150.2</ele><time>2026-04-01T09:11:10.769Z</time></trkpt><trkpt lat="42.0130591" lon="12.1880069"><ele>150.0</ele><time>2026-04-01T09:11:11.774Z</time></trkpt><trkpt lat="42.0129742" lon="12.1879416"><ele>149.5</ele><time>2026-04-01T09:11:12.777Z</time></trkpt><trkpt lat="42.0128759" lon="12.1878677"><ele>149.0</ele><time>2026-04-01T09:11:13.774Z</time></trkpt><trkpt lat="42.0127669" lon="12.1877815"><ele>148.5</ele><time>2026-04-01T09:11:14.775Z</time></trkpt><trkpt lat="42.0126573" lon="12.1876884"><ele>148.0</ele><time>2026-04-01T09:11:15.782Z</time></trkpt><trkpt lat="42.0125442" lon="12.1876074"><ele>147.5</ele><time>2026-04-01T09:11:16.769Z</time></trkpt><trkpt lat="42.0124183" lon="12.1875177"><ele>147.0</ele><time>2026-04-01T09:11:17.778Z</time></trkpt><trkpt lat="42.0122965" lon="12.1874186"><ele>146.5</ele><time>2026-04-01T09:11:18.774Z</time></trkpt><trkpt lat="42.0121866" lon="12.1873074"><ele>146.0</ele><time>2026-04-01T09:11:19.779Z</time></trkpt><trkpt lat="42.0120793" lon="12.1871854"><ele>143.33333333333331</ele><time>2026-04-01T09:11:20.779Z</time></trkpt><trkpt lat="42.0119714" lon="12.1870541"><ele>140.66666666666666</ele><time>2026-04-01T09:11:21.777Z</time></trkpt><trkpt lat="42.0118621" lon="12.1869026"><ele>138.0</ele><time>2026-04-01T09:11:22.778Z</time></trkpt><trkpt lat="42.0117511" lon="12.1867562"><ele>139.5</ele><time>2026-04-01T09:11:23.776Z</time></trkpt><trkpt lat="42.0116453" lon="12.1866209"><ele>141.0</ele><time>2026-04-01T09:11:24.774Z</time></trkpt><trkpt lat="42.0115445" lon="12.1864849"><ele>142.5</ele><time>2026-04-01T09:11:25.772Z</time></trkpt><trkpt lat="42.0114411" lon="12.1863484"><ele>144.0</ele><time>2026-04-01T09:11:26.776Z</time></trkpt><trkpt lat="42.0113355" lon="12.1862174"><ele>139.33333333333334</ele><time>2026-04-01T09:11:27.777Z</time></trkpt><trkpt lat="42.0112234" lon="12.1860838"><ele>134.66666666666669</ele><time>2026-04-01T09:11:28.784Z</time></trkpt><trkpt lat="42.0111105" lon="12.1859447"><ele>130.0</ele><time>2026-04-01T09:11:29.775Z</time></trkpt><trkpt lat="42.0109868" lon="12.1858033"><ele>128.33333333333334</ele><time>2026-04-01T09:11:30.782Z</time></trkpt><trkpt lat="42.0108649" lon="12.1856625"><ele>126.66666666666666</ele><time>2026-04-01T09:11:31.783Z</time></trkpt><trkpt lat="42.0107499" lon="12.1855227"><ele>125.0</ele><time>2026-04-01T09:11:32.772Z</time></trkpt><trkpt lat="42.0106444" lon="12.1853856"><ele>124.0</ele><time>2026-04-01T09:11:33.791Z</time></trkpt><trkpt lat="42.0105412" lon="12.1852504"><ele>123.0</ele><time>2026-04-01T09:11:34.77Z</time></trkpt><trkpt lat="42.0104463" lon="12.1851354"><ele>122.0</ele><time>2026-04-01T09:11:35.774Z</time></trkpt><trkpt lat="42.0103523" lon="12.1850525"><ele>121.0</ele><time>2026-04-01T09:11:36.765Z</time></trkpt><trkpt lat="42.0102436" lon="12.1849828"><ele>121.0</ele><time>2026-04-01T09:11:37.765Z</time></trkpt><trkpt lat="42.0101399" lon="12.1849053"><ele>121.0</ele><time>2026-04-01T09:11:38.758Z</time></trkpt><trkpt lat="42.0100333" lon="12.1848391"><ele>121.0</ele><time>2026-04-01T09:11:39.765Z</time></trkpt><trkpt lat="42.0099112" lon="12.1848004"><ele>121.0</ele><time>2026-04-01T09:11:40.762Z</time></trkpt><trkpt lat="42.0097826" lon="12.1847563"><ele>117.75</ele><time>2026-04-01T09:11:41.765Z</time></trkpt><trkpt lat="42.0096438" lon="12.1847046"><ele>114.5</ele><time>2026-04-01T09:11:42.759Z</time></trkpt><trkpt lat="42.009513" lon="12.1846499"><ele>111.25</ele><time>2026-04-01T09:11:43.76Z</time></trkpt><trkpt lat="42.0093778" lon="12.1845655"><ele>108.0</ele><time>2026-04-01T09:11:44.758Z</time></trkpt><trkpt lat="42.0092414" lon="12.1844952"><ele>106.75</ele><time>2026-04-01T09:11:45.766Z</time></trkpt><trkpt lat="42.0091101" lon="12.1844128"><ele>105.5</ele><time>2026-04-01T09:11:46.762Z</time></trkpt><trkpt lat="42.0089862" lon="12.1843249"><ele>104.25</ele><time>2026-04-01T09:11:47.765Z</time></trkpt><trkpt lat="42.0088641" lon="12.1842587"><ele>103.0</ele><time>2026-04-01T09:11:48.769Z</time></trkpt><trkpt lat="42.0087476" lon="12.1841883"><ele>103.0</ele><time>2026-04-01T09:11:49.761Z</time></trkpt><trkpt lat="42.0086325" lon="12.184121"><ele>103.0</ele><time>2026-04-01T09:11:50.769Z</time></trkpt><trkpt lat="42.0085274" lon="12.1840563"><ele>103.0</ele><time>2026-04-01T09:11:51.766Z</time></trkpt><trkpt lat="42.008426" lon="12.183995"><ele>103.0</ele><time>2026-04-01T09:11:52.779Z</time></trkpt><trkpt lat="42.0083297" lon="12.1839242"><ele>100.80000000000001</ele><time>2026-04-01T09:11:53.774Z</time></trkpt><trkpt lat="42.0082432" lon="12.1838342"><ele>98.6</ele><time>2026-04-01T09:11:54.775Z</time></trkpt><trkpt lat="42.0081655" lon="12.1837335"><ele>96.4</ele><time>2026-04-01T09:11:55.781Z</time></trkpt><trkpt lat="42.0081075" lon="12.1836084"><ele>94.19999999999999</ele><time>2026-04-01T09:11:56.777Z</time></trkpt><trkpt lat="42.0080834" lon="12.1834611"><ele>92.0</ele><time>2026-04-01T09:11:57.778Z</time></trkpt><trkpt lat="42.0080818" lon="12.1833029"><ele>91.0</ele><time>2026-04-01T09:11:58.779Z</time></trkpt><trkpt lat="42.0080974" lon="12.1831473"><ele>90.0</ele><time>2026-04-01T09:11:59.766Z</time></trkpt><trkpt lat="42.0081286" lon="12.1829991"><ele>89.0</ele><time>2026-04-01T09:12:00.785Z</time></trkpt><trkpt lat="42.0081846" lon="12.1828482"><ele>88.0</ele><time>2026-04-01T09:12:01.783Z</time></trkpt><trkpt lat="42.0082695" lon="12.1827054"><ele>88.5</ele><time>2026-04-01T09:12:02.779Z</time></trkpt><trkpt lat="42.0083483" lon="12.1825657"><ele>89.0</ele><time>2026-04-01T09:12:03.779Z</time></trkpt><trkpt lat="42.008425" lon="12.1824342"><ele>89.5</ele><time>2026-04-01T09:12:04.789Z</time></trkpt><trkpt lat="42.0085017" lon="12.182323"><ele>90.0</ele><time>2026-04-01T09:12:05.777Z</time></trkpt><trkpt lat="42.0085804" lon="12.182216"><ele>91.6</ele><time>2026-04-01T09:12:06.773Z</time></trkpt><trkpt lat="42.0086597" lon="12.1821328"><ele>93.2</ele><time>2026-04-01T09:12:07.774Z</time></trkpt><trkpt lat="42.0087421" lon="12.182067"><ele>94.80000000000001</ele><time>2026-04-01T09:12:08.774Z</time></trkpt><trkpt lat="42.0088306" lon="12.1820078"><ele>96.4</ele><time>2026-04-01T09:12:09.77Z</time></trkpt><trkpt lat="42.0089298" lon="12.1819439"><ele>98.0</ele><time>2026-04-01T09:12:10.776Z</time></trkpt><trkpt lat="42.0090411" lon="12.181894"><ele>98.0</ele><time>2026-04-01T09:12:11.776Z</time></trkpt><trkpt lat="42.0091557" lon="12.1818447"><ele>98.0</ele><time>2026-04-01T09:12:12.78Z</time></trkpt><trkpt lat="42.0092712" lon="12.1817952"><ele>98.0</ele><time>2026-04-01T09:12:13.776Z</time></trkpt><trkpt lat="42.0093819" lon="12.1817466"><ele>98.0</ele><time>2026-04-01T09:12:14.781Z</time></trkpt><trkpt lat="42.0094882" lon="12.1816976"><ele>97.60000000000001</ele><time>2026-04-01T09:12:15.776Z</time></trkpt><trkpt lat="42.0095912" lon="12.1816506"><ele>97.2</ele><time>2026-04-01T09:12:16.783Z</time></trkpt><trkpt lat="42.0096845" lon="12.1816045"><ele>96.8</ele><time>2026-04-01T09:12:17.78Z</time></trkpt><trkpt lat="42.0097673" lon="12.1815573"><ele>96.4</ele><time>2026-04-01T09:12:18.782Z</time></trkpt><trkpt lat="42.0098353" lon="12.1815094"><ele>96.0</ele><time>2026-04-01T09:12:19.774Z</time></trkpt><trkpt lat="42.009898" lon="12.1814543"><ele>96.0</ele><time>2026-04-01T09:12:20.771Z</time></trkpt><trkpt lat="42.0099521" lon="12.1813901"><ele>96.0</ele><time>2026-04-01T09:12:21.771Z</time></trkpt><trkpt lat="42.0099888" lon="12.181305"><ele>96.0</ele><time>2026-04-01T09:12:22.783Z</time></trkpt><trkpt lat="42.0099846" lon="12.1811951"><ele>96.0</ele><time>2026-04-01T09:12:23.773Z</time></trkpt><trkpt lat="42.009973" lon="12.1810736"><ele>96.0</ele><time>2026-04-01T09:12:24.784Z</time></trkpt><trkpt lat="42.0099357" lon="12.1809564"><ele>96.0</ele><time>2026-04-01T09:12:25.774Z</time></trkpt><trkpt lat="42.009881" lon="12.1808279"><ele>96.0</ele><time>2026-04-01T09:12:26.772Z</time></trkpt><trkpt lat="42.0098175" lon="12.1806857"><ele>96.0</ele><time>2026-04-01T09:12:27.772Z</time></trkpt><trkpt lat="42.0097453" lon="12.1805434"><ele>96.0</ele><time>2026-04-01T09:12:28.783Z</time></trkpt><trkpt lat="42.0096587" lon="12.1804112"><ele>96.0</ele><time>2026-04-01T09:12:29.774Z</time></trkpt><trkpt lat="42.0095646" lon="12.1802922"><ele>98.5</ele><time>2026-04-01T09:12:30.782Z</time></trkpt><trkpt lat="42.0094499" lon="12.1802099"><ele>101.0</ele><time>2026-04-01T09:12:31.784Z</time></trkpt><trkpt lat="42.0093219" lon="12.1801712"><ele>103.5</ele><time>2026-04-01T09:12:32.773Z</time></trkpt><trkpt lat="42.0091908" lon="12.1801427"><ele>106.0</ele><time>2026-04-01T09:12:33.783Z</time></trkpt><trkpt lat="42.0090387" lon="12.1801245"><ele>107.25</ele><time>2026-04-01T09:12:34.78Z</time></trkpt><trkpt lat="42.0088878" lon="12.1800934"><ele>108.5</ele><time>2026-04-01T09:12:35.791Z</time></trkpt><trkpt lat="42.0087412" lon="12.1800644"><ele>109.75</ele><time>2026-04-01T09:12:36.779Z</time></trkpt><trkpt lat="42.0086069" lon="12.1800379"><ele>111.0</ele><time>2026-04-01T09:12:37.775Z</time></trkpt><trkpt lat="42.0084881" lon="12.1800056"><ele>111.0</ele><time>2026-04-01T09:12:38.775Z</time></trkpt><trkpt lat="42.0083858" lon="12.1799608"><ele>111.0</ele><time>2026-04-01T09:12:39.77Z</time></trkpt><trkpt lat="42.0083" lon="12.1799113"><ele>111.0</ele><time>2026-04-01T09:12:40.774Z</time></trkpt><trkpt lat="42.0082415" lon="12.1798387"><ele>111.0</ele><time>2026-04-01T09:12:41.765Z</time></trkpt><trkpt lat="42.0082009" lon="12.1797576"><ele>111.0</ele><time>2026-04-01T09:12:42.773Z</time></trkpt><trkpt lat="42.0081996" lon="12.1796483"><ele>111.0</ele><time>2026-04-01T09:12:43.774Z</time></trkpt><trkpt lat="42.0082301" lon="12.1795317"><ele>112.5</ele><time>2026-04-01T09:12:44.775Z</time></trkpt><trkpt lat="42.0082994" lon="12.1794148"><ele>114.0</ele><time>2026-04-01T09:12:45.768Z</time></trkpt><trkpt lat="42.0083882" lon="12.1793006"><ele>115.5</ele><time>2026-04-01T09:12:46.766Z</time></trkpt><trkpt lat="42.0084915" lon="12.1791994"><ele>117.0</ele><time>2026-04-01T09:12:47.777Z</time></trkpt><trkpt lat="42.008589" lon="12.1791118"><ele>117.0</ele><time>2026-04-01T09:12:48.782Z</time></trkpt><trkpt lat="42.0086964" lon="12.1790317"><ele>117.0</ele><time>2026-04-01T09:12:49.778Z</time></trkpt><trkpt lat="42.0088046" lon="12.1789858"><ele>117.0</ele><time>2026-04-01T09:12:50.778Z</time></trkpt><trkpt lat="42.0089202" lon="12.1789818"><ele>117.0</ele><time>2026-04-01T09:12:51.777Z</time></trkpt><trkpt lat="42.0090395" lon="12.1790039"><ele>117.0</ele><time>2026-04-01T09:12:52.771Z</time></trkpt><trkpt lat="42.0091491" lon="12.1790449"><ele>116.99999999999999</ele><time>2026-04-01T09:12:53.769Z</time></trkpt><trkpt lat="42.0092407" lon="12.1790641"><ele>116.99999999999999</ele><time>2026-04-01T09:12:54.766Z</time></trkpt><trkpt lat="42.0093327" lon="12.1790639"><ele>117.0</ele><time>2026-04-01T09:12:55.772Z</time></trkpt><trkpt lat="42.009429" lon="12.1790351"><ele>117.0</ele><time>2026-04-01T09:12:56.772Z</time></trkpt><trkpt lat="42.009494" lon="12.1789399"><ele>119.66666666666667</ele><time>2026-04-01T09:12:57.776Z</time></trkpt><trkpt lat="42.0095573" lon="12.1788308"><ele>122.33333333333334</ele><time>2026-04-01T09:12:58.779Z</time></trkpt><trkpt lat="42.0096213" lon="12.1787419"><ele>125.0</ele><time>2026-04-01T09:12:59.777Z</time></trkpt><trkpt lat="42.0096941" lon="12.1786945"><ele>127.66666666666667</ele><time>2026-04-01T09:13:00.78Z</time></trkpt><trkpt lat="42.0097709" lon="12.178702"><ele>130.33333333333334</ele><time>2026-04-01T09:13:01.781Z</time></trkpt><trkpt lat="42.0098479" lon="12.1787696"><ele>133.0</ele><time>2026-04-01T09:13:02.773Z</time></trkpt><trkpt lat="42.0099301" lon="12.1788657"><ele>132.6</ele><time>2026-04-01T09:13:03.769Z</time></trkpt><trkpt lat="42.010011" lon="12.1789803"><ele>132.20000000000002</ele><time>2026-04-01T09:13:04.779Z</time></trkpt><trkpt lat="42.0100897" lon="12.1790858"><ele>131.8</ele><time>2026-04-01T09:13:05.775Z</time></trkpt><trkpt lat="42.0101752" lon="12.1791672"><ele>131.4</ele><time>2026-04-01T09:13:06.794Z</time></trkpt><trkpt lat="42.010252" lon="12.1792361"><ele>131.0</ele><time>2026-04-01T09:13:07.774Z</time></trkpt><trkpt lat="42.0103383" lon="12.179275"><ele>131.0</ele><time>2026-04-01T09:13:08.775Z</time></trkpt><trkpt lat="42.0104251" lon="12.1792593"><ele>131.0</ele><time>2026-04-01T09:13:09.776Z</time></trkpt><trkpt lat="42.0105237" lon="12.1791947"><ele>131.0</ele><time>2026-04-01T09:13:10.778Z</time></trkpt><trkpt lat="42.0106014" lon="12.1790858"><ele>131.0</ele><time>2026-04-01T09:13:11.777Z</time></trkpt><trkpt lat="42.0106488" lon="12.1789552"><ele>131.0</ele><time>2026-04-01T09:13:12.777Z</time></trkpt><trkpt lat="42.0106943" lon="12.178812"><ele>131.66666666666666</ele><time>2026-04-01T09:13:13.788Z</time></trkpt><trkpt lat="42.0107462" lon="12.1786887"><ele>132.33333333333331</ele><time>2026-04-01T09:13:14.788Z</time></trkpt><trkpt lat="42.010796" lon="12.1785745"><ele>133.0</ele><time>2026-04-01T09:13:15.779Z</time></trkpt><trkpt lat="42.010828" lon="12.1784696"><ele>133.66666666666666</ele><time>2026-04-01T09:13:16.791Z</time></trkpt><trkpt lat="42.0108437" lon="12.1783695"><ele>134.33333333333334</ele><time>2026-04-01T09:13:17.78Z</time></trkpt><trkpt lat="42.0108579" lon="12.1782694"><ele>135.0</ele><time>2026-04-01T09:13:18.785Z</time></trkpt><trkpt lat="42.0107749" lon="12.1781245"><ele>136.5</ele><time>2026-04-01T09:13:20.781Z</time></trkpt><trkpt lat="42.0106832" lon="12.1780813"><ele>138.0</ele><time>2026-04-01T09:13:21.784Z</time></trkpt><trkpt lat="42.0105551" lon="12.1780662"><ele>139.5</ele><time>2026-04-01T09:13:22.786Z</time></trkpt><trkpt lat="42.0104325" lon="12.1780442"><ele>141.0</ele><time>2026-04-01T09:13:23.774Z</time></trkpt><trkpt lat="42.0103074" lon="12.1780196"><ele>141.0</ele><time>2026-04-01T09:13:24.781Z</time></trkpt><trkpt lat="42.0102012" lon="12.1779757"><ele>141.0</ele><time>2026-04-01T09:13:25.779Z</time></trkpt><trkpt lat="42.0101192" lon="12.177913"><ele>141.0</ele><time>2026-04-01T09:13:26.77Z</time></trkpt><trkpt lat="42.0100478" lon="12.1778256"><ele>141.0</ele><time>2026-04-01T09:13:27.765Z</time></trkpt><trkpt lat="42.0099802" lon="12.1777327"><ele>141.0</ele><time>2026-04-01T09:13:28.759Z</time></trkpt><trkpt lat="42.009904" lon="12.1776399"><ele>141.5</ele><time>2026-04-01T09:13:29.758Z</time></trkpt><trkpt lat="42.0098312" lon="12.1775293"><ele>142.0</ele><time>2026-04-01T09:13:30.775Z</time></trkpt><trkpt lat="42.0097741" lon="12.1774092"><ele>142.5</ele><time>2026-04-01T09:13:31.761Z</time></trkpt><trkpt lat="42.0097229" lon="12.1772662"><ele>143.0</ele><time>2026-04-01T09:13:32.768Z</time></trkpt><trkpt lat="42.0096627" lon="12.1770638"><ele>144.0</ele><time>2026-04-01T09:13:33.768Z</time></trkpt><trkpt lat="42.0096051" lon="12.1768581"><ele>145.0</ele><time>2026-04-01T09:13:34.766Z</time></trkpt><trkpt lat="42.0095435" lon="12.176674"><ele>146.0</ele><time>2026-04-01T09:13:35.762Z</time></trkpt><trkpt lat="42.009499" lon="12.176474"><ele>146.0</ele><time>2026-04-01T09:13:36.775Z</time></trkpt><trkpt lat="42.0094574" lon="12.1762364"><ele>146.0</ele><time>2026-04-01T09:13:37.777Z</time></trkpt><trkpt lat="42.0094386" lon="12.1760178"><ele>146.0</ele><time>2026-04-01T09:13:38.778Z</time></trkpt><trkpt lat="42.0094039" lon="12.1757847"><ele>145.0</ele><time>2026-04-01T09:13:39.789Z</time></trkpt><trkpt lat="42.0093545" lon="12.1755631"><ele>144.0</ele><time>2026-04-01T09:13:40.786Z</time></trkpt><trkpt lat="42.0093014" lon="12.1753588"><ele>143.0</ele><time>2026-04-01T09:13:41.786Z</time></trkpt><trkpt lat="42.0092557" lon="12.1751632"><ele>143.0</ele><time>2026-04-01T09:13:42.787Z</time></trkpt><trkpt lat="42.0092055" lon="12.1749664"><ele>143.0</ele><time>2026-04-01T09:13:43.786Z</time></trkpt><trkpt lat="42.0091584" lon="12.1747795"><ele>143.0</ele><time>2026-04-01T09:13:44.787Z</time></trkpt><trkpt lat="42.00911" lon="12.1745883"><ele>143.0</ele><time>2026-04-01T09:13:45.785Z</time></trkpt><trkpt lat="42.0090629" lon="12.1743927"><ele>143.0</ele><time>2026-04-01T09:13:46.788Z</time></trkpt><trkpt lat="42.0090111" lon="12.1741982"><ele>143.0</ele><time>2026-04-01T09:13:47.784Z</time></trkpt><trkpt lat="42.0089654" lon="12.1740087"><ele>142.5</ele><time>2026-04-01T09:13:48.788Z</time></trkpt><trkpt lat="42.0089189" lon="12.1738269"><ele>142.0</ele><time>2026-04-01T09:13:49.785Z</time></trkpt><trkpt lat="42.0088682" lon="12.173657"><ele>141.5</ele><time>2026-04-01T09:13:50.791Z</time></trkpt><trkpt lat="42.0088215" lon="12.1734997"><ele>141.0</ele><time>2026-04-01T09:13:51.789Z</time></trkpt><trkpt lat="42.0087878" lon="12.1733491"><ele>141.0</ele><time>2026-04-01T09:13:52.794Z</time></trkpt><trkpt lat="42.008753" lon="12.1732001"><ele>141.0</ele><time>2026-04-01T09:13:53.791Z</time></trkpt><trkpt lat="42.0087165" lon="12.1730476"><ele>141.0</ele><time>2026-04-01T09:13:54.793Z</time></trkpt><trkpt lat="42.0086749" lon="12.1728923"><ele>141.0</ele><time>2026-04-01T09:13:55.79Z</time></trkpt><trkpt lat="42.0086358" lon="12.1727354"><ele>140.25</ele><time>2026-04-01T09:13:56.793Z</time></trkpt><trkpt lat="42.0085739" lon="12.1725687"><ele>139.5</ele><time>2026-04-01T09:13:57.791Z</time></trkpt><trkpt lat="42.008502" lon="12.1723994"><ele>138.75</ele><time>2026-04-01T09:13:58.785Z</time></trkpt><trkpt lat="42.0084102" lon="12.1722494"><ele>138.0</ele><time>2026-04-01T09:13:59.782Z</time></trkpt><trkpt lat="42.0082986" lon="12.1721027"><ele>137.25</ele><time>2026-04-01T09:14:00.775Z</time></trkpt><trkpt lat="42.0081951" lon="12.1719613"><ele>136.5</ele><time>2026-04-01T09:14:01.78Z</time></trkpt><trkpt lat="42.0080854" lon="12.1718183"><ele>135.75</ele><time>2026-04-01T09:14:02.784Z</time></trkpt><trkpt lat="42.007985" lon="12.1716746"><ele>135.0</ele><time>2026-04-01T09:14:03.785Z</time></trkpt><trkpt lat="42.0078928" lon="12.1715156"><ele>135.0</ele><time>2026-04-01T09:14:04.777Z</time></trkpt><trkpt lat="42.0077991" lon="12.1713662"><ele>135.0</ele><time>2026-04-01T09:14:05.786Z</time></trkpt><trkpt lat="42.007703" lon="12.17123"><ele>135.0</ele><time>2026-04-01T09:14:06.773Z</time></trkpt><trkpt lat="42.0076091" lon="12.1710757"><ele>135.0</ele><time>2026-04-01T09:14:07.774Z</time></trkpt><trkpt lat="42.0075138" lon="12.1709268"><ele>133.75</ele><time>2026-04-01T09:14:08.79Z</time></trkpt><trkpt lat="42.00741" lon="12.1707933"><ele>132.5</ele><time>2026-04-01T09:14:09.771Z</time></trkpt><trkpt lat="42.0072856" lon="12.170665"><ele>131.25</ele><time>2026-04-01T09:14:10.775Z</time></trkpt><trkpt lat="42.0071786" lon="12.1705428"><ele>130.0</ele><time>2026-04-01T09:14:11.768Z</time></trkpt><trkpt lat="42.0070497" lon="12.1704236"><ele>130.0</ele><time>2026-04-01T09:14:12.77Z</time></trkpt><trkpt lat="42.0069477" lon="12.170332"><ele>130.0</ele><time>2026-04-01T09:14:13.775Z</time></trkpt><trkpt lat="42.0068425" lon="12.1702186"><ele>130.0</ele><time>2026-04-01T09:14:14.772Z</time></trkpt><trkpt lat="42.0067542" lon="12.1700992"><ele>130.0</ele><time>2026-04-01T09:14:15.764Z</time></trkpt><trkpt lat="42.0066421" lon="12.1699785"><ele>130.0</ele><time>2026-04-01T09:14:16.764Z</time></trkpt><trkpt lat="42.0065108" lon="12.1698494"><ele>130.0</ele><time>2026-04-01T09:14:17.76Z</time></trkpt><trkpt lat="42.00641" lon="12.1697316"><ele>130.0</ele><time>2026-04-01T09:14:18.764Z</time></trkpt><trkpt lat="42.0062948" lon="12.1696016"><ele>130.0</ele><time>2026-04-01T09:14:19.77Z</time></trkpt><trkpt lat="42.006182" lon="12.1694941"><ele>130.0</ele><time>2026-04-01T09:14:20.778Z</time></trkpt><trkpt lat="42.0060894" lon="12.1694121"><ele>130.0</ele><time>2026-04-01T09:14:21.781Z</time></trkpt><trkpt lat="42.0060002" lon="12.1693255"><ele>130.0</ele><time>2026-04-01T09:14:22.779Z</time></trkpt><trkpt lat="42.0059127" lon="12.1692485"><ele>130.0</ele><time>2026-04-01T09:14:23.773Z</time></trkpt><trkpt lat="42.005835" lon="12.1692039"><ele>130.0</ele><time>2026-04-01T09:14:24.774Z</time></trkpt><trkpt lat="42.0057746" lon="12.1691644"><ele>130.0</ele><time>2026-04-01T09:14:25.777Z</time></trkpt><trkpt lat="42.0056936" lon="12.1690717"><ele>130.0</ele><time>2026-04-01T09:14:27.77Z</time></trkpt><trkpt lat="42.0057015" lon="12.1689854"><ele>130.0</ele><time>2026-04-01T09:14:30.77Z</time></trkpt><trkpt lat="42.0057759" lon="12.1689617"><ele>130.0</ele><time>2026-04-01T09:14:32.768Z</time></trkpt><trkpt lat="42.0058712" lon="12.1690159"><ele>130.0</ele><time>2026-04-01T09:14:33.754Z</time></trkpt><trkpt lat="42.0060356" lon="12.1691126"><ele>130.0</ele><time>2026-04-01T09:14:34.752Z</time></trkpt><trkpt lat="42.0062081" lon="12.1692001"><ele>130.0</ele><time>2026-04-01T09:14:35.761Z</time></trkpt><trkpt lat="42.0063784" lon="12.1692465"><ele>130.0</ele><time>2026-04-01T09:14:36.764Z</time></trkpt><trkpt lat="42.0065366" lon="12.1692496"><ele>129.0</ele><time>2026-04-01T09:14:37.762Z</time></trkpt><trkpt lat="42.0066872" lon="12.1692312"><ele>128.0</ele><time>2026-04-01T09:14:38.755Z</time></trkpt><trkpt lat="42.0068339" lon="12.1691908"><ele>127.0</ele><time>2026-04-01T09:14:39.778Z</time></trkpt><trkpt lat="42.0069874" lon="12.1691224"><ele>127.0</ele><time>2026-04-01T09:14:40.768Z</time></trkpt><trkpt lat="42.0071373" lon="12.1690543"><ele>127.0</ele><time>2026-04-01T09:14:41.774Z</time></trkpt><trkpt lat="42.0072787" lon="12.1689612"><ele>127.0</ele><time>2026-04-01T09:14:42.775Z</time></trkpt><trkpt lat="42.0074347" lon="12.1688717"><ele>123.66666666666667</ele><time>2026-04-01T09:14:43.776Z</time></trkpt><trkpt lat="42.0075777" lon="12.1687814"><ele>120.33333333333334</ele><time>2026-04-01T09:14:44.779Z</time></trkpt><trkpt lat="42.0077195" lon="12.168687"><ele>117.0</ele><time>2026-04-01T09:14:45.777Z</time></trkpt><trkpt lat="42.0078639" lon="12.1685977"><ele>117.0</ele><time>2026-04-01T09:14:46.78Z</time></trkpt><trkpt lat="42.0079981" lon="12.1685145"><ele>117.0</ele><time>2026-04-01T09:14:47.775Z</time></trkpt><trkpt lat="42.0081249" lon="12.1684415"><ele>117.0</ele><time>2026-04-01T09:14:48.773Z</time></trkpt><trkpt lat="42.0082553" lon="12.168364"><ele>117.0</ele><time>2026-04-01T09:14:49.771Z</time></trkpt><trkpt lat="42.0083866" lon="12.1682941"><ele>118.5</ele><time>2026-04-01T09:14:50.775Z</time></trkpt><trkpt lat="42.0085179" lon="12.1682321"><ele>120.0</ele><time>2026-04-01T09:14:51.775Z</time></trkpt><trkpt lat="42.0086596" lon="12.1681701"><ele>121.5</ele><time>2026-04-01T09:14:52.77Z</time></trkpt><trkpt lat="42.0087908" lon="12.1681118"><ele>123.0</ele><time>2026-04-01T09:14:53.772Z</time></trkpt><trkpt lat="42.0089416" lon="12.1680458"><ele>124.66666666666666</ele><time>2026-04-01T09:14:54.765Z</time></trkpt><trkpt lat="42.009078" lon="12.1679738"><ele>126.33333333333333</ele><time>2026-04-01T09:14:55.767Z</time></trkpt><trkpt lat="42.0092294" lon="12.1679063"><ele>128.0</ele><time>2026-04-01T09:14:56.764Z</time></trkpt><trkpt lat="42.0093739" lon="12.1678454"><ele>129.75</ele><time>2026-04-01T09:14:57.767Z</time></trkpt><trkpt lat="42.0095163" lon="12.1677896"><ele>131.5</ele><time>2026-04-01T09:14:58.757Z</time></trkpt><trkpt lat="42.0096494" lon="12.1677424"><ele>133.25</ele><time>2026-04-01T09:14:59.759Z</time></trkpt><trkpt lat="42.0097852" lon="12.1676887"><ele>135.0</ele><time>2026-04-01T09:15:00.769Z</time></trkpt><trkpt lat="42.0099156" lon="12.1676192"><ele>135.66666666666666</ele><time>2026-04-01T09:15:01.762Z</time></trkpt><trkpt lat="42.0100642" lon="12.1675619"><ele>136.33333333333331</ele><time>2026-04-01T09:15:02.753Z</time></trkpt><trkpt lat="42.0102143" lon="12.1675003"><ele>137.0</ele><time>2026-04-01T09:15:03.753Z</time></trkpt><trkpt lat="42.0103467" lon="12.1674263"><ele>137.0</ele><time>2026-04-01T09:15:04.76Z</time></trkpt><trkpt lat="42.0104876" lon="12.1673706"><ele>137.0</ele><time>2026-04-01T09:15:05.753Z</time></trkpt><trkpt lat="42.0106368" lon="12.1673181"><ele>137.0</ele><time>2026-04-01T09:15:06.761Z</time></trkpt><trkpt lat="42.0107903" lon="12.1672603"><ele>138.66666666666666</ele><time>2026-04-01T09:15:07.761Z</time></trkpt><trkpt lat="42.0109347" lon="12.1671822"><ele>140.33333333333334</ele><time>2026-04-01T09:15:08.761Z</time></trkpt><trkpt lat="42.0110932" lon="12.1671059"><ele>142.0</ele><time>2026-04-01T09:15:09.76Z</time></trkpt><trkpt lat="42.0112459" lon="12.1670197"><ele>142.0</ele><time>2026-04-01T09:15:10.775Z</time></trkpt><trkpt lat="42.0114023" lon="12.1669416"><ele>142.0</ele><time>2026-04-01T09:15:11.753Z</time></trkpt><trkpt lat="42.0115631" lon="12.1668857"><ele>142.0</ele><time>2026-04-01T09:15:12.77Z</time></trkpt><trkpt lat="42.0117104" lon="12.1668475"><ele>142.66666666666669</ele><time>2026-04-01T09:15:13.762Z</time></trkpt><trkpt lat="42.0118671" lon="12.1668152"><ele>143.33333333333334</ele><time>2026-04-01T09:15:14.774Z</time></trkpt><trkpt lat="42.0120249" lon="12.166802"><ele>144.0</ele><time>2026-04-01T09:15:15.772Z</time></trkpt><trkpt lat="42.0121773" lon="12.166804"><ele>144.0</ele><time>2026-04-01T09:15:16.781Z</time></trkpt><trkpt lat="42.0123338" lon="12.1668135"><ele>144.0</ele><time>2026-04-01T09:15:17.785Z</time></trkpt><trkpt lat="42.0124843" lon="12.1668258"><ele>144.0</ele><time>2026-04-01T09:15:18.783Z</time></trkpt><trkpt lat="42.0126325" lon="12.1668407"><ele>144.0</ele><time>2026-04-01T09:15:19.782Z</time></trkpt><trkpt lat="42.0127771" lon="12.1668547"><ele>144.0</ele><time>2026-04-01T09:15:20.786Z</time></trkpt><trkpt lat="42.0129339" lon="12.1668671"><ele>144.0</ele><time>2026-04-01T09:15:21.782Z</time></trkpt><trkpt lat="42.0130963" lon="12.1668755"><ele>144.0</ele><time>2026-04-01T09:15:22.78Z</time></trkpt><trkpt lat="42.0132613" lon="12.166883"><ele>144.0</ele><time>2026-04-01T09:15:23.779Z</time></trkpt><trkpt lat="42.0134205" lon="12.1668802"><ele>144.0</ele><time>2026-04-01T09:15:24.782Z</time></trkpt><trkpt lat="42.0135783" lon="12.1668871"><ele>143.0</ele><time>2026-04-01T09:15:25.774Z</time></trkpt><trkpt lat="42.0137377" lon="12.1668999"><ele>142.0</ele><time>2026-04-01T09:15:26.774Z</time></trkpt><trkpt lat="42.0139117" lon="12.1668991"><ele>141.0</ele><time>2026-04-01T09:15:27.772Z</time></trkpt><trkpt lat="42.0140625" lon="12.1668965"><ele>141.33333333333334</ele><time>2026-04-01T09:15:28.772Z</time></trkpt><trkpt lat="42.0142203" lon="12.1668924"><ele>141.66666666666669</ele><time>2026-04-01T09:15:29.769Z</time></trkpt><trkpt lat="42.0143865" lon="12.1668628"><ele>142.0</ele><time>2026-04-01T09:15:30.769Z</time></trkpt><trkpt lat="42.0145432" lon="12.1668305"><ele>142.0</ele><time>2026-04-01T09:15:31.775Z</time></trkpt><trkpt lat="42.0147005" lon="12.1667549"><ele>142.0</ele><time>2026-04-01T09:15:32.778Z</time></trkpt><trkpt lat="42.0148654" lon="12.1666615"><ele>142.0</ele><time>2026-04-01T09:15:33.763Z</time></trkpt><trkpt lat="42.0150203" lon="12.1665717"><ele>142.33333333333334</ele><time>2026-04-01T09:15:34.77Z</time></trkpt><trkpt lat="42.0151658" lon="12.1664843"><ele>142.66666666666666</ele><time>2026-04-01T09:15:35.77Z</time></trkpt><trkpt lat="42.0153193" lon="12.1664278"><ele>143.0</ele><time>2026-04-01T09:15:36.768Z</time></trkpt><trkpt lat="42.0154967" lon="12.1663628"><ele>143.0</ele><time>2026-04-01T09:15:37.76Z</time></trkpt><trkpt lat="42.015646" lon="12.1663036"><ele>143.0</ele><time>2026-04-01T09:15:38.776Z</time></trkpt><trkpt lat="42.0158017" lon="12.1662758"><ele>143.0</ele><time>2026-04-01T09:15:39.766Z</time></trkpt><trkpt lat="42.0159553" lon="12.1662511"><ele>144.33333333333331</ele><time>2026-04-01T09:15:40.765Z</time></trkpt><trkpt lat="42.0161176" lon="12.1662581"><ele>145.66666666666666</ele><time>2026-04-01T09:15:41.784Z</time></trkpt><trkpt lat="42.0162804" lon="12.1662696"><ele>147.0</ele><time>2026-04-01T09:15:42.77Z</time></trkpt><trkpt lat="42.0164359" lon="12.1662856"><ele>147.0</ele><time>2026-04-01T09:15:43.765Z</time></trkpt><trkpt lat="42.0165965" lon="12.1663114"><ele>147.0</ele><time>2026-04-01T09:15:44.766Z</time></trkpt><trkpt lat="42.0167423" lon="12.1663589"><ele>147.0</ele><time>2026-04-01T09:15:45.771Z</time></trkpt><trkpt lat="42.0169019" lon="12.1663901"><ele>146.33333333333334</ele><time>2026-04-01T09:15:46.766Z</time></trkpt><trkpt lat="42.0170536" lon="12.1664317"><ele>145.66666666666669</ele><time>2026-04-01T09:15:47.771Z</time></trkpt><trkpt lat="42.0172232" lon="12.1664657"><ele>145.0</ele><time>2026-04-01T09:15:48.77Z</time></trkpt><trkpt lat="42.0173906" lon="12.1665027"><ele>147.0</ele><time>2026-04-01T09:15:49.776Z</time></trkpt><trkpt lat="42.0175481" lon="12.1665353"><ele>149.0</ele><time>2026-04-01T09:15:50.77Z</time></trkpt><trkpt lat="42.0177222" lon="12.1665632"><ele>151.0</ele><time>2026-04-01T09:15:51.776Z</time></trkpt><trkpt lat="42.017885" lon="12.1666034"><ele>151.0</ele><time>2026-04-01T09:15:52.772Z</time></trkpt><trkpt lat="42.0180437" lon="12.166633"><ele>151.0</ele><time>2026-04-01T09:15:53.777Z</time></trkpt><trkpt lat="42.0182029" lon="12.1666581"><ele>151.0</ele><time>2026-04-01T09:15:54.78Z</time></trkpt><trkpt lat="42.0183508" lon="12.1666899"><ele>151.33333333333334</ele><time>2026-04-01T09:15:55.781Z</time></trkpt><trkpt lat="42.0185025" lon="12.1667038"><ele>151.66666666666666</ele><time>2026-04-01T09:15:56.782Z</time></trkpt><trkpt lat="42.0186546" lon="12.1667142"><ele>152.0</ele><time>2026-04-01T09:15:57.775Z</time></trkpt><trkpt lat="42.0188072" lon="12.1666987"><ele>152.0</ele><time>2026-04-01T09:15:58.777Z</time></trkpt><trkpt lat="42.0189585" lon="12.1666807"><ele>152.0</ele><time>2026-04-01T09:15:59.781Z</time></trkpt><trkpt lat="42.0191099" lon="12.1666583"><ele>152.0</ele><time>2026-04-01T09:16:00.774Z</time></trkpt><trkpt lat="42.0192627" lon="12.1666443"><ele>152.33333333333331</ele><time>2026-04-01T09:16:01.774Z</time></trkpt><trkpt lat="42.0194202" lon="12.1665873"><ele>152.66666666666666</ele><time>2026-04-01T09:16:02.763Z</time></trkpt><trkpt lat="42.0195619" lon="12.1665305"><ele>153.0</ele><time>2026-04-01T09:16:03.774Z</time></trkpt><trkpt lat="42.0197224" lon="12.1664925"><ele>153.0</ele><time>2026-04-01T09:16:04.764Z</time></trkpt><trkpt lat="42.0198848" lon="12.1664497"><ele>153.0</ele><time>2026-04-01T09:16:05.768Z</time></trkpt><trkpt lat="42.0200476" lon="12.1664044"><ele>153.0</ele><time>2026-04-01T09:16:06.762Z</time></trkpt><trkpt lat="42.0202014" lon="12.1663612"><ele>154.33333333333334</ele><time>2026-04-01T09:16:07.768Z</time></trkpt><trkpt lat="42.0203579" lon="12.1663122"><ele>155.66666666666669</ele><time>2026-04-01T09:16:08.766Z</time></trkpt><trkpt lat="42.0205166" lon="12.1662737"><ele>157.0</ele><time>2026-04-01T09:16:09.769Z</time></trkpt><trkpt lat="42.0206791" lon="12.1662392"><ele>158.0</ele><time>2026-04-01T09:16:10.759Z</time></trkpt><trkpt lat="42.0208337" lon="12.1661978"><ele>159.0</ele><time>2026-04-01T09:16:11.774Z</time></trkpt><trkpt lat="42.0210005" lon="12.1661509"><ele>160.0</ele><time>2026-04-01T09:16:12.785Z</time></trkpt><trkpt lat="42.0211483" lon="12.1661128"><ele>160.0</ele><time>2026-04-01T09:16:13.766Z</time></trkpt><trkpt lat="42.0213097" lon="12.1660795"><ele>160.0</ele><time>2026-04-01T09:16:14.764Z</time></trkpt><trkpt lat="42.0214715" lon="12.1660649"><ele>160.0</ele><time>2026-04-01T09:16:15.767Z</time></trkpt><trkpt lat="42.021626" lon="12.1660211"><ele>161.25</ele><time>2026-04-01T09:16:16.767Z</time></trkpt><trkpt lat="42.0217704" lon="12.1660025"><ele>162.5</ele><time>2026-04-01T09:16:17.766Z</time></trkpt><trkpt lat="42.0219078" lon="12.1659402"><ele>163.75</ele><time>2026-04-01T09:16:18.764Z</time></trkpt><trkpt lat="42.0220377" lon="12.1658572"><ele>165.0</ele><time>2026-04-01T09:16:19.763Z</time></trkpt><trkpt lat="42.0221604" lon="12.1657544"><ele>164.66666666666666</ele><time>2026-04-01T09:16:20.76Z</time></trkpt><trkpt lat="42.0222583" lon="12.1656596"><ele>164.33333333333331</ele><time>2026-04-01T09:16:21.76Z</time></trkpt><trkpt lat="42.0223792" lon="12.1655026"><ele>164.0</ele><time>2026-04-01T09:16:22.763Z</time></trkpt><trkpt lat="42.0225129" lon="12.1653638"><ele>161.66666666666666</ele><time>2026-04-01T09:16:23.764Z</time></trkpt><trkpt lat="42.0226505" lon="12.1652098"><ele>159.33333333333334</ele><time>2026-04-01T09:16:24.759Z</time></trkpt><trkpt lat="42.0227981" lon="12.1650763"><ele>157.0</ele><time>2026-04-01T09:16:25.755Z</time></trkpt><trkpt lat="42.0229664" lon="12.1649633"><ele>157.0</ele><time>2026-04-01T09:16:26.762Z</time></trkpt><trkpt lat="42.0231393" lon="12.1648635"><ele>157.0</ele><time>2026-04-01T09:16:27.764Z</time></trkpt><trkpt lat="42.0233035" lon="12.1647872"><ele>157.0</ele><time>2026-04-01T09:16:28.784Z</time></trkpt><trkpt lat="42.0234754" lon="12.1647209"><ele>152.66666666666669</ele><time>2026-04-01T09:16:29.779Z</time></trkpt><trkpt lat="42.023639" lon="12.1646421"><ele>148.33333333333334</ele><time>2026-04-01T09:16:30.782Z</time></trkpt><trkpt lat="42.0238076" lon="12.1645696"><ele>144.0</ele><time>2026-04-01T09:16:31.781Z</time></trkpt><trkpt lat="42.0239717" lon="12.1645025"><ele>144.0</ele><time>2026-04-01T09:16:32.783Z</time></trkpt><trkpt lat="42.0241298" lon="12.1644246"><ele>144.0</ele><time>2026-04-01T09:16:33.782Z</time></trkpt><trkpt lat="42.0242741" lon="12.1643622"><ele>144.0</ele><time>2026-04-01T09:16:34.775Z</time></trkpt><trkpt lat="42.0243959" lon="12.164277"><ele>144.25</ele><time>2026-04-01T09:16:35.771Z</time></trkpt><trkpt lat="42.0245179" lon="12.1641544"><ele>144.5</ele><time>2026-04-01T09:16:36.772Z</time></trkpt><trkpt lat="42.0246188" lon="12.1640096"><ele>144.75</ele><time>2026-04-01T09:16:37.773Z</time></trkpt><trkpt lat="42.0247142" lon="12.1638608"><ele>145.0</ele><time>2026-04-01T09:16:38.761Z</time></trkpt><trkpt lat="42.0247946" lon="12.1636654"><ele>144.0</ele><time>2026-04-01T09:16:39.773Z</time></trkpt><trkpt lat="42.0248639" lon="12.1634547"><ele>143.0</ele><time>2026-04-01T09:16:40.773Z</time></trkpt><trkpt lat="42.0249279" lon="12.1632263"><ele>142.0</ele><time>2026-04-01T09:16:41.773Z</time></trkpt><trkpt lat="42.0249802" lon="12.1630305"><ele>145.66666666666669</ele><time>2026-04-01T09:16:42.769Z</time></trkpt><trkpt lat="42.0250389" lon="12.1628281"><ele>149.33333333333334</ele><time>2026-04-01T09:16:43.79Z</time></trkpt><trkpt lat="42.0251109" lon="12.1626169"><ele>153.0</ele><time>2026-04-01T09:16:44.773Z</time></trkpt><trkpt lat="42.0251802" lon="12.1623895"><ele>152.33333333333334</ele><time>2026-04-01T09:16:45.781Z</time></trkpt><trkpt lat="42.0252595" lon="12.1621786"><ele>151.66666666666669</ele><time>2026-04-01T09:16:46.774Z</time></trkpt><trkpt lat="42.0253323" lon="12.1619791"><ele>151.0</ele><time>2026-04-01T09:16:47.771Z</time></trkpt><trkpt lat="42.0254096" lon="12.1617845"><ele>151.0</ele><time>2026-04-01T09:16:48.77Z</time></trkpt><trkpt lat="42.0254936" lon="12.1615991"><ele>151.0</ele><time>2026-04-01T09:16:49.77Z</time></trkpt><trkpt lat="42.0255798" lon="12.161406"><ele>151.0</ele><time>2026-04-01T09:16:50.773Z</time></trkpt><trkpt lat="42.0256611" lon="12.1612076"><ele>151.0</ele><time>2026-04-01T09:16:51.769Z</time></trkpt><trkpt lat="42.0257516" lon="12.1610191"><ele>151.0</ele><time>2026-04-01T09:16:52.77Z</time></trkpt><trkpt lat="42.0258432" lon="12.1608378"><ele>151.0</ele><time>2026-04-01T09:16:53.77Z</time></trkpt><trkpt lat="42.0259267" lon="12.160661"><ele>155.33333333333334</ele><time>2026-04-01T09:16:54.771Z</time></trkpt><trkpt lat="42.0260028" lon="12.160482"><ele>159.66666666666666</ele><time>2026-04-01T09:16:55.776Z</time></trkpt><trkpt lat="42.0260551" lon="12.1602954"><ele>164.0</ele><time>2026-04-01T09:16:56.772Z</time></trkpt><trkpt lat="42.026099" lon="12.1600886"><ele>164.0</ele><time>2026-04-01T09:16:57.771Z</time></trkpt><trkpt lat="42.0261204" lon="12.1598773"><ele>164.0</ele><time>2026-04-01T09:16:58.775Z</time></trkpt><trkpt lat="42.0261342" lon="12.1596521"><ele>164.0</ele><time>2026-04-01T09:16:59.768Z</time></trkpt><trkpt lat="42.0261319" lon="12.1594128"><ele>164.33333333333331</ele><time>2026-04-01T09:17:00.766Z</time></trkpt><trkpt lat="42.0261373" lon="12.1591749"><ele>164.66666666666666</ele><time>2026-04-01T09:17:01.759Z</time></trkpt><trkpt lat="42.0261461" lon="12.1589181"><ele>165.0</ele><time>2026-04-01T09:17:02.76Z</time></trkpt><trkpt lat="42.0261753" lon="12.1586902"><ele>165.0</ele><time>2026-04-01T09:17:03.762Z</time></trkpt><trkpt lat="42.0262108" lon="12.1584727"><ele>165.0</ele><time>2026-04-01T09:17:04.747Z</time></trkpt><trkpt lat="42.0262702" lon="12.1582701"><ele>165.0</ele><time>2026-04-01T09:17:05.757Z</time></trkpt><trkpt lat="42.0263456" lon="12.1580814"><ele>164.33333333333334</ele><time>2026-04-01T09:17:06.76Z</time></trkpt><trkpt lat="42.026416" lon="12.1578869"><ele>163.66666666666669</ele><time>2026-04-01T09:17:07.767Z</time></trkpt><trkpt lat="42.0265042" lon="12.1577009"><ele>163.0</ele><time>2026-04-01T09:17:08.776Z</time></trkpt><trkpt lat="42.0265904" lon="12.1575091"><ele>160.66666666666669</ele><time>2026-04-01T09:17:09.773Z</time></trkpt><trkpt lat="42.0266676" lon="12.1573047"><ele>158.33333333333334</ele><time>2026-04-01T09:17:10.767Z</time></trkpt><trkpt lat="42.026751" lon="12.1571002"><ele>156.0</ele><time>2026-04-01T09:17:11.77Z</time></trkpt><trkpt lat="42.026826" lon="12.1568809"><ele>156.0</ele><time>2026-04-01T09:17:12.768Z</time></trkpt><trkpt lat="42.026897" lon="12.1566695"><ele>156.0</ele><time>2026-04-01T09:17:13.771Z</time></trkpt><trkpt lat="42.0269643" lon="12.1564607"><ele>156.0</ele><time>2026-04-01T09:17:14.784Z</time></trkpt><trkpt lat="42.0270313" lon="12.1562551"><ele>156.66666666666666</ele><time>2026-04-01T09:17:15.758Z</time></trkpt><trkpt lat="42.0270888" lon="12.1560619"><ele>157.33333333333331</ele><time>2026-04-01T09:17:16.76Z</time></trkpt><trkpt lat="42.0271294" lon="12.1558684"><ele>158.0</ele><time>2026-04-01T09:17:17.76Z</time></trkpt><trkpt lat="42.027196" lon="12.1556933"><ele>159.5</ele><time>2026-04-01T09:17:18.752Z</time></trkpt><trkpt lat="42.0272548" lon="12.1555399"><ele>161.0</ele><time>2026-04-01T09:17:19.754Z</time></trkpt><trkpt lat="42.0273048" lon="12.1553809"><ele>162.5</ele><time>2026-04-01T09:17:20.76Z</time></trkpt><trkpt lat="42.0273793" lon="12.1552389"><ele>164.0</ele><time>2026-04-01T09:17:21.765Z</time></trkpt><trkpt lat="42.0274661" lon="12.1551379"><ele>164.25</ele><time>2026-04-01T09:17:22.759Z</time></trkpt><trkpt lat="42.0275584" lon="12.1550846"><ele>164.5</ele><time>2026-04-01T09:17:23.76Z</time></trkpt><trkpt lat="42.0276734" lon="12.1550849"><ele>164.75</ele><time>2026-04-01T09:17:25.758Z</time></trkpt><trkpt lat="42.0277857" lon="12.1551019"><ele>165.0</ele><time>2026-04-01T09:17:27.765Z</time></trkpt><trkpt lat="42.0279199" lon="12.1551829"><ele>165.0</ele><time>2026-04-01T09:17:29.76Z</time></trkpt><trkpt lat="42.0280076" lon="12.155221"><ele>165.0</ele><time>2026-04-01T09:17:30.759Z</time></trkpt><trkpt lat="42.0280829" lon="12.1552612"><ele>165.0</ele><time>2026-04-01T09:17:31.763Z</time></trkpt><trkpt lat="42.0281787" lon="12.1553119"><ele>165.0</ele><time>2026-04-01T09:17:32.758Z</time></trkpt><trkpt lat="42.0282675" lon="12.1553654"><ele>165.0</ele><time>2026-04-01T09:17:33.754Z</time></trkpt><trkpt lat="42.0283994" lon="12.1554246"><ele>166.0</ele><time>2026-04-01T09:17:34.762Z</time></trkpt><trkpt lat="42.0285269" lon="12.1554788"><ele>167.0</ele><time>2026-04-01T09:17:35.759Z</time></trkpt><trkpt lat="42.0286755" lon="12.1555619"><ele>168.0</ele><time>2026-04-01T09:17:36.767Z</time></trkpt><trkpt lat="42.0288202" lon="12.1556461"><ele>167.66666666666666</ele><time>2026-04-01T09:17:37.767Z</time></trkpt><trkpt lat="42.0289746" lon="12.1557363"><ele>167.33333333333331</ele><time>2026-04-01T09:17:38.766Z</time></trkpt><trkpt lat="42.0291385" lon="12.1558156"><ele>167.0</ele><time>2026-04-01T09:17:39.769Z</time></trkpt><trkpt lat="42.0293061" lon="12.1558777"><ele>167.5</ele><time>2026-04-01T09:17:40.768Z</time></trkpt><trkpt lat="42.0294461" lon="12.155934"><ele>168.0</ele><time>2026-04-01T09:17:41.769Z</time></trkpt><trkpt lat="42.0295544" lon="12.1559847"><ele>168.5</ele><time>2026-04-01T09:17:42.767Z</time></trkpt><trkpt lat="42.0296512" lon="12.1560181"><ele>169.0</ele><time>2026-04-01T09:17:43.766Z</time></trkpt><trkpt lat="42.029756" lon="12.1560576"><ele>169.0</ele><time>2026-04-01T09:17:44.771Z</time></trkpt><trkpt lat="42.0298493" lon="12.1561052"><ele>169.0</ele><time>2026-04-01T09:17:45.786Z</time></trkpt><trkpt lat="42.029957" lon="12.1561563"><ele>169.0</ele><time>2026-04-01T09:17:46.771Z</time></trkpt><trkpt lat="42.0300527" lon="12.1562036"><ele>169.0</ele><time>2026-04-01T09:17:47.773Z</time></trkpt><trkpt lat="42.030158" lon="12.1562518"><ele>169.0</ele><time>2026-04-01T09:17:48.767Z</time></trkpt><trkpt lat="42.0302688" lon="12.156299"><ele>170.0</ele><time>2026-04-01T09:17:49.763Z</time></trkpt><trkpt lat="42.0303801" lon="12.1563475"><ele>171.0</ele><time>2026-04-01T09:17:50.767Z</time></trkpt><trkpt lat="42.0304926" lon="12.156402"><ele>172.0</ele><time>2026-04-01T09:17:51.769Z</time></trkpt><trkpt lat="42.0306126" lon="12.1564631"><ele>173.0</ele><time>2026-04-01T09:17:52.762Z</time></trkpt><trkpt lat="42.0307387" lon="12.1565224"><ele>174.33333333333331</ele><time>2026-04-01T09:17:53.763Z</time></trkpt><trkpt lat="42.0308635" lon="12.1565844"><ele>175.66666666666666</ele><time>2026-04-01T09:17:54.763Z</time></trkpt><trkpt lat="42.0311148" lon="12.1567391"><ele>177.0</ele><time>2026-04-01T09:17:56.747Z</time></trkpt><trkpt lat="42.0314029" lon="12.1568711"><ele>177.0</ele><time>2026-04-01T09:17:58.762Z</time></trkpt><trkpt lat="42.0315357" lon="12.1569369"><ele>177.0</ele><time>2026-04-01T09:17:59.764Z</time></trkpt><trkpt lat="42.0316788" lon="12.1569971"><ele>177.0</ele><time>2026-04-01T09:18:00.766Z</time></trkpt><trkpt lat="42.0318233" lon="12.1570481"><ele>177.0</ele><time>2026-04-01T09:18:01.77Z</time></trkpt><trkpt lat="42.0319673" lon="12.1571057"><ele>177.25</ele><time>2026-04-01T09:18:02.758Z</time></trkpt><trkpt lat="42.0321037" lon="12.1571765"><ele>177.5</ele><time>2026-04-01T09:18:03.763Z</time></trkpt><trkpt lat="42.0322296" lon="12.1572246"><ele>177.75</ele><time>2026-04-01T09:18:04.761Z</time></trkpt><trkpt lat="42.0323568" lon="12.1572775"><ele>178.0</ele><time>2026-04-01T09:18:05.762Z</time></trkpt><trkpt lat="42.0324697" lon="12.1573324"><ele>179.0</ele><time>2026-04-01T09:18:06.765Z</time></trkpt><trkpt lat="42.0325771" lon="12.1573793"><ele>180.0</ele><time>2026-04-01T09:18:07.764Z</time></trkpt><trkpt lat="42.0327062" lon="12.1574359"><ele>181.0</ele><time>2026-04-01T09:18:08.758Z</time></trkpt><trkpt lat="42.0328162" lon="12.1574947"><ele>182.0</ele><time>2026-04-01T09:18:09.771Z</time></trkpt><trkpt lat="42.0329083" lon="12.1575645"><ele>182.0</ele><time>2026-04-01T09:18:10.765Z</time></trkpt><trkpt lat="42.0330294" lon="12.1576436"><ele>182.0</ele><time>2026-04-01T09:18:11.768Z</time></trkpt><trkpt lat="42.0331616" lon="12.1577159"><ele>182.0</ele><time>2026-04-01T09:18:12.767Z</time></trkpt><trkpt lat="42.0332743" lon="12.1578128"><ele>182.0</ele><time>2026-04-01T09:18:13.768Z</time></trkpt><trkpt lat="42.0333838" lon="12.1578965"><ele>181.66666666666666</ele><time>2026-04-01T09:18:14.77Z</time></trkpt><trkpt lat="42.0334913" lon="12.1579951"><ele>181.33333333333334</ele><time>2026-04-01T09:18:15.772Z</time></trkpt><trkpt lat="42.0335852" lon="12.1581053"><ele>181.0</ele><time>2026-04-01T09:18:16.796Z</time></trkpt><trkpt lat="42.0337884" lon="12.1583457"><ele>182.25</ele><time>2026-04-01T09:18:18.761Z</time></trkpt><trkpt lat="42.0338802" lon="12.1584845"><ele>183.5</ele><time>2026-04-01T09:18:19.757Z</time></trkpt><trkpt lat="42.0339749" lon="12.158637"><ele>184.75</ele><time>2026-04-01T09:18:20.759Z</time></trkpt><trkpt lat="42.0340887" lon="12.1587828"><ele>186.0</ele><time>2026-04-01T09:18:21.759Z</time></trkpt><trkpt lat="42.0341944" lon="12.158907"><ele>187.75</ele><time>2026-04-01T09:18:22.759Z</time></trkpt><trkpt lat="42.0343007" lon="12.1590454"><ele>189.5</ele><time>2026-04-01T09:18:23.754Z</time></trkpt><trkpt lat="42.0343893" lon="12.159171"><ele>191.25</ele><time>2026-04-01T09:18:24.76Z</time></trkpt><trkpt lat="42.0344716" lon="12.1592858"><ele>193.0</ele><time>2026-04-01T09:18:25.759Z</time></trkpt><trkpt lat="42.0345376" lon="12.1593959"><ele>193.0</ele><time>2026-04-01T09:18:26.756Z</time></trkpt><trkpt lat="42.0345909" lon="12.1595045"><ele>193.0</ele><time>2026-04-01T09:18:27.753Z</time></trkpt><trkpt lat="42.0346765" lon="12.1596084"><ele>193.0</ele><time>2026-04-01T09:18:28.759Z</time></trkpt><trkpt lat="42.03476" lon="12.159719"><ele>193.0</ele><time>2026-04-01T09:18:29.75Z</time></trkpt><trkpt lat="42.0348388" lon="12.1598199"><ele>193.0</ele><time>2026-04-01T09:18:30.758Z</time></trkpt><trkpt lat="42.0349108" lon="12.159919"><ele>192.8</ele><time>2026-04-01T09:18:31.761Z</time></trkpt><trkpt lat="42.0349758" lon="12.1600324"><ele>192.60000000000002</ele><time>2026-04-01T09:18:32.76Z</time></trkpt><trkpt lat="42.0350406" lon="12.1601398"><ele>192.39999999999998</ele><time>2026-04-01T09:18:33.765Z</time></trkpt><trkpt lat="42.0351057" lon="12.1602512"><ele>192.2</ele><time>2026-04-01T09:18:34.761Z</time></trkpt><trkpt lat="42.0351621" lon="12.1603752"><ele>192.0</ele><time>2026-04-01T09:18:35.767Z</time></trkpt><trkpt lat="42.0352266" lon="12.160508"><ele>192.0</ele><time>2026-04-01T09:18:36.769Z</time></trkpt><trkpt lat="42.0352861" lon="12.1606473"><ele>192.0</ele><time>2026-04-01T09:18:37.769Z</time></trkpt><trkpt lat="42.0353462" lon="12.1607886"><ele>192.0</ele><time>2026-04-01T09:18:38.762Z</time></trkpt><trkpt lat="42.0354153" lon="12.160933"><ele>192.0</ele><time>2026-04-01T09:18:39.767Z</time></trkpt><trkpt lat="42.035489" lon="12.1610683"><ele>192.5</ele><time>2026-04-01T09:18:40.766Z</time></trkpt><trkpt lat="42.0355744" lon="12.1611804"><ele>193.0</ele><time>2026-04-01T09:18:41.771Z</time></trkpt><trkpt lat="42.0356628" lon="12.1612811"><ele>193.5</ele><time>2026-04-01T09:18:42.772Z</time></trkpt><trkpt lat="42.0357625" lon="12.1613786"><ele>194.0</ele><time>2026-04-01T09:18:43.776Z</time></trkpt><trkpt lat="42.0358712" lon="12.1614522"><ele>194.25</ele><time>2026-04-01T09:18:44.766Z</time></trkpt><trkpt lat="42.0359892" lon="12.1615142"><ele>194.5</ele><time>2026-04-01T09:18:45.756Z</time></trkpt><trkpt lat="42.0361101" lon="12.1615693"><ele>194.75</ele><time>2026-04-01T09:18:46.781Z</time></trkpt><trkpt lat="42.0362345" lon="12.161595"><ele>195.0</ele><time>2026-04-01T09:18:47.759Z</time></trkpt><trkpt lat="42.0363664" lon="12.1616203"><ele>195.0</ele><time>2026-04-01T09:18:48.768Z</time></trkpt><trkpt lat="42.0364874" lon="12.161635"><ele>195.0</ele><time>2026-04-01T09:18:49.761Z</time></trkpt><trkpt lat="42.0366135" lon="12.1616372"><ele>195.0</ele><time>2026-04-01T09:18:50.76Z</time></trkpt><trkpt lat="42.0367609" lon="12.1616458"><ele>195.0</ele><time>2026-04-01T09:18:51.771Z</time></trkpt><trkpt lat="42.0369122" lon="12.1616573"><ele>194.5</ele><time>2026-04-01T09:18:52.772Z</time></trkpt><trkpt lat="42.0370644" lon="12.1616572"><ele>194.0</ele><time>2026-04-01T09:18:53.763Z</time></trkpt><trkpt lat="42.0372139" lon="12.1616601"><ele>193.5</ele><time>2026-04-01T09:18:54.764Z</time></trkpt><trkpt lat="42.0373599" lon="12.1616721"><ele>193.0</ele><time>2026-04-01T09:18:55.757Z</time></trkpt><trkpt lat="42.0375017" lon="12.1616885"><ele>192.75</ele><time>2026-04-01T09:18:56.757Z</time></trkpt><trkpt lat="42.0376464" lon="12.1617156"><ele>192.5</ele><time>2026-04-01T09:18:57.765Z</time></trkpt><trkpt lat="42.0377899" lon="12.1617462"><ele>192.25</ele><time>2026-04-01T09:18:58.772Z</time></trkpt><trkpt lat="42.0379449" lon="12.1617673"><ele>192.0</ele><time>2026-04-01T09:18:59.773Z</time></trkpt><trkpt lat="42.038093" lon="12.1617721"><ele>192.0</ele><time>2026-04-01T09:19:00.778Z</time></trkpt><trkpt lat="42.0382513" lon="12.16179"><ele>192.0</ele><time>2026-04-01T09:19:01.775Z</time></trkpt><trkpt lat="42.0383992" lon="12.1618133"><ele>192.0</ele><time>2026-04-01T09:19:02.771Z</time></trkpt><trkpt lat="42.0385421" lon="12.1618199"><ele>192.33333333333331</ele><time>2026-04-01T09:19:03.763Z</time></trkpt><trkpt lat="42.0387038" lon="12.161859"><ele>192.66666666666666</ele><time>2026-04-01T09:19:04.772Z</time></trkpt><trkpt lat="42.0388555" lon="12.1618841"><ele>193.0</ele><time>2026-04-01T09:19:05.771Z</time></trkpt><trkpt lat="42.0390141" lon="12.1619041"><ele>193.25</ele><time>2026-04-01T09:19:06.769Z</time></trkpt><trkpt lat="42.0391619" lon="12.1619292"><ele>193.5</ele><time>2026-04-01T09:19:07.767Z</time></trkpt><trkpt lat="42.0392953" lon="12.1619472"><ele>193.75</ele><time>2026-04-01T09:19:08.773Z</time></trkpt><trkpt lat="42.0394311" lon="12.1619653"><ele>194.0</ele><time>2026-04-01T09:19:09.773Z</time></trkpt><trkpt lat="42.0395734" lon="12.1619589"><ele>194.0</ele><time>2026-04-01T09:19:10.766Z</time></trkpt><trkpt lat="42.0397048" lon="12.1619413"><ele>194.0</ele><time>2026-04-01T09:19:11.764Z</time></trkpt><trkpt lat="42.0398271" lon="12.1619096"><ele>194.0</ele><time>2026-04-01T09:19:12.776Z</time></trkpt><trkpt lat="42.0399727" lon="12.1618524"><ele>194.0</ele><time>2026-04-01T09:19:13.77Z</time></trkpt><trkpt lat="42.0401116" lon="12.1617762"><ele>194.66666666666669</ele><time>2026-04-01T09:19:14.777Z</time></trkpt><trkpt lat="42.0403835" lon="12.1616093"><ele>195.33333333333331</ele><time>2026-04-01T09:19:16.776Z</time></trkpt><trkpt lat="42.0405213" lon="12.1615335"><ele>196.0</ele><time>2026-04-01T09:19:17.787Z</time></trkpt><trkpt lat="42.0406547" lon="12.1614486"><ele>196.0</ele><time>2026-04-01T09:19:18.769Z</time></trkpt><trkpt lat="42.0407835" lon="12.161378"><ele>196.0</ele><time>2026-04-01T09:19:19.771Z</time></trkpt><trkpt lat="42.0408968" lon="12.1613223"><ele>196.0</ele><time>2026-04-01T09:19:20.769Z</time></trkpt><trkpt lat="42.0409805" lon="12.1612793"><ele>196.0</ele><time>2026-04-01T09:19:21.773Z</time></trkpt><trkpt lat="42.0410952" lon="12.1613228"><ele>196.33333333333331</ele><time>2026-04-01T09:19:23.762Z</time></trkpt><trkpt lat="42.0411527" lon="12.1614322"><ele>196.66666666666666</ele><time>2026-04-01T09:19:25.767Z</time></trkpt><trkpt lat="42.0411803" lon="12.1615146"><ele>197.0</ele><time>2026-04-01T09:19:26.765Z</time></trkpt><trkpt lat="42.0412145" lon="12.1615989"><ele>197.33333333333331</ele><time>2026-04-01T09:19:27.77Z</time></trkpt><trkpt lat="42.0412403" lon="12.1616837"><ele>197.66666666666666</ele><time>2026-04-01T09:19:29.766Z</time></trkpt><trkpt lat="42.0412194" lon="12.1616006"><ele>198.0</ele><time>2026-04-01T09:21:14.766Z</time></trkpt><trkpt lat="42.0412401" lon="12.1614989"><ele>198.25</ele><time>2026-04-01T09:21:17.746Z</time></trkpt><trkpt lat="42.0412798" lon="12.1614248"><ele>198.5</ele><time>2026-04-01T09:21:18.762Z</time></trkpt><trkpt lat="42.041317" lon="12.1613352"><ele>198.75</ele><time>2026-04-01T09:21:19.756Z</time></trkpt><trkpt lat="42.0413807" lon="12.16114"><ele>199.0</ele><time>2026-04-01T09:21:21.778Z</time></trkpt><trkpt lat="42.0415366" lon="12.1609984"><ele>200.0</ele><time>2026-04-01T09:21:23.753Z</time></trkpt><trkpt lat="42.0416869" lon="12.1609262"><ele>201.0</ele><time>2026-04-01T09:21:24.752Z</time></trkpt><trkpt lat="42.0418655" lon="12.1608507"><ele>202.0</ele><time>2026-04-01T09:21:25.754Z</time></trkpt><trkpt lat="42.0420534" lon="12.1607556"><ele>204.0</ele><time>2026-04-01T09:21:26.76Z</time></trkpt><trkpt lat="42.0422828" lon="12.1606371"><ele>206.0</ele><time>2026-04-01T09:21:27.763Z</time></trkpt><trkpt lat="42.04252" lon="12.160508"><ele>206.5</ele><time>2026-04-01T09:21:28.76Z</time></trkpt><trkpt lat="42.0427475" lon="12.1604038"><ele>207.0</ele><time>2026-04-01T09:21:29.757Z</time></trkpt><trkpt lat="42.0429555" lon="12.1603037"><ele>207.0</ele><time>2026-04-01T09:21:30.766Z</time></trkpt><trkpt lat="42.0431501" lon="12.1602016"><ele>207.0</ele><time>2026-04-01T09:21:31.768Z</time></trkpt><trkpt lat="42.0433505" lon="12.1600979"><ele>207.0</ele><time>2026-04-01T09:21:32.768Z</time></trkpt><trkpt lat="42.043541" lon="12.1600089"><ele>206.33333333333331</ele><time>2026-04-01T09:21:33.769Z</time></trkpt><trkpt lat="42.0437232" lon="12.1599017"><ele>205.66666666666666</ele><time>2026-04-01T09:21:34.757Z</time></trkpt><trkpt lat="42.0438955" lon="12.1597783"><ele>205.0</ele><time>2026-04-01T09:21:35.77Z</time></trkpt><trkpt lat="42.0440722" lon="12.159686"><ele>207.0</ele><time>2026-04-01T09:21:36.769Z</time></trkpt><trkpt lat="42.0442516" lon="12.159583"><ele>209.0</ele><time>2026-04-01T09:21:37.77Z</time></trkpt><trkpt lat="42.0444327" lon="12.1594962"><ele>211.0</ele><time>2026-04-01T09:21:38.77Z</time></trkpt><trkpt lat="42.0446033" lon="12.1594314"><ele>211.0</ele><time>2026-04-01T09:21:39.769Z</time></trkpt><trkpt lat="42.0447787" lon="12.1593789"><ele>211.0</ele><time>2026-04-01T09:21:40.769Z</time></trkpt><trkpt lat="42.0449646" lon="12.1593532"><ele>211.0</ele><time>2026-04-01T09:21:41.763Z</time></trkpt><trkpt lat="42.0451602" lon="12.1593372"><ele>212.0</ele><time>2026-04-01T09:21:42.763Z</time></trkpt><trkpt lat="42.0453482" lon="12.1593329"><ele>213.0</ele><time>2026-04-01T09:21:43.767Z</time></trkpt><trkpt lat="42.0455257" lon="12.1593567"><ele>214.0</ele><time>2026-04-01T09:21:44.768Z</time></trkpt><trkpt lat="42.0457108" lon="12.1593848"><ele>214.0</ele><time>2026-04-01T09:21:45.763Z</time></trkpt><trkpt lat="42.0458954" lon="12.1594374"><ele>214.0</ele><time>2026-04-01T09:21:46.77Z</time></trkpt><trkpt lat="42.0460884" lon="12.1595315"><ele>214.0</ele><time>2026-04-01T09:21:47.768Z</time></trkpt><trkpt lat="42.046245" lon="12.1596563"><ele>214.0</ele><time>2026-04-01T09:21:48.766Z</time></trkpt><trkpt lat="42.046394" lon="12.1598002"><ele>214.0</ele><time>2026-04-01T09:21:49.762Z</time></trkpt><trkpt lat="42.0465313" lon="12.1599707"><ele>214.0</ele><time>2026-04-01T09:21:50.765Z</time></trkpt><trkpt lat="42.046661" lon="12.1601404"><ele>212.66666666666666</ele><time>2026-04-01T09:21:51.766Z</time></trkpt><trkpt lat="42.0467867" lon="12.1603283"><ele>211.33333333333331</ele><time>2026-04-01T09:21:52.781Z</time></trkpt><trkpt lat="42.0469084" lon="12.160517"><ele>210.0</ele><time>2026-04-01T09:21:53.765Z</time></trkpt><trkpt lat="42.0470318" lon="12.1607119"><ele>208.33333333333331</ele><time>2026-04-01T09:21:54.77Z</time></trkpt><trkpt lat="42.0471529" lon="12.1609026"><ele>206.66666666666666</ele><time>2026-04-01T09:21:55.763Z</time></trkpt><trkpt lat="42.0472832" lon="12.1610831"><ele>205.0</ele><time>2026-04-01T09:21:56.763Z</time></trkpt><trkpt lat="42.0474085" lon="12.1612804"><ele>205.0</ele><time>2026-04-01T09:21:57.762Z</time></trkpt><trkpt lat="42.0475577" lon="12.1614618"><ele>205.0</ele><time>2026-04-01T09:21:58.763Z</time></trkpt><trkpt lat="42.0477011" lon="12.1616512"><ele>205.0</ele><time>2026-04-01T09:21:59.762Z</time></trkpt><trkpt lat="42.0478261" lon="12.1618447"><ele>205.0</ele><time>2026-04-01T09:22:00.763Z</time></trkpt><trkpt lat="42.0479651" lon="12.1620362"><ele>205.0</ele><time>2026-04-01T09:22:01.771Z</time></trkpt><trkpt lat="42.0481021" lon="12.1622202"><ele>205.0</ele><time>2026-04-01T09:22:02.766Z</time></trkpt><trkpt lat="42.0482327" lon="12.1623951"><ele>206.66666666666666</ele><time>2026-04-01T09:22:03.759Z</time></trkpt><trkpt lat="42.0483553" lon="12.1625799"><ele>208.33333333333331</ele><time>2026-04-01T09:22:04.767Z</time></trkpt><trkpt lat="42.0484762" lon="12.1627599"><ele>210.0</ele><time>2026-04-01T09:22:05.76Z</time></trkpt><trkpt lat="42.0485852" lon="12.1629619"><ele>210.0</ele><time>2026-04-01T09:22:06.773Z</time></trkpt><trkpt lat="42.0486738" lon="12.1631772"><ele>210.0</ele><time>2026-04-01T09:22:07.769Z</time></trkpt><trkpt lat="42.0487575" lon="12.1633942"><ele>210.0</ele><time>2026-04-01T09:22:08.764Z</time></trkpt><trkpt lat="42.0488312" lon="12.1636046"><ele>209.66666666666669</ele><time>2026-04-01T09:22:09.76Z</time></trkpt><trkpt lat="42.0488781" lon="12.1638204"><ele>209.33333333333334</ele><time>2026-04-01T09:22:10.767Z</time></trkpt><trkpt lat="42.0489436" lon="12.1640478"><ele>209.0</ele><time>2026-04-01T09:22:11.762Z</time></trkpt><trkpt lat="42.0490163" lon="12.1642911"><ele>210.0</ele><time>2026-04-01T09:22:12.754Z</time></trkpt><trkpt lat="42.0490675" lon="12.1645245"><ele>211.0</ele><time>2026-04-01T09:22:13.758Z</time></trkpt><trkpt lat="42.0491147" lon="12.1647525"><ele>212.0</ele><time>2026-04-01T09:22:14.759Z</time></trkpt><trkpt lat="42.0491798" lon="12.1649822"><ele>213.66666666666669</ele><time>2026-04-01T09:22:15.756Z</time></trkpt><trkpt lat="42.0492621" lon="12.1652139"><ele>215.33333333333331</ele><time>2026-04-01T09:22:16.764Z</time></trkpt><trkpt lat="42.0493621" lon="12.1654335"><ele>217.0</ele><time>2026-04-01T09:22:17.757Z</time></trkpt><trkpt lat="42.0494874" lon="12.165647"><ele>217.66666666666666</ele><time>2026-04-01T09:22:18.753Z</time></trkpt><trkpt lat="42.0496421" lon="12.165817"><ele>218.33333333333331</ele><time>2026-04-01T09:22:19.748Z</time></trkpt><trkpt lat="42.0498009" lon="12.165968"><ele>219.0</ele><time>2026-04-01T09:22:20.755Z</time></trkpt><trkpt lat="42.0499676" lon="12.1661298"><ele>219.66666666666669</ele><time>2026-04-01T09:22:21.761Z</time></trkpt><trkpt lat="42.0501392" lon="12.1662485"><ele>220.33333333333334</ele><time>2026-04-01T09:22:22.769Z</time></trkpt><trkpt lat="42.050338" lon="12.1663641"><ele>221.0</ele><time>2026-04-01T09:22:23.778Z</time></trkpt><trkpt lat="42.0505325" lon="12.1664695"><ele>221.33333333333334</ele><time>2026-04-01T09:22:24.765Z</time></trkpt><trkpt lat="42.0507232" lon="12.1665824"><ele>221.66666666666669</ele><time>2026-04-01T09:22:25.776Z</time></trkpt><trkpt lat="42.0509154" lon="12.1666983"><ele>222.0</ele><time>2026-04-01T09:22:26.775Z</time></trkpt><trkpt lat="42.0511034" lon="12.1668055"><ele>224.0</ele><time>2026-04-01T09:22:27.772Z</time></trkpt><trkpt lat="42.0512938" lon="12.1669273"><ele>226.0</ele><time>2026-04-01T09:22:28.773Z</time></trkpt><trkpt lat="42.0514767" lon="12.1670403"><ele>228.0</ele><time>2026-04-01T09:22:29.772Z</time></trkpt><trkpt lat="42.0516637" lon="12.1671572"><ele>229.66666666666669</ele><time>2026-04-01T09:22:30.762Z</time></trkpt><trkpt lat="42.0518368" lon="12.1672578"><ele>231.33333333333334</ele><time>2026-04-01T09:22:31.764Z</time></trkpt><trkpt lat="42.052019" lon="12.1673757"><ele>233.0</ele><time>2026-04-01T09:22:32.758Z</time></trkpt><trkpt lat="42.0522132" lon="12.1674927"><ele>233.0</ele><time>2026-04-01T09:22:33.755Z</time></trkpt><trkpt lat="42.0524" lon="12.1675884"><ele>233.0</ele><time>2026-04-01T09:22:34.76Z</time></trkpt><trkpt lat="42.0525654" lon="12.1676712"><ele>233.0</ele><time>2026-04-01T09:22:35.757Z</time></trkpt><trkpt lat="42.0527334" lon="12.1677647"><ele>234.66666666666669</ele><time>2026-04-01T09:22:36.754Z</time></trkpt><trkpt lat="42.0529222" lon="12.1678606"><ele>236.33333333333331</ele><time>2026-04-01T09:22:37.754Z</time></trkpt><trkpt lat="42.0531037" lon="12.1679557"><ele>238.0</ele><time>2026-04-01T09:22:38.756Z</time></trkpt><trkpt lat="42.0532875" lon="12.168047"><ele>239.0</ele><time>2026-04-01T09:22:39.755Z</time></trkpt><trkpt lat="42.053464" lon="12.1681353"><ele>240.0</ele><time>2026-04-01T09:22:40.76Z</time></trkpt><trkpt lat="42.0536768" lon="12.1682212"><ele>241.0</ele><time>2026-04-01T09:22:41.758Z</time></trkpt><trkpt lat="42.0538782" lon="12.1682806"><ele>241.0</ele><time>2026-04-01T09:22:42.754Z</time></trkpt><trkpt lat="42.0540854" lon="12.1683213"><ele>241.0</ele><time>2026-04-01T09:22:43.758Z</time></trkpt><trkpt lat="42.0542858" lon="12.1683791"><ele>241.0</ele><time>2026-04-01T09:22:44.762Z</time></trkpt><trkpt lat="42.0544996" lon="12.1684407"><ele>241.66666666666666</ele><time>2026-04-01T09:22:45.756Z</time></trkpt><trkpt lat="42.0546888" lon="12.1684571"><ele>242.33333333333331</ele><time>2026-04-01T09:22:46.761Z</time></trkpt><trkpt lat="42.0548945" lon="12.1684696"><ele>243.0</ele><time>2026-04-01T09:22:47.769Z</time></trkpt><trkpt lat="42.0551089" lon="12.1684897"><ele>244.0</ele><time>2026-04-01T09:22:48.763Z</time></trkpt><trkpt lat="42.0553141" lon="12.1685068"><ele>245.0</ele><time>2026-04-01T09:22:49.768Z</time></trkpt><trkpt lat="42.0555222" lon="12.1685338"><ele>246.0</ele><time>2026-04-01T09:22:50.764Z</time></trkpt><trkpt lat="42.0557336" lon="12.168566"><ele>247.0</ele><time>2026-04-01T09:22:51.765Z</time></trkpt><trkpt lat="42.0559353" lon="12.1685926"><ele>248.0</ele><time>2026-04-01T09:22:52.765Z</time></trkpt><trkpt lat="42.0561364" lon="12.1686204"><ele>249.0</ele><time>2026-04-01T09:22:53.77Z</time></trkpt><trkpt lat="42.056325" lon="12.1686352"><ele>249.0</ele><time>2026-04-01T09:22:54.807Z</time></trkpt><trkpt lat="42.0565092" lon="12.1686562"><ele>249.0</ele><time>2026-04-01T09:22:55.779Z</time></trkpt><trkpt lat="42.0566915" lon="12.1686767"><ele>249.0</ele><time>2026-04-01T09:22:56.779Z</time></trkpt><trkpt lat="42.0568685" lon="12.1686984"><ele>248.66666666666669</ele><time>2026-04-01T09:22:57.781Z</time></trkpt><trkpt lat="42.0570461" lon="12.1687187"><ele>248.33333333333334</ele><time>2026-04-01T09:22:58.782Z</time></trkpt><trkpt lat="42.0572026" lon="12.1687291"><ele>248.0</ele><time>2026-04-01T09:22:59.78Z</time></trkpt><trkpt lat="42.0573619" lon="12.1687475"><ele>247.66666666666669</ele><time>2026-04-01T09:23:00.784Z</time></trkpt><trkpt lat="42.0575187" lon="12.1687662"><ele>247.33333333333331</ele><time>2026-04-01T09:23:01.785Z</time></trkpt><trkpt lat="42.0576738" lon="12.1687944"><ele>247.0</ele><time>2026-04-01T09:23:02.776Z</time></trkpt><trkpt lat="42.0578298" lon="12.1688236"><ele>247.0</ele><time>2026-04-01T09:23:03.771Z</time></trkpt><trkpt lat="42.0579924" lon="12.1688543"><ele>247.0</ele><time>2026-04-01T09:23:04.768Z</time></trkpt><trkpt lat="42.0581629" lon="12.1689227"><ele>247.0</ele><time>2026-04-01T09:23:05.774Z</time></trkpt><trkpt lat="42.0583128" lon="12.169037"><ele>245.66666666666666</ele><time>2026-04-01T09:23:06.767Z</time></trkpt><trkpt lat="42.0584572" lon="12.1691608"><ele>244.33333333333331</ele><time>2026-04-01T09:23:07.761Z</time></trkpt><trkpt lat="42.0585993" lon="12.1693171"><ele>243.0</ele><time>2026-04-01T09:23:08.767Z</time></trkpt><trkpt lat="42.0587289" lon="12.1694841"><ele>243.0</ele><time>2026-04-01T09:23:09.767Z</time></trkpt><trkpt lat="42.0588507" lon="12.1696593"><ele>243.0</ele><time>2026-04-01T09:23:10.769Z</time></trkpt><trkpt lat="42.0589627" lon="12.1698503"><ele>243.0</ele><time>2026-04-01T09:23:11.763Z</time></trkpt><trkpt lat="42.0590452" lon="12.1700476"><ele>244.0</ele><time>2026-04-01T09:23:12.772Z</time></trkpt><trkpt lat="42.0591273" lon="12.170274"><ele>245.0</ele><time>2026-04-01T09:23:13.767Z</time></trkpt><trkpt lat="42.059206" lon="12.1704918"><ele>246.0</ele><time>2026-04-01T09:23:14.767Z</time></trkpt><trkpt lat="42.0592734" lon="12.1707101"><ele>246.0</ele><time>2026-04-01T09:23:15.762Z</time></trkpt><trkpt lat="42.0593481" lon="12.1709329"><ele>246.0</ele><time>2026-04-01T09:23:16.757Z</time></trkpt><trkpt lat="42.0594128" lon="12.1711639"><ele>246.0</ele><time>2026-04-01T09:23:17.76Z</time></trkpt><trkpt lat="42.0595054" lon="12.1713763"><ele>245.33333333333331</ele><time>2026-04-01T09:23:18.756Z</time></trkpt><trkpt lat="42.059593" lon="12.171602"><ele>244.66666666666666</ele><time>2026-04-01T09:23:19.759Z</time></trkpt><trkpt lat="42.0596813" lon="12.1718176"><ele>244.0</ele><time>2026-04-01T09:23:20.76Z</time></trkpt><trkpt lat="42.0597784" lon="12.1719997"><ele>244.0</ele><time>2026-04-01T09:23:21.767Z</time></trkpt><trkpt lat="42.059909" lon="12.1721592"><ele>244.0</ele><time>2026-04-01T09:23:22.763Z</time></trkpt><trkpt lat="42.0600558" lon="12.1722694"><ele>244.0</ele><time>2026-04-01T09:23:23.766Z</time></trkpt><trkpt lat="42.0602268" lon="12.1723612"><ele>245.33333333333331</ele><time>2026-04-01T09:23:24.779Z</time></trkpt><trkpt lat="42.060405" lon="12.1724226"><ele>246.66666666666669</ele><time>2026-04-01T09:23:25.774Z</time></trkpt><trkpt lat="42.0605943" lon="12.1724668"><ele>248.0</ele><time>2026-04-01T09:23:26.769Z</time></trkpt><trkpt lat="42.0607766" lon="12.1725018"><ele>249.66666666666669</ele><time>2026-04-01T09:23:27.771Z</time></trkpt><trkpt lat="42.0609504" lon="12.1725063"><ele>251.33333333333331</ele><time>2026-04-01T09:23:28.769Z</time></trkpt><trkpt lat="42.0611247" lon="12.1725038"><ele>253.0</ele><time>2026-04-01T09:23:29.772Z</time></trkpt><trkpt lat="42.0612995" lon="12.1724901"><ele>253.0</ele><time>2026-04-01T09:23:30.77Z</time></trkpt><trkpt lat="42.0614947" lon="12.1724654"><ele>253.0</ele><time>2026-04-01T09:23:31.775Z</time></trkpt><trkpt lat="42.061689" lon="12.1724287"><ele>253.0</ele><time>2026-04-01T09:23:32.768Z</time></trkpt><trkpt lat="42.0618871" lon="12.1723927"><ele>253.33333333333331</ele><time>2026-04-01T09:23:33.772Z</time></trkpt><trkpt lat="42.0620982" lon="12.1723668"><ele>253.66666666666669</ele><time>2026-04-01T09:23:34.771Z</time></trkpt><trkpt lat="42.0622932" lon="12.1723386"><ele>254.0</ele><time>2026-04-01T09:23:35.775Z</time></trkpt><trkpt lat="42.062499" lon="12.1723139"><ele>254.66666666666669</ele><time>2026-04-01T09:23:36.774Z</time></trkpt><trkpt lat="42.0627113" lon="12.1722908"><ele>255.33333333333331</ele><time>2026-04-01T09:23:37.776Z</time></trkpt><trkpt lat="42.0629155" lon="12.1722592"><ele>256.0</ele><time>2026-04-01T09:23:38.778Z</time></trkpt><trkpt lat="42.0631223" lon="12.1722296"><ele>255.66666666666666</ele><time>2026-04-01T09:23:39.776Z</time></trkpt><trkpt lat="42.063322" lon="12.1722117"><ele>255.33333333333331</ele><time>2026-04-01T09:23:40.774Z</time></trkpt><trkpt lat="42.0635225" lon="12.1721913"><ele>255.0</ele><time>2026-04-01T09:23:41.779Z</time></trkpt><trkpt lat="42.06372" lon="12.1721618"><ele>255.0</ele><time>2026-04-01T09:23:42.776Z</time></trkpt><trkpt lat="42.0639096" lon="12.1721399"><ele>255.0</ele><time>2026-04-01T09:23:43.781Z</time></trkpt><trkpt lat="42.0641042" lon="12.1721094"><ele>255.0</ele><time>2026-04-01T09:23:44.784Z</time></trkpt><trkpt lat="42.064298" lon="12.1720844"><ele>255.66666666666669</ele><time>2026-04-01T09:23:45.781Z</time></trkpt><trkpt lat="42.06449" lon="12.1720622"><ele>256.33333333333337</ele><time>2026-04-01T09:23:46.78Z</time></trkpt><trkpt lat="42.064681" lon="12.1720456"><ele>257.0</ele><time>2026-04-01T09:23:47.785Z</time></trkpt><trkpt lat="42.0648694" lon="12.1720267"><ele>257.6666666666667</ele><time>2026-04-01T09:23:48.785Z</time></trkpt><trkpt lat="42.0650666" lon="12.1720032"><ele>258.3333333333333</ele><time>2026-04-01T09:23:49.785Z</time></trkpt><trkpt lat="42.0652663" lon="12.1719716"><ele>259.0</ele><time>2026-04-01T09:23:50.781Z</time></trkpt><trkpt lat="42.0654642" lon="12.1719417"><ele>259.0</ele><time>2026-04-01T09:23:51.775Z</time></trkpt><trkpt lat="42.0656545" lon="12.1718903"><ele>259.0</ele><time>2026-04-01T09:23:52.779Z</time></trkpt><trkpt lat="42.0658584" lon="12.1718657"><ele>259.0</ele><time>2026-04-01T09:23:53.774Z</time></trkpt><trkpt lat="42.0660601" lon="12.1718448"><ele>260.0</ele><time>2026-04-01T09:23:54.776Z</time></trkpt><trkpt lat="42.0662723" lon="12.1718215"><ele>261.0</ele><time>2026-04-01T09:23:55.79Z</time></trkpt><trkpt lat="42.0664729" lon="12.1718005"><ele>262.0</ele><time>2026-04-01T09:23:56.775Z</time></trkpt><trkpt lat="42.0666765" lon="12.1717514"><ele>263.0</ele><time>2026-04-01T09:23:57.775Z</time></trkpt><trkpt lat="42.0668754" lon="12.1717126"><ele>264.0</ele><time>2026-04-01T09:23:58.771Z</time></trkpt><trkpt lat="42.0670679" lon="12.1716976"><ele>265.0</ele><time>2026-04-01T09:23:59.771Z</time></trkpt><trkpt lat="42.0672443" lon="12.1716929"><ele>265.0</ele><time>2026-04-01T09:24:00.779Z</time></trkpt><trkpt lat="42.0674257" lon="12.171657"><ele>265.0</ele><time>2026-04-01T09:24:01.776Z</time></trkpt><trkpt lat="42.0676056" lon="12.1716424"><ele>265.0</ele><time>2026-04-01T09:24:02.779Z</time></trkpt><trkpt lat="42.0677918" lon="12.1716024"><ele>267.0</ele><time>2026-04-01T09:24:03.776Z</time></trkpt><trkpt lat="42.0679537" lon="12.1715043"><ele>269.0</ele><time>2026-04-01T09:24:04.767Z</time></trkpt><trkpt lat="42.0681057" lon="12.17139"><ele>271.0</ele><time>2026-04-01T09:24:05.767Z</time></trkpt><trkpt lat="42.0682687" lon="12.171249"><ele>270.0</ele><time>2026-04-01T09:24:06.774Z</time></trkpt><trkpt lat="42.068423" lon="12.1711102"><ele>269.0</ele><time>2026-04-01T09:24:07.772Z</time></trkpt><trkpt lat="42.0685838" lon="12.1709761"><ele>268.0</ele><time>2026-04-01T09:24:08.768Z</time></trkpt><trkpt lat="42.0687463" lon="12.1708277"><ele>268.3333333333333</ele><time>2026-04-01T09:24:09.764Z</time></trkpt><trkpt lat="42.0689022" lon="12.1706906"><ele>268.6666666666667</ele><time>2026-04-01T09:24:10.771Z</time></trkpt><trkpt lat="42.0690571" lon="12.1705867"><ele>269.0</ele><time>2026-04-01T09:24:11.764Z</time></trkpt><trkpt lat="42.0692005" lon="12.1704868"><ele>268.0</ele><time>2026-04-01T09:24:12.766Z</time></trkpt><trkpt lat="42.0693435" lon="12.1703587"><ele>267.0</ele><time>2026-04-01T09:24:13.757Z</time></trkpt><trkpt lat="42.0694896" lon="12.1703012"><ele>266.0</ele><time>2026-04-01T09:24:14.764Z</time></trkpt><trkpt lat="42.0696475" lon="12.1702568"><ele>266.0</ele><time>2026-04-01T09:24:15.754Z</time></trkpt><trkpt lat="42.0697989" lon="12.1702254"><ele>266.0</ele><time>2026-04-01T09:24:16.754Z</time></trkpt><trkpt lat="42.069954" lon="12.1701989"><ele>266.0</ele><time>2026-04-01T09:24:17.76Z</time></trkpt><trkpt lat="42.0701102" lon="12.1701837"><ele>265.6666666666667</ele><time>2026-04-01T09:24:18.766Z</time></trkpt><trkpt lat="42.0702806" lon="12.1701715"><ele>265.3333333333333</ele><time>2026-04-01T09:24:19.777Z</time></trkpt><trkpt lat="42.0704642" lon="12.1701732"><ele>265.0</ele><time>2026-04-01T09:24:20.78Z</time></trkpt><trkpt lat="42.0706336" lon="12.170176"><ele>265.0</ele><time>2026-04-01T09:24:21.775Z</time></trkpt><trkpt lat="42.0708093" lon="12.1701756"><ele>265.0</ele><time>2026-04-01T09:24:22.777Z</time></trkpt><trkpt lat="42.0709949" lon="12.1701879"><ele>265.0</ele><time>2026-04-01T09:24:23.775Z</time></trkpt><trkpt lat="42.071171" lon="12.1701958"><ele>265.0</ele><time>2026-04-01T09:24:24.775Z</time></trkpt><trkpt lat="42.0713545" lon="12.1702055"><ele>265.0</ele><time>2026-04-01T09:24:25.775Z</time></trkpt><trkpt lat="42.0715342" lon="12.1702204"><ele>265.0</ele><time>2026-04-01T09:24:26.792Z</time></trkpt><trkpt lat="42.0717121" lon="12.1702224"><ele>266.0</ele><time>2026-04-01T09:24:27.778Z</time></trkpt><trkpt lat="42.0719003" lon="12.1702448"><ele>267.0</ele><time>2026-04-01T09:24:28.775Z</time></trkpt><trkpt lat="42.0720891" lon="12.1702563"><ele>268.0</ele><time>2026-04-01T09:24:29.771Z</time></trkpt><trkpt lat="42.0722777" lon="12.1702614"><ele>268.66666666666663</ele><time>2026-04-01T09:24:30.76Z</time></trkpt><trkpt lat="42.0724791" lon="12.1702737"><ele>269.3333333333333</ele><time>2026-04-01T09:24:31.777Z</time></trkpt><trkpt lat="42.072677" lon="12.1703154"><ele>270.0</ele><time>2026-04-01T09:24:32.768Z</time></trkpt><trkpt lat="42.0728609" lon="12.1703411"><ele>270.0</ele><time>2026-04-01T09:24:33.769Z</time></trkpt><trkpt lat="42.0730494" lon="12.1703535"><ele>270.0</ele><time>2026-04-01T09:24:34.765Z</time></trkpt><trkpt lat="42.0732246" lon="12.1703497"><ele>270.0</ele><time>2026-04-01T09:24:35.768Z</time></trkpt><trkpt lat="42.0734131" lon="12.1703663"><ele>270.3333333333333</ele><time>2026-04-01T09:24:36.769Z</time></trkpt><trkpt lat="42.0735967" lon="12.1703963"><ele>270.66666666666663</ele><time>2026-04-01T09:24:37.762Z</time></trkpt><trkpt lat="42.0737888" lon="12.1704287"><ele>271.0</ele><time>2026-04-01T09:24:38.765Z</time></trkpt><trkpt lat="42.0739928" lon="12.1704345"><ele>271.0</ele><time>2026-04-01T09:24:39.762Z</time></trkpt><trkpt lat="42.0741592" lon="12.1704631"><ele>271.0</ele><time>2026-04-01T09:24:40.767Z</time></trkpt><trkpt lat="42.0743117" lon="12.1704895"><ele>271.0</ele><time>2026-04-01T09:24:41.756Z</time></trkpt><trkpt lat="42.0744924" lon="12.1704927"><ele>271.0</ele><time>2026-04-01T09:24:42.768Z</time></trkpt><trkpt lat="42.0746792" lon="12.1704994"><ele>271.0</ele><time>2026-04-01T09:24:43.766Z</time></trkpt><trkpt lat="42.0748856" lon="12.1705157"><ele>271.0</ele><time>2026-04-01T09:24:44.77Z</time></trkpt><trkpt lat="42.0750835" lon="12.1705297"><ele>270.66666666666663</ele><time>2026-04-01T09:24:45.769Z</time></trkpt><trkpt lat="42.0752779" lon="12.1705394"><ele>270.3333333333333</ele><time>2026-04-01T09:24:46.771Z</time></trkpt><trkpt lat="42.0754682" lon="12.1705531"><ele>270.0</ele><time>2026-04-01T09:24:47.776Z</time></trkpt><trkpt lat="42.0756671" lon="12.1705686"><ele>269.3333333333333</ele><time>2026-04-01T09:24:48.77Z</time></trkpt><trkpt lat="42.0758595" lon="12.1705767"><ele>268.66666666666663</ele><time>2026-04-01T09:24:49.77Z</time></trkpt><trkpt lat="42.0760511" lon="12.1706029"><ele>268.0</ele><time>2026-04-01T09:24:50.762Z</time></trkpt><trkpt lat="42.0762349" lon="12.1706141"><ele>268.0</ele><time>2026-04-01T09:24:51.771Z</time></trkpt><trkpt lat="42.0763916" lon="12.1706421"><ele>268.0</ele><time>2026-04-01T09:24:52.77Z</time></trkpt><trkpt lat="42.0765484" lon="12.1706633"><ele>268.0</ele><time>2026-04-01T09:24:53.758Z</time></trkpt><trkpt lat="42.076684" lon="12.1706793"><ele>270.0</ele><time>2026-04-01T09:24:54.762Z</time></trkpt><trkpt lat="42.0768166" lon="12.1707357"><ele>272.0</ele><time>2026-04-01T09:24:55.767Z</time></trkpt><trkpt lat="42.0769309" lon="12.1708095"><ele>274.0</ele><time>2026-04-01T09:24:56.773Z</time></trkpt><trkpt lat="42.0770324" lon="12.1708952"><ele>276.0</ele><time>2026-04-01T09:24:57.782Z</time></trkpt><trkpt lat="42.0771136" lon="12.1710132"><ele>276.0</ele><time>2026-04-01T09:24:58.764Z</time></trkpt><trkpt lat="42.0771756" lon="12.1711487"><ele>276.0</ele><time>2026-04-01T09:24:59.764Z</time></trkpt><trkpt lat="42.077238" lon="12.1713217"><ele>276.0</ele><time>2026-04-01T09:25:00.766Z</time></trkpt><trkpt lat="42.0773144" lon="12.1714933"><ele>276.0</ele><time>2026-04-01T09:25:01.767Z</time></trkpt><trkpt lat="42.0773815" lon="12.1716712"><ele>275.0</ele><time>2026-04-01T09:25:02.765Z</time></trkpt><trkpt lat="42.0774455" lon="12.1718647"><ele>274.0</ele><time>2026-04-01T09:25:03.758Z</time></trkpt><trkpt lat="42.077522" lon="12.1720679"><ele>273.0</ele><time>2026-04-01T09:25:04.761Z</time></trkpt><trkpt lat="42.077608" lon="12.1722568"><ele>272.0</ele><time>2026-04-01T09:25:05.758Z</time></trkpt><trkpt lat="42.0776894" lon="12.1724506"><ele>271.0</ele><time>2026-04-01T09:25:06.756Z</time></trkpt><trkpt lat="42.0777775" lon="12.1726478"><ele>270.0</ele><time>2026-04-01T09:25:07.763Z</time></trkpt><trkpt lat="42.077863" lon="12.1728555"><ele>270.0</ele><time>2026-04-01T09:25:08.758Z</time></trkpt><trkpt lat="42.0779685" lon="12.1730649"><ele>270.0</ele><time>2026-04-01T09:25:09.759Z</time></trkpt><trkpt lat="42.0780822" lon="12.1732787"><ele>270.0</ele><time>2026-04-01T09:25:10.766Z</time></trkpt><trkpt lat="42.0781942" lon="12.1735013"><ele>270.0</ele><time>2026-04-01T09:25:11.766Z</time></trkpt><trkpt lat="42.07831" lon="12.1737267"><ele>270.0</ele><time>2026-04-01T09:25:12.77Z</time></trkpt><trkpt lat="42.0784143" lon="12.1739697"><ele>270.0</ele><time>2026-04-01T09:25:13.772Z</time></trkpt><trkpt lat="42.0785165" lon="12.1741997"><ele>270.0</ele><time>2026-04-01T09:25:14.771Z</time></trkpt><trkpt lat="42.0786216" lon="12.1744328"><ele>270.0</ele><time>2026-04-01T09:25:15.773Z</time></trkpt><trkpt lat="42.0787342" lon="12.1746552"><ele>270.0</ele><time>2026-04-01T09:25:16.773Z</time></trkpt><trkpt lat="42.0788464" lon="12.1748865"><ele>269.0</ele><time>2026-04-01T09:25:17.771Z</time></trkpt><trkpt lat="42.078954" lon="12.1751159"><ele>268.0</ele><time>2026-04-01T09:25:18.768Z</time></trkpt><trkpt lat="42.0790536" lon="12.175352"><ele>267.0</ele><time>2026-04-01T09:25:19.769Z</time></trkpt><trkpt lat="42.079154" lon="12.1755842"><ele>266.0</ele><time>2026-04-01T09:25:20.77Z</time></trkpt><trkpt lat="42.0792575" lon="12.1758177"><ele>265.0</ele><time>2026-04-01T09:25:21.775Z</time></trkpt><trkpt lat="42.0793581" lon="12.1760566"><ele>264.0</ele><time>2026-04-01T09:25:22.774Z</time></trkpt><trkpt lat="42.0794587" lon="12.1762822"><ele>264.0</ele><time>2026-04-01T09:25:23.774Z</time></trkpt><trkpt lat="42.0795584" lon="12.1765045"><ele>264.0</ele><time>2026-04-01T09:25:24.772Z</time></trkpt><trkpt lat="42.0796598" lon="12.1767348"><ele>264.0</ele><time>2026-04-01T09:25:25.774Z</time></trkpt><trkpt lat="42.0797704" lon="12.176955"><ele>263.3333333333333</ele><time>2026-04-01T09:25:26.776Z</time></trkpt><trkpt lat="42.0798715" lon="12.1771814"><ele>262.66666666666663</ele><time>2026-04-01T09:25:27.775Z</time></trkpt><trkpt lat="42.0799781" lon="12.1774006"><ele>262.0</ele><time>2026-04-01T09:25:28.79Z</time></trkpt><trkpt lat="42.0800775" lon="12.1776243"><ele>262.0</ele><time>2026-04-01T09:25:29.774Z</time></trkpt><trkpt lat="42.0801669" lon="12.1778476"><ele>262.0</ele><time>2026-04-01T09:25:30.778Z</time></trkpt><trkpt lat="42.0802652" lon="12.1780753"><ele>262.0</ele><time>2026-04-01T09:25:31.778Z</time></trkpt><trkpt lat="42.080367" lon="12.1783001"><ele>262.0</ele><time>2026-04-01T09:25:32.775Z</time></trkpt><trkpt lat="42.0804672" lon="12.1785194"><ele>262.0</ele><time>2026-04-01T09:25:33.772Z</time></trkpt><trkpt lat="42.0805688" lon="12.178744"><ele>262.0</ele><time>2026-04-01T09:25:34.772Z</time></trkpt><trkpt lat="42.0806618" lon="12.1789686"><ele>262.0</ele><time>2026-04-01T09:25:35.772Z</time></trkpt><trkpt lat="42.0807547" lon="12.179189"><ele>262.0</ele><time>2026-04-01T09:25:36.772Z</time></trkpt><trkpt lat="42.0808484" lon="12.1794037"><ele>262.0</ele><time>2026-04-01T09:25:37.772Z</time></trkpt><trkpt lat="42.0809562" lon="12.1796121"><ele>262.0</ele><time>2026-04-01T09:25:38.77Z</time></trkpt><trkpt lat="42.0810665" lon="12.1798188"><ele>262.0</ele><time>2026-04-01T09:25:39.772Z</time></trkpt><trkpt lat="42.0811927" lon="12.1800029"><ele>262.0</ele><time>2026-04-01T09:25:40.769Z</time></trkpt><trkpt lat="42.0813335" lon="12.1801707"><ele>261.66666666666663</ele><time>2026-04-01T09:25:41.771Z</time></trkpt><trkpt lat="42.0814828" lon="12.1803102"><ele>261.3333333333333</ele><time>2026-04-01T09:25:42.757Z</time></trkpt><trkpt lat="42.0816448" lon="12.180435"><ele>261.0</ele><time>2026-04-01T09:25:43.758Z</time></trkpt><trkpt lat="42.0818085" lon="12.1805401"><ele>261.6666666666667</ele><time>2026-04-01T09:25:44.761Z</time></trkpt><trkpt lat="42.0819909" lon="12.1806262"><ele>262.33333333333337</ele><time>2026-04-01T09:25:45.761Z</time></trkpt><trkpt lat="42.0821956" lon="12.1806957"><ele>263.0</ele><time>2026-04-01T09:25:46.758Z</time></trkpt><trkpt lat="42.082375" lon="12.1807632"><ele>263.0</ele><time>2026-04-01T09:25:47.766Z</time></trkpt><trkpt lat="42.0825774" lon="12.1807919"><ele>263.0</ele><time>2026-04-01T09:25:48.762Z</time></trkpt><trkpt lat="42.0827911" lon="12.1808149"><ele>263.0</ele><time>2026-04-01T09:25:49.76Z</time></trkpt><trkpt lat="42.0830031" lon="12.1808337"><ele>263.0</ele><time>2026-04-01T09:25:50.759Z</time></trkpt><trkpt lat="42.0832107" lon="12.1808454"><ele>263.0</ele><time>2026-04-01T09:25:51.76Z</time></trkpt><trkpt lat="42.0834216" lon="12.180874"><ele>263.0</ele><time>2026-04-01T09:25:52.758Z</time></trkpt><trkpt lat="42.083643" lon="12.1809046"><ele>262.33333333333337</ele><time>2026-04-01T09:25:53.752Z</time></trkpt><trkpt lat="42.0838484" lon="12.1809884"><ele>261.6666666666667</ele><time>2026-04-01T09:25:54.755Z</time></trkpt><trkpt lat="42.0840238" lon="12.1810616"><ele>261.0</ele><time>2026-04-01T09:25:55.75Z</time></trkpt><trkpt lat="42.0842037" lon="12.1811614"><ele>260.0</ele><time>2026-04-01T09:25:56.753Z</time></trkpt><trkpt lat="42.0843834" lon="12.1812952"><ele>259.0</ele><time>2026-04-01T09:25:57.75Z</time></trkpt><trkpt lat="42.0845878" lon="12.1814564"><ele>258.0</ele><time>2026-04-01T09:25:58.749Z</time></trkpt><trkpt lat="42.0847343" lon="12.1816273"><ele>258.0</ele><time>2026-04-01T09:25:59.763Z</time></trkpt><trkpt lat="42.0848911" lon="12.1817806"><ele>258.0</ele><time>2026-04-01T09:26:00.751Z</time></trkpt><trkpt lat="42.0850404" lon="12.1819192"><ele>258.0</ele><time>2026-04-01T09:26:01.745Z</time></trkpt><trkpt lat="42.0851539" lon="12.1821208"><ele>257.0</ele><time>2026-04-01T09:26:02.754Z</time></trkpt><trkpt lat="42.0852769" lon="12.1822881"><ele>256.0</ele><time>2026-04-01T09:26:03.749Z</time></trkpt><trkpt lat="42.0854093" lon="12.1824454"><ele>255.0</ele><time>2026-04-01T09:26:04.754Z</time></trkpt><trkpt lat="42.0855564" lon="12.1825849"><ele>255.0</ele><time>2026-04-01T09:26:05.76Z</time></trkpt><trkpt lat="42.0857087" lon="12.1827281"><ele>255.0</ele><time>2026-04-01T09:26:06.764Z</time></trkpt><trkpt lat="42.0858661" lon="12.1828743"><ele>255.0</ele><time>2026-04-01T09:26:07.761Z</time></trkpt><trkpt lat="42.086028" lon="12.183017"><ele>252.66666666666669</ele><time>2026-04-01T09:26:08.763Z</time></trkpt><trkpt lat="42.0861836" lon="12.1831416"><ele>250.33333333333334</ele><time>2026-04-01T09:26:09.758Z</time></trkpt><trkpt lat="42.0863132" lon="12.1832593"><ele>248.0</ele><time>2026-04-01T09:26:10.766Z</time></trkpt><trkpt lat="42.0864504" lon="12.1833914"><ele>248.0</ele><time>2026-04-01T09:26:11.761Z</time></trkpt><trkpt lat="42.0865871" lon="12.1835128"><ele>248.0</ele><time>2026-04-01T09:26:12.761Z</time></trkpt><trkpt lat="42.0867044" lon="12.1835952"><ele>248.0</ele><time>2026-04-01T09:26:13.757Z</time></trkpt><trkpt lat="42.0868055" lon="12.1837069"><ele>248.0</ele><time>2026-04-01T09:26:14.758Z</time></trkpt><trkpt lat="42.086869" lon="12.1837792"><ele>247.50000000000003</ele><time>2026-04-01T09:26:15.756Z</time></trkpt><trkpt lat="42.0869329" lon="12.1838638"><ele>247.0</ele><time>2026-04-01T09:26:16.76Z</time></trkpt><trkpt lat="42.0869814" lon="12.1839324"><ele>246.5</ele><time>2026-04-01T09:26:18.755Z</time></trkpt><trkpt lat="42.0870445" lon="12.1839416"><ele>246.0</ele><time>2026-04-01T09:26:20.761Z</time></trkpt><trkpt lat="42.0871241" lon="12.1839926"><ele>245.50000000000003</ele><time>2026-04-01T09:26:22.772Z</time></trkpt><trkpt lat="42.087181" lon="12.1840469"><ele>245.0</ele><time>2026-04-01T09:26:24.768Z</time></trkpt><trkpt lat="42.0872463" lon="12.1841158"><ele>244.8</ele><time>2026-04-01T09:26:27.775Z</time></trkpt><trkpt lat="42.0872927" lon="12.184176"><ele>244.6</ele><time>2026-04-01T09:26:30.782Z</time></trkpt><trkpt lat="42.0872674" lon="12.1842612"><ele>244.39999999999998</ele><time>2026-04-01T09:26:34.756Z</time></trkpt><trkpt lat="42.0871675" lon="12.1842306"><ele>244.2</ele><time>2026-04-01T09:28:40.772Z</time></trkpt><trkpt lat="42.0870679" lon="12.1842425"><ele>244.0</ele><time>2026-04-01T09:28:41.763Z</time></trkpt><trkpt lat="42.0869265" lon="12.1842621"><ele>244.0</ele><time>2026-04-01T09:28:42.756Z</time></trkpt><trkpt lat="42.0867799" lon="12.1842969"><ele>244.0</ele><time>2026-04-01T09:28:43.761Z</time></trkpt><trkpt lat="42.0866281" lon="12.1843347"><ele>244.0</ele><time>2026-04-01T09:28:44.771Z</time></trkpt><trkpt lat="42.0864756" lon="12.1843665"><ele>244.0</ele><time>2026-04-01T09:28:45.762Z</time></trkpt><trkpt lat="42.0863058" lon="12.1843965"><ele>244.0</ele><time>2026-04-01T09:28:46.761Z</time></trkpt><trkpt lat="42.0861423" lon="12.1844402"><ele>244.0</ele><time>2026-04-01T09:28:47.763Z</time></trkpt><trkpt lat="42.0859842" lon="12.1844832"><ele>244.0</ele><time>2026-04-01T09:28:48.765Z</time></trkpt><trkpt lat="42.0858375" lon="12.1845093"><ele>244.0</ele><time>2026-04-01T09:28:49.77Z</time></trkpt><trkpt lat="42.0857048" lon="12.1845274"><ele>244.0</ele><time>2026-04-01T09:28:50.762Z</time></trkpt><trkpt lat="42.0855779" lon="12.1845508"><ele>244.0</ele><time>2026-04-01T09:28:51.762Z</time></trkpt><trkpt lat="42.085455" lon="12.1845789"><ele>245.75</ele><time>2026-04-01T09:28:52.767Z</time></trkpt><trkpt lat="42.0853223" lon="12.1846106"><ele>247.5</ele><time>2026-04-01T09:28:53.761Z</time></trkpt><trkpt lat="42.085204" lon="12.184668"><ele>249.25</ele><time>2026-04-01T09:28:54.769Z</time></trkpt><trkpt lat="42.0850945" lon="12.1847677"><ele>251.0</ele><time>2026-04-01T09:28:55.761Z</time></trkpt><trkpt lat="42.0849931" lon="12.1848736"><ele>253.25</ele><time>2026-04-01T09:28:56.763Z</time></trkpt><trkpt lat="42.0848882" lon="12.1849771"><ele>255.5</ele><time>2026-04-01T09:28:57.766Z</time></trkpt><trkpt lat="42.0847712" lon="12.1850699"><ele>257.75</ele><time>2026-04-01T09:28:58.766Z</time></trkpt><trkpt lat="42.0846526" lon="12.1851604"><ele>260.0</ele><time>2026-04-01T09:28:59.757Z</time></trkpt><trkpt lat="42.0845412" lon="12.1852675"><ele>260.0</ele><time>2026-04-01T09:29:00.762Z</time></trkpt><trkpt lat="42.0844285" lon="12.1853659"><ele>260.0</ele><time>2026-04-01T09:29:01.758Z</time></trkpt><trkpt lat="42.0843341" lon="12.1854712"><ele>260.0</ele><time>2026-04-01T09:29:02.76Z</time></trkpt><trkpt lat="42.0842416" lon="12.1855585"><ele>260.0</ele><time>2026-04-01T09:29:03.755Z</time></trkpt><trkpt lat="42.0841325" lon="12.1856341"><ele>260.0</ele><time>2026-04-01T09:29:04.773Z</time></trkpt><trkpt lat="42.0840123" lon="12.1857069"><ele>260.0</ele><time>2026-04-01T09:29:05.754Z</time></trkpt><trkpt lat="42.083882" lon="12.1857844"><ele>260.0</ele><time>2026-04-01T09:29:06.751Z</time></trkpt><trkpt lat="42.0837372" lon="12.1858396"><ele>260.0</ele><time>2026-04-01T09:29:07.748Z</time></trkpt><trkpt lat="42.0835575" lon="12.1858851"><ele>260.0</ele><time>2026-04-01T09:29:08.746Z</time></trkpt><trkpt lat="42.0833829" lon="12.1859059"><ele>260.0</ele><time>2026-04-01T09:29:09.756Z</time></trkpt><trkpt lat="42.0832132" lon="12.1859399"><ele>260.0</ele><time>2026-04-01T09:29:10.754Z</time></trkpt><trkpt lat="42.0830454" lon="12.1859967"><ele>260.33333333333337</ele><time>2026-04-01T09:29:11.766Z</time></trkpt><trkpt lat="42.0828905" lon="12.186067"><ele>260.6666666666667</ele><time>2026-04-01T09:29:12.772Z</time></trkpt><trkpt lat="42.0827326" lon="12.186131"><ele>261.0</ele><time>2026-04-01T09:29:13.775Z</time></trkpt><trkpt lat="42.0825748" lon="12.1861969"><ele>262.3333333333333</ele><time>2026-04-01T09:29:14.773Z</time></trkpt><trkpt lat="42.0824174" lon="12.1862685"><ele>263.66666666666663</ele><time>2026-04-01T09:29:15.773Z</time></trkpt><trkpt lat="42.0822567" lon="12.1863301"><ele>265.0</ele><time>2026-04-01T09:29:16.775Z</time></trkpt><trkpt lat="42.082091" lon="12.1864038"><ele>265.0</ele><time>2026-04-01T09:29:17.776Z</time></trkpt><trkpt lat="42.0819266" lon="12.1864729"><ele>265.0</ele><time>2026-04-01T09:29:18.773Z</time></trkpt><trkpt lat="42.0817566" lon="12.1865415"><ele>265.0</ele><time>2026-04-01T09:29:19.776Z</time></trkpt><trkpt lat="42.0815813" lon="12.1866163"><ele>266.3333333333333</ele><time>2026-04-01T09:29:20.771Z</time></trkpt><trkpt lat="42.0814138" lon="12.1866835"><ele>267.6666666666667</ele><time>2026-04-01T09:29:21.772Z</time></trkpt><trkpt lat="42.0812552" lon="12.1867525"><ele>269.0</ele><time>2026-04-01T09:29:22.771Z</time></trkpt><trkpt lat="42.0811037" lon="12.1868128"><ele>269.0</ele><time>2026-04-01T09:29:23.769Z</time></trkpt><trkpt lat="42.0809622" lon="12.1868761"><ele>269.0</ele><time>2026-04-01T09:29:24.766Z</time></trkpt><trkpt lat="42.0808378" lon="12.1869328"><ele>269.0</ele><time>2026-04-01T09:29:25.775Z</time></trkpt><trkpt lat="42.0807062" lon="12.1869789"><ele>269.0</ele><time>2026-04-01T09:29:26.772Z</time></trkpt><trkpt lat="42.0805826" lon="12.1870177"><ele>269.33333333333337</ele><time>2026-04-01T09:29:27.77Z</time></trkpt><trkpt lat="42.0804347" lon="12.187058"><ele>269.6666666666667</ele><time>2026-04-01T09:29:28.771Z</time></trkpt><trkpt lat="42.0802817" lon="12.1870977"><ele>270.0</ele><time>2026-04-01T09:29:29.767Z</time></trkpt><trkpt lat="42.0801269" lon="12.1871398"><ele>270.0</ele><time>2026-04-01T09:29:30.774Z</time></trkpt><trkpt lat="42.0799653" lon="12.1871919"><ele>270.0</ele><time>2026-04-01T09:29:31.773Z</time></trkpt><trkpt lat="42.0798069" lon="12.1872433"><ele>270.0</ele><time>2026-04-01T09:29:32.766Z</time></trkpt><trkpt lat="42.0796595" lon="12.1872864"><ele>268.75</ele><time>2026-04-01T09:29:33.77Z</time></trkpt><trkpt lat="42.0795176" lon="12.1873328"><ele>267.5</ele><time>2026-04-01T09:29:34.765Z</time></trkpt><trkpt lat="42.0793844" lon="12.1873613"><ele>266.25</ele><time>2026-04-01T09:29:35.78Z</time></trkpt><trkpt lat="42.0792291" lon="12.1873632"><ele>265.0</ele><time>2026-04-01T09:29:36.764Z</time></trkpt><trkpt lat="42.079068" lon="12.1873247"><ele>264.66666666666663</ele><time>2026-04-01T09:29:37.761Z</time></trkpt><trkpt lat="42.0789257" lon="12.1872552"><ele>264.3333333333333</ele><time>2026-04-01T09:29:38.761Z</time></trkpt><trkpt lat="42.0787788" lon="12.1871668"><ele>264.0</ele><time>2026-04-01T09:29:39.767Z</time></trkpt><trkpt lat="42.0786484" lon="12.1870608"><ele>264.0</ele><time>2026-04-01T09:29:40.772Z</time></trkpt><trkpt lat="42.0785148" lon="12.1869815"><ele>264.0</ele><time>2026-04-01T09:29:41.771Z</time></trkpt><trkpt lat="42.07839" lon="12.1869314"><ele>264.0</ele><time>2026-04-01T09:29:42.771Z</time></trkpt><trkpt lat="42.0782618" lon="12.1869232"><ele>264.0</ele><time>2026-04-01T09:29:43.772Z</time></trkpt><trkpt lat="42.0781432" lon="12.1869267"><ele>264.0</ele><time>2026-04-01T09:29:44.773Z</time></trkpt><trkpt lat="42.0780048" lon="12.1869507"><ele>264.0</ele><time>2026-04-01T09:29:45.774Z</time></trkpt><trkpt lat="42.0778551" lon="12.1869915"><ele>264.0</ele><time>2026-04-01T09:29:46.776Z</time></trkpt><trkpt lat="42.0776997" lon="12.1870412"><ele>264.0</ele><time>2026-04-01T09:29:47.779Z</time></trkpt><trkpt lat="42.0775423" lon="12.1871047"><ele>264.0</ele><time>2026-04-01T09:29:48.781Z</time></trkpt><trkpt lat="42.0773931" lon="12.1871633"><ele>264.0</ele><time>2026-04-01T09:29:49.782Z</time></trkpt><trkpt lat="42.0772389" lon="12.1872135"><ele>264.0</ele><time>2026-04-01T09:29:50.772Z</time></trkpt><trkpt lat="42.0770811" lon="12.1872711"><ele>264.0</ele><time>2026-04-01T09:29:51.77Z</time></trkpt><trkpt lat="42.0769244" lon="12.1873135"><ele>264.0</ele><time>2026-04-01T09:29:52.757Z</time></trkpt><trkpt lat="42.0767821" lon="12.187356"><ele>263.25</ele><time>2026-04-01T09:29:53.763Z</time></trkpt><trkpt lat="42.0766393" lon="12.1873919"><ele>262.5</ele><time>2026-04-01T09:29:54.767Z</time></trkpt><trkpt lat="42.0764808" lon="12.1874089"><ele>261.75</ele><time>2026-04-01T09:29:55.762Z</time></trkpt><trkpt lat="42.0763406" lon="12.1874091"><ele>261.0</ele><time>2026-04-01T09:29:56.769Z</time></trkpt><trkpt lat="42.076219" lon="12.1873832"><ele>260.75</ele><time>2026-04-01T09:29:57.769Z</time></trkpt><trkpt lat="42.0760865" lon="12.1873446"><ele>260.5</ele><time>2026-04-01T09:29:58.766Z</time></trkpt><trkpt lat="42.0759486" lon="12.1873065"><ele>260.25</ele><time>2026-04-01T09:29:59.757Z</time></trkpt><trkpt lat="42.0758047" lon="12.1872352"><ele>260.0</ele><time>2026-04-01T09:30:00.765Z</time></trkpt><trkpt lat="42.0756671" lon="12.1871944"><ele>259.0</ele><time>2026-04-01T09:30:01.758Z</time></trkpt><trkpt lat="42.0755397" lon="12.1871551"><ele>258.0</ele><time>2026-04-01T09:30:02.762Z</time></trkpt><trkpt lat="42.0754062" lon="12.1871194"><ele>257.0</ele><time>2026-04-01T09:30:03.77Z</time></trkpt><trkpt lat="42.0752825" lon="12.1870753"><ele>256.0</ele><time>2026-04-01T09:30:04.763Z</time></trkpt><trkpt lat="42.0751682" lon="12.187045"><ele>256.0</ele><time>2026-04-01T09:30:05.757Z</time></trkpt><trkpt lat="42.0750277" lon="12.1870168"><ele>256.0</ele><time>2026-04-01T09:30:06.78Z</time></trkpt><trkpt lat="42.0748835" lon="12.1869857"><ele>256.0</ele><time>2026-04-01T09:30:07.766Z</time></trkpt><trkpt lat="42.0747301" lon="12.1869389"><ele>256.0</ele><time>2026-04-01T09:30:08.775Z</time></trkpt><trkpt lat="42.0745768" lon="12.1868849"><ele>256.0</ele><time>2026-04-01T09:30:09.764Z</time></trkpt><trkpt lat="42.0744287" lon="12.186854"><ele>256.0</ele><time>2026-04-01T09:30:10.765Z</time></trkpt><trkpt lat="42.0742663" lon="12.1868322"><ele>256.0</ele><time>2026-04-01T09:30:11.767Z</time></trkpt><trkpt lat="42.0741093" lon="12.1868048"><ele>255.66666666666666</ele><time>2026-04-01T09:30:12.772Z</time></trkpt><trkpt lat="42.0739604" lon="12.1868304"><ele>255.33333333333331</ele><time>2026-04-01T09:30:13.767Z</time></trkpt><trkpt lat="42.0738036" lon="12.1868309"><ele>255.0</ele><time>2026-04-01T09:30:14.763Z</time></trkpt><trkpt lat="42.0736434" lon="12.1868405"><ele>255.0</ele><time>2026-04-01T09:30:15.769Z</time></trkpt><trkpt lat="42.0734861" lon="12.1868226"><ele>255.0</ele><time>2026-04-01T09:30:16.758Z</time></trkpt><trkpt lat="42.0733301" lon="12.1868007"><ele>255.0</ele><time>2026-04-01T09:30:17.76Z</time></trkpt><trkpt lat="42.0731698" lon="12.18674"><ele>255.33333333333331</ele><time>2026-04-01T09:30:18.767Z</time></trkpt><trkpt lat="42.0730061" lon="12.186666"><ele>255.66666666666666</ele><time>2026-04-01T09:30:19.761Z</time></trkpt><trkpt lat="42.0728447" lon="12.1865892"><ele>256.0</ele><time>2026-04-01T09:30:20.755Z</time></trkpt><trkpt lat="42.0726815" lon="12.1865082"><ele>256.0</ele><time>2026-04-01T09:30:21.751Z</time></trkpt><trkpt lat="42.0725284" lon="12.1864303"><ele>256.0</ele><time>2026-04-01T09:30:22.751Z</time></trkpt><trkpt lat="42.0723745" lon="12.1863669"><ele>256.0</ele><time>2026-04-01T09:30:23.748Z</time></trkpt><trkpt lat="42.0722205" lon="12.1863206"><ele>254.33333333333331</ele><time>2026-04-01T09:30:24.744Z</time></trkpt><trkpt lat="42.0720886" lon="12.1862628"><ele>252.66666666666669</ele><time>2026-04-01T09:30:25.753Z</time></trkpt><trkpt lat="42.071931" lon="12.1861846"><ele>251.0</ele><time>2026-04-01T09:30:26.75Z</time></trkpt><trkpt lat="42.0717757" lon="12.1861336"><ele>251.0</ele><time>2026-04-01T09:30:27.753Z</time></trkpt><trkpt lat="42.0716102" lon="12.1860853"><ele>251.0</ele><time>2026-04-01T09:30:28.76Z</time></trkpt><trkpt lat="42.0714321" lon="12.1860764"><ele>251.0</ele><time>2026-04-01T09:30:29.756Z</time></trkpt><trkpt lat="42.0712431" lon="12.1860555"><ele>250.0</ele><time>2026-04-01T09:30:30.75Z</time></trkpt><trkpt lat="42.0710569" lon="12.1860514"><ele>249.0</ele><time>2026-04-01T09:30:31.755Z</time></trkpt><trkpt lat="42.0708789" lon="12.1860733"><ele>248.0</ele><time>2026-04-01T09:30:32.75Z</time></trkpt><trkpt lat="42.0707207" lon="12.1860962"><ele>247.5</ele><time>2026-04-01T09:30:33.763Z</time></trkpt><trkpt lat="42.0705709" lon="12.1861215"><ele>247.0</ele><time>2026-04-01T09:30:34.763Z</time></trkpt><trkpt lat="42.0704322" lon="12.1861406"><ele>246.5</ele><time>2026-04-01T09:30:35.767Z</time></trkpt><trkpt lat="42.0702852" lon="12.1861462"><ele>246.0</ele><time>2026-04-01T09:30:36.768Z</time></trkpt><trkpt lat="42.0701333" lon="12.1861612"><ele>246.0</ele><time>2026-04-01T09:30:37.782Z</time></trkpt><trkpt lat="42.069978" lon="12.1861749"><ele>246.0</ele><time>2026-04-01T09:30:38.769Z</time></trkpt><trkpt lat="42.0698207" lon="12.1861868"><ele>246.0</ele><time>2026-04-01T09:30:39.768Z</time></trkpt><trkpt lat="42.069679" lon="12.1862004"><ele>244.5</ele><time>2026-04-01T09:30:40.771Z</time></trkpt><trkpt lat="42.0695524" lon="12.1862203"><ele>243.0</ele><time>2026-04-01T09:30:41.767Z</time></trkpt><trkpt lat="42.069425" lon="12.1862199"><ele>241.5</ele><time>2026-04-01T09:30:42.766Z</time></trkpt><trkpt lat="42.0693089" lon="12.1862146"><ele>240.0</ele><time>2026-04-01T09:30:43.77Z</time></trkpt><trkpt lat="42.0692002" lon="12.1861962"><ele>239.25</ele><time>2026-04-01T09:30:44.773Z</time></trkpt><trkpt lat="42.0690837" lon="12.1861671"><ele>238.5</ele><time>2026-04-01T09:30:45.767Z</time></trkpt><trkpt lat="42.0689736" lon="12.1861324"><ele>237.75</ele><time>2026-04-01T09:30:46.772Z</time></trkpt><trkpt lat="42.0688559" lon="12.186091"><ele>237.0</ele><time>2026-04-01T09:30:47.767Z</time></trkpt><trkpt lat="42.068732" lon="12.1860463"><ele>237.0</ele><time>2026-04-01T09:30:48.765Z</time></trkpt><trkpt lat="42.0686037" lon="12.1860051"><ele>237.0</ele><time>2026-04-01T09:30:49.754Z</time></trkpt><trkpt lat="42.0684799" lon="12.1859532"><ele>237.0</ele><time>2026-04-01T09:30:50.751Z</time></trkpt><trkpt lat="42.0683533" lon="12.1859049"><ele>237.0</ele><time>2026-04-01T09:30:51.762Z</time></trkpt><trkpt lat="42.0682241" lon="12.1858587"><ele>238.8</ele><time>2026-04-01T09:30:52.758Z</time></trkpt><trkpt lat="42.0681109" lon="12.1858312"><ele>240.6</ele><time>2026-04-01T09:30:53.756Z</time></trkpt><trkpt lat="42.0680166" lon="12.1858109"><ele>242.40000000000003</ele><time>2026-04-01T09:30:54.757Z</time></trkpt><trkpt lat="42.0679423" lon="12.1857972"><ele>244.20000000000002</ele><time>2026-04-01T09:30:55.764Z</time></trkpt><trkpt lat="42.0679293" lon="12.1856796"><ele>246.0</ele><time>2026-04-01T09:30:59.767Z</time></trkpt><trkpt lat="42.0679962" lon="12.1855206"><ele>248.4</ele><time>2026-04-01T09:31:01.772Z</time></trkpt><trkpt lat="42.0680415" lon="12.1854077"><ele>250.8</ele><time>2026-04-01T09:31:02.76Z</time></trkpt><trkpt lat="42.068088" lon="12.1852881"><ele>253.20000000000002</ele><time>2026-04-01T09:31:03.761Z</time></trkpt><trkpt lat="42.068126" lon="12.1851604"><ele>255.60000000000002</ele><time>2026-04-01T09:31:04.765Z</time></trkpt><trkpt lat="42.0681647" lon="12.185016"><ele>258.0</ele><time>2026-04-01T09:31:05.77Z</time></trkpt><trkpt lat="42.0681972" lon="12.1848352"><ele>258.5</ele><time>2026-04-01T09:31:06.765Z</time></trkpt><trkpt lat="42.0682463" lon="12.184654"><ele>259.0</ele><time>2026-04-01T09:31:07.767Z</time></trkpt><trkpt lat="42.0682878" lon="12.1844883"><ele>259.5</ele><time>2026-04-01T09:31:08.78Z</time></trkpt><trkpt lat="42.0683284" lon="12.1843097"><ele>260.0</ele><time>2026-04-01T09:31:09.759Z</time></trkpt><trkpt lat="42.0683753" lon="12.1841364"><ele>258.25</ele><time>2026-04-01T09:31:10.762Z</time></trkpt><trkpt lat="42.068417" lon="12.1839698"><ele>256.5</ele><time>2026-04-01T09:31:11.763Z</time></trkpt><trkpt lat="42.0684555" lon="12.1838046"><ele>254.75</ele><time>2026-04-01T09:31:12.762Z</time></trkpt><trkpt lat="42.0684894" lon="12.1836507"><ele>253.0</ele><time>2026-04-01T09:31:13.764Z</time></trkpt><trkpt lat="42.0685231" lon="12.1834968"><ele>253.0</ele><time>2026-04-01T09:31:14.763Z</time></trkpt><trkpt lat="42.0685567" lon="12.1833455"><ele>253.0</ele><time>2026-04-01T09:31:15.763Z</time></trkpt><trkpt lat="42.0685945" lon="12.1831929"><ele>253.0</ele><time>2026-04-01T09:31:16.766Z</time></trkpt><trkpt lat="42.0686298" lon="12.1830296"><ele>253.0</ele><time>2026-04-01T09:31:17.769Z</time></trkpt><trkpt lat="42.0686645" lon="12.1828804"><ele>252.75</ele><time>2026-04-01T09:31:18.776Z</time></trkpt><trkpt lat="42.0687039" lon="12.1827308"><ele>252.5</ele><time>2026-04-01T09:31:19.776Z</time></trkpt><trkpt lat="42.0687432" lon="12.1825703"><ele>252.25</ele><time>2026-04-01T09:31:20.775Z</time></trkpt><trkpt lat="42.0687788" lon="12.1824053"><ele>252.0</ele><time>2026-04-01T09:31:21.774Z</time></trkpt><trkpt lat="42.0688023" lon="12.1822414"><ele>251.16666666666666</ele><time>2026-04-01T09:31:22.77Z</time></trkpt><trkpt lat="42.0688212" lon="12.1820901"><ele>250.33333333333331</ele><time>2026-04-01T09:31:23.773Z</time></trkpt><trkpt lat="42.0688372" lon="12.1819615"><ele>249.5</ele><time>2026-04-01T09:31:24.77Z</time></trkpt><trkpt lat="42.0688532" lon="12.1818534"><ele>248.66666666666666</ele><time>2026-04-01T09:31:25.768Z</time></trkpt><trkpt lat="42.068873" lon="12.1817691"><ele>247.83333333333331</ele><time>2026-04-01T09:31:26.767Z</time></trkpt><trkpt lat="42.0688896" lon="12.1816773"><ele>247.0</ele><time>2026-04-01T09:31:27.763Z</time></trkpt><trkpt lat="42.0689003" lon="12.1815882"><ele>246.66666666666666</ele><time>2026-04-01T09:31:28.766Z</time></trkpt><trkpt lat="42.0689199" lon="12.1814863"><ele>246.33333333333331</ele><time>2026-04-01T09:31:29.763Z</time></trkpt><trkpt lat="42.068931" lon="12.1813857"><ele>246.0</ele><time>2026-04-01T09:31:30.766Z</time></trkpt><trkpt lat="42.0689321" lon="12.1812943"><ele>245.66666666666669</ele><time>2026-04-01T09:31:31.774Z</time></trkpt><trkpt lat="42.0688786" lon="12.1811327"><ele>245.33333333333334</ele><time>2026-04-01T09:31:33.768Z</time></trkpt><trkpt lat="42.0688252" lon="12.1810682"><ele>245.0</ele><time>2026-04-01T09:31:34.762Z</time></trkpt><trkpt lat="42.0687613" lon="12.1810102"><ele>245.00000000000003</ele><time>2026-04-01T09:31:35.757Z</time></trkpt><trkpt lat="42.068697" lon="12.1809413"><ele>245.0</ele><time>2026-04-01T09:31:36.754Z</time></trkpt><trkpt lat="42.06864" lon="12.1808689"><ele>245.0</ele><time>2026-04-01T09:31:37.754Z</time></trkpt><trkpt lat="42.0685828" lon="12.1807868"><ele>245.0</ele><time>2026-04-01T09:31:38.753Z</time></trkpt><trkpt lat="42.0685466" lon="12.1807095"><ele>245.00000000000003</ele><time>2026-04-01T09:31:39.762Z</time></trkpt><trkpt lat="42.068512" lon="12.1806147"><ele>245.0</ele><time>2026-04-01T09:31:40.754Z</time></trkpt><trkpt lat="42.0684813" lon="12.1805153"><ele>245.8</ele><time>2026-04-01T09:31:41.755Z</time></trkpt><trkpt lat="42.0684442" lon="12.1804205"><ele>246.6</ele><time>2026-04-01T09:31:42.75Z</time></trkpt><trkpt lat="42.0684168" lon="12.1803336"><ele>247.39999999999998</ele><time>2026-04-01T09:31:43.754Z</time></trkpt><trkpt lat="42.0684291" lon="12.1802095"><ele>248.2</ele><time>2026-04-01T09:31:45.753Z</time></trkpt><trkpt lat="42.0685401" lon="12.1801139"><ele>249.0</ele><time>2026-04-01T09:31:47.75Z</time></trkpt><trkpt lat="42.0686073" lon="12.180045"><ele>249.0</ele><time>2026-04-01T09:31:48.751Z</time></trkpt><trkpt lat="42.0686755" lon="12.179955"><ele>248.99999999999997</ele><time>2026-04-01T09:31:49.751Z</time></trkpt><trkpt lat="42.0687445" lon="12.1798625"><ele>248.99999999999997</ele><time>2026-04-01T09:31:50.75Z</time></trkpt><trkpt lat="42.0688016" lon="12.1797589"><ele>249.0</ele><time>2026-04-01T09:31:51.762Z</time></trkpt><trkpt lat="42.0688499" lon="12.1796544"><ele>249.0</ele><time>2026-04-01T09:31:52.764Z</time></trkpt><trkpt lat="42.0688863" lon="12.1795526"><ele>249.6</ele><time>2026-04-01T09:31:53.762Z</time></trkpt><trkpt lat="42.0689262" lon="12.179458"><ele>250.2</ele><time>2026-04-01T09:31:54.755Z</time></trkpt><trkpt lat="42.0689737" lon="12.1793524"><ele>250.79999999999998</ele><time>2026-04-01T09:31:55.761Z</time></trkpt><trkpt lat="42.0690217" lon="12.1792388"><ele>251.39999999999998</ele><time>2026-04-01T09:31:56.758Z</time></trkpt><trkpt lat="42.0690712" lon="12.17911"><ele>252.0</ele><time>2026-04-01T09:31:57.759Z</time></trkpt><trkpt lat="42.0691097" lon="12.1789856"><ele>252.0</ele><time>2026-04-01T09:31:58.755Z</time></trkpt><trkpt lat="42.069147" lon="12.1788411"><ele>252.0</ele><time>2026-04-01T09:31:59.753Z</time></trkpt><trkpt lat="42.0691846" lon="12.1786718"><ele>252.0</ele><time>2026-04-01T09:32:00.756Z</time></trkpt><trkpt lat="42.069226" lon="12.1785168"><ele>252.0</ele><time>2026-04-01T09:32:01.757Z</time></trkpt><trkpt lat="42.0692448" lon="12.1783433"><ele>252.75</ele><time>2026-04-01T09:32:02.756Z</time></trkpt><trkpt lat="42.0692669" lon="12.1781615"><ele>253.5</ele><time>2026-04-01T09:32:03.754Z</time></trkpt><trkpt lat="42.0692884" lon="12.1779674"><ele>254.25</ele><time>2026-04-01T09:32:04.759Z</time></trkpt><trkpt lat="42.0693168" lon="12.1777844"><ele>255.0</ele><time>2026-04-01T09:32:05.756Z</time></trkpt><trkpt lat="42.0693442" lon="12.1775954"><ele>255.0</ele><time>2026-04-01T09:32:06.757Z</time></trkpt><trkpt lat="42.0693698" lon="12.1773985"><ele>255.0</ele><time>2026-04-01T09:32:07.75Z</time></trkpt><trkpt lat="42.069395" lon="12.1771852"><ele>255.0</ele><time>2026-04-01T09:32:08.757Z</time></trkpt><trkpt lat="42.0694314" lon="12.1769677"><ele>254.0</ele><time>2026-04-01T09:32:09.76Z</time></trkpt><trkpt lat="42.0694671" lon="12.1767453"><ele>253.0</ele><time>2026-04-01T09:32:10.794Z</time></trkpt><trkpt lat="42.0694995" lon="12.1765411"><ele>252.0</ele><time>2026-04-01T09:32:11.762Z</time></trkpt><trkpt lat="42.0695002" lon="12.1763424"><ele>251.5</ele><time>2026-04-01T09:32:12.761Z</time></trkpt><trkpt lat="42.0695038" lon="12.1761663"><ele>251.0</ele><time>2026-04-01T09:32:13.756Z</time></trkpt><trkpt lat="42.0694889" lon="12.1759554"><ele>250.5</ele><time>2026-04-01T09:32:14.762Z</time></trkpt><trkpt lat="42.0694926" lon="12.1757497"><ele>250.0</ele><time>2026-04-01T09:32:15.758Z</time></trkpt><trkpt lat="42.0694997" lon="12.1755549"><ele>249.33333333333331</ele><time>2026-04-01T09:32:16.768Z</time></trkpt><trkpt lat="42.0695167" lon="12.1753551"><ele>248.66666666666669</ele><time>2026-04-01T09:32:17.767Z</time></trkpt><trkpt lat="42.0695313" lon="12.1751464"><ele>248.0</ele><time>2026-04-01T09:32:18.766Z</time></trkpt><trkpt lat="42.0695404" lon="12.1749497"><ele>248.33333333333334</ele><time>2026-04-01T09:32:19.768Z</time></trkpt><trkpt lat="42.0695689" lon="12.174762"><ele>248.66666666666669</ele><time>2026-04-01T09:32:20.763Z</time></trkpt><trkpt lat="42.069606" lon="12.1745346"><ele>249.0</ele><time>2026-04-01T09:32:21.759Z</time></trkpt><trkpt lat="42.0696297" lon="12.1742821"><ele>249.0</ele><time>2026-04-01T09:32:22.772Z</time></trkpt><trkpt lat="42.0696484" lon="12.1740525"><ele>249.0</ele><time>2026-04-01T09:32:23.771Z</time></trkpt><trkpt lat="42.0696596" lon="12.173845"><ele>249.0</ele><time>2026-04-01T09:32:24.775Z</time></trkpt><trkpt lat="42.0696773" lon="12.1736194"><ele>251.33333333333331</ele><time>2026-04-01T09:32:25.774Z</time></trkpt><trkpt lat="42.0696879" lon="12.1733764"><ele>253.66666666666666</ele><time>2026-04-01T09:32:26.782Z</time></trkpt><trkpt lat="42.0696904" lon="12.1731436"><ele>256.0</ele><time>2026-04-01T09:32:27.774Z</time></trkpt><trkpt lat="42.0696865" lon="12.1729747"><ele>256.57142857142856</ele><time>2026-04-01T09:32:28.779Z</time></trkpt><trkpt lat="42.0696753" lon="12.1728609"><ele>257.1428571428571</ele><time>2026-04-01T09:32:29.768Z</time></trkpt><trkpt lat="42.0696579" lon="12.1727757"><ele>257.7142857142857</ele><time>2026-04-01T09:32:30.775Z</time></trkpt><trkpt lat="42.0696465" lon="12.1726912"><ele>258.2857142857143</ele><time>2026-04-01T09:32:31.771Z</time></trkpt><trkpt lat="42.0696051" lon="12.1726105"><ele>258.8571428571429</ele><time>2026-04-01T09:32:33.766Z</time></trkpt><trkpt lat="42.069522" lon="12.1726344"><ele>259.42857142857144</ele><time>2026-04-01T09:32:37.778Z</time></trkpt><trkpt lat="42.0694715" lon="12.1725578"><ele>260.0</ele><time>2026-04-01T09:32:54.765Z</time></trkpt><trkpt lat="42.0693913" lon="12.1724318"><ele>260.0</ele><time>2026-04-01T09:32:56.761Z</time></trkpt><trkpt lat="42.0692956" lon="12.1722998"><ele>260.0</ele><time>2026-04-01T09:32:57.759Z</time></trkpt><trkpt lat="42.0692071" lon="12.1721792"><ele>260.0</ele><time>2026-04-01T09:32:58.761Z</time></trkpt><trkpt lat="42.0691291" lon="12.1720629"><ele>260.0</ele><time>2026-04-01T09:32:59.757Z</time></trkpt><trkpt lat="42.06908" lon="12.1719559"><ele>261.0</ele><time>2026-04-01T09:33:00.756Z</time></trkpt><trkpt lat="42.0690384" lon="12.1718597"><ele>262.0</ele><time>2026-04-01T09:33:01.756Z</time></trkpt><trkpt lat="42.0689989" lon="12.1717709"><ele>263.0</ele><time>2026-04-01T09:33:02.755Z</time></trkpt><trkpt lat="42.0689611" lon="12.1716827"><ele>264.0</ele><time>2026-04-01T09:33:03.762Z</time></trkpt><trkpt lat="42.0689241" lon="12.1716012"><ele>265.0</ele><time>2026-04-01T09:33:06.759Z</time></trkpt><trkpt lat="42.0689296" lon="12.1717083"><ele>266.0</ele><time>2026-04-01T09:33:10.759Z</time></trkpt><trkpt lat="42.068914" lon="12.1718104"><ele>266.0</ele><time>2026-04-01T09:33:12.766Z</time></trkpt><trkpt lat="42.0689434" lon="12.1719542"><ele>266.0</ele><time>2026-04-01T09:33:14.768Z</time></trkpt><trkpt lat="42.0690149" lon="12.1721196"><ele>266.0</ele><time>2026-04-01T09:33:16.775Z</time></trkpt><trkpt lat="42.0690892" lon="12.1722241"><ele>266.0</ele><time>2026-04-01T09:33:17.761Z</time></trkpt><trkpt lat="42.0691839" lon="12.1723369"><ele>264.8</ele><time>2026-04-01T09:33:18.755Z</time></trkpt><trkpt lat="42.0692744" lon="12.172436"><ele>263.6</ele><time>2026-04-01T09:33:19.763Z</time></trkpt><trkpt lat="42.0693441" lon="12.1725301"><ele>262.4</ele><time>2026-04-01T09:33:20.773Z</time></trkpt><trkpt lat="42.0694175" lon="12.1726126"><ele>261.2</ele><time>2026-04-01T09:33:21.765Z</time></trkpt><trkpt lat="42.0694772" lon="12.1726744"><ele>260.0</ele><time>2026-04-01T09:33:22.774Z</time></trkpt><trkpt lat="42.0695722" lon="12.1727414"><ele>260.0</ele><time>2026-04-01T09:33:24.767Z</time></trkpt><trkpt lat="42.0696519" lon="12.1726929"><ele>260.0</ele><time>2026-04-01T09:33:27.766Z</time></trkpt><trkpt lat="42.0696973" lon="12.1726027"><ele>260.0</ele><time>2026-04-01T09:33:29.765Z</time></trkpt><trkpt lat="42.0697067" lon="12.1725072"><ele>260.0</ele><time>2026-04-01T09:33:31.767Z</time></trkpt><trkpt lat="42.0696944" lon="12.1724143"><ele>260.0</ele><time>2026-04-01T09:33:33.761Z</time></trkpt><trkpt lat="42.0695963" lon="12.1722554"><ele>260.0</ele><time>2026-04-01T09:33:35.761Z</time></trkpt><trkpt lat="42.0695202" lon="12.1721623"><ele>260.0</ele><time>2026-04-01T09:33:36.759Z</time></trkpt><trkpt lat="42.0694414" lon="12.1720755"><ele>260.0</ele><time>2026-04-01T09:33:37.755Z</time></trkpt><trkpt lat="42.0693665" lon="12.1719977"><ele>260.0</ele><time>2026-04-01T09:33:38.762Z</time></trkpt><trkpt lat="42.0692786" lon="12.1719347"><ele>260.0</ele><time>2026-04-01T09:33:39.769Z</time></trkpt><trkpt lat="42.0691899" lon="12.1718862"><ele>260.00000000000006</ele><time>2026-04-01T09:33:40.77Z</time></trkpt><trkpt lat="42.0691259" lon="12.1718326"><ele>260.0</ele><time>2026-04-01T09:33:41.768Z</time></trkpt><trkpt lat="42.0690728" lon="12.1717712"><ele>260.0</ele><time>2026-04-01T09:33:42.78Z</time></trkpt><trkpt lat="42.0690266" lon="12.1717063"><ele>260.0</ele><time>2026-04-01T09:33:43.767Z</time></trkpt><trkpt lat="42.0689803" lon="12.1716295"><ele>260.0</ele><time>2026-04-01T09:33:44.759Z</time></trkpt><trkpt lat="42.0689614" lon="12.1715417"><ele>260.00000000000006</ele><time>2026-04-01T09:33:45.766Z</time></trkpt><trkpt lat="42.0689662" lon="12.1714548"><ele>260.0</ele><time>2026-04-01T09:33:46.764Z</time></trkpt><trkpt lat="42.068983" lon="12.171364"><ele>261.6</ele><time>2026-04-01T09:33:47.764Z</time></trkpt><trkpt lat="42.0690086" lon="12.1712506"><ele>263.2</ele><time>2026-04-01T09:33:48.772Z</time></trkpt><trkpt lat="42.0690389" lon="12.1711237"><ele>264.8</ele><time>2026-04-01T09:33:49.766Z</time></trkpt><trkpt lat="42.0690567" lon="12.1709898"><ele>266.4</ele><time>2026-04-01T09:33:50.769Z</time></trkpt><trkpt lat="42.0690675" lon="12.1708705"><ele>268.0</ele><time>2026-04-01T09:33:51.766Z</time></trkpt><trkpt lat="42.0690686" lon="12.1707722"><ele>268.14285714285717</ele><time>2026-04-01T09:33:52.76Z</time></trkpt><trkpt lat="42.0690786" lon="12.1706753"><ele>268.2857142857143</ele><time>2026-04-01T09:33:53.765Z</time></trkpt><trkpt lat="42.0690934" lon="12.1705911"><ele>268.42857142857144</ele><time>2026-04-01T09:33:54.766Z</time></trkpt><trkpt lat="42.0691243" lon="12.170454"><ele>268.57142857142856</ele><time>2026-04-01T09:33:56.764Z</time></trkpt><trkpt lat="42.0691733" lon="12.1704006"><ele>268.7142857142857</ele><time>2026-04-01T09:33:59.768Z</time></trkpt><trkpt lat="42.0692235" lon="12.1703442"><ele>268.8571428571429</ele><time>2026-04-01T09:34:02.764Z</time></trkpt><trkpt lat="42.0692318" lon="12.1702538"><ele>269.0</ele><time>2026-04-01T09:34:04.763Z</time></trkpt><trkpt lat="42.0691685" lon="12.1702276"><ele>269.0</ele><time>2026-04-01T09:34:12.767Z</time></trkpt><trkpt lat="42.0691131" lon="12.1701601"><ele>269.0</ele><time>2026-04-01T09:34:50.76Z</time></trkpt><trkpt lat="42.0688921" lon="12.1700125"><ele>269.0</ele><time>2026-04-01T09:34:53.752Z</time></trkpt><trkpt lat="42.0687671" lon="12.1699648"><ele>269.0</ele><time>2026-04-01T09:34:54.763Z</time></trkpt><trkpt lat="42.0686124" lon="12.1698947"><ele>269.0</ele><time>2026-04-01T09:34:55.753Z</time></trkpt><trkpt lat="42.068467" lon="12.1698223"><ele>269.0</ele><time>2026-04-01T09:34:56.772Z</time></trkpt><trkpt lat="42.0683212" lon="12.1697508"><ele>268.75</ele><time>2026-04-01T09:34:57.768Z</time></trkpt><trkpt lat="42.0681975" lon="12.1697146"><ele>268.5</ele><time>2026-04-01T09:34:58.76Z</time></trkpt><trkpt lat="42.0680798" lon="12.1696978"><ele>268.25</ele><time>2026-04-01T09:34:59.763Z</time></trkpt><trkpt lat="42.0679543" lon="12.1697106"><ele>268.0</ele><time>2026-04-01T09:35:00.771Z</time></trkpt><trkpt lat="42.0678199" lon="12.1697047"><ele>268.0</ele><time>2026-04-01T09:35:01.768Z</time></trkpt><trkpt lat="42.0676674" lon="12.169713"><ele>268.0</ele><time>2026-04-01T09:35:02.776Z</time></trkpt><trkpt lat="42.0674903" lon="12.1697095"><ele>268.0</ele><time>2026-04-01T09:35:03.778Z</time></trkpt><trkpt lat="42.067329" lon="12.1696833"><ele>268.0</ele><time>2026-04-01T09:35:04.769Z</time></trkpt><trkpt lat="42.0671821" lon="12.1696639"><ele>268.0</ele><time>2026-04-01T09:35:05.772Z</time></trkpt><trkpt lat="42.0670377" lon="12.1696254"><ele>268.0</ele><time>2026-04-01T09:35:06.776Z</time></trkpt><trkpt lat="42.066897" lon="12.1695767"><ele>268.0</ele><time>2026-04-01T09:35:07.774Z</time></trkpt><trkpt lat="42.0667593" lon="12.1695392"><ele>268.0</ele><time>2026-04-01T09:35:08.78Z</time></trkpt><trkpt lat="42.0666312" lon="12.1695121"><ele>268.0</ele><time>2026-04-01T09:35:09.775Z</time></trkpt><trkpt lat="42.0665028" lon="12.1694652"><ele>268.0</ele><time>2026-04-01T09:35:10.772Z</time></trkpt><trkpt lat="42.0663677" lon="12.1694022"><ele>268.0</ele><time>2026-04-01T09:35:11.775Z</time></trkpt><trkpt lat="42.0662349" lon="12.1693235"><ele>267.75</ele><time>2026-04-01T09:35:12.783Z</time></trkpt><trkpt lat="42.0661089" lon="12.1692666"><ele>267.5</ele><time>2026-04-01T09:35:13.782Z</time></trkpt><trkpt lat="42.0659948" lon="12.1692101"><ele>267.25</ele><time>2026-04-01T09:35:14.779Z</time></trkpt><trkpt lat="42.065871" lon="12.1691637"><ele>267.0</ele><time>2026-04-01T09:35:15.79Z</time></trkpt><trkpt lat="42.0657682" lon="12.1691077"><ele>266.25</ele><time>2026-04-01T09:35:16.774Z</time></trkpt><trkpt lat="42.0656445" lon="12.1690278"><ele>265.5</ele><time>2026-04-01T09:35:17.78Z</time></trkpt><trkpt lat="42.065527" lon="12.1689262"><ele>264.75</ele><time>2026-04-01T09:35:18.781Z</time></trkpt><trkpt lat="42.0653945" lon="12.1688193"><ele>264.0</ele><time>2026-04-01T09:35:19.776Z</time></trkpt><trkpt lat="42.0652725" lon="12.1687264"><ele>263.5</ele><time>2026-04-01T09:35:20.777Z</time></trkpt><trkpt lat="42.0651541" lon="12.1686243"><ele>263.0</ele><time>2026-04-01T09:35:21.775Z</time></trkpt><trkpt lat="42.0650258" lon="12.1685252"><ele>262.5</ele><time>2026-04-01T09:35:22.776Z</time></trkpt><trkpt lat="42.0649028" lon="12.1684311"><ele>262.0</ele><time>2026-04-01T09:35:23.787Z</time></trkpt><trkpt lat="42.0647905" lon="12.1683275"><ele>261.75</ele><time>2026-04-01T09:35:24.78Z</time></trkpt><trkpt lat="42.0646744" lon="12.1682399"><ele>261.5</ele><time>2026-04-01T09:35:25.782Z</time></trkpt><trkpt lat="42.0645665" lon="12.1681505"><ele>261.25</ele><time>2026-04-01T09:35:26.784Z</time></trkpt><trkpt lat="42.0644616" lon="12.1680792"><ele>261.0</ele><time>2026-04-01T09:35:27.779Z</time></trkpt><trkpt lat="42.0643645" lon="12.1679805"><ele>260.5</ele><time>2026-04-01T09:35:28.78Z</time></trkpt><trkpt lat="42.0642543" lon="12.1679007"><ele>260.0</ele><time>2026-04-01T09:35:29.776Z</time></trkpt><trkpt lat="42.0641443" lon="12.1678493"><ele>259.5</ele><time>2026-04-01T09:35:30.78Z</time></trkpt><trkpt lat="42.064045" lon="12.167781"><ele>259.0</ele><time>2026-04-01T09:35:31.784Z</time></trkpt><trkpt lat="42.0639598" lon="12.1677124"><ele>258.8333333333333</ele><time>2026-04-01T09:35:32.776Z</time></trkpt><trkpt lat="42.0638782" lon="12.1676397"><ele>258.66666666666663</ele><time>2026-04-01T09:35:33.778Z</time></trkpt><trkpt lat="42.0638011" lon="12.1675746"><ele>258.5</ele><time>2026-04-01T09:35:34.779Z</time></trkpt><trkpt lat="42.0637266" lon="12.1675041"><ele>258.3333333333333</ele><time>2026-04-01T09:35:35.777Z</time></trkpt><trkpt lat="42.0636658" lon="12.1674408"><ele>258.1666666666667</ele><time>2026-04-01T09:35:36.778Z</time></trkpt><trkpt lat="42.0635909" lon="12.1673792"><ele>258.0</ele><time>2026-04-01T09:35:37.77Z</time></trkpt><trkpt lat="42.0634963" lon="12.1673067"><ele>257.25</ele><time>2026-04-01T09:35:38.77Z</time></trkpt><trkpt lat="42.0633788" lon="12.1672347"><ele>256.5</ele><time>2026-04-01T09:35:39.783Z</time></trkpt><trkpt lat="42.0632572" lon="12.1671588"><ele>255.75</ele><time>2026-04-01T09:35:40.775Z</time></trkpt><trkpt lat="42.0631398" lon="12.1670759"><ele>255.0</ele><time>2026-04-01T09:35:41.774Z</time></trkpt><trkpt lat="42.0630117" lon="12.1670028"><ele>254.25</ele><time>2026-04-01T09:35:42.777Z</time></trkpt><trkpt lat="42.062877" lon="12.1669358"><ele>253.5</ele><time>2026-04-01T09:35:43.772Z</time></trkpt><trkpt lat="42.0627416" lon="12.1668697"><ele>252.75</ele><time>2026-04-01T09:35:44.773Z</time></trkpt><trkpt lat="42.0626104" lon="12.1668157"><ele>252.0</ele><time>2026-04-01T09:35:45.765Z</time></trkpt><trkpt lat="42.062524" lon="12.1667513"><ele>252.0</ele><time>2026-04-01T09:35:46.781Z</time></trkpt><trkpt lat="42.0624558" lon="12.1666785"><ele>252.0</ele><time>2026-04-01T09:35:47.767Z</time></trkpt><trkpt lat="42.0624057" lon="12.1666164"><ele>252.0</ele><time>2026-04-01T09:35:48.773Z</time></trkpt><trkpt lat="42.0623403" lon="12.1665712"><ele>252.0</ele><time>2026-04-01T09:35:50.768Z</time></trkpt><trkpt lat="42.0623035" lon="12.1664899"><ele>252.0</ele><time>2026-04-01T09:36:07.754Z</time></trkpt><trkpt lat="42.0622512" lon="12.1664425"><ele>252.0</ele><time>2026-04-01T09:36:09.756Z</time></trkpt><trkpt lat="42.0620628" lon="12.166298"><ele>251.2</ele><time>2026-04-01T09:36:55.776Z</time></trkpt><trkpt lat="42.0619987" lon="12.1662205"><ele>250.39999999999998</ele><time>2026-04-01T09:36:56.782Z</time></trkpt><trkpt lat="42.0619434" lon="12.1661325"><ele>249.60000000000002</ele><time>2026-04-01T09:36:57.786Z</time></trkpt><trkpt lat="42.0618934" lon="12.1660319"><ele>248.8</ele><time>2026-04-01T09:36:58.782Z</time></trkpt><trkpt lat="42.0618436" lon="12.1659175"><ele>248.0</ele><time>2026-04-01T09:36:59.785Z</time></trkpt><trkpt lat="42.0617931" lon="12.1657989"><ele>247.4</ele><time>2026-04-01T09:37:00.785Z</time></trkpt><trkpt lat="42.0617451" lon="12.1656664"><ele>246.8</ele><time>2026-04-01T09:37:01.786Z</time></trkpt><trkpt lat="42.0616993" lon="12.1655416"><ele>246.2</ele><time>2026-04-01T09:37:02.779Z</time></trkpt><trkpt lat="42.0616554" lon="12.1654295"><ele>245.6</ele><time>2026-04-01T09:37:03.771Z</time></trkpt><trkpt lat="42.061618" lon="12.1653323"><ele>245.0</ele><time>2026-04-01T09:37:04.782Z</time></trkpt><trkpt lat="42.061576" lon="12.1652072"><ele>244.71428571428572</ele><time>2026-04-01T09:37:06.778Z</time></trkpt><trkpt lat="42.0615293" lon="12.1651117"><ele>244.42857142857144</ele><time>2026-04-01T09:37:09.781Z</time></trkpt><trkpt lat="42.0615229" lon="12.1650137"><ele>244.14285714285714</ele><time>2026-04-01T09:37:11.781Z</time></trkpt><trkpt lat="42.0615254" lon="12.1649288"><ele>243.85714285714286</ele><time>2026-04-01T09:37:12.782Z</time></trkpt><trkpt lat="42.0615281" lon="12.1648411"><ele>243.57142857142858</ele><time>2026-04-01T09:37:13.78Z</time></trkpt><trkpt lat="42.0615336" lon="12.1647485"><ele>243.28571428571428</ele><time>2026-04-01T09:37:14.787Z</time></trkpt><trkpt lat="42.0615387" lon="12.1646487"><ele>243.0</ele><time>2026-04-01T09:37:15.781Z</time></trkpt><trkpt lat="42.0615463" lon="12.1645322"><ele>243.4</ele><time>2026-04-01T09:37:16.784Z</time></trkpt><trkpt lat="42.0615618" lon="12.1643893"><ele>243.8</ele><time>2026-04-01T09:37:17.786Z</time></trkpt><trkpt lat="42.0615865" lon="12.1642411"><ele>244.2</ele><time>2026-04-01T09:37:18.79Z</time></trkpt><trkpt lat="42.0616235" lon="12.1641137"><ele>244.6</ele><time>2026-04-01T09:37:19.772Z</time></trkpt><trkpt lat="42.0616793" lon="12.1640121"><ele>245.0</ele><time>2026-04-01T09:37:20.773Z</time></trkpt><trkpt lat="42.0617431" lon="12.1639156"><ele>244.2</ele><time>2026-04-01T09:37:21.783Z</time></trkpt><trkpt lat="42.0618031" lon="12.1638056"><ele>243.4</ele><time>2026-04-01T09:37:22.786Z</time></trkpt><trkpt lat="42.0618527" lon="12.1636819"><ele>242.60000000000002</ele><time>2026-04-01T09:37:23.787Z</time></trkpt><trkpt lat="42.0619088" lon="12.1635619"><ele>241.8</ele><time>2026-04-01T09:37:24.785Z</time></trkpt><trkpt lat="42.0619612" lon="12.1634448"><ele>241.0</ele><time>2026-04-01T09:37:25.786Z</time></trkpt><trkpt lat="42.0620093" lon="12.1633471"><ele>241.0</ele><time>2026-04-01T09:37:26.778Z</time></trkpt><trkpt lat="42.0620525" lon="12.1632555"><ele>241.00000000000003</ele><time>2026-04-01T09:37:27.779Z</time></trkpt><trkpt lat="42.0620971" lon="12.1631832"><ele>241.0</ele><time>2026-04-01T09:37:28.784Z</time></trkpt><trkpt lat="42.0621362" lon="12.1631097"><ele>241.0</ele><time>2026-04-01T09:37:29.775Z</time></trkpt><trkpt lat="42.062172" lon="12.1630322"><ele>241.00000000000003</ele><time>2026-04-01T09:37:30.775Z</time></trkpt><trkpt lat="42.0621978" lon="12.1629471"><ele>241.0</ele><time>2026-04-01T09:37:31.774Z</time></trkpt><trkpt lat="42.0622136" lon="12.1628548"><ele>241.0</ele><time>2026-04-01T09:37:32.775Z</time></trkpt><trkpt lat="42.0622269" lon="12.1627624"><ele>240.42857142857144</ele><time>2026-04-01T09:37:33.778Z</time></trkpt><trkpt lat="42.0622398" lon="12.1626588"><ele>239.8571428571429</ele><time>2026-04-01T09:37:34.77Z</time></trkpt><trkpt lat="42.0622459" lon="12.1625595"><ele>239.28571428571428</ele><time>2026-04-01T09:37:35.772Z</time></trkpt><trkpt lat="42.0622482" lon="12.162458"><ele>238.71428571428572</ele><time>2026-04-01T09:37:36.771Z</time></trkpt><trkpt lat="42.062239" lon="12.1623632"><ele>238.14285714285714</ele><time>2026-04-01T09:37:37.776Z</time></trkpt><trkpt lat="42.0622256" lon="12.1622792"><ele>237.57142857142856</ele><time>2026-04-01T09:37:38.777Z</time></trkpt><trkpt lat="42.0622112" lon="12.1621953"><ele>236.99999999999997</ele><time>2026-04-01T09:37:39.778Z</time></trkpt><trkpt lat="42.0621866" lon="12.1621117"><ele>235.66666666666666</ele><time>2026-04-01T09:37:40.779Z</time></trkpt><trkpt lat="42.0621403" lon="12.1620404"><ele>234.33333333333331</ele><time>2026-04-01T09:37:41.766Z</time></trkpt><trkpt lat="42.0620783" lon="12.1619651"><ele>233.0</ele><time>2026-04-01T09:37:42.768Z</time></trkpt><trkpt lat="42.0620042" lon="12.1618912"><ele>231.66666666666666</ele><time>2026-04-01T09:37:43.767Z</time></trkpt><trkpt lat="42.06192" lon="12.1618097"><ele>230.33333333333331</ele><time>2026-04-01T09:37:44.771Z</time></trkpt><trkpt lat="42.0618433" lon="12.1617242"><ele>229.0</ele><time>2026-04-01T09:37:45.769Z</time></trkpt><trkpt lat="42.0617786" lon="12.1616374"><ele>228.99999999999997</ele><time>2026-04-01T09:37:46.77Z</time></trkpt><trkpt lat="42.0617128" lon="12.1615618"><ele>229.0</ele><time>2026-04-01T09:37:47.763Z</time></trkpt><trkpt lat="42.0616444" lon="12.1615127"><ele>229.0</ele><time>2026-04-01T09:37:48.761Z</time></trkpt><trkpt lat="42.0615733" lon="12.1614804"><ele>229.0</ele><time>2026-04-01T09:37:49.781Z</time></trkpt><trkpt lat="42.061506" lon="12.1614397"><ele>228.99999999999997</ele><time>2026-04-01T09:37:50.76Z</time></trkpt><trkpt lat="42.0614411" lon="12.161388"><ele>229.0</ele><time>2026-04-01T09:37:51.761Z</time></trkpt><trkpt lat="42.0613717" lon="12.1613338"><ele>226.6</ele><time>2026-04-01T09:37:52.756Z</time></trkpt><trkpt lat="42.0613062" lon="12.1612885"><ele>224.2</ele><time>2026-04-01T09:37:53.758Z</time></trkpt><trkpt lat="42.0612142" lon="12.1612389"><ele>221.79999999999998</ele><time>2026-04-01T09:37:55.758Z</time></trkpt><trkpt lat="42.0611345" lon="12.161174"><ele>219.39999999999998</ele><time>2026-04-01T09:37:57.76Z</time></trkpt><trkpt lat="42.0610502" lon="12.1610896"><ele>217.0</ele><time>2026-04-01T09:37:59.763Z</time></trkpt><trkpt lat="42.0609763" lon="12.1609797"><ele>216.99999999999997</ele><time>2026-04-01T09:38:01.759Z</time></trkpt><trkpt lat="42.060916" lon="12.160864"><ele>217.0</ele><time>2026-04-01T09:38:03.763Z</time></trkpt><trkpt lat="42.0608823" lon="12.1607668"><ele>217.0</ele><time>2026-04-01T09:38:05.769Z</time></trkpt><trkpt lat="42.0608373" lon="12.1606814"><ele>217.0</ele><time>2026-04-01T09:38:08.773Z</time></trkpt><trkpt lat="42.0607936" lon="12.1606149"><ele>216.99999999999997</ele><time>2026-04-01T09:38:10.766Z</time></trkpt><trkpt lat="42.0607546" lon="12.1604934"><ele>217.0</ele><time>2026-04-01T09:38:12.768Z</time></trkpt><trkpt lat="42.0607296" lon="12.1603635"><ele>216.75</ele><time>2026-04-01T09:38:14.766Z</time></trkpt><trkpt lat="42.0607383" lon="12.1602092"><ele>216.5</ele><time>2026-04-01T09:38:16.768Z</time></trkpt><trkpt lat="42.0607863" lon="12.1600618"><ele>216.25</ele><time>2026-04-01T09:38:18.765Z</time></trkpt><trkpt lat="42.0608734" lon="12.1599464"><ele>216.0</ele><time>2026-04-01T09:38:20.78Z</time></trkpt><trkpt lat="42.0609685" lon="12.1598631"><ele>215.66666666666666</ele><time>2026-04-01T09:38:22.767Z</time></trkpt><trkpt lat="42.061064" lon="12.159797"><ele>215.33333333333331</ele><time>2026-04-01T09:38:24.762Z</time></trkpt><trkpt lat="42.0611344" lon="12.1597679"><ele>215.0</ele><time>2026-04-01T09:38:26.761Z</time></trkpt><trkpt lat="42.0611969" lon="12.1597491"><ele>214.66666666666666</ele><time>2026-04-01T09:38:48.755Z</time></trkpt><trkpt lat="42.0612576" lon="12.15969"><ele>214.33333333333331</ele><time>2026-04-01T09:39:44.751Z</time></trkpt><trkpt lat="42.0613062" lon="12.1595903"><ele>214.0</ele><time>2026-04-01T09:39:47.754Z</time></trkpt><trkpt lat="42.0613786" lon="12.1594869"><ele>214.00000000000003</ele><time>2026-04-01T09:39:49.755Z</time></trkpt><trkpt lat="42.0614325" lon="12.1594227"><ele>214.0</ele><time>2026-04-01T09:39:50.757Z</time></trkpt><trkpt lat="42.0614911" lon="12.1593625"><ele>214.0</ele><time>2026-04-01T09:39:51.761Z</time></trkpt><trkpt lat="42.0615337" lon="12.1592979"><ele>214.0</ele><time>2026-04-01T09:39:52.773Z</time></trkpt><trkpt lat="42.0615772" lon="12.1592345"><ele>214.0</ele><time>2026-04-01T09:39:53.781Z</time></trkpt><trkpt lat="42.0616337" lon="12.1591155"><ele>214.00000000000003</ele><time>2026-04-01T09:39:55.77Z</time></trkpt><trkpt lat="42.06162" lon="12.1590263"><ele>214.0</ele><time>2026-04-01T09:39:57.768Z</time></trkpt><trkpt lat="42.0615672" lon="12.1589661"><ele>216.39999999999998</ele><time>2026-04-01T09:39:59.774Z</time></trkpt><trkpt lat="42.0615237" lon="12.1588989"><ele>218.79999999999998</ele><time>2026-04-01T09:40:01.775Z</time></trkpt><trkpt lat="42.0614765" lon="12.1587687"><ele>221.20000000000002</ele><time>2026-04-01T09:40:03.76Z</time></trkpt><trkpt lat="42.0614422" lon="12.1586246"><ele>223.60000000000002</ele><time>2026-04-01T09:40:05.762Z</time></trkpt><trkpt lat="42.0614138" lon="12.1584631"><ele>226.0</ele><time>2026-04-01T09:40:07.758Z</time></trkpt><trkpt lat="42.0614027" lon="12.158298"><ele>226.4</ele><time>2026-04-01T09:40:09.754Z</time></trkpt><trkpt lat="42.0613958" lon="12.1581561"><ele>226.8</ele><time>2026-04-01T09:40:11.76Z</time></trkpt><trkpt lat="42.0613875" lon="12.1580525"><ele>227.20000000000002</ele><time>2026-04-01T09:40:13.762Z</time></trkpt><trkpt lat="42.0614106" lon="12.1579459"><ele>227.60000000000002</ele><time>2026-04-01T09:40:15.771Z</time></trkpt><trkpt lat="42.0614248" lon="12.1578176"><ele>228.0</ele><time>2026-04-01T09:40:17.772Z</time></trkpt><trkpt lat="42.0614815" lon="12.1576465"><ele>228.0</ele><time>2026-04-01T09:40:19.775Z</time></trkpt><trkpt lat="42.0615115" lon="12.1575402"><ele>228.0</ele><time>2026-04-01T09:40:20.767Z</time></trkpt><trkpt lat="42.061522" lon="12.157429"><ele>228.0</ele><time>2026-04-01T09:40:21.773Z</time></trkpt><trkpt lat="42.0615324" lon="12.1573298"><ele>228.0</ele><time>2026-04-01T09:40:22.773Z</time></trkpt><trkpt lat="42.0615613" lon="12.1572199"><ele>228.0</ele><time>2026-04-01T09:40:24.786Z</time></trkpt><trkpt lat="42.0616073" lon="12.1571381"><ele>228.0</ele><time>2026-04-01T09:40:28.766Z</time></trkpt><trkpt lat="42.0616983" lon="12.1570826"><ele>227.60000000000002</ele><time>2026-04-01T09:40:38.761Z</time></trkpt><trkpt lat="42.0617615" lon="12.1570317"><ele>227.20000000000002</ele><time>2026-04-01T09:40:39.758Z</time></trkpt><trkpt lat="42.0618387" lon="12.1569753"><ele>226.8</ele><time>2026-04-01T09:40:40.755Z</time></trkpt><trkpt lat="42.0619106" lon="12.1569184"><ele>226.4</ele><time>2026-04-01T09:40:41.755Z</time></trkpt><trkpt lat="42.0620357" lon="12.1567812"><ele>226.0</ele><time>2026-04-01T09:40:42.768Z</time></trkpt><trkpt lat="42.0621693" lon="12.1565692"><ele>227.33333333333331</ele><time>2026-04-01T09:40:43.775Z</time></trkpt><trkpt lat="42.0622916" lon="12.1563505"><ele>228.66666666666669</ele><time>2026-04-01T09:40:44.785Z</time></trkpt><trkpt lat="42.0624006" lon="12.1561616"><ele>230.0</ele><time>2026-04-01T09:40:45.779Z</time></trkpt><trkpt lat="42.0625242" lon="12.1560023"><ele>230.4</ele><time>2026-04-01T09:40:46.764Z</time></trkpt><trkpt lat="42.0626292" lon="12.1558496"><ele>230.8</ele><time>2026-04-01T09:40:47.776Z</time></trkpt><trkpt lat="42.0626963" lon="12.1557441"><ele>231.2</ele><time>2026-04-01T09:40:48.778Z</time></trkpt><trkpt lat="42.0627262" lon="12.1556415"><ele>231.6</ele><time>2026-04-01T09:40:49.776Z</time></trkpt><trkpt lat="42.0627288" lon="12.1555044"><ele>232.0</ele><time>2026-04-01T09:40:51.779Z</time></trkpt><trkpt lat="42.0626664" lon="12.1554176"><ele>231.99999999999997</ele><time>2026-04-01T09:40:53.791Z</time></trkpt><trkpt lat="42.062535" lon="12.1554031"><ele>232.0</ele><time>2026-04-01T09:40:55.795Z</time></trkpt><trkpt lat="42.0624599" lon="12.1554159"><ele>232.0</ele><time>2026-04-01T09:40:56.779Z</time></trkpt><trkpt lat="42.062394" lon="12.1554518"><ele>232.0</ele><time>2026-04-01T09:40:57.779Z</time></trkpt><trkpt lat="42.0623251" lon="12.1554909"><ele>231.99999999999997</ele><time>2026-04-01T09:40:58.786Z</time></trkpt><trkpt lat="42.0622518" lon="12.1555319"><ele>232.0</ele><time>2026-04-01T09:40:59.782Z</time></trkpt><trkpt lat="42.0621653" lon="12.1555687"><ele>231.5</ele><time>2026-04-01T09:41:00.773Z</time></trkpt><trkpt lat="42.0620604" lon="12.1556165"><ele>231.0</ele><time>2026-04-01T09:41:01.778Z</time></trkpt><trkpt lat="42.0619437" lon="12.1556663"><ele>230.5</ele><time>2026-04-01T09:41:02.778Z</time></trkpt><trkpt lat="42.0618235" lon="12.1557244"><ele>230.0</ele><time>2026-04-01T09:41:03.777Z</time></trkpt><trkpt lat="42.0616999" lon="12.1557866"><ele>230.75</ele><time>2026-04-01T09:41:04.767Z</time></trkpt><trkpt lat="42.0615787" lon="12.1558592"><ele>231.5</ele><time>2026-04-01T09:41:05.769Z</time></trkpt><trkpt lat="42.0614644" lon="12.1559407"><ele>232.25</ele><time>2026-04-01T09:41:06.768Z</time></trkpt><trkpt lat="42.0613769" lon="12.1560253"><ele>233.0</ele><time>2026-04-01T09:41:07.768Z</time></trkpt><trkpt lat="42.0612955" lon="12.1561077"><ele>233.00000000000003</ele><time>2026-04-01T09:41:08.763Z</time></trkpt><trkpt lat="42.0612376" lon="12.1561818"><ele>233.0</ele><time>2026-04-01T09:41:09.772Z</time></trkpt><trkpt lat="42.0611865" lon="12.1562668"><ele>233.0</ele><time>2026-04-01T09:41:11.78Z</time></trkpt><trkpt lat="42.0612575" lon="12.15623"><ele>233.0</ele><time>2026-04-01T09:41:22.773Z</time></trkpt><trkpt lat="42.061323" lon="12.1561896"><ele>233.00000000000003</ele><time>2026-04-01T09:41:27.779Z</time></trkpt><trkpt lat="42.0613885" lon="12.1560984"><ele>233.0</ele><time>2026-04-01T09:41:41.763Z</time></trkpt><trkpt lat="42.0614638" lon="12.156035"><ele>233.0</ele><time>2026-04-01T09:41:42.766Z</time></trkpt><trkpt lat="42.061569" lon="12.1559706"><ele>233.0</ele><time>2026-04-01T09:41:43.774Z</time></trkpt><trkpt lat="42.0616743" lon="12.1558998"><ele>233.0</ele><time>2026-04-01T09:41:44.769Z</time></trkpt><trkpt lat="42.0617767" lon="12.1558251"><ele>233.0</ele><time>2026-04-01T09:41:45.765Z</time></trkpt><trkpt lat="42.0618893" lon="12.1557687"><ele>232.4</ele><time>2026-04-01T09:41:46.77Z</time></trkpt><trkpt lat="42.0619895" lon="12.1557106"><ele>231.8</ele><time>2026-04-01T09:41:47.767Z</time></trkpt><trkpt lat="42.0620858" lon="12.1556762"><ele>231.2</ele><time>2026-04-01T09:41:48.779Z</time></trkpt><trkpt lat="42.0621758" lon="12.1556482"><ele>230.6</ele><time>2026-04-01T09:41:49.776Z</time></trkpt><trkpt lat="42.0622583" lon="12.1556183"><ele>230.0</ele><time>2026-04-01T09:41:50.776Z</time></trkpt><trkpt lat="42.062336" lon="12.155599"><ele>230.4</ele><time>2026-04-01T09:41:51.772Z</time></trkpt><trkpt lat="42.0624011" lon="12.1555801"><ele>230.8</ele><time>2026-04-01T09:41:52.777Z</time></trkpt><trkpt lat="42.0625267" lon="12.1555599"><ele>231.2</ele><time>2026-04-01T09:41:54.784Z</time></trkpt><trkpt lat="42.0626434" lon="12.1555685"><ele>231.6</ele><time>2026-04-01T09:41:56.799Z</time></trkpt><trkpt lat="42.0627363" lon="12.155648"><ele>232.0</ele><time>2026-04-01T09:41:59.773Z</time></trkpt><trkpt lat="42.0627079" lon="12.155729"><ele>231.5</ele><time>2026-04-01T09:42:01.778Z</time></trkpt><trkpt lat="42.0626381" lon="12.1558145"><ele>231.0</ele><time>2026-04-01T09:42:02.772Z</time></trkpt><trkpt lat="42.0625498" lon="12.1559228"><ele>230.5</ele><time>2026-04-01T09:42:03.769Z</time></trkpt><trkpt lat="42.0624484" lon="12.1560526"><ele>230.0</ele><time>2026-04-01T09:42:04.768Z</time></trkpt><trkpt lat="42.0623547" lon="12.1561797"><ele>230.0</ele><time>2026-04-01T09:42:05.772Z</time></trkpt><trkpt lat="42.0622602" lon="12.1563053"><ele>230.0</ele><time>2026-04-01T09:42:06.775Z</time></trkpt><trkpt lat="42.0621815" lon="12.1564339"><ele>230.0</ele><time>2026-04-01T09:42:07.775Z</time></trkpt><trkpt lat="42.062104" lon="12.1565634"><ele>230.0</ele><time>2026-04-01T09:42:08.773Z</time></trkpt><trkpt lat="42.0620233" lon="12.1566921"><ele>229.0</ele><time>2026-04-01T09:42:09.78Z</time></trkpt><trkpt lat="42.0619338" lon="12.1568113"><ele>228.0</ele><time>2026-04-01T09:42:10.768Z</time></trkpt><trkpt lat="42.0618438" lon="12.1569174"><ele>227.0</ele><time>2026-04-01T09:42:11.773Z</time></trkpt><trkpt lat="42.0617443" lon="12.1570179"><ele>226.0</ele><time>2026-04-01T09:42:12.776Z</time></trkpt><trkpt lat="42.0616531" lon="12.1571063"><ele>226.33333333333331</ele><time>2026-04-01T09:42:13.77Z</time></trkpt><trkpt lat="42.0615639" lon="12.1571834"><ele>226.66666666666666</ele><time>2026-04-01T09:42:14.767Z</time></trkpt><trkpt lat="42.0614842" lon="12.1572601"><ele>227.0</ele><time>2026-04-01T09:42:15.773Z</time></trkpt><trkpt lat="42.061427" lon="12.1573437"><ele>227.33333333333331</ele><time>2026-04-01T09:42:16.77Z</time></trkpt><trkpt lat="42.0613879" lon="12.1574346"><ele>227.66666666666666</ele><time>2026-04-01T09:42:17.768Z</time></trkpt><trkpt lat="42.0613645" lon="12.1575284"><ele>228.0</ele><time>2026-04-01T09:42:18.77Z</time></trkpt><trkpt lat="42.0613487" lon="12.1576155"><ele>228.0</ele><time>2026-04-01T09:42:19.766Z</time></trkpt><trkpt lat="42.0613092" lon="12.1577557"><ele>228.0</ele><time>2026-04-01T09:42:21.767Z</time></trkpt><trkpt lat="42.0612558" lon="12.1578361"><ele>228.0</ele><time>2026-04-01T09:42:23.768Z</time></trkpt><trkpt lat="42.0611708" lon="12.1579035"><ele>228.0</ele><time>2026-04-01T09:42:25.773Z</time></trkpt><trkpt lat="42.0611034" lon="12.1579125"><ele>228.0</ele><time>2026-04-01T09:42:26.768Z</time></trkpt><trkpt lat="42.0610391" lon="12.1579103"><ele>228.0</ele><time>2026-04-01T09:42:27.781Z</time></trkpt><trkpt lat="42.0609727" lon="12.1578858"><ele>228.0</ele><time>2026-04-01T09:42:28.773Z</time></trkpt><trkpt lat="42.0608894" lon="12.1578554"><ele>228.0</ele><time>2026-04-01T09:42:29.774Z</time></trkpt><trkpt lat="42.0608155" lon="12.1578339"><ele>228.0</ele><time>2026-04-01T09:42:30.78Z</time></trkpt><trkpt lat="42.0607505" lon="12.1578286"><ele>228.0</ele><time>2026-04-01T09:42:31.78Z</time></trkpt><trkpt lat="42.0606177" lon="12.1578265"><ele>228.0</ele><time>2026-04-01T09:42:33.766Z</time></trkpt><trkpt lat="42.0605571" lon="12.1577981"><ele>228.0</ele><time>2026-04-01T09:42:34.773Z</time></trkpt><trkpt lat="42.0604611" lon="12.1577242"><ele>228.16666666666666</ele><time>2026-04-01T09:42:36.778Z</time></trkpt><trkpt lat="42.0603637" lon="12.1576599"><ele>228.33333333333331</ele><time>2026-04-01T09:42:38.775Z</time></trkpt><trkpt lat="42.0602885" lon="12.1576397"><ele>228.5</ele><time>2026-04-01T09:42:40.774Z</time></trkpt><trkpt lat="42.0601929" lon="12.1576367"><ele>228.66666666666666</ele><time>2026-04-01T09:42:42.777Z</time></trkpt><trkpt lat="42.0600981" lon="12.1576235"><ele>228.83333333333331</ele><time>2026-04-01T09:42:44.769Z</time></trkpt><trkpt lat="42.0600296" lon="12.1576318"><ele>229.0</ele><time>2026-04-01T09:42:46.775Z</time></trkpt><trkpt lat="42.0600919" lon="12.1575956"><ele>229.0</ele><time>2026-04-01T09:43:17.769Z</time></trkpt><trkpt lat="42.0601989" lon="12.1576374"><ele>228.99999999999997</ele><time>2026-04-01T09:43:19.764Z</time></trkpt><trkpt lat="42.0602795" lon="12.1576819"><ele>228.99999999999997</ele><time>2026-04-01T09:43:20.763Z</time></trkpt><trkpt lat="42.0603728" lon="12.1577193"><ele>229.0</ele><time>2026-04-01T09:43:21.764Z</time></trkpt><trkpt lat="42.0604726" lon="12.1577556"><ele>229.0</ele><time>2026-04-01T09:43:22.77Z</time></trkpt><trkpt lat="42.0605688" lon="12.157767"><ele>228.99999999999997</ele><time>2026-04-01T09:43:23.767Z</time></trkpt><trkpt lat="42.0606333" lon="12.1577801"><ele>229.0</ele><time>2026-04-01T09:43:24.77Z</time></trkpt><trkpt lat="42.0607385" lon="12.157764"><ele>229.0</ele><time>2026-04-01T09:43:26.777Z</time></trkpt><trkpt lat="42.0608364" lon="12.1577574"><ele>229.0</ele><time>2026-04-01T09:43:28.781Z</time></trkpt><trkpt lat="42.0608969" lon="12.1577284"><ele>228.99999999999997</ele><time>2026-04-01T09:43:30.772Z</time></trkpt><trkpt lat="42.060951" lon="12.1576728"><ele>229.0</ele><time>2026-04-01T09:43:32.767Z</time></trkpt><trkpt lat="42.0610424" lon="12.1575767"><ele>228.79999999999998</ele><time>2026-04-01T09:43:34.769Z</time></trkpt><trkpt lat="42.0611442" lon="12.1575391"><ele>228.59999999999997</ele><time>2026-04-01T09:43:36.772Z</time></trkpt><trkpt lat="42.0612542" lon="12.1574998"><ele>228.4</ele><time>2026-04-01T09:43:38.775Z</time></trkpt><trkpt lat="42.0613561" lon="12.1574222"><ele>228.2</ele><time>2026-04-01T09:43:40.776Z</time></trkpt><trkpt lat="42.0614208" lon="12.15737"><ele>228.0</ele><time>2026-04-01T09:43:41.767Z</time></trkpt><trkpt lat="42.0614911" lon="12.1573194"><ele>227.66666666666666</ele><time>2026-04-01T09:43:42.774Z</time></trkpt><trkpt lat="42.0615546" lon="12.1572694"><ele>227.33333333333331</ele><time>2026-04-01T09:43:43.776Z</time></trkpt><trkpt lat="42.0616187" lon="12.1572006"><ele>227.0</ele><time>2026-04-01T09:43:44.779Z</time></trkpt><trkpt lat="42.0616806" lon="12.1571296"><ele>226.66666666666666</ele><time>2026-04-01T09:43:45.775Z</time></trkpt><trkpt lat="42.0617464" lon="12.1570529"><ele>226.33333333333331</ele><time>2026-04-01T09:43:46.772Z</time></trkpt><trkpt lat="42.0618242" lon="12.1569713"><ele>226.0</ele><time>2026-04-01T09:43:47.773Z</time></trkpt><trkpt lat="42.0619125" lon="12.1568695"><ele>226.0</ele><time>2026-04-01T09:43:48.772Z</time></trkpt><trkpt lat="42.062" lon="12.15675"><ele>226.0</ele><time>2026-04-01T09:43:49.771Z</time></trkpt><trkpt lat="42.0620957" lon="12.1565836"><ele>226.0</ele><time>2026-04-01T09:43:50.77Z</time></trkpt><trkpt lat="42.0622048" lon="12.1564043"><ele>227.33333333333331</ele><time>2026-04-01T09:43:51.767Z</time></trkpt><trkpt lat="42.0623366" lon="12.1562012"><ele>228.66666666666669</ele><time>2026-04-01T09:43:52.778Z</time></trkpt><trkpt lat="42.0624565" lon="12.1559996"><ele>230.0</ele><time>2026-04-01T09:43:53.778Z</time></trkpt><trkpt lat="42.062576" lon="12.1558276"><ele>230.4</ele><time>2026-04-01T09:43:54.777Z</time></trkpt><trkpt lat="42.0626632" lon="12.1557014"><ele>230.8</ele><time>2026-04-01T09:43:55.778Z</time></trkpt><trkpt lat="42.0627457" lon="12.155605"><ele>231.2</ele><time>2026-04-01T09:43:56.771Z</time></trkpt><trkpt lat="42.0628035" lon="12.1555271"><ele>231.6</ele><time>2026-04-01T09:43:57.768Z</time></trkpt><trkpt lat="42.0629121" lon="12.1554994"><ele>232.0</ele><time>2026-04-01T09:43:59.773Z</time></trkpt><trkpt lat="42.0629776" lon="12.1554824"><ele>232.0</ele><time>2026-04-01T09:44:01.779Z</time></trkpt><trkpt lat="42.0630557" lon="12.1555875"><ele>232.0</ele><time>2026-04-01T09:44:03.774Z</time></trkpt><trkpt lat="42.0631744" lon="12.1556436"><ele>232.0</ele><time>2026-04-01T09:44:05.779Z</time></trkpt><trkpt lat="42.0632482" lon="12.1556677"><ele>232.0</ele><time>2026-04-01T09:44:06.771Z</time></trkpt><trkpt lat="42.063329" lon="12.1556957"><ele>232.0</ele><time>2026-04-01T09:44:07.783Z</time></trkpt><trkpt lat="42.0634187" lon="12.1557259"><ele>233.6</ele><time>2026-04-01T09:44:08.779Z</time></trkpt><trkpt lat="42.0635089" lon="12.1557636"><ele>235.2</ele><time>2026-04-01T09:44:09.778Z</time></trkpt><trkpt lat="42.0636055" lon="12.155808"><ele>236.8</ele><time>2026-04-01T09:44:10.79Z</time></trkpt><trkpt lat="42.0637156" lon="12.1558668"><ele>238.4</ele><time>2026-04-01T09:44:11.782Z</time></trkpt><trkpt lat="42.0638121" lon="12.155939"><ele>240.0</ele><time>2026-04-01T09:44:12.783Z</time></trkpt><trkpt lat="42.0638981" lon="12.1560354"><ele>240.0</ele><time>2026-04-01T09:44:13.786Z</time></trkpt><trkpt lat="42.0639759" lon="12.1561349"><ele>240.0</ele><time>2026-04-01T09:44:14.788Z</time></trkpt><trkpt lat="42.0640543" lon="12.1562192"><ele>240.0</ele><time>2026-04-01T09:44:15.787Z</time></trkpt><trkpt lat="42.0641308" lon="12.1562946"><ele>240.0</ele><time>2026-04-01T09:44:16.784Z</time></trkpt><trkpt lat="42.0642145" lon="12.1563624"><ele>240.0</ele><time>2026-04-01T09:44:17.788Z</time></trkpt><trkpt lat="42.0642949" lon="12.1564282"><ele>240.16666666666666</ele><time>2026-04-01T09:44:18.783Z</time></trkpt><trkpt lat="42.0643753" lon="12.1564652"><ele>240.33333333333331</ele><time>2026-04-01T09:44:19.783Z</time></trkpt><trkpt lat="42.0644581" lon="12.1564815"><ele>240.5</ele><time>2026-04-01T09:44:20.789Z</time></trkpt><trkpt lat="42.0645371" lon="12.1564713"><ele>240.66666666666666</ele><time>2026-04-01T09:44:21.783Z</time></trkpt><trkpt lat="42.064616" lon="12.1564441"><ele>240.83333333333331</ele><time>2026-04-01T09:44:22.778Z</time></trkpt><trkpt lat="42.0646863" lon="12.1564074"><ele>241.0</ele><time>2026-04-01T09:44:23.779Z</time></trkpt><trkpt lat="42.0647577" lon="12.1563618"><ele>241.0</ele><time>2026-04-01T09:44:24.778Z</time></trkpt><trkpt lat="42.0648303" lon="12.1563008"><ele>241.00000000000003</ele><time>2026-04-01T09:44:25.785Z</time></trkpt><trkpt lat="42.0649095" lon="12.1562479"><ele>241.00000000000003</ele><time>2026-04-01T09:44:26.787Z</time></trkpt><trkpt lat="42.0650125" lon="12.1561947"><ele>241.0</ele><time>2026-04-01T09:44:27.778Z</time></trkpt><trkpt lat="42.0651173" lon="12.1561152"><ele>241.0</ele><time>2026-04-01T09:44:28.788Z</time></trkpt><trkpt lat="42.0652567" lon="12.1560103"><ele>240.5</ele><time>2026-04-01T09:44:29.784Z</time></trkpt><trkpt lat="42.0654401" lon="12.1558666"><ele>240.0</ele><time>2026-04-01T09:44:30.786Z</time></trkpt><trkpt lat="42.0656833" lon="12.155671"><ele>240.5</ele><time>2026-04-01T09:44:31.796Z</time></trkpt><trkpt lat="42.065928" lon="12.155491"><ele>241.0</ele><time>2026-04-01T09:44:32.776Z</time></trkpt><trkpt lat="42.0661854" lon="12.1553145"><ele>241.0</ele><time>2026-04-01T09:44:33.779Z</time></trkpt><trkpt lat="42.0664733" lon="12.1551921"><ele>241.0</ele><time>2026-04-01T09:44:34.783Z</time></trkpt><trkpt lat="42.0667772" lon="12.155106"><ele>243.5</ele><time>2026-04-01T09:44:35.775Z</time></trkpt><trkpt lat="42.0670694" lon="12.1550426"><ele>246.0</ele><time>2026-04-01T09:44:36.777Z</time></trkpt><trkpt lat="42.0673237" lon="12.155016"><ele>246.5</ele><time>2026-04-01T09:44:37.766Z</time></trkpt><trkpt lat="42.0675845" lon="12.154984"><ele>247.0</ele><time>2026-04-01T09:44:38.764Z</time></trkpt><trkpt lat="42.0678236" lon="12.1549855"><ele>247.0</ele><time>2026-04-01T09:44:39.766Z</time></trkpt><trkpt lat="42.0680296" lon="12.1549647"><ele>247.0</ele><time>2026-04-01T09:44:40.757Z</time></trkpt><trkpt lat="42.0681883" lon="12.1549565"><ele>247.0</ele><time>2026-04-01T09:44:41.769Z</time></trkpt><trkpt lat="42.0683116" lon="12.1549272"><ele>247.33333333333331</ele><time>2026-04-01T09:44:42.774Z</time></trkpt><trkpt lat="42.0684491" lon="12.1548884"><ele>247.66666666666669</ele><time>2026-04-01T09:44:43.774Z</time></trkpt><trkpt lat="42.0686121" lon="12.1548516"><ele>248.0</ele><time>2026-04-01T09:44:44.769Z</time></trkpt><trkpt lat="42.0687808" lon="12.1548142"><ele>248.66666666666669</ele><time>2026-04-01T09:44:45.769Z</time></trkpt><trkpt lat="42.0689588" lon="12.1547801"><ele>249.33333333333331</ele><time>2026-04-01T09:44:46.781Z</time></trkpt><trkpt lat="42.0691911" lon="12.1547624"><ele>250.0</ele><time>2026-04-01T09:44:47.77Z</time></trkpt><trkpt lat="42.069425" lon="12.1547641"><ele>250.0</ele><time>2026-04-01T09:44:48.772Z</time></trkpt><trkpt lat="42.0696187" lon="12.1547611"><ele>250.0</ele><time>2026-04-01T09:44:49.767Z</time></trkpt><trkpt lat="42.0697918" lon="12.1547579"><ele>250.0</ele><time>2026-04-01T09:44:50.777Z</time></trkpt><trkpt lat="42.069942" lon="12.1547586"><ele>249.66666666666666</ele><time>2026-04-01T09:44:51.775Z</time></trkpt><trkpt lat="42.0701166" lon="12.1547554"><ele>249.33333333333331</ele><time>2026-04-01T09:44:52.779Z</time></trkpt><trkpt lat="42.0702742" lon="12.1547123"><ele>249.0</ele><time>2026-04-01T09:44:53.776Z</time></trkpt><trkpt lat="42.0704348" lon="12.1546766"><ele>249.0</ele><time>2026-04-01T09:44:54.78Z</time></trkpt><trkpt lat="42.0706057" lon="12.1546455"><ele>249.0</ele><time>2026-04-01T09:44:55.783Z</time></trkpt><trkpt lat="42.070784" lon="12.1546344"><ele>249.0</ele><time>2026-04-01T09:44:56.783Z</time></trkpt><trkpt lat="42.070957" lon="12.1546247"><ele>248.33333333333331</ele><time>2026-04-01T09:44:57.785Z</time></trkpt><trkpt lat="42.0711474" lon="12.1545825"><ele>247.66666666666666</ele><time>2026-04-01T09:44:58.779Z</time></trkpt><trkpt lat="42.0713419" lon="12.1545242"><ele>247.0</ele><time>2026-04-01T09:44:59.775Z</time></trkpt><trkpt lat="42.0715371" lon="12.1544685"><ele>246.0</ele><time>2026-04-01T09:45:00.783Z</time></trkpt><trkpt lat="42.0717411" lon="12.154427"><ele>245.0</ele><time>2026-04-01T09:45:01.783Z</time></trkpt><trkpt lat="42.0719393" lon="12.1543842"><ele>244.0</ele><time>2026-04-01T09:45:02.788Z</time></trkpt><trkpt lat="42.072133" lon="12.1543405"><ele>244.0</ele><time>2026-04-01T09:45:03.77Z</time></trkpt><trkpt lat="42.0723108" lon="12.1542589"><ele>244.0</ele><time>2026-04-01T09:45:04.776Z</time></trkpt><trkpt lat="42.0724688" lon="12.1541558"><ele>244.0</ele><time>2026-04-01T09:45:05.765Z</time></trkpt><trkpt lat="42.0726309" lon="12.1540389"><ele>243.33333333333331</ele><time>2026-04-01T09:45:06.762Z</time></trkpt><trkpt lat="42.0727812" lon="12.1539241"><ele>242.66666666666669</ele><time>2026-04-01T09:45:07.755Z</time></trkpt><trkpt lat="42.0729215" lon="12.1537891"><ele>242.0</ele><time>2026-04-01T09:45:08.771Z</time></trkpt><trkpt lat="42.0730459" lon="12.1536434"><ele>242.0</ele><time>2026-04-01T09:45:09.76Z</time></trkpt><trkpt lat="42.0731749" lon="12.1535013"><ele>242.0</ele><time>2026-04-01T09:45:10.766Z</time></trkpt><trkpt lat="42.073298" lon="12.1533626"><ele>242.0</ele><time>2026-04-01T09:45:11.757Z</time></trkpt><trkpt lat="42.0734083" lon="12.1532318"><ele>241.75</ele><time>2026-04-01T09:45:12.772Z</time></trkpt><trkpt lat="42.0734932" lon="12.1531176"><ele>241.5</ele><time>2026-04-01T09:45:13.766Z</time></trkpt><trkpt lat="42.0735831" lon="12.1530208"><ele>241.25</ele><time>2026-04-01T09:45:14.772Z</time></trkpt><trkpt lat="42.0736997" lon="12.1529447"><ele>241.0</ele><time>2026-04-01T09:45:15.768Z</time></trkpt><trkpt lat="42.0737916" lon="12.1528692"><ele>241.0</ele><time>2026-04-01T09:45:16.776Z</time></trkpt><trkpt lat="42.0738855" lon="12.1527971"><ele>241.00000000000003</ele><time>2026-04-01T09:45:17.774Z</time></trkpt><trkpt lat="42.0739744" lon="12.1527175"><ele>241.00000000000003</ele><time>2026-04-01T09:45:18.772Z</time></trkpt><trkpt lat="42.0740712" lon="12.1526382"><ele>241.0</ele><time>2026-04-01T09:45:19.77Z</time></trkpt><trkpt lat="42.0741551" lon="12.1525686"><ele>241.0</ele><time>2026-04-01T09:45:20.771Z</time></trkpt><trkpt lat="42.0742263" lon="12.1524959"><ele>240.83333333333331</ele><time>2026-04-01T09:45:21.768Z</time></trkpt><trkpt lat="42.0742784" lon="12.1524099"><ele>240.66666666666666</ele><time>2026-04-01T09:45:22.775Z</time></trkpt><trkpt lat="42.0743238" lon="12.1523349"><ele>240.5</ele><time>2026-04-01T09:45:23.786Z</time></trkpt><trkpt lat="42.0743683" lon="12.1522201"><ele>240.33333333333331</ele><time>2026-04-01T09:45:25.781Z</time></trkpt><trkpt lat="42.0744505" lon="12.1521111"><ele>240.16666666666666</ele><time>2026-04-01T09:45:27.773Z</time></trkpt><trkpt lat="42.074503" lon="12.152048"><ele>240.0</ele><time>2026-04-01T09:45:28.777Z</time></trkpt><trkpt lat="42.0745775" lon="12.1519941"><ele>241.0</ele><time>2026-04-01T09:45:29.778Z</time></trkpt><trkpt lat="42.0746627" lon="12.1519579"><ele>242.0</ele><time>2026-04-01T09:45:30.781Z</time></trkpt><trkpt lat="42.0747533" lon="12.1519562"><ele>243.0</ele><time>2026-04-01T09:45:31.79Z</time></trkpt><trkpt lat="42.0748545" lon="12.1519866"><ele>244.0</ele><time>2026-04-01T09:45:32.773Z</time></trkpt><trkpt lat="42.0749505" lon="12.1520374"><ele>245.0</ele><time>2026-04-01T09:45:33.791Z</time></trkpt><trkpt lat="42.0750495" lon="12.1520796"><ele>245.75</ele><time>2026-04-01T09:45:34.77Z</time></trkpt><trkpt lat="42.0751502" lon="12.1521083"><ele>246.5</ele><time>2026-04-01T09:45:35.768Z</time></trkpt><trkpt lat="42.0752625" lon="12.1521366"><ele>247.25</ele><time>2026-04-01T09:45:36.771Z</time></trkpt><trkpt lat="42.0753837" lon="12.1521613"><ele>248.0</ele><time>2026-04-01T09:45:37.76Z</time></trkpt><trkpt lat="42.0754971" lon="12.1521832"><ele>248.0</ele><time>2026-04-01T09:45:38.757Z</time></trkpt><trkpt lat="42.0756139" lon="12.1522025"><ele>248.0</ele><time>2026-04-01T09:45:39.775Z</time></trkpt><trkpt lat="42.0757206" lon="12.1521763"><ele>248.0</ele><time>2026-04-01T09:45:40.769Z</time></trkpt><trkpt lat="42.0758166" lon="12.1520986"><ele>248.0</ele><time>2026-04-01T09:45:41.761Z</time></trkpt><trkpt lat="42.0759127" lon="12.1520082"><ele>248.33333333333334</ele><time>2026-04-01T09:45:42.774Z</time></trkpt><trkpt lat="42.0759791" lon="12.1519338"><ele>248.66666666666669</ele><time>2026-04-01T09:45:43.759Z</time></trkpt><trkpt lat="42.0760357" lon="12.1518606"><ele>249.0</ele><time>2026-04-01T09:45:44.76Z</time></trkpt><trkpt lat="42.0760675" lon="12.1517381"><ele>249.33333333333331</ele><time>2026-04-01T09:45:46.768Z</time></trkpt><trkpt lat="42.0760405" lon="12.1516492"><ele>249.66666666666666</ele><time>2026-04-01T09:46:04.827Z</time></trkpt><trkpt lat="42.0760722" lon="12.1515202"><ele>250.0</ele><time>2026-04-01T09:46:06.778Z</time></trkpt><trkpt lat="42.0761264" lon="12.1514214"><ele>251.0</ele><time>2026-04-01T09:46:07.771Z</time></trkpt><trkpt lat="42.076183" lon="12.1513165"><ele>252.0</ele><time>2026-04-01T09:46:08.771Z</time></trkpt><trkpt lat="42.0762559" lon="12.1511925"><ele>253.0</ele><time>2026-04-01T09:46:09.787Z</time></trkpt><trkpt lat="42.0763309" lon="12.1510596"><ele>254.0</ele><time>2026-04-01T09:46:10.777Z</time></trkpt><trkpt lat="42.0764289" lon="12.1509031"><ele>254.0</ele><time>2026-04-01T09:46:11.783Z</time></trkpt><trkpt lat="42.0765441" lon="12.1507289"><ele>254.0</ele><time>2026-04-01T09:46:12.774Z</time></trkpt><trkpt lat="42.076649" lon="12.1505549"><ele>254.0</ele><time>2026-04-01T09:46:13.779Z</time></trkpt><trkpt lat="42.0767553" lon="12.1503842"><ele>256.0</ele><time>2026-04-01T09:46:14.781Z</time></trkpt><trkpt lat="42.0768752" lon="12.1502074"><ele>258.0</ele><time>2026-04-01T09:46:15.779Z</time></trkpt><trkpt lat="42.0769666" lon="12.1500646"><ele>260.0</ele><time>2026-04-01T09:46:16.785Z</time></trkpt><trkpt lat="42.0770764" lon="12.1499439"><ele>260.4</ele><time>2026-04-01T09:46:17.771Z</time></trkpt><trkpt lat="42.0771431" lon="12.1498242"><ele>260.8</ele><time>2026-04-01T09:46:18.779Z</time></trkpt><trkpt lat="42.0772071" lon="12.1497055"><ele>261.2</ele><time>2026-04-01T09:46:19.78Z</time></trkpt><trkpt lat="42.0772581" lon="12.1496043"><ele>261.6</ele><time>2026-04-01T09:46:20.779Z</time></trkpt><trkpt lat="42.0773004" lon="12.1494999"><ele>262.0</ele><time>2026-04-01T09:46:21.782Z</time></trkpt><trkpt lat="42.0773375" lon="12.1494124"><ele>262.0</ele><time>2026-04-01T09:46:22.784Z</time></trkpt><trkpt lat="42.0773764" lon="12.1493444"><ele>262.0</ele><time>2026-04-01T09:46:23.779Z</time></trkpt><trkpt lat="42.077453" lon="12.1492518"><ele>262.0</ele><time>2026-04-01T09:46:25.786Z</time></trkpt><trkpt lat="42.0774872" lon="12.149365"><ele>262.0</ele><time>2026-04-01T09:46:52.782Z</time></trkpt><trkpt lat="42.0775107" lon="12.1492773"><ele>262.0</ele><time>2026-04-01T09:48:01.784Z</time></trkpt><trkpt lat="42.0774488" lon="12.1492065"><ele>262.0</ele><time>2026-04-01T09:48:03.789Z</time></trkpt><trkpt lat="42.0773632" lon="12.1491702"><ele>262.0</ele><time>2026-04-01T09:48:04.785Z</time></trkpt><trkpt lat="42.0772552" lon="12.1491352"><ele>262.0</ele><time>2026-04-01T09:48:05.79Z</time></trkpt><trkpt lat="42.0771282" lon="12.1490975"><ele>262.0</ele><time>2026-04-01T09:48:06.783Z</time></trkpt><trkpt lat="42.0769942" lon="12.1490644"><ele>262.0</ele><time>2026-04-01T09:48:07.802Z</time></trkpt><trkpt lat="42.076861" lon="12.1490334"><ele>261.6</ele><time>2026-04-01T09:48:08.79Z</time></trkpt><trkpt lat="42.0767451" lon="12.1490043"><ele>261.2</ele><time>2026-04-01T09:48:09.785Z</time></trkpt><trkpt lat="42.0766333" lon="12.1489701"><ele>260.8</ele><time>2026-04-01T09:48:10.786Z</time></trkpt><trkpt lat="42.0765287" lon="12.1489443"><ele>260.4</ele><time>2026-04-01T09:48:11.786Z</time></trkpt><trkpt lat="42.0764269" lon="12.1489233"><ele>260.0</ele><time>2026-04-01T09:48:12.778Z</time></trkpt><trkpt lat="42.0763206" lon="12.1488868"><ele>259.5</ele><time>2026-04-01T09:48:13.787Z</time></trkpt><trkpt lat="42.076202" lon="12.1488396"><ele>259.0</ele><time>2026-04-01T09:48:14.781Z</time></trkpt><trkpt lat="42.0760738" lon="12.148804"><ele>258.5</ele><time>2026-04-01T09:48:15.792Z</time></trkpt><trkpt lat="42.0759405" lon="12.1487644"><ele>258.0</ele><time>2026-04-01T09:48:16.789Z</time></trkpt><trkpt lat="42.0758044" lon="12.1487235"><ele>257.75</ele><time>2026-04-01T09:48:17.791Z</time></trkpt><trkpt lat="42.0756636" lon="12.1486838"><ele>257.5</ele><time>2026-04-01T09:48:18.791Z</time></trkpt><trkpt lat="42.0755213" lon="12.1486334"><ele>257.25</ele><time>2026-04-01T09:48:19.789Z</time></trkpt><trkpt lat="42.0753767" lon="12.1485877"><ele>257.0</ele><time>2026-04-01T09:48:20.792Z</time></trkpt><trkpt lat="42.0752282" lon="12.1485281"><ele>257.0</ele><time>2026-04-01T09:48:21.782Z</time></trkpt><trkpt lat="42.0750926" lon="12.1484663"><ele>257.0</ele><time>2026-04-01T09:48:22.789Z</time></trkpt><trkpt lat="42.0749612" lon="12.1484108"><ele>257.0</ele><time>2026-04-01T09:48:23.793Z</time></trkpt><trkpt lat="42.074825" lon="12.1483418"><ele>257.0</ele><time>2026-04-01T09:48:24.79Z</time></trkpt><trkpt lat="42.0746787" lon="12.1482599"><ele>255.66666666666669</ele><time>2026-04-01T09:48:25.789Z</time></trkpt><trkpt lat="42.0745434" lon="12.1481488"><ele>254.33333333333331</ele><time>2026-04-01T09:48:26.788Z</time></trkpt><trkpt lat="42.0744058" lon="12.148054"><ele>253.0</ele><time>2026-04-01T09:48:27.793Z</time></trkpt><trkpt lat="42.0742529" lon="12.1479805"><ele>253.0</ele><time>2026-04-01T09:48:28.796Z</time></trkpt><trkpt lat="42.0741153" lon="12.1479154"><ele>253.0</ele><time>2026-04-01T09:48:29.791Z</time></trkpt><trkpt lat="42.0739624" lon="12.1478566"><ele>253.0</ele><time>2026-04-01T09:48:30.794Z</time></trkpt><trkpt lat="42.0738176" lon="12.1477962"><ele>252.75</ele><time>2026-04-01T09:48:31.797Z</time></trkpt><trkpt lat="42.0736728" lon="12.1477364"><ele>252.5</ele><time>2026-04-01T09:48:32.795Z</time></trkpt><trkpt lat="42.0735354" lon="12.1476913"><ele>252.25</ele><time>2026-04-01T09:48:33.791Z</time></trkpt><trkpt lat="42.0733982" lon="12.1476441"><ele>252.0</ele><time>2026-04-01T09:48:34.794Z</time></trkpt><trkpt lat="42.073262" lon="12.1475981"><ele>250.66666666666669</ele><time>2026-04-01T09:48:35.795Z</time></trkpt><trkpt lat="42.0731128" lon="12.1475456"><ele>249.33333333333334</ele><time>2026-04-01T09:48:36.793Z</time></trkpt><trkpt lat="42.0729559" lon="12.147478"><ele>248.0</ele><time>2026-04-01T09:48:37.789Z</time></trkpt><trkpt lat="42.0727959" lon="12.1474223"><ele>246.33333333333334</ele><time>2026-04-01T09:48:38.812Z</time></trkpt><trkpt lat="42.0726278" lon="12.1473567"><ele>244.66666666666669</ele><time>2026-04-01T09:48:39.787Z</time></trkpt><trkpt lat="42.0724694" lon="12.1472946"><ele>243.0</ele><time>2026-04-01T09:48:40.79Z</time></trkpt><trkpt lat="42.0723111" lon="12.1472271"><ele>241.66666666666669</ele><time>2026-04-01T09:48:41.787Z</time></trkpt><trkpt lat="42.0721458" lon="12.1471494"><ele>240.33333333333334</ele><time>2026-04-01T09:48:42.789Z</time></trkpt><trkpt lat="42.0719827" lon="12.1470735"><ele>239.0</ele><time>2026-04-01T09:48:43.794Z</time></trkpt><trkpt lat="42.0718087" lon="12.1469993"><ele>239.0</ele><time>2026-04-01T09:48:44.79Z</time></trkpt><trkpt lat="42.0716392" lon="12.1469223"><ele>239.0</ele><time>2026-04-01T09:48:45.794Z</time></trkpt><trkpt lat="42.0714676" lon="12.146844"><ele>239.0</ele><time>2026-04-01T09:48:46.793Z</time></trkpt><trkpt lat="42.0713005" lon="12.1467694"><ele>239.0</ele><time>2026-04-01T09:48:47.799Z</time></trkpt><trkpt lat="42.0711327" lon="12.1466973"><ele>239.0</ele><time>2026-04-01T09:48:48.796Z</time></trkpt><trkpt lat="42.0709652" lon="12.1466355"><ele>239.0</ele><time>2026-04-01T09:48:49.798Z</time></trkpt><trkpt lat="42.0707973" lon="12.146571"><ele>236.66666666666669</ele><time>2026-04-01T09:48:50.796Z</time></trkpt><trkpt lat="42.070629" lon="12.1465085"><ele>234.33333333333331</ele><time>2026-04-01T09:48:51.793Z</time></trkpt><trkpt lat="42.0704558" lon="12.146442"><ele>232.0</ele><time>2026-04-01T09:48:52.796Z</time></trkpt><trkpt lat="42.0702779" lon="12.1463696"><ele>232.0</ele><time>2026-04-01T09:48:53.794Z</time></trkpt><trkpt lat="42.0701038" lon="12.1462959"><ele>232.0</ele><time>2026-04-01T09:48:54.794Z</time></trkpt><trkpt lat="42.0699315" lon="12.1462185"><ele>232.0</ele><time>2026-04-01T09:48:55.791Z</time></trkpt><trkpt lat="42.0697588" lon="12.1461456"><ele>232.0</ele><time>2026-04-01T09:48:56.792Z</time></trkpt><trkpt lat="42.0695891" lon="12.1460814"><ele>232.0</ele><time>2026-04-01T09:48:57.791Z</time></trkpt><trkpt lat="42.0694194" lon="12.1460014"><ele>232.0</ele><time>2026-04-01T09:48:58.794Z</time></trkpt><trkpt lat="42.0692465" lon="12.1459252"><ele>233.0</ele><time>2026-04-01T09:48:59.792Z</time></trkpt><trkpt lat="42.0690702" lon="12.145849"><ele>234.0</ele><time>2026-04-01T09:49:00.792Z</time></trkpt><trkpt lat="42.0689088" lon="12.1457803"><ele>235.0</ele><time>2026-04-01T09:49:01.799Z</time></trkpt><trkpt lat="42.0687549" lon="12.1457173"><ele>233.66666666666666</ele><time>2026-04-01T09:49:02.791Z</time></trkpt><trkpt lat="42.0685983" lon="12.1456608"><ele>232.33333333333331</ele><time>2026-04-01T09:49:03.783Z</time></trkpt><trkpt lat="42.0684496" lon="12.1455914"><ele>231.0</ele><time>2026-04-01T09:49:04.779Z</time></trkpt><trkpt lat="42.0683017" lon="12.1455374"><ele>230.66666666666669</ele><time>2026-04-01T09:49:05.788Z</time></trkpt><trkpt lat="42.0681617" lon="12.1454948"><ele>230.33333333333334</ele><time>2026-04-01T09:49:06.778Z</time></trkpt><trkpt lat="42.0679975" lon="12.1454164"><ele>230.0</ele><time>2026-04-01T09:49:07.775Z</time></trkpt><trkpt lat="42.0678359" lon="12.1453367"><ele>230.0</ele><time>2026-04-01T09:49:08.786Z</time></trkpt><trkpt lat="42.0676703" lon="12.1452676"><ele>230.0</ele><time>2026-04-01T09:49:09.802Z</time></trkpt><trkpt lat="42.0675034" lon="12.145201"><ele>230.0</ele><time>2026-04-01T09:49:10.78Z</time></trkpt><trkpt lat="42.0673293" lon="12.1451307"><ele>229.66666666666669</ele><time>2026-04-01T09:49:11.787Z</time></trkpt><trkpt lat="42.0671574" lon="12.1450522"><ele>229.33333333333331</ele><time>2026-04-01T09:49:12.787Z</time></trkpt><trkpt lat="42.0669836" lon="12.1449821"><ele>229.0</ele><time>2026-04-01T09:49:13.795Z</time></trkpt><trkpt lat="42.0668071" lon="12.1449058"><ele>228.66666666666666</ele><time>2026-04-01T09:49:14.795Z</time></trkpt><trkpt lat="42.066632" lon="12.1448274"><ele>228.33333333333331</ele><time>2026-04-01T09:49:15.792Z</time></trkpt><trkpt lat="42.0664618" lon="12.1447564"><ele>228.0</ele><time>2026-04-01T09:49:16.79Z</time></trkpt><trkpt lat="42.0662881" lon="12.1446839"><ele>227.66666666666669</ele><time>2026-04-01T09:49:17.795Z</time></trkpt><trkpt lat="42.0661129" lon="12.1446105"><ele>227.33333333333334</ele><time>2026-04-01T09:49:18.781Z</time></trkpt><trkpt lat="42.0659408" lon="12.1445528"><ele>227.0</ele><time>2026-04-01T09:49:19.771Z</time></trkpt><trkpt lat="42.0657825" lon="12.144484"><ele>226.75</ele><time>2026-04-01T09:49:20.781Z</time></trkpt><trkpt lat="42.0656451" lon="12.1444365"><ele>226.5</ele><time>2026-04-01T09:49:21.774Z</time></trkpt><trkpt lat="42.0655043" lon="12.144372"><ele>226.25</ele><time>2026-04-01T09:49:22.771Z</time></trkpt><trkpt lat="42.0653803" lon="12.1443329"><ele>226.0</ele><time>2026-04-01T09:49:23.76Z</time></trkpt><trkpt lat="42.0652429" lon="12.1442785"><ele>226.0</ele><time>2026-04-01T09:49:24.767Z</time></trkpt><trkpt lat="42.0651268" lon="12.1442372"><ele>226.0</ele><time>2026-04-01T09:49:25.783Z</time></trkpt><trkpt lat="42.0650347" lon="12.144179"><ele>226.0</ele><time>2026-04-01T09:49:26.77Z</time></trkpt><trkpt lat="42.0649348" lon="12.1441184"><ele>226.0</ele><time>2026-04-01T09:49:27.768Z</time></trkpt><trkpt lat="42.0648211" lon="12.1440409"><ele>225.25</ele><time>2026-04-01T09:49:28.772Z</time></trkpt><trkpt lat="42.0646992" lon="12.1439639"><ele>224.5</ele><time>2026-04-01T09:49:29.774Z</time></trkpt><trkpt lat="42.0645703" lon="12.1438714"><ele>223.75</ele><time>2026-04-01T09:49:30.775Z</time></trkpt><trkpt lat="42.0644392" lon="12.1437637"><ele>223.0</ele><time>2026-04-01T09:49:31.776Z</time></trkpt><trkpt lat="42.0643027" lon="12.1436598"><ele>223.0</ele><time>2026-04-01T09:49:32.764Z</time></trkpt><trkpt lat="42.064181" lon="12.143548"><ele>223.0</ele><time>2026-04-01T09:49:33.766Z</time></trkpt><trkpt lat="42.0640528" lon="12.143431"><ele>223.0</ele><time>2026-04-01T09:49:34.766Z</time></trkpt><trkpt lat="42.0639525" lon="12.1432802"><ele>222.66666666666666</ele><time>2026-04-01T09:49:35.763Z</time></trkpt><trkpt lat="42.0638339" lon="12.1431208"><ele>222.33333333333331</ele><time>2026-04-01T09:49:36.781Z</time></trkpt><trkpt lat="42.0637146" lon="12.1429854"><ele>222.0</ele><time>2026-04-01T09:49:37.773Z</time></trkpt><trkpt lat="42.0635943" lon="12.1428639"><ele>222.0</ele><time>2026-04-01T09:49:38.786Z</time></trkpt><trkpt lat="42.0634544" lon="12.1427224"><ele>222.0</ele><time>2026-04-01T09:49:39.78Z</time></trkpt><trkpt lat="42.0633102" lon="12.1425861"><ele>222.0</ele><time>2026-04-01T09:49:40.799Z</time></trkpt><trkpt lat="42.0631634" lon="12.1424503"><ele>221.33333333333331</ele><time>2026-04-01T09:49:41.783Z</time></trkpt><trkpt lat="42.0630331" lon="12.142293"><ele>220.66666666666666</ele><time>2026-04-01T09:49:42.784Z</time></trkpt><trkpt lat="42.0629043" lon="12.1421492"><ele>220.0</ele><time>2026-04-01T09:49:43.771Z</time></trkpt><trkpt lat="42.0627552" lon="12.1420281"><ele>220.0</ele><time>2026-04-01T09:49:44.765Z</time></trkpt><trkpt lat="42.0626123" lon="12.1419131"><ele>220.0</ele><time>2026-04-01T09:49:45.769Z</time></trkpt><trkpt lat="42.062479" lon="12.1417804"><ele>220.0</ele><time>2026-04-01T09:49:46.768Z</time></trkpt><trkpt lat="42.0623713" lon="12.1416646"><ele>219.4</ele><time>2026-04-01T09:49:47.762Z</time></trkpt><trkpt lat="42.0622799" lon="12.1415572"><ele>218.8</ele><time>2026-04-01T09:49:48.768Z</time></trkpt><trkpt lat="42.0622146" lon="12.141445"><ele>218.2</ele><time>2026-04-01T09:49:49.765Z</time></trkpt><trkpt lat="42.0621779" lon="12.1413092"><ele>217.6</ele><time>2026-04-01T09:49:50.778Z</time></trkpt><trkpt lat="42.0621857" lon="12.1411695"><ele>217.0</ele><time>2026-04-01T09:49:51.766Z</time></trkpt><trkpt lat="42.0622014" lon="12.1410434"><ele>217.0</ele><time>2026-04-01T09:49:52.77Z</time></trkpt><trkpt lat="42.0622318" lon="12.1409251"><ele>217.0</ele><time>2026-04-01T09:49:53.763Z</time></trkpt><trkpt lat="42.0622819" lon="12.1408287"><ele>217.0</ele><time>2026-04-01T09:49:54.768Z</time></trkpt><trkpt lat="42.0623561" lon="12.1407414"><ele>217.0</ele><time>2026-04-01T09:49:55.777Z</time></trkpt><trkpt lat="42.0624393" lon="12.1406644"><ele>217.0</ele><time>2026-04-01T09:49:56.774Z</time></trkpt><trkpt lat="42.0625696" lon="12.1405983"><ele>220.66666666666666</ele><time>2026-04-01T09:49:57.769Z</time></trkpt><trkpt lat="42.0626903" lon="12.1405141"><ele>224.33333333333331</ele><time>2026-04-01T09:49:58.771Z</time></trkpt><trkpt lat="42.062838" lon="12.1404162"><ele>228.0</ele><time>2026-04-01T09:49:59.764Z</time></trkpt><trkpt lat="42.0629676" lon="12.1402696"><ele>228.0</ele><time>2026-04-01T09:50:00.762Z</time></trkpt><trkpt lat="42.0630889" lon="12.1401031"><ele>228.0</ele><time>2026-04-01T09:50:01.773Z</time></trkpt><trkpt lat="42.0632052" lon="12.1399251"><ele>228.0</ele><time>2026-04-01T09:50:02.761Z</time></trkpt><trkpt lat="42.0633031" lon="12.1397443"><ele>228.0</ele><time>2026-04-01T09:50:03.765Z</time></trkpt><trkpt lat="42.0633625" lon="12.1395526"><ele>228.0</ele><time>2026-04-01T09:50:04.765Z</time></trkpt><trkpt lat="42.06339" lon="12.1393424"><ele>228.0</ele><time>2026-04-01T09:50:05.769Z</time></trkpt><trkpt lat="42.0633987" lon="12.1391367"><ele>228.5</ele><time>2026-04-01T09:50:06.76Z</time></trkpt><trkpt lat="42.0634097" lon="12.1389469"><ele>229.0</ele><time>2026-04-01T09:50:07.762Z</time></trkpt><trkpt lat="42.0634195" lon="12.1387553"><ele>229.5</ele><time>2026-04-01T09:50:08.767Z</time></trkpt><trkpt lat="42.0633993" lon="12.1385711"><ele>230.0</ele><time>2026-04-01T09:50:09.771Z</time></trkpt><trkpt lat="42.0633762" lon="12.1383781"><ele>231.0</ele><time>2026-04-01T09:50:10.762Z</time></trkpt><trkpt lat="42.063337" lon="12.138218"><ele>232.0</ele><time>2026-04-01T09:50:11.785Z</time></trkpt><trkpt lat="42.0632598" lon="12.1380388"><ele>233.0</ele><time>2026-04-01T09:50:12.76Z</time></trkpt><trkpt lat="42.0631758" lon="12.1378634"><ele>234.0</ele><time>2026-04-01T09:50:13.755Z</time></trkpt><trkpt lat="42.0630985" lon="12.1376832"><ele>235.25</ele><time>2026-04-01T09:50:14.76Z</time></trkpt><trkpt lat="42.0630367" lon="12.1375176"><ele>236.5</ele><time>2026-04-01T09:50:15.762Z</time></trkpt><trkpt lat="42.0629433" lon="12.1373705"><ele>237.75</ele><time>2026-04-01T09:50:16.769Z</time></trkpt><trkpt lat="42.0628504" lon="12.1372202"><ele>239.0</ele><time>2026-04-01T09:50:17.772Z</time></trkpt><trkpt lat="42.0627439" lon="12.1370681"><ele>239.33333333333334</ele><time>2026-04-01T09:50:18.771Z</time></trkpt><trkpt lat="42.0626354" lon="12.1369075"><ele>239.66666666666669</ele><time>2026-04-01T09:50:19.766Z</time></trkpt><trkpt lat="42.062528" lon="12.1367394"><ele>240.0</ele><time>2026-04-01T09:50:20.766Z</time></trkpt><trkpt lat="42.0624097" lon="12.1365791"><ele>241.33333333333331</ele><time>2026-04-01T09:50:21.757Z</time></trkpt><trkpt lat="42.062283" lon="12.1364319"><ele>242.66666666666666</ele><time>2026-04-01T09:50:22.762Z</time></trkpt><trkpt lat="42.0621745" lon="12.1362708"><ele>244.0</ele><time>2026-04-01T09:50:23.759Z</time></trkpt><trkpt lat="42.0620775" lon="12.1361179"><ele>244.0</ele><time>2026-04-01T09:50:24.755Z</time></trkpt><trkpt lat="42.0619834" lon="12.1359768"><ele>244.0</ele><time>2026-04-01T09:50:25.76Z</time></trkpt><trkpt lat="42.0619095" lon="12.1358416"><ele>244.0</ele><time>2026-04-01T09:50:26.762Z</time></trkpt><trkpt lat="42.0618477" lon="12.1356885"><ele>244.0</ele><time>2026-04-01T09:50:27.763Z</time></trkpt><trkpt lat="42.0617781" lon="12.1355362"><ele>244.0</ele><time>2026-04-01T09:50:28.767Z</time></trkpt><trkpt lat="42.0617094" lon="12.13539"><ele>243.99999999999997</ele><time>2026-04-01T09:50:29.773Z</time></trkpt><trkpt lat="42.0616393" lon="12.1352755"><ele>243.99999999999997</ele><time>2026-04-01T09:50:30.774Z</time></trkpt><trkpt lat="42.0615622" lon="12.135171"><ele>244.0</ele><time>2026-04-01T09:50:31.766Z</time></trkpt><trkpt lat="42.061491" lon="12.1350787"><ele>244.0</ele><time>2026-04-01T09:50:32.773Z</time></trkpt><trkpt lat="42.061428" lon="12.1349818"><ele>244.0</ele><time>2026-04-01T09:50:33.772Z</time></trkpt><trkpt lat="42.0613766" lon="12.1349307"><ele>243.99999999999997</ele><time>2026-04-01T09:50:34.769Z</time></trkpt><trkpt lat="42.0614498" lon="12.1348713"><ele>243.99999999999997</ele><time>2026-04-01T09:50:38.78Z</time></trkpt><trkpt lat="42.0615453" lon="12.1349034"><ele>244.0</ele><time>2026-04-01T09:50:39.776Z</time></trkpt><trkpt lat="42.0616554" lon="12.1349273"><ele>244.0</ele><time>2026-04-01T09:50:40.781Z</time></trkpt><trkpt lat="42.0617766" lon="12.134955"><ele>244.0</ele><time>2026-04-01T09:50:41.789Z</time></trkpt><trkpt lat="42.0619023" lon="12.1349471"><ele>244.0</ele><time>2026-04-01T09:50:42.81Z</time></trkpt><trkpt lat="42.0620329" lon="12.1348788"><ele>244.0</ele><time>2026-04-01T09:50:43.771Z</time></trkpt><trkpt lat="42.0621627" lon="12.1347783"><ele>244.0</ele><time>2026-04-01T09:50:44.773Z</time></trkpt><trkpt lat="42.0623055" lon="12.1346715"><ele>244.66666666666666</ele><time>2026-04-01T09:50:45.779Z</time></trkpt><trkpt lat="42.0624518" lon="12.1345481"><ele>245.33333333333331</ele><time>2026-04-01T09:50:46.781Z</time></trkpt><trkpt lat="42.0626004" lon="12.1344085"><ele>246.0</ele><time>2026-04-01T09:50:47.781Z</time></trkpt><trkpt lat="42.0627634" lon="12.1342932"><ele>246.0</ele><time>2026-04-01T09:50:48.785Z</time></trkpt><trkpt lat="42.0629201" lon="12.1341945"><ele>246.0</ele><time>2026-04-01T09:50:49.782Z</time></trkpt><trkpt lat="42.0630684" lon="12.1340914"><ele>246.0</ele><time>2026-04-01T09:50:50.784Z</time></trkpt><trkpt lat="42.0631891" lon="12.1339822"><ele>247.25</ele><time>2026-04-01T09:50:51.778Z</time></trkpt><trkpt lat="42.0633052" lon="12.1338465"><ele>248.5</ele><time>2026-04-01T09:50:52.785Z</time></trkpt><trkpt lat="42.063415" lon="12.1337329"><ele>249.75</ele><time>2026-04-01T09:50:53.783Z</time></trkpt><trkpt lat="42.0635279" lon="12.1336035"><ele>251.0</ele><time>2026-04-01T09:50:54.78Z</time></trkpt><trkpt lat="42.0636327" lon="12.1335205"><ele>251.0</ele><time>2026-04-01T09:50:55.779Z</time></trkpt><trkpt lat="42.0637467" lon="12.1334305"><ele>251.00000000000003</ele><time>2026-04-01T09:50:56.779Z</time></trkpt><trkpt lat="42.0638353" lon="12.1333617"><ele>251.00000000000003</ele><time>2026-04-01T09:50:57.767Z</time></trkpt><trkpt lat="42.0639151" lon="12.1332874"><ele>251.0</ele><time>2026-04-01T09:50:58.773Z</time></trkpt><trkpt lat="42.0639761" lon="12.1332176"><ele>251.0</ele><time>2026-04-01T09:50:59.774Z</time></trkpt><trkpt lat="42.0640454" lon="12.1331292"><ele>250.60000000000002</ele><time>2026-04-01T09:51:00.772Z</time></trkpt><trkpt lat="42.0641031" lon="12.1330413"><ele>250.20000000000002</ele><time>2026-04-01T09:51:01.775Z</time></trkpt><trkpt lat="42.0642038" lon="12.1329592"><ele>249.79999999999998</ele><time>2026-04-01T09:51:02.774Z</time></trkpt><trkpt lat="42.0642811" lon="12.1328969"><ele>249.39999999999998</ele><time>2026-04-01T09:51:03.774Z</time></trkpt><trkpt lat="42.0643356" lon="12.1328437"><ele>249.0</ele><time>2026-04-01T09:51:04.783Z</time></trkpt><trkpt lat="42.0644097" lon="12.1327317"><ele>249.39999999999998</ele><time>2026-04-01T09:51:06.78Z</time></trkpt><trkpt lat="42.0644299" lon="12.1326331"><ele>249.79999999999998</ele><time>2026-04-01T09:51:08.783Z</time></trkpt><trkpt lat="42.0643968" lon="12.1325015"><ele>250.20000000000002</ele><time>2026-04-01T09:51:10.774Z</time></trkpt><trkpt lat="42.0643404" lon="12.1323823"><ele>250.60000000000002</ele><time>2026-04-01T09:51:11.782Z</time></trkpt><trkpt lat="42.064251" lon="12.132235"><ele>251.0</ele><time>2026-04-01T09:51:12.799Z</time></trkpt><trkpt lat="42.0641636" lon="12.1320855"><ele>249.33333333333334</ele><time>2026-04-01T09:51:13.773Z</time></trkpt><trkpt lat="42.0640426" lon="12.1319284"><ele>247.66666666666669</ele><time>2026-04-01T09:51:14.774Z</time></trkpt><trkpt lat="42.0639374" lon="12.1317603"><ele>246.0</ele><time>2026-04-01T09:51:15.782Z</time></trkpt><trkpt lat="42.0638417" lon="12.1315867"><ele>246.66666666666669</ele><time>2026-04-01T09:51:16.774Z</time></trkpt><trkpt lat="42.0637656" lon="12.1314182"><ele>247.33333333333334</ele><time>2026-04-01T09:51:17.788Z</time></trkpt><trkpt lat="42.0636878" lon="12.1312422"><ele>248.0</ele><time>2026-04-01T09:51:18.777Z</time></trkpt><trkpt lat="42.0636055" lon="12.1310685"><ele>248.0</ele><time>2026-04-01T09:51:19.78Z</time></trkpt><trkpt lat="42.0635255" lon="12.130903"><ele>248.0</ele><time>2026-04-01T09:51:20.788Z</time></trkpt><trkpt lat="42.0634531" lon="12.1307348"><ele>248.0</ele><time>2026-04-01T09:51:21.78Z</time></trkpt><trkpt lat="42.0633817" lon="12.1305752"><ele>248.0</ele><time>2026-04-01T09:51:22.781Z</time></trkpt><trkpt lat="42.0632982" lon="12.1304283"><ele>248.25</ele><time>2026-04-01T09:51:23.782Z</time></trkpt><trkpt lat="42.0632206" lon="12.1302755"><ele>248.5</ele><time>2026-04-01T09:51:24.767Z</time></trkpt><trkpt lat="42.0631726" lon="12.1301047"><ele>248.75</ele><time>2026-04-01T09:51:25.773Z</time></trkpt><trkpt lat="42.0631079" lon="12.1299575"><ele>249.0</ele><time>2026-04-01T09:51:26.763Z</time></trkpt><trkpt lat="42.0630609" lon="12.1298137"><ele>249.0</ele><time>2026-04-01T09:51:27.776Z</time></trkpt><trkpt lat="42.0630149" lon="12.1296779"><ele>249.0</ele><time>2026-04-01T09:51:28.782Z</time></trkpt><trkpt lat="42.0629509" lon="12.129525"><ele>249.0</ele><time>2026-04-01T09:51:29.786Z</time></trkpt><trkpt lat="42.0628963" lon="12.1293775"><ele>249.0</ele><time>2026-04-01T09:51:30.79Z</time></trkpt><trkpt lat="42.0628516" lon="12.1292576"><ele>249.0</ele><time>2026-04-01T09:51:31.787Z</time></trkpt><trkpt lat="42.0628152" lon="12.129159"><ele>248.99999999999997</ele><time>2026-04-01T09:51:32.785Z</time></trkpt><trkpt lat="42.0627661" lon="12.1290562"><ele>248.99999999999997</ele><time>2026-04-01T09:51:33.78Z</time></trkpt><trkpt lat="42.0627245" lon="12.1289424"><ele>249.0</ele><time>2026-04-01T09:51:34.776Z</time></trkpt><trkpt lat="42.0626905" lon="12.1288148"><ele>249.0</ele><time>2026-04-01T09:51:35.777Z</time></trkpt><trkpt lat="42.0626659" lon="12.1286757"><ele>248.25</ele><time>2026-04-01T09:51:36.778Z</time></trkpt><trkpt lat="42.0626374" lon="12.1285218"><ele>247.5</ele><time>2026-04-01T09:51:37.781Z</time></trkpt><trkpt lat="42.0626037" lon="12.1283684"><ele>246.75</ele><time>2026-04-01T09:51:38.784Z</time></trkpt><trkpt lat="42.0625597" lon="12.1281889"><ele>246.0</ele><time>2026-04-01T09:51:39.777Z</time></trkpt><trkpt lat="42.0625144" lon="12.1280093"><ele>245.5</ele><time>2026-04-01T09:51:40.781Z</time></trkpt><trkpt lat="42.0624668" lon="12.1278229"><ele>245.0</ele><time>2026-04-01T09:51:41.776Z</time></trkpt><trkpt lat="42.0624217" lon="12.1276422"><ele>244.5</ele><time>2026-04-01T09:51:42.773Z</time></trkpt><trkpt lat="42.062372" lon="12.1274954"><ele>244.0</ele><time>2026-04-01T09:51:43.781Z</time></trkpt><trkpt lat="42.0623119" lon="12.1273678"><ele>243.0</ele><time>2026-04-01T09:51:44.771Z</time></trkpt><trkpt lat="42.0622527" lon="12.1272284"><ele>241.99999999999997</ele><time>2026-04-01T09:51:45.762Z</time></trkpt><trkpt lat="42.0621921" lon="12.1271014"><ele>240.99999999999997</ele><time>2026-04-01T09:51:46.764Z</time></trkpt><trkpt lat="42.0621395" lon="12.126983"><ele>240.0</ele><time>2026-04-01T09:51:47.763Z</time></trkpt><trkpt lat="42.062075" lon="12.1268783"><ele>239.0</ele><time>2026-04-01T09:51:48.77Z</time></trkpt><trkpt lat="42.0620266" lon="12.1267873"><ele>239.00000000000003</ele><time>2026-04-01T09:51:49.768Z</time></trkpt><trkpt lat="42.0619682" lon="12.1267318"><ele>239.0</ele><time>2026-04-01T09:51:50.769Z</time></trkpt><trkpt lat="42.0619114" lon="12.1266104"><ele>239.0</ele><time>2026-04-01T09:51:52.765Z</time></trkpt><trkpt lat="42.0618671" lon="12.1264983"><ele>239.0</ele><time>2026-04-01T09:51:54.763Z</time></trkpt><trkpt lat="42.0618455" lon="12.126412"><ele>239.00000000000003</ele><time>2026-04-01T09:51:55.766Z</time></trkpt><trkpt lat="42.0618279" lon="12.1263177"><ele>239.0</ele><time>2026-04-01T09:51:56.765Z</time></trkpt><trkpt lat="42.0618132" lon="12.1262309"><ele>239.0</ele><time>2026-04-01T09:51:57.763Z</time></trkpt><trkpt lat="42.061809" lon="12.1261203"><ele>238.99999999999997</ele><time>2026-04-01T09:51:58.764Z</time></trkpt><trkpt lat="42.0618007" lon="12.1259863"><ele>238.99999999999997</ele><time>2026-04-01T09:51:59.761Z</time></trkpt><trkpt lat="42.0617915" lon="12.1258498"><ele>239.0</ele><time>2026-04-01T09:52:00.758Z</time></trkpt><trkpt lat="42.0617952" lon="12.1257115"><ele>239.0</ele><time>2026-04-01T09:52:01.759Z</time></trkpt><trkpt lat="42.0617855" lon="12.1255708"><ele>238.71428571428575</ele><time>2026-04-01T09:52:02.753Z</time></trkpt><trkpt lat="42.0617749" lon="12.1254595"><ele>238.42857142857144</ele><time>2026-04-01T09:52:03.77Z</time></trkpt><trkpt lat="42.0617839" lon="12.1253624"><ele>238.14285714285714</ele><time>2026-04-01T09:52:04.777Z</time></trkpt><trkpt lat="42.0617969" lon="12.1252759"><ele>237.85714285714286</ele><time>2026-04-01T09:52:05.768Z</time></trkpt><trkpt lat="42.0618142" lon="12.1251625"><ele>237.57142857142856</ele><time>2026-04-01T09:52:07.77Z</time></trkpt><trkpt lat="42.0617643" lon="12.1250853"><ele>237.28571428571425</ele><time>2026-04-01T09:52:44.772Z</time></trkpt><trkpt lat="42.0617532" lon="12.1250004"><ele>236.99999999999997</ele><time>2026-04-01T09:54:11.775Z</time></trkpt><trkpt lat="42.0617489" lon="12.1248342"><ele>236.0</ele><time>2026-04-01T09:54:13.775Z</time></trkpt><trkpt lat="42.0617487" lon="12.1247367"><ele>235.0</ele><time>2026-04-01T09:54:14.779Z</time></trkpt><trkpt lat="42.0617465" lon="12.1246312"><ele>234.0</ele><time>2026-04-01T09:54:15.775Z</time></trkpt><trkpt lat="42.0617319" lon="12.1245376"><ele>233.0</ele><time>2026-04-01T09:54:16.781Z</time></trkpt><trkpt lat="42.0617124" lon="12.1244502"><ele>232.0</ele><time>2026-04-01T09:54:17.775Z</time></trkpt><trkpt lat="42.0616354" lon="12.124332"><ele>231.0</ele><time>2026-04-01T09:54:19.78Z</time></trkpt><trkpt lat="42.0615381" lon="12.1242849"><ele>229.4</ele><time>2026-04-01T09:54:21.78Z</time></trkpt><trkpt lat="42.0614202" lon="12.124273"><ele>227.8</ele><time>2026-04-01T09:54:23.779Z</time></trkpt><trkpt lat="42.0612915" lon="12.1242753"><ele>226.20000000000002</ele><time>2026-04-01T09:54:25.78Z</time></trkpt><trkpt lat="42.0612213" lon="12.1242813"><ele>224.60000000000002</ele><time>2026-04-01T09:54:26.784Z</time></trkpt><trkpt lat="42.0611566" lon="12.1242944"><ele>223.0</ele><time>2026-04-01T09:54:27.783Z</time></trkpt><trkpt lat="42.0610452" lon="12.1243045"><ele>223.0</ele><time>2026-04-01T09:54:29.779Z</time></trkpt><trkpt lat="42.0609384" lon="12.1242871"><ele>223.0</ele><time>2026-04-01T09:54:31.778Z</time></trkpt><trkpt lat="42.0608268" lon="12.1242473"><ele>223.0</ele><time>2026-04-01T09:54:33.77Z</time></trkpt><trkpt lat="42.0607163" lon="12.1242258"><ele>223.0</ele><time>2026-04-01T09:54:35.772Z</time></trkpt><trkpt lat="42.0606188" lon="12.1241825"><ele>223.0</ele><time>2026-04-01T09:54:37.769Z</time></trkpt><trkpt lat="42.0605286" lon="12.1240524"><ele>222.33333333333331</ele><time>2026-04-01T09:54:39.766Z</time></trkpt><trkpt lat="42.0604921" lon="12.1239729"><ele>221.66666666666666</ele><time>2026-04-01T09:54:40.764Z</time></trkpt><trkpt lat="42.0604655" lon="12.1238857"><ele>221.0</ele><time>2026-04-01T09:54:41.762Z</time></trkpt><trkpt lat="42.0604454" lon="12.1237796"><ele>220.33333333333331</ele><time>2026-04-01T09:54:42.764Z</time></trkpt><trkpt lat="42.0604284" lon="12.1236525"><ele>219.66666666666666</ele><time>2026-04-01T09:54:43.762Z</time></trkpt><trkpt lat="42.0604019" lon="12.1235134"><ele>219.0</ele><time>2026-04-01T09:54:44.77Z</time></trkpt><trkpt lat="42.0603751" lon="12.1233741"><ele>219.0</ele><time>2026-04-01T09:54:45.774Z</time></trkpt><trkpt lat="42.0603478" lon="12.1232328"><ele>218.99999999999997</ele><time>2026-04-01T09:54:46.78Z</time></trkpt><trkpt lat="42.0603255" lon="12.123087"><ele>218.99999999999997</ele><time>2026-04-01T09:54:47.78Z</time></trkpt><trkpt lat="42.0603053" lon="12.122949"><ele>219.0</ele><time>2026-04-01T09:54:48.78Z</time></trkpt><trkpt lat="42.0602827" lon="12.1228158"><ele>219.0</ele><time>2026-04-01T09:54:49.787Z</time></trkpt><trkpt lat="42.0602633" lon="12.122707"><ele>217.5</ele><time>2026-04-01T09:54:50.773Z</time></trkpt><trkpt lat="42.0602437" lon="12.1226186"><ele>216.0</ele><time>2026-04-01T09:54:51.773Z</time></trkpt><trkpt lat="42.0602421" lon="12.1225297"><ele>214.5</ele><time>2026-04-01T09:54:53.766Z</time></trkpt><trkpt lat="42.0602384" lon="12.1224109"><ele>213.0</ele><time>2026-04-01T09:54:56.761Z</time></trkpt><trkpt lat="42.0602376" lon="12.1222677"><ele>211.5</ele><time>2026-04-01T09:55:00.767Z</time></trkpt><trkpt lat="42.0602477" lon="12.1221708"><ele>210.0</ele><time>2026-04-01T09:55:01.77Z</time></trkpt><trkpt lat="42.0602611" lon="12.1220735"><ele>209.16666666666666</ele><time>2026-04-01T09:55:02.773Z</time></trkpt><trkpt lat="42.0602798" lon="12.1219915"><ele>208.33333333333331</ele><time>2026-04-01T09:55:03.774Z</time></trkpt><trkpt lat="42.0602992" lon="12.1218473"><ele>207.5</ele><time>2026-04-01T09:55:05.776Z</time></trkpt><trkpt lat="42.0602707" lon="12.1217435"><ele>206.66666666666666</ele><time>2026-04-01T09:55:07.781Z</time></trkpt><trkpt lat="42.0602086" lon="12.1216943"><ele>205.83333333333331</ele><time>2026-04-01T09:55:09.774Z</time></trkpt><trkpt lat="42.0601194" lon="12.1216573"><ele>205.0</ele><time>2026-04-01T09:55:11.78Z</time></trkpt><trkpt lat="42.0600116" lon="12.1215969"><ele>204.4</ele><time>2026-04-01T09:55:13.785Z</time></trkpt><trkpt lat="42.0599151" lon="12.1215296"><ele>203.8</ele><time>2026-04-01T09:55:15.779Z</time></trkpt><trkpt lat="42.0598369" lon="12.1214783"><ele>203.2</ele><time>2026-04-01T09:55:17.785Z</time></trkpt><trkpt lat="42.0597912" lon="12.1214188"><ele>202.6</ele><time>2026-04-01T09:55:19.779Z</time></trkpt><trkpt lat="42.0597342" lon="12.1213238"><ele>202.0</ele><time>2026-04-01T09:55:21.775Z</time></trkpt><trkpt lat="42.0596476" lon="12.1212045"><ele>202.0</ele><time>2026-04-01T09:55:23.777Z</time></trkpt><trkpt lat="42.0595928" lon="12.1211275"><ele>202.0</ele><time>2026-04-01T09:55:24.771Z</time></trkpt><trkpt lat="42.0595262" lon="12.1210292"><ele>202.0</ele><time>2026-04-01T09:55:25.777Z</time></trkpt><trkpt lat="42.059448" lon="12.1209338"><ele>202.0</ele><time>2026-04-01T09:55:26.774Z</time></trkpt><trkpt lat="42.0593622" lon="12.1208393"><ele>202.0</ele><time>2026-04-01T09:55:27.775Z</time></trkpt><trkpt lat="42.0592757" lon="12.1207485"><ele>202.0</ele><time>2026-04-01T09:55:28.775Z</time></trkpt><trkpt lat="42.0591894" lon="12.1206698"><ele>202.0</ele><time>2026-04-01T09:55:29.773Z</time></trkpt><trkpt lat="42.0591038" lon="12.1206123"><ele>202.0</ele><time>2026-04-01T09:55:30.765Z</time></trkpt><trkpt lat="42.0590213" lon="12.1205734"><ele>202.0</ele><time>2026-04-01T09:55:31.774Z</time></trkpt><trkpt lat="42.0589325" lon="12.120549"><ele>202.0</ele><time>2026-04-01T09:55:32.761Z</time></trkpt><trkpt lat="42.0588449" lon="12.1205326"><ele>202.33333333333331</ele><time>2026-04-01T09:55:33.756Z</time></trkpt><trkpt lat="42.0587587" lon="12.1205305"><ele>202.66666666666666</ele><time>2026-04-01T09:55:34.759Z</time></trkpt><trkpt lat="42.0586717" lon="12.1205431"><ele>203.0</ele><time>2026-04-01T09:55:35.758Z</time></trkpt><trkpt lat="42.0585839" lon="12.1205649"><ele>203.33333333333331</ele><time>2026-04-01T09:55:36.77Z</time></trkpt><trkpt lat="42.058497" lon="12.1205853"><ele>203.66666666666666</ele><time>2026-04-01T09:55:37.764Z</time></trkpt><trkpt lat="42.0584042" lon="12.120603"><ele>204.0</ele><time>2026-04-01T09:55:38.764Z</time></trkpt><trkpt lat="42.0583149" lon="12.1206145"><ele>203.33333333333334</ele><time>2026-04-01T09:55:39.759Z</time></trkpt><trkpt lat="42.058224" lon="12.1206143"><ele>202.66666666666669</ele><time>2026-04-01T09:55:40.763Z</time></trkpt><trkpt lat="42.0581346" lon="12.1206072"><ele>202.0</ele><time>2026-04-01T09:55:41.758Z</time></trkpt><trkpt lat="42.0580445" lon="12.1205899"><ele>201.33333333333334</ele><time>2026-04-01T09:55:42.76Z</time></trkpt><trkpt lat="42.057964" lon="12.1205719"><ele>200.66666666666669</ele><time>2026-04-01T09:55:43.749Z</time></trkpt><trkpt lat="42.0578906" lon="12.120551"><ele>200.0</ele><time>2026-04-01T09:55:44.752Z</time></trkpt><trkpt lat="42.0578248" lon="12.1205405"><ele>200.00000000000003</ele><time>2026-04-01T09:55:45.745Z</time></trkpt><trkpt lat="42.057739" lon="12.1205101"><ele>200.0</ele><time>2026-04-01T09:55:47.742Z</time></trkpt><trkpt lat="42.0578071" lon="12.1204112"><ele>200.0</ele><time>2026-04-01T09:55:53.757Z</time></trkpt><trkpt lat="42.0578658" lon="12.1203108"><ele>200.0</ele><time>2026-04-01T09:55:55.767Z</time></trkpt><trkpt lat="42.0579143" lon="12.1202442"><ele>200.00000000000003</ele><time>2026-04-01T09:55:59.781Z</time></trkpt><trkpt lat="42.0579406" lon="12.1201361"><ele>200.0</ele><time>2026-04-01T09:56:01.77Z</time></trkpt><trkpt lat="42.0579585" lon="12.1200516"><ele>200.00000000000003</ele><time>2026-04-01T09:56:02.775Z</time></trkpt><trkpt lat="42.0579842" lon="12.1199513"><ele>200.0</ele><time>2026-04-01T09:56:03.773Z</time></trkpt><trkpt lat="42.058008" lon="12.1198425"><ele>200.0</ele><time>2026-04-01T09:56:04.773Z</time></trkpt><trkpt lat="42.0580377" lon="12.1197328"><ele>200.0</ele><time>2026-04-01T09:56:05.772Z</time></trkpt><trkpt lat="42.0580732" lon="12.1196223"><ele>200.00000000000003</ele><time>2026-04-01T09:56:06.772Z</time></trkpt><trkpt lat="42.0581109" lon="12.1195084"><ele>200.0</ele><time>2026-04-01T09:56:07.77Z</time></trkpt><trkpt lat="42.0581488" lon="12.1194057"><ele>202.2</ele><time>2026-04-01T09:56:08.774Z</time></trkpt><trkpt lat="42.0581933" lon="12.1192995"><ele>204.4</ele><time>2026-04-01T09:56:09.767Z</time></trkpt><trkpt lat="42.0582332" lon="12.1191884"><ele>206.60000000000002</ele><time>2026-04-01T09:56:10.762Z</time></trkpt><trkpt lat="42.0582592" lon="12.1190873"><ele>208.8</ele><time>2026-04-01T09:56:11.76Z</time></trkpt><trkpt lat="42.0582659" lon="12.1189985"><ele>211.0</ele><time>2026-04-01T09:56:12.766Z</time></trkpt><trkpt lat="42.0581653" lon="12.1188651"><ele>212.4</ele><time>2026-04-01T09:56:14.767Z</time></trkpt><trkpt lat="42.0580648" lon="12.1188136"><ele>213.8</ele><time>2026-04-01T09:56:15.768Z</time></trkpt><trkpt lat="42.0579718" lon="12.1187633"><ele>215.20000000000002</ele><time>2026-04-01T09:56:16.764Z</time></trkpt><trkpt lat="42.05788" lon="12.1187132"><ele>216.60000000000002</ele><time>2026-04-01T09:56:17.765Z</time></trkpt><trkpt lat="42.0577878" lon="12.1186597"><ele>218.0</ele><time>2026-04-01T09:56:18.763Z</time></trkpt><trkpt lat="42.0577174" lon="12.118577"><ele>218.0</ele><time>2026-04-01T09:56:19.761Z</time></trkpt><trkpt lat="42.0576447" lon="12.1184777"><ele>218.0</ele><time>2026-04-01T09:56:20.761Z</time></trkpt><trkpt lat="42.0575837" lon="12.1183526"><ele>218.0</ele><time>2026-04-01T09:56:21.757Z</time></trkpt><trkpt lat="42.0575276" lon="12.1182353"><ele>218.0</ele><time>2026-04-01T09:56:22.775Z</time></trkpt><trkpt lat="42.0574879" lon="12.1181335"><ele>218.0</ele><time>2026-04-01T09:56:23.756Z</time></trkpt><trkpt lat="42.0574608" lon="12.1180222"><ele>219.16666666666669</ele><time>2026-04-01T09:56:24.765Z</time></trkpt><trkpt lat="42.0574537" lon="12.1179054"><ele>220.33333333333334</ele><time>2026-04-01T09:56:25.765Z</time></trkpt><trkpt lat="42.0574861" lon="12.1177798"><ele>221.5</ele><time>2026-04-01T09:56:26.769Z</time></trkpt><trkpt lat="42.0575256" lon="12.1176696"><ele>222.66666666666669</ele><time>2026-04-01T09:56:27.764Z</time></trkpt><trkpt lat="42.0575636" lon="12.1175663"><ele>223.83333333333334</ele><time>2026-04-01T09:56:28.767Z</time></trkpt><trkpt lat="42.0576068" lon="12.1174655"><ele>225.0</ele><time>2026-04-01T09:56:29.767Z</time></trkpt><trkpt lat="42.0576511" lon="12.1173512"><ele>226.8</ele><time>2026-04-01T09:56:30.772Z</time></trkpt><trkpt lat="42.0576785" lon="12.1172238"><ele>228.6</ele><time>2026-04-01T09:56:31.763Z</time></trkpt><trkpt lat="42.0576984" lon="12.1171109"><ele>230.39999999999998</ele><time>2026-04-01T09:56:32.767Z</time></trkpt><trkpt lat="42.0577281" lon="12.1169937"><ele>232.2</ele><time>2026-04-01T09:56:33.774Z</time></trkpt><trkpt lat="42.0577543" lon="12.1168663"><ele>234.0</ele><time>2026-04-01T09:56:34.766Z</time></trkpt><trkpt lat="42.0577937" lon="12.1167266"><ele>234.0</ele><time>2026-04-01T09:56:35.762Z</time></trkpt><trkpt lat="42.0578323" lon="12.1165767"><ele>234.0</ele><time>2026-04-01T09:56:36.759Z</time></trkpt><trkpt lat="42.057839" lon="12.1164171"><ele>234.0</ele><time>2026-04-01T09:56:37.771Z</time></trkpt><trkpt lat="42.0578354" lon="12.1162657"><ele>234.0</ele><time>2026-04-01T09:56:38.77Z</time></trkpt><trkpt lat="42.0578257" lon="12.1161225"><ele>235.0</ele><time>2026-04-01T09:56:39.759Z</time></trkpt><trkpt lat="42.0578075" lon="12.115984"><ele>236.0</ele><time>2026-04-01T09:56:40.756Z</time></trkpt><trkpt lat="42.057783" lon="12.1158409"><ele>237.0</ele><time>2026-04-01T09:56:41.766Z</time></trkpt><trkpt lat="42.0577421" lon="12.1156874"><ele>238.0</ele><time>2026-04-01T09:56:42.759Z</time></trkpt><trkpt lat="42.0577052" lon="12.1155359"><ele>238.0</ele><time>2026-04-01T09:56:43.757Z</time></trkpt><trkpt lat="42.0576509" lon="12.1153935"><ele>238.0</ele><time>2026-04-01T09:56:44.758Z</time></trkpt><trkpt lat="42.0575942" lon="12.1152662"><ele>238.0</ele><time>2026-04-01T09:56:45.756Z</time></trkpt><trkpt lat="42.0575253" lon="12.1151472"><ele>238.0</ele><time>2026-04-01T09:56:46.758Z</time></trkpt><trkpt lat="42.057454" lon="12.1150338"><ele>238.0</ele><time>2026-04-01T09:56:47.762Z</time></trkpt><trkpt lat="42.0573734" lon="12.1149266"><ele>238.0</ele><time>2026-04-01T09:56:48.765Z</time></trkpt><trkpt lat="42.0572722" lon="12.1148157"><ele>238.0</ele><time>2026-04-01T09:56:49.764Z</time></trkpt><trkpt lat="42.0571848" lon="12.1147004"><ele>238.0</ele><time>2026-04-01T09:56:50.765Z</time></trkpt><trkpt lat="42.0570925" lon="12.1145898"><ele>238.0</ele><time>2026-04-01T09:56:51.758Z</time></trkpt><trkpt lat="42.0570004" lon="12.1144873"><ele>238.0</ele><time>2026-04-01T09:56:52.758Z</time></trkpt><trkpt lat="42.0569038" lon="12.1143887"><ele>238.0</ele><time>2026-04-01T09:56:53.767Z</time></trkpt><trkpt lat="42.0568089" lon="12.1142891"><ele>238.0</ele><time>2026-04-01T09:56:54.753Z</time></trkpt><trkpt lat="42.0567137" lon="12.1141995"><ele>238.0</ele><time>2026-04-01T09:56:55.754Z</time></trkpt><trkpt lat="42.0566285" lon="12.1141234"><ele>238.0</ele><time>2026-04-01T09:56:56.758Z</time></trkpt><trkpt lat="42.0565663" lon="12.1140576"><ele>238.0</ele><time>2026-04-01T09:56:57.756Z</time></trkpt><trkpt lat="42.0564745" lon="12.1139535"><ele>238.0</ele><time>2026-04-01T09:56:59.762Z</time></trkpt><trkpt lat="42.056398" lon="12.1138403"><ele>238.0</ele><time>2026-04-01T09:57:01.772Z</time></trkpt><trkpt lat="42.0563384" lon="12.113722"><ele>237.4</ele><time>2026-04-01T09:57:03.758Z</time></trkpt><trkpt lat="42.0562866" lon="12.1136117"><ele>236.8</ele><time>2026-04-01T09:57:05.753Z</time></trkpt><trkpt lat="42.0562536" lon="12.1135246"><ele>236.2</ele><time>2026-04-01T09:57:07.749Z</time></trkpt><trkpt lat="42.0562143" lon="12.1133952"><ele>235.6</ele><time>2026-04-01T09:57:09.754Z</time></trkpt><trkpt lat="42.0562009" lon="12.1132846"><ele>235.0</ele><time>2026-04-01T09:57:10.751Z</time></trkpt><trkpt lat="42.0561709" lon="12.1131611"><ele>234.8</ele><time>2026-04-01T09:57:11.75Z</time></trkpt><trkpt lat="42.0561339" lon="12.1130236"><ele>234.6</ele><time>2026-04-01T09:57:12.754Z</time></trkpt><trkpt lat="42.0561015" lon="12.1128939"><ele>234.39999999999998</ele><time>2026-04-01T09:57:13.753Z</time></trkpt><trkpt lat="42.0560549" lon="12.112755"><ele>234.2</ele><time>2026-04-01T09:57:14.762Z</time></trkpt><trkpt lat="42.0560066" lon="12.1126084"><ele>234.0</ele><time>2026-04-01T09:57:15.769Z</time></trkpt><trkpt lat="42.055953" lon="12.1124593"><ele>233.5</ele><time>2026-04-01T09:57:16.771Z</time></trkpt><trkpt lat="42.0559027" lon="12.1123287"><ele>233.0</ele><time>2026-04-01T09:57:17.765Z</time></trkpt><trkpt lat="42.055843" lon="12.112173"><ele>232.5</ele><time>2026-04-01T09:57:18.767Z</time></trkpt><trkpt lat="42.0557879" lon="12.1120424"><ele>232.0</ele><time>2026-04-01T09:57:19.775Z</time></trkpt><trkpt lat="42.0557311" lon="12.1119126"><ele>232.0</ele><time>2026-04-01T09:57:20.772Z</time></trkpt><trkpt lat="42.0556667" lon="12.1117944"><ele>232.0</ele><time>2026-04-01T09:57:21.761Z</time></trkpt><trkpt lat="42.0556043" lon="12.1116759"><ele>232.0</ele><time>2026-04-01T09:57:22.766Z</time></trkpt><trkpt lat="42.0555297" lon="12.111539"><ele>232.0</ele><time>2026-04-01T09:57:23.77Z</time></trkpt><trkpt lat="42.0554517" lon="12.1113927"><ele>232.0</ele><time>2026-04-01T09:57:24.787Z</time></trkpt><trkpt lat="42.0553607" lon="12.1112403"><ele>232.0</ele><time>2026-04-01T09:57:25.769Z</time></trkpt><trkpt lat="42.0552489" lon="12.1110898"><ele>232.0</ele><time>2026-04-01T09:57:26.772Z</time></trkpt><trkpt lat="42.0551444" lon="12.110944"><ele>232.0</ele><time>2026-04-01T09:57:27.775Z</time></trkpt><trkpt lat="42.0550185" lon="12.1107656"><ele>232.0</ele><time>2026-04-01T09:57:28.77Z</time></trkpt><trkpt lat="42.0548808" lon="12.1106135"><ele>232.0</ele><time>2026-04-01T09:57:29.772Z</time></trkpt><trkpt lat="42.0547555" lon="12.1104652"><ele>231.5</ele><time>2026-04-01T09:57:30.777Z</time></trkpt><trkpt lat="42.0546416" lon="12.1103228"><ele>231.0</ele><time>2026-04-01T09:57:31.774Z</time></trkpt><trkpt lat="42.0545365" lon="12.1101798"><ele>230.5</ele><time>2026-04-01T09:57:32.772Z</time></trkpt><trkpt lat="42.05444" lon="12.1100592"><ele>230.0</ele><time>2026-04-01T09:57:33.769Z</time></trkpt><trkpt lat="42.0543315" lon="12.1099397"><ele>230.33333333333334</ele><time>2026-04-01T09:57:34.777Z</time></trkpt><trkpt lat="42.054213" lon="12.1098185"><ele>230.66666666666669</ele><time>2026-04-01T09:57:35.778Z</time></trkpt><trkpt lat="42.0540902" lon="12.1096939"><ele>231.0</ele><time>2026-04-01T09:57:36.78Z</time></trkpt><trkpt lat="42.0539693" lon="12.1095541"><ele>230.33333333333331</ele><time>2026-04-01T09:57:37.777Z</time></trkpt><trkpt lat="42.0538453" lon="12.1094241"><ele>229.66666666666666</ele><time>2026-04-01T09:57:38.78Z</time></trkpt><trkpt lat="42.0537225" lon="12.1092941"><ele>229.0</ele><time>2026-04-01T09:57:39.78Z</time></trkpt><trkpt lat="42.053605" lon="12.1091753"><ele>229.0</ele><time>2026-04-01T09:57:40.771Z</time></trkpt><trkpt lat="42.0534826" lon="12.1090711"><ele>229.0</ele><time>2026-04-01T09:57:41.78Z</time></trkpt><trkpt lat="42.0533664" lon="12.1089527"><ele>229.0</ele><time>2026-04-01T09:57:42.778Z</time></trkpt><trkpt lat="42.0532537" lon="12.1088381"><ele>229.0</ele><time>2026-04-01T09:57:43.78Z</time></trkpt><trkpt lat="42.0531619" lon="12.1087512"><ele>229.0</ele><time>2026-04-01T09:57:44.781Z</time></trkpt><trkpt lat="42.0530543" lon="12.1086653"><ele>229.0</ele><time>2026-04-01T09:57:45.782Z</time></trkpt><trkpt lat="42.0529433" lon="12.1085737"><ele>229.0</ele><time>2026-04-01T09:57:46.779Z</time></trkpt><trkpt lat="42.052826" lon="12.108484"><ele>229.0</ele><time>2026-04-01T09:57:47.78Z</time></trkpt><trkpt lat="42.0526966" lon="12.1083854"><ele>229.0</ele><time>2026-04-01T09:57:48.78Z</time></trkpt><trkpt lat="42.0525644" lon="12.1082854"><ele>229.0</ele><time>2026-04-01T09:57:49.773Z</time></trkpt><trkpt lat="42.052435" lon="12.1081741"><ele>229.0</ele><time>2026-04-01T09:57:50.779Z</time></trkpt><trkpt lat="42.05233" lon="12.1080717"><ele>229.0</ele><time>2026-04-01T09:57:51.771Z</time></trkpt><trkpt lat="42.0522044" lon="12.1079577"><ele>227.33333333333331</ele><time>2026-04-01T09:57:52.784Z</time></trkpt><trkpt lat="42.0520678" lon="12.1078577"><ele>225.66666666666669</ele><time>2026-04-01T09:57:53.774Z</time></trkpt><trkpt lat="42.0519317" lon="12.1077469"><ele>224.0</ele><time>2026-04-01T09:57:54.779Z</time></trkpt><trkpt lat="42.0518036" lon="12.1076418"><ele>224.0</ele><time>2026-04-01T09:57:55.792Z</time></trkpt><trkpt lat="42.0516721" lon="12.1075494"><ele>224.0</ele><time>2026-04-01T09:57:56.78Z</time></trkpt><trkpt lat="42.05155" lon="12.1074532"><ele>224.0</ele><time>2026-04-01T09:57:57.785Z</time></trkpt><trkpt lat="42.0514391" lon="12.1073547"><ele>224.0</ele><time>2026-04-01T09:57:58.777Z</time></trkpt><trkpt lat="42.0513261" lon="12.1072485"><ele>223.0</ele><time>2026-04-01T09:57:59.778Z</time></trkpt><trkpt lat="42.0512161" lon="12.1071629"><ele>222.0</ele><time>2026-04-01T09:58:00.773Z</time></trkpt><trkpt lat="42.0511086" lon="12.1070598"><ele>221.0</ele><time>2026-04-01T09:58:01.778Z</time></trkpt><trkpt lat="42.0510062" lon="12.1069797"><ele>220.0</ele><time>2026-04-01T09:58:02.772Z</time></trkpt><trkpt lat="42.0509196" lon="12.1068899"><ele>219.99999999999997</ele><time>2026-04-01T09:58:03.777Z</time></trkpt><trkpt lat="42.0508503" lon="12.1068131"><ele>220.0</ele><time>2026-04-01T09:58:04.783Z</time></trkpt><trkpt lat="42.0507864" lon="12.1067198"><ele>220.0</ele><time>2026-04-01T09:58:05.783Z</time></trkpt><trkpt lat="42.050735" lon="12.1066203"><ele>220.0</ele><time>2026-04-01T09:58:06.786Z</time></trkpt><trkpt lat="42.0506925" lon="12.106525"><ele>219.99999999999997</ele><time>2026-04-01T09:58:07.786Z</time></trkpt><trkpt lat="42.0506411" lon="12.106433"><ele>220.0</ele><time>2026-04-01T09:58:08.785Z</time></trkpt><trkpt lat="42.0505818" lon="12.1063399"><ele>217.66666666666666</ele><time>2026-04-01T09:58:09.781Z</time></trkpt><trkpt lat="42.050511" lon="12.1062554"><ele>215.33333333333331</ele><time>2026-04-01T09:58:10.778Z</time></trkpt><trkpt lat="42.0504377" lon="12.1061938"><ele>213.0</ele><time>2026-04-01T09:58:11.782Z</time></trkpt><trkpt lat="42.0503684" lon="12.1061456"><ele>210.66666666666669</ele><time>2026-04-01T09:58:12.78Z</time></trkpt><trkpt lat="42.0502986" lon="12.1061041"><ele>208.33333333333334</ele><time>2026-04-01T09:58:13.779Z</time></trkpt><trkpt lat="42.0502362" lon="12.1060564"><ele>206.0</ele><time>2026-04-01T09:58:14.782Z</time></trkpt><trkpt lat="42.0501757" lon="12.1059924"><ele>206.0</ele><time>2026-04-01T09:58:15.774Z</time></trkpt><trkpt lat="42.0501193" lon="12.1059082"><ele>206.0</ele><time>2026-04-01T09:58:16.777Z</time></trkpt><trkpt lat="42.0500712" lon="12.1058093"><ele>206.0</ele><time>2026-04-01T09:58:17.779Z</time></trkpt><trkpt lat="42.0500294" lon="12.1057015"><ele>206.0</ele><time>2026-04-01T09:58:18.775Z</time></trkpt><trkpt lat="42.0499972" lon="12.1055843"><ele>206.0</ele><time>2026-04-01T09:58:19.775Z</time></trkpt><trkpt lat="42.0499671" lon="12.1054589"><ele>205.5</ele><time>2026-04-01T09:58:20.781Z</time></trkpt><trkpt lat="42.0499241" lon="12.1053317"><ele>205.0</ele><time>2026-04-01T09:58:21.773Z</time></trkpt><trkpt lat="42.0498688" lon="12.105205"><ele>204.5</ele><time>2026-04-01T09:58:22.773Z</time></trkpt><trkpt lat="42.0498064" lon="12.1050616"><ele>204.0</ele><time>2026-04-01T09:58:23.766Z</time></trkpt><trkpt lat="42.049744" lon="12.1049134"><ele>202.25</ele><time>2026-04-01T09:58:24.779Z</time></trkpt><trkpt lat="42.0496836" lon="12.1047694"><ele>200.5</ele><time>2026-04-01T09:58:25.772Z</time></trkpt><trkpt lat="42.0496221" lon="12.1046261"><ele>198.75</ele><time>2026-04-01T09:58:26.779Z</time></trkpt><trkpt lat="42.0495575" lon="12.1044926"><ele>197.0</ele><time>2026-04-01T09:58:27.764Z</time></trkpt><trkpt lat="42.0495003" lon="12.1043645"><ele>197.0</ele><time>2026-04-01T09:58:28.765Z</time></trkpt><trkpt lat="42.0494448" lon="12.1042439"><ele>197.0</ele><time>2026-04-01T09:58:29.761Z</time></trkpt><trkpt lat="42.0494015" lon="12.104143"><ele>197.0</ele><time>2026-04-01T09:58:30.76Z</time></trkpt><trkpt lat="42.0493694" lon="12.1040376"><ele>197.0</ele><time>2026-04-01T09:58:31.75Z</time></trkpt><trkpt lat="42.049346" lon="12.1039225"><ele>197.0</ele><time>2026-04-01T09:58:32.758Z</time></trkpt><trkpt lat="42.0493582" lon="12.1037991"><ele>196.39999999999998</ele><time>2026-04-01T09:58:33.756Z</time></trkpt><trkpt lat="42.0493764" lon="12.1036628"><ele>195.79999999999998</ele><time>2026-04-01T09:58:34.76Z</time></trkpt><trkpt lat="42.0493928" lon="12.1035313"><ele>195.2</ele><time>2026-04-01T09:58:35.755Z</time></trkpt><trkpt lat="42.0494071" lon="12.1034043"><ele>194.6</ele><time>2026-04-01T09:58:36.767Z</time></trkpt><trkpt lat="42.0494162" lon="12.1032566"><ele>194.0</ele><time>2026-04-01T09:58:37.76Z</time></trkpt><trkpt lat="42.0494195" lon="12.1031087"><ele>194.0</ele><time>2026-04-01T09:58:38.766Z</time></trkpt><trkpt lat="42.0494255" lon="12.1029573"><ele>194.0</ele><time>2026-04-01T09:58:39.759Z</time></trkpt><trkpt lat="42.0494308" lon="12.1027804"><ele>194.0</ele><time>2026-04-01T09:58:40.761Z</time></trkpt><trkpt lat="42.0494342" lon="12.1025885"><ele>194.0</ele><time>2026-04-01T09:58:41.757Z</time></trkpt><trkpt lat="42.0494412" lon="12.1023879"><ele>194.5</ele><time>2026-04-01T09:58:42.763Z</time></trkpt><trkpt lat="42.0494479" lon="12.102188"><ele>195.0</ele><time>2026-04-01T09:58:43.757Z</time></trkpt><trkpt lat="42.0494499" lon="12.1019977"><ele>195.5</ele><time>2026-04-01T09:58:44.765Z</time></trkpt><trkpt lat="42.0494418" lon="12.1018174"><ele>196.0</ele><time>2026-04-01T09:58:45.76Z</time></trkpt><trkpt lat="42.049417" lon="12.1016546"><ele>197.0</ele><time>2026-04-01T09:58:46.766Z</time></trkpt><trkpt lat="42.0493877" lon="12.1015081"><ele>198.0</ele><time>2026-04-01T09:58:47.767Z</time></trkpt><trkpt lat="42.049347" lon="12.1013829"><ele>199.0</ele><time>2026-04-01T09:58:48.773Z</time></trkpt><trkpt lat="42.0492999" lon="12.1013153"><ele>200.0</ele><time>2026-04-01T09:58:49.771Z</time></trkpt><trkpt lat="42.0492355" lon="12.1012314"><ele>201.0</ele><time>2026-04-01T09:58:50.767Z</time></trkpt><trkpt lat="42.0491815" lon="12.1011296"><ele>201.0</ele><time>2026-04-01T09:58:51.763Z</time></trkpt><trkpt lat="42.0491355" lon="12.1010276"><ele>201.0</ele><time>2026-04-01T09:58:52.769Z</time></trkpt><trkpt lat="42.0491026" lon="12.1009075"><ele>201.0</ele><time>2026-04-01T09:58:53.758Z</time></trkpt><trkpt lat="42.0490882" lon="12.1007733"><ele>201.0</ele><time>2026-04-01T09:58:54.778Z</time></trkpt><trkpt lat="42.04911" lon="12.100655"><ele>201.0</ele><time>2026-04-01T09:58:55.768Z</time></trkpt><trkpt lat="42.0491515" lon="12.1005348"><ele>203.0</ele><time>2026-04-01T09:58:56.765Z</time></trkpt><trkpt lat="42.0491993" lon="12.1004024"><ele>205.0</ele><time>2026-04-01T09:58:57.783Z</time></trkpt><trkpt lat="42.0492397" lon="12.1002535"><ele>207.0</ele><time>2026-04-01T09:58:58.764Z</time></trkpt><trkpt lat="42.0492727" lon="12.100087"><ele>209.0</ele><time>2026-04-01T09:58:59.773Z</time></trkpt><trkpt lat="42.0492854" lon="12.0999058"><ele>210.25</ele><time>2026-04-01T09:59:00.76Z</time></trkpt><trkpt lat="42.0492869" lon="12.0997277"><ele>211.5</ele><time>2026-04-01T09:59:01.76Z</time></trkpt><trkpt lat="42.0492665" lon="12.0995472"><ele>212.75</ele><time>2026-04-01T09:59:02.759Z</time></trkpt><trkpt lat="42.049232" lon="12.0993609"><ele>214.0</ele><time>2026-04-01T09:59:03.762Z</time></trkpt><trkpt lat="42.0491894" lon="12.0991633"><ele>216.75</ele><time>2026-04-01T09:59:04.764Z</time></trkpt><trkpt lat="42.0491257" lon="12.0989902"><ele>219.5</ele><time>2026-04-01T09:59:05.763Z</time></trkpt><trkpt lat="42.0490613" lon="12.0988356"><ele>222.25</ele><time>2026-04-01T09:59:06.76Z</time></trkpt><trkpt lat="42.0489951" lon="12.0986887"><ele>225.0</ele><time>2026-04-01T09:59:07.763Z</time></trkpt><trkpt lat="42.0489262" lon="12.0985257"><ele>225.0</ele><time>2026-04-01T09:59:08.754Z</time></trkpt><trkpt lat="42.0488542" lon="12.0983543"><ele>225.0</ele><time>2026-04-01T09:59:09.769Z</time></trkpt><trkpt lat="42.0487825" lon="12.0981766"><ele>225.0</ele><time>2026-04-01T09:59:10.762Z</time></trkpt><trkpt lat="42.0487087" lon="12.097997"><ele>225.0</ele><time>2026-04-01T09:59:11.767Z</time></trkpt><trkpt lat="42.0486258" lon="12.0978267"><ele>224.33333333333331</ele><time>2026-04-01T09:59:12.768Z</time></trkpt><trkpt lat="42.0485516" lon="12.0976479"><ele>223.66666666666666</ele><time>2026-04-01T09:59:13.763Z</time></trkpt><trkpt lat="42.0484796" lon="12.0974523"><ele>223.0</ele><time>2026-04-01T09:59:14.763Z</time></trkpt><trkpt lat="42.0484067" lon="12.0972753"><ele>223.0</ele><time>2026-04-01T09:59:15.764Z</time></trkpt><trkpt lat="42.0483434" lon="12.0971491"><ele>223.0</ele><time>2026-04-01T09:59:16.747Z</time></trkpt><trkpt lat="42.0482855" lon="12.097039"><ele>223.0</ele><time>2026-04-01T09:59:17.76Z</time></trkpt><trkpt lat="42.0482612" lon="12.096942"><ele>223.0</ele><time>2026-04-01T09:59:18.75Z</time></trkpt><trkpt lat="42.0482401" lon="12.0968536"><ele>223.0</ele><time>2026-04-01T09:59:19.756Z</time></trkpt><trkpt lat="42.0482263" lon="12.0967053"><ele>223.0</ele><time>2026-04-01T09:59:21.763Z</time></trkpt><trkpt lat="42.0482653" lon="12.0965449"><ele>223.0</ele><time>2026-04-01T09:59:23.762Z</time></trkpt><trkpt lat="42.0483017" lon="12.0964278"><ele>223.0</ele><time>2026-04-01T09:59:24.77Z</time></trkpt><trkpt lat="42.048341" lon="12.0962984"><ele>223.0</ele><time>2026-04-01T09:59:25.779Z</time></trkpt><trkpt lat="42.0483925" lon="12.096154"><ele>223.0</ele><time>2026-04-01T09:59:26.769Z</time></trkpt><trkpt lat="42.0484526" lon="12.0960005"><ele>223.0</ele><time>2026-04-01T09:59:27.781Z</time></trkpt><trkpt lat="42.0485145" lon="12.0958422"><ele>223.0</ele><time>2026-04-01T09:59:28.793Z</time></trkpt><trkpt lat="42.0485693" lon="12.0956786"><ele>223.0</ele><time>2026-04-01T09:59:29.78Z</time></trkpt><trkpt lat="42.0486226" lon="12.0955112"><ele>223.0</ele><time>2026-04-01T09:59:30.789Z</time></trkpt><trkpt lat="42.0486692" lon="12.0953407"><ele>223.75</ele><time>2026-04-01T09:59:31.78Z</time></trkpt><trkpt lat="42.0487131" lon="12.095176"><ele>224.5</ele><time>2026-04-01T09:59:32.778Z</time></trkpt><trkpt lat="42.0487607" lon="12.0950161"><ele>225.25</ele><time>2026-04-01T09:59:33.772Z</time></trkpt><trkpt lat="42.0488155" lon="12.0948747"><ele>226.0</ele><time>2026-04-01T09:59:34.774Z</time></trkpt><trkpt lat="42.0488821" lon="12.0947452"><ele>227.5</ele><time>2026-04-01T09:59:35.789Z</time></trkpt><trkpt lat="42.0489513" lon="12.0946159"><ele>229.0</ele><time>2026-04-01T09:59:36.781Z</time></trkpt><trkpt lat="42.0490173" lon="12.0944755"><ele>230.5</ele><time>2026-04-01T09:59:37.78Z</time></trkpt><trkpt lat="42.049084" lon="12.0943417"><ele>232.0</ele><time>2026-04-01T09:59:38.776Z</time></trkpt><trkpt lat="42.0491588" lon="12.0942191"><ele>233.6</ele><time>2026-04-01T09:59:39.78Z</time></trkpt><trkpt lat="42.0492446" lon="12.0941079"><ele>235.2</ele><time>2026-04-01T09:59:40.775Z</time></trkpt><trkpt lat="42.0493308" lon="12.0940089"><ele>236.8</ele><time>2026-04-01T09:59:41.78Z</time></trkpt><trkpt lat="42.049418" lon="12.0939094"><ele>238.4</ele><time>2026-04-01T09:59:42.776Z</time></trkpt><trkpt lat="42.0494959" lon="12.0938247"><ele>240.0</ele><time>2026-04-01T09:59:43.783Z</time></trkpt><trkpt lat="42.0495796" lon="12.0937435"><ele>240.6</ele><time>2026-04-01T09:59:44.777Z</time></trkpt><trkpt lat="42.0496676" lon="12.0936875"><ele>241.2</ele><time>2026-04-01T09:59:45.773Z</time></trkpt><trkpt lat="42.0497598" lon="12.0936575"><ele>241.8</ele><time>2026-04-01T09:59:46.775Z</time></trkpt><trkpt lat="42.0498519" lon="12.0936512"><ele>242.4</ele><time>2026-04-01T09:59:47.77Z</time></trkpt><trkpt lat="42.0499487" lon="12.0936574"><ele>243.0</ele><time>2026-04-01T09:59:48.766Z</time></trkpt><trkpt lat="42.050038" lon="12.0936758"><ele>243.4</ele><time>2026-04-01T09:59:49.777Z</time></trkpt><trkpt lat="42.0501365" lon="12.0937058"><ele>243.8</ele><time>2026-04-01T09:59:50.768Z</time></trkpt><trkpt lat="42.0502299" lon="12.0937359"><ele>244.2</ele><time>2026-04-01T09:59:51.782Z</time></trkpt><trkpt lat="42.050324" lon="12.0937641"><ele>244.6</ele><time>2026-04-01T09:59:52.768Z</time></trkpt><trkpt lat="42.050421" lon="12.0937806"><ele>245.0</ele><time>2026-04-01T09:59:53.77Z</time></trkpt><trkpt lat="42.0505214" lon="12.0937699"><ele>245.0</ele><time>2026-04-01T09:59:54.767Z</time></trkpt><trkpt lat="42.0506238" lon="12.0937527"><ele>245.0</ele><time>2026-04-01T09:59:55.777Z</time></trkpt><trkpt lat="42.0507691" lon="12.0937187"><ele>245.0</ele><time>2026-04-01T09:59:56.773Z</time></trkpt><trkpt lat="42.0509079" lon="12.0936843"><ele>245.0</ele><time>2026-04-01T09:59:57.767Z</time></trkpt><trkpt lat="42.0510445" lon="12.0936322"><ele>245.0</ele><time>2026-04-01T09:59:58.766Z</time></trkpt><trkpt lat="42.0511777" lon="12.0935753"><ele>245.0</ele><time>2026-04-01T09:59:59.788Z</time></trkpt><trkpt lat="42.0513072" lon="12.0935235"><ele>245.0</ele><time>2026-04-01T10:00:00.767Z</time></trkpt><trkpt lat="42.0514348" lon="12.0934795"><ele>245.0</ele><time>2026-04-01T10:00:01.777Z</time></trkpt><trkpt lat="42.051564" lon="12.0934301"><ele>243.25</ele><time>2026-04-01T10:00:02.771Z</time></trkpt><trkpt lat="42.051684" lon="12.0933919"><ele>241.5</ele><time>2026-04-01T10:00:03.783Z</time></trkpt><trkpt lat="42.0517938" lon="12.0933602"><ele>239.75</ele><time>2026-04-01T10:00:04.773Z</time></trkpt><trkpt lat="42.0519039" lon="12.0933244"><ele>238.0</ele><time>2026-04-01T10:00:05.768Z</time></trkpt><trkpt lat="42.0520053" lon="12.0932935"><ele>238.0</ele><time>2026-04-01T10:00:06.769Z</time></trkpt><trkpt lat="42.0521064" lon="12.0932667"><ele>238.0</ele><time>2026-04-01T10:00:07.75Z</time></trkpt><trkpt lat="42.0522157" lon="12.0932367"><ele>238.0</ele><time>2026-04-01T10:00:08.752Z</time></trkpt><trkpt lat="42.0523122" lon="12.0932062"><ele>238.0</ele><time>2026-04-01T10:00:09.743Z</time></trkpt><trkpt lat="42.0523983" lon="12.0931855"><ele>238.0</ele><time>2026-04-01T10:00:10.748Z</time></trkpt><trkpt lat="42.0524665" lon="12.0931293"><ele>237.66666666666666</ele><time>2026-04-01T10:00:12.751Z</time></trkpt><trkpt lat="42.0524493" lon="12.0930473"><ele>237.33333333333331</ele><time>2026-04-01T10:00:13.76Z</time></trkpt><trkpt lat="42.0524191" lon="12.09297"><ele>237.0</ele><time>2026-04-01T10:00:14.772Z</time></trkpt><trkpt lat="42.0523769" lon="12.0928766"><ele>236.66666666666669</ele><time>2026-04-01T10:00:15.775Z</time></trkpt><trkpt lat="42.0523307" lon="12.092758"><ele>236.33333333333334</ele><time>2026-04-01T10:00:16.773Z</time></trkpt><trkpt lat="42.0522954" lon="12.0926373"><ele>236.0</ele><time>2026-04-01T10:00:17.774Z</time></trkpt><trkpt lat="42.0522689" lon="12.0925143"><ele>235.50000000000003</ele><time>2026-04-01T10:00:18.777Z</time></trkpt><trkpt lat="42.0522431" lon="12.0923876"><ele>235.0</ele><time>2026-04-01T10:00:19.777Z</time></trkpt><trkpt lat="42.0522191" lon="12.0922567"><ele>234.5</ele><time>2026-04-01T10:00:20.784Z</time></trkpt><trkpt lat="42.052193" lon="12.0921313"><ele>234.0</ele><time>2026-04-01T10:00:21.779Z</time></trkpt><trkpt lat="42.0521754" lon="12.0920254"><ele>233.50000000000003</ele><time>2026-04-01T10:00:22.777Z</time></trkpt><trkpt lat="42.0521585" lon="12.0919334"><ele>233.0</ele><time>2026-04-01T10:00:23.777Z</time></trkpt><trkpt lat="42.0521421" lon="12.0917848"><ele>233.0</ele><time>2026-04-01T10:00:25.791Z</time></trkpt><trkpt lat="42.0521352" lon="12.091674"><ele>233.0</ele><time>2026-04-01T10:00:27.789Z</time></trkpt><trkpt lat="42.0521293" lon="12.0915687"><ele>233.0</ele><time>2026-04-01T10:00:30.814Z</time></trkpt><trkpt lat="42.0521298" lon="12.0913867"><ele>233.0</ele><time>2026-04-01T10:00:43.772Z</time></trkpt><trkpt lat="42.0521344" lon="12.0912724"><ele>233.0</ele><time>2026-04-01T10:00:44.771Z</time></trkpt><trkpt lat="42.0521325" lon="12.0911482"><ele>233.00000000000003</ele><time>2026-04-01T10:00:45.772Z</time></trkpt><trkpt lat="42.0521319" lon="12.0910245"><ele>233.0</ele><time>2026-04-01T10:00:46.768Z</time></trkpt><trkpt lat="42.0521418" lon="12.0909179"><ele>233.0</ele><time>2026-04-01T10:00:47.767Z</time></trkpt><trkpt lat="42.0521541" lon="12.0908099"><ele>233.0</ele><time>2026-04-01T10:00:48.772Z</time></trkpt><trkpt lat="42.0521631" lon="12.0906948"><ele>233.00000000000003</ele><time>2026-04-01T10:00:49.783Z</time></trkpt><trkpt lat="42.0521678" lon="12.0905688"><ele>233.0</ele><time>2026-04-01T10:00:50.776Z</time></trkpt><trkpt lat="42.0521726" lon="12.0904309"><ele>233.0</ele><time>2026-04-01T10:00:51.778Z</time></trkpt><trkpt lat="42.052169" lon="12.0902898"><ele>233.0</ele><time>2026-04-01T10:00:52.779Z</time></trkpt><trkpt lat="42.0521637" lon="12.0901289"><ele>233.0</ele><time>2026-04-01T10:00:53.781Z</time></trkpt><trkpt lat="42.0521615" lon="12.0899673"><ele>233.0</ele><time>2026-04-01T10:00:54.79Z</time></trkpt><trkpt lat="42.0521663" lon="12.0897954"><ele>233.75</ele><time>2026-04-01T10:00:55.785Z</time></trkpt><trkpt lat="42.052168" lon="12.089613"><ele>234.5</ele><time>2026-04-01T10:00:56.785Z</time></trkpt><trkpt lat="42.0521686" lon="12.089424"><ele>235.25</ele><time>2026-04-01T10:00:57.789Z</time></trkpt><trkpt lat="42.0521673" lon="12.0892333"><ele>236.0</ele><time>2026-04-01T10:00:58.783Z</time></trkpt><trkpt lat="42.0521699" lon="12.0890309"><ele>236.66666666666669</ele><time>2026-04-01T10:00:59.78Z</time></trkpt><trkpt lat="42.0521729" lon="12.0888196"><ele>237.33333333333331</ele><time>2026-04-01T10:01:00.803Z</time></trkpt><trkpt lat="42.0521719" lon="12.0886171"><ele>238.0</ele><time>2026-04-01T10:01:01.788Z</time></trkpt><trkpt lat="42.0521767" lon="12.0884255"><ele>238.5</ele><time>2026-04-01T10:01:02.778Z</time></trkpt><trkpt lat="42.0521888" lon="12.0882368"><ele>239.0</ele><time>2026-04-01T10:01:03.783Z</time></trkpt><trkpt lat="42.0521936" lon="12.0880418"><ele>239.5</ele><time>2026-04-01T10:01:04.776Z</time></trkpt><trkpt lat="42.0521901" lon="12.0878345"><ele>240.0</ele><time>2026-04-01T10:01:05.785Z</time></trkpt><trkpt lat="42.0521966" lon="12.0876418"><ele>240.0</ele><time>2026-04-01T10:01:06.789Z</time></trkpt><trkpt lat="42.0522027" lon="12.0874349"><ele>240.0</ele><time>2026-04-01T10:01:07.793Z</time></trkpt><trkpt lat="42.0522053" lon="12.0872337"><ele>240.0</ele><time>2026-04-01T10:01:08.786Z</time></trkpt><trkpt lat="42.0522152" lon="12.0870354"><ele>240.75</ele><time>2026-04-01T10:01:09.789Z</time></trkpt><trkpt lat="42.0522163" lon="12.0868475"><ele>241.5</ele><time>2026-04-01T10:01:10.788Z</time></trkpt><trkpt lat="42.0522141" lon="12.0866621"><ele>242.25</ele><time>2026-04-01T10:01:11.787Z</time></trkpt><trkpt lat="42.052216" lon="12.0864746"><ele>243.0</ele><time>2026-04-01T10:01:12.789Z</time></trkpt><trkpt lat="42.0522163" lon="12.0862918"><ele>244.5</ele><time>2026-04-01T10:01:13.782Z</time></trkpt><trkpt lat="42.0522245" lon="12.0861006"><ele>246.0</ele><time>2026-04-01T10:01:14.791Z</time></trkpt><trkpt lat="42.0522344" lon="12.085921"><ele>247.5</ele><time>2026-04-01T10:01:15.785Z</time></trkpt><trkpt lat="42.0522396" lon="12.0857542"><ele>249.0</ele><time>2026-04-01T10:01:16.783Z</time></trkpt><trkpt lat="42.0522339" lon="12.0856007"><ele>251.0</ele><time>2026-04-01T10:01:17.774Z</time></trkpt><trkpt lat="42.0522376" lon="12.0854646"><ele>253.0</ele><time>2026-04-01T10:01:18.765Z</time></trkpt><trkpt lat="42.0522553" lon="12.085344"><ele>255.0</ele><time>2026-04-01T10:01:19.769Z</time></trkpt><trkpt lat="42.0522753" lon="12.085255"><ele>257.0</ele><time>2026-04-01T10:01:20.77Z</time></trkpt><trkpt lat="42.0523104" lon="12.0851622"><ele>259.0</ele><time>2026-04-01T10:01:21.789Z</time></trkpt><trkpt lat="42.0523745" lon="12.0851111"><ele>261.0</ele><time>2026-04-01T10:01:22.778Z</time></trkpt><trkpt lat="42.0524497" lon="12.0850703"><ele>260.2</ele><time>2026-04-01T10:01:23.776Z</time></trkpt><trkpt lat="42.0525309" lon="12.0850171"><ele>259.40000000000003</ele><time>2026-04-01T10:01:24.774Z</time></trkpt><trkpt lat="42.0526255" lon="12.0849612"><ele>258.6</ele><time>2026-04-01T10:01:25.774Z</time></trkpt><trkpt lat="42.0527301" lon="12.084888"><ele>257.8</ele><time>2026-04-01T10:01:26.767Z</time></trkpt><trkpt lat="42.0528322" lon="12.0848231"><ele>257.0</ele><time>2026-04-01T10:01:27.774Z</time></trkpt><trkpt lat="42.0529294" lon="12.0847558"><ele>257.0</ele><time>2026-04-01T10:01:28.772Z</time></trkpt><trkpt lat="42.053018" lon="12.0846873"><ele>257.0</ele><time>2026-04-01T10:01:29.765Z</time></trkpt><trkpt lat="42.0531029" lon="12.0846152"><ele>257.0</ele><time>2026-04-01T10:01:30.763Z</time></trkpt><trkpt lat="42.0531734" lon="12.0845489"><ele>257.0</ele><time>2026-04-01T10:01:31.788Z</time></trkpt><trkpt lat="42.0532341" lon="12.0844872"><ele>257.0</ele><time>2026-04-01T10:01:32.764Z</time></trkpt><trkpt lat="42.0532973" lon="12.0844323"><ele>257.0</ele><time>2026-04-01T10:01:33.763Z</time></trkpt><trkpt lat="42.0533617" lon="12.0843852"><ele>254.2</ele><time>2026-04-01T10:01:34.758Z</time></trkpt><trkpt lat="42.053423" lon="12.0843411"><ele>251.39999999999998</ele><time>2026-04-01T10:01:35.771Z</time></trkpt><trkpt lat="42.0534819" lon="12.0843031"><ele>248.60000000000002</ele><time>2026-04-01T10:01:36.766Z</time></trkpt><trkpt lat="42.0535522" lon="12.0842646"><ele>245.8</ele><time>2026-04-01T10:01:38.78Z</time></trkpt><trkpt lat="42.053693" lon="12.0842368"><ele>243.0</ele><time>2026-04-01T10:02:36.778Z</time></trkpt><trkpt lat="42.0537974" lon="12.0841954"><ele>243.0</ele><time>2026-04-01T10:02:37.765Z</time></trkpt><trkpt lat="42.0539092" lon="12.0841556"><ele>243.0</ele><time>2026-04-01T10:02:38.766Z</time></trkpt><trkpt lat="42.0540256" lon="12.0841057"><ele>243.0</ele><time>2026-04-01T10:02:39.768Z</time></trkpt><trkpt lat="42.0541423" lon="12.0840332"><ele>243.0</ele><time>2026-04-01T10:02:40.769Z</time></trkpt><trkpt lat="42.0542605" lon="12.0839507"><ele>240.33333333333331</ele><time>2026-04-01T10:02:41.759Z</time></trkpt><trkpt lat="42.0543953" lon="12.083864"><ele>237.66666666666666</ele><time>2026-04-01T10:02:42.768Z</time></trkpt><trkpt lat="42.054548" lon="12.0837689"><ele>235.0</ele><time>2026-04-01T10:02:43.763Z</time></trkpt><trkpt lat="42.0547117" lon="12.0836608"><ele>235.0</ele><time>2026-04-01T10:02:44.767Z</time></trkpt><trkpt lat="42.0548992" lon="12.0835321"><ele>235.0</ele><time>2026-04-01T10:02:45.764Z</time></trkpt><trkpt lat="42.05508" lon="12.0834212"><ele>235.0</ele><time>2026-04-01T10:02:46.772Z</time></trkpt><trkpt lat="42.0552466" lon="12.0833111"><ele>236.66666666666666</ele><time>2026-04-01T10:02:47.766Z</time></trkpt><trkpt lat="42.0554085" lon="12.0832131"><ele>238.33333333333331</ele><time>2026-04-01T10:02:48.772Z</time></trkpt><trkpt lat="42.0555476" lon="12.0831274"><ele>240.0</ele><time>2026-04-01T10:02:49.763Z</time></trkpt><trkpt lat="42.0556696" lon="12.0830451"><ele>240.75</ele><time>2026-04-01T10:02:50.77Z</time></trkpt><trkpt lat="42.0557881" lon="12.0829781"><ele>241.5</ele><time>2026-04-01T10:02:51.765Z</time></trkpt><trkpt lat="42.0559128" lon="12.0829429"><ele>242.25</ele><time>2026-04-01T10:02:52.769Z</time></trkpt><trkpt lat="42.0560623" lon="12.0828812"><ele>243.0</ele><time>2026-04-01T10:02:53.765Z</time></trkpt><trkpt lat="42.056231" lon="12.0827838"><ele>243.0</ele><time>2026-04-01T10:02:54.764Z</time></trkpt><trkpt lat="42.0564022" lon="12.0827053"><ele>243.0</ele><time>2026-04-01T10:02:55.762Z</time></trkpt><trkpt lat="42.0565863" lon="12.0826121"><ele>243.0</ele><time>2026-04-01T10:02:56.764Z</time></trkpt><trkpt lat="42.056761" lon="12.0825229"><ele>243.75</ele><time>2026-04-01T10:02:57.764Z</time></trkpt><trkpt lat="42.0569115" lon="12.0824286"><ele>244.5</ele><time>2026-04-01T10:02:58.762Z</time></trkpt><trkpt lat="42.0570448" lon="12.0823783"><ele>245.25</ele><time>2026-04-01T10:02:59.765Z</time></trkpt><trkpt lat="42.0571766" lon="12.0823095"><ele>246.0</ele><time>2026-04-01T10:03:00.771Z</time></trkpt><trkpt lat="42.0573075" lon="12.0822387"><ele>246.0</ele><time>2026-04-01T10:03:01.774Z</time></trkpt><trkpt lat="42.0574252" lon="12.0821568"><ele>246.0</ele><time>2026-04-01T10:03:02.773Z</time></trkpt><trkpt lat="42.0575489" lon="12.0820946"><ele>246.0</ele><time>2026-04-01T10:03:03.769Z</time></trkpt><trkpt lat="42.0576899" lon="12.0820068"><ele>246.0</ele><time>2026-04-01T10:03:04.79Z</time></trkpt><trkpt lat="42.0578264" lon="12.0819209"><ele>246.0</ele><time>2026-04-01T10:03:05.777Z</time></trkpt><trkpt lat="42.0579921" lon="12.0818247"><ele>246.0</ele><time>2026-04-01T10:03:06.778Z</time></trkpt><trkpt lat="42.0581534" lon="12.081727"><ele>246.0</ele><time>2026-04-01T10:03:07.78Z</time></trkpt><trkpt lat="42.0583156" lon="12.0816283"><ele>245.0</ele><time>2026-04-01T10:03:08.775Z</time></trkpt><trkpt lat="42.0584795" lon="12.0815326"><ele>244.0</ele><time>2026-04-01T10:03:09.778Z</time></trkpt><trkpt lat="42.0586454" lon="12.0814337"><ele>243.0</ele><time>2026-04-01T10:03:10.774Z</time></trkpt><trkpt lat="42.0588014" lon="12.0813398"><ele>243.0</ele><time>2026-04-01T10:03:11.769Z</time></trkpt><trkpt lat="42.0589472" lon="12.0812605"><ele>243.0</ele><time>2026-04-01T10:03:12.775Z</time></trkpt><trkpt lat="42.0590558" lon="12.0811983"><ele>243.0</ele><time>2026-04-01T10:03:13.776Z</time></trkpt><trkpt lat="42.0591567" lon="12.081152"><ele>243.0</ele><time>2026-04-01T10:03:14.773Z</time></trkpt><trkpt lat="42.0592728" lon="12.0811236"><ele>244.0</ele><time>2026-04-01T10:03:15.778Z</time></trkpt><trkpt lat="42.0593955" lon="12.0810876"><ele>245.0</ele><time>2026-04-01T10:03:16.776Z</time></trkpt><trkpt lat="42.0595358" lon="12.0810371"><ele>246.0</ele><time>2026-04-01T10:03:17.774Z</time></trkpt><trkpt lat="42.0596753" lon="12.080984"><ele>247.0</ele><time>2026-04-01T10:03:18.783Z</time></trkpt><trkpt lat="42.0598126" lon="12.0809427"><ele>247.0</ele><time>2026-04-01T10:03:19.775Z</time></trkpt><trkpt lat="42.059943" lon="12.0808968"><ele>247.0</ele><time>2026-04-01T10:03:20.773Z</time></trkpt><trkpt lat="42.0600656" lon="12.0808525"><ele>247.0</ele><time>2026-04-01T10:03:21.773Z</time></trkpt><trkpt lat="42.060193" lon="12.0808171"><ele>247.0</ele><time>2026-04-01T10:03:22.787Z</time></trkpt><trkpt lat="42.0603214" lon="12.0807773"><ele>245.75</ele><time>2026-04-01T10:03:23.777Z</time></trkpt><trkpt lat="42.0604542" lon="12.0807323"><ele>244.5</ele><time>2026-04-01T10:03:24.779Z</time></trkpt><trkpt lat="42.0605867" lon="12.0806953"><ele>243.25</ele><time>2026-04-01T10:03:25.779Z</time></trkpt><trkpt lat="42.0607093" lon="12.0806538"><ele>242.0</ele><time>2026-04-01T10:03:26.774Z</time></trkpt><trkpt lat="42.0608426" lon="12.0806073"><ele>242.0</ele><time>2026-04-01T10:03:27.787Z</time></trkpt><trkpt lat="42.0609768" lon="12.0805658"><ele>242.0</ele><time>2026-04-01T10:03:28.779Z</time></trkpt><trkpt lat="42.0611094" lon="12.0805307"><ele>242.0</ele><time>2026-04-01T10:03:29.781Z</time></trkpt><trkpt lat="42.0612428" lon="12.0804847"><ele>242.0</ele><time>2026-04-01T10:03:30.775Z</time></trkpt><trkpt lat="42.0613765" lon="12.0804456"><ele>242.0</ele><time>2026-04-01T10:03:31.777Z</time></trkpt><trkpt lat="42.0615143" lon="12.0803994"><ele>242.0</ele><time>2026-04-01T10:03:32.781Z</time></trkpt><trkpt lat="42.0616414" lon="12.0803594"><ele>242.0</ele><time>2026-04-01T10:03:33.786Z</time></trkpt><trkpt lat="42.0617576" lon="12.0803189"><ele>242.0</ele><time>2026-04-01T10:03:34.794Z</time></trkpt><trkpt lat="42.0618668" lon="12.0802806"><ele>242.0</ele><time>2026-04-01T10:03:35.808Z</time></trkpt><trkpt lat="42.0619672" lon="12.080234"><ele>242.0</ele><time>2026-04-01T10:03:36.788Z</time></trkpt><trkpt lat="42.0620602" lon="12.0801789"><ele>242.0</ele><time>2026-04-01T10:03:37.778Z</time></trkpt><trkpt lat="42.0621477" lon="12.0801235"><ele>242.0</ele><time>2026-04-01T10:03:38.781Z</time></trkpt><trkpt lat="42.0622199" lon="12.0800791"><ele>242.0</ele><time>2026-04-01T10:03:39.787Z</time></trkpt><trkpt lat="42.0622872" lon="12.0800505"><ele>242.00000000000003</ele><time>2026-04-01T10:03:40.788Z</time></trkpt><trkpt lat="42.0623552" lon="12.0800363"><ele>242.0</ele><time>2026-04-01T10:03:41.787Z</time></trkpt><trkpt lat="42.062422" lon="12.0800319"><ele>242.0</ele><time>2026-04-01T10:03:42.781Z</time></trkpt><trkpt lat="42.0624981" lon="12.0800313"><ele>242.0</ele><time>2026-04-01T10:03:43.788Z</time></trkpt><trkpt lat="42.0625805" lon="12.0800128"><ele>242.00000000000003</ele><time>2026-04-01T10:03:44.783Z</time></trkpt><trkpt lat="42.0626854" lon="12.0799813"><ele>242.0</ele><time>2026-04-01T10:03:45.786Z</time></trkpt><trkpt lat="42.0627963" lon="12.0799567"><ele>242.0</ele><time>2026-04-01T10:03:46.78Z</time></trkpt><trkpt lat="42.06292" lon="12.0799286"><ele>242.0</ele><time>2026-04-01T10:03:47.789Z</time></trkpt><trkpt lat="42.0630496" lon="12.079897"><ele>242.0</ele><time>2026-04-01T10:03:48.787Z</time></trkpt><trkpt lat="42.0631913" lon="12.0798537"><ele>242.0</ele><time>2026-04-01T10:03:49.788Z</time></trkpt><trkpt lat="42.0633435" lon="12.0798063"><ele>242.0</ele><time>2026-04-01T10:03:50.793Z</time></trkpt><trkpt lat="42.0635056" lon="12.0797606"><ele>242.0</ele><time>2026-04-01T10:03:51.799Z</time></trkpt><trkpt lat="42.0636681" lon="12.0796952"><ele>242.0</ele><time>2026-04-01T10:03:52.799Z</time></trkpt><trkpt lat="42.0638225" lon="12.0796437"><ele>242.0</ele><time>2026-04-01T10:03:53.796Z</time></trkpt><trkpt lat="42.063947" lon="12.0795868"><ele>242.0</ele><time>2026-04-01T10:03:54.787Z</time></trkpt><trkpt lat="42.0640661" lon="12.0795405"><ele>242.0</ele><time>2026-04-01T10:03:55.8Z</time></trkpt><trkpt lat="42.064161" lon="12.0795041"><ele>242.0</ele><time>2026-04-01T10:03:56.786Z</time></trkpt><trkpt lat="42.0642521" lon="12.0794775"><ele>242.0</ele><time>2026-04-01T10:03:57.793Z</time></trkpt><trkpt lat="42.0643487" lon="12.0794432"><ele>242.0</ele><time>2026-04-01T10:03:58.8Z</time></trkpt><trkpt lat="42.0644553" lon="12.0794115"><ele>242.0</ele><time>2026-04-01T10:03:59.799Z</time></trkpt><trkpt lat="42.0645674" lon="12.0793937"><ele>242.0</ele><time>2026-04-01T10:04:00.788Z</time></trkpt><trkpt lat="42.0646771" lon="12.0793611"><ele>242.0</ele><time>2026-04-01T10:04:01.799Z</time></trkpt><trkpt lat="42.0647838" lon="12.0793313"><ele>242.0</ele><time>2026-04-01T10:04:02.789Z</time></trkpt><trkpt lat="42.0648961" lon="12.0792974"><ele>241.2</ele><time>2026-04-01T10:04:03.799Z</time></trkpt><trkpt lat="42.0650023" lon="12.0792601"><ele>240.39999999999998</ele><time>2026-04-01T10:04:04.787Z</time></trkpt><trkpt lat="42.0651121" lon="12.0792233"><ele>239.60000000000002</ele><time>2026-04-01T10:04:05.793Z</time></trkpt><trkpt lat="42.0652168" lon="12.0791893"><ele>238.8</ele><time>2026-04-01T10:04:06.807Z</time></trkpt><trkpt lat="42.0653246" lon="12.0791542"><ele>238.0</ele><time>2026-04-01T10:04:07.783Z</time></trkpt><trkpt lat="42.0654333" lon="12.0791142"><ele>238.2</ele><time>2026-04-01T10:04:08.779Z</time></trkpt><trkpt lat="42.0655396" lon="12.0790706"><ele>238.4</ele><time>2026-04-01T10:04:09.78Z</time></trkpt><trkpt lat="42.0656363" lon="12.0790224"><ele>238.59999999999997</ele><time>2026-04-01T10:04:10.766Z</time></trkpt><trkpt lat="42.0657162" lon="12.0789913"><ele>238.79999999999998</ele><time>2026-04-01T10:04:11.767Z</time></trkpt><trkpt lat="42.065784" lon="12.0789294"><ele>239.0</ele><time>2026-04-01T10:04:12.775Z</time></trkpt><trkpt lat="42.0658668" lon="12.0788486"><ele>239.79999999999998</ele><time>2026-04-01T10:04:13.768Z</time></trkpt><trkpt lat="42.0659363" lon="12.0788115"><ele>240.59999999999997</ele><time>2026-04-01T10:04:14.776Z</time></trkpt><trkpt lat="42.0660266" lon="12.0787776"><ele>241.4</ele><time>2026-04-01T10:04:15.776Z</time></trkpt><trkpt lat="42.0661186" lon="12.0787414"><ele>242.2</ele><time>2026-04-01T10:04:16.77Z</time></trkpt><trkpt lat="42.0662243" lon="12.0787043"><ele>243.0</ele><time>2026-04-01T10:04:17.764Z</time></trkpt><trkpt lat="42.0663305" lon="12.0786856"><ele>243.0</ele><time>2026-04-01T10:04:18.775Z</time></trkpt><trkpt lat="42.06644" lon="12.0786881"><ele>243.0</ele><time>2026-04-01T10:04:19.777Z</time></trkpt><trkpt lat="42.0665419" lon="12.0786948"><ele>243.0</ele><time>2026-04-01T10:04:20.779Z</time></trkpt><trkpt lat="42.0666404" lon="12.0786833"><ele>243.0</ele><time>2026-04-01T10:04:21.784Z</time></trkpt><trkpt lat="42.0667466" lon="12.0786632"><ele>243.0</ele><time>2026-04-01T10:04:22.79Z</time></trkpt><trkpt lat="42.0668536" lon="12.0786369"><ele>244.25</ele><time>2026-04-01T10:04:23.78Z</time></trkpt><trkpt lat="42.0669652" lon="12.0786071"><ele>245.5</ele><time>2026-04-01T10:04:24.779Z</time></trkpt><trkpt lat="42.0670865" lon="12.0785801"><ele>246.75</ele><time>2026-04-01T10:04:25.776Z</time></trkpt><trkpt lat="42.0672077" lon="12.0785516"><ele>248.0</ele><time>2026-04-01T10:04:26.776Z</time></trkpt><trkpt lat="42.0673378" lon="12.0785098"><ele>246.75</ele><time>2026-04-01T10:04:27.779Z</time></trkpt><trkpt lat="42.0674742" lon="12.0784698"><ele>245.5</ele><time>2026-04-01T10:04:28.778Z</time></trkpt><trkpt lat="42.0676114" lon="12.0784371"><ele>244.25</ele><time>2026-04-01T10:04:29.778Z</time></trkpt><trkpt lat="42.0677528" lon="12.0783977"><ele>243.0</ele><time>2026-04-01T10:04:30.777Z</time></trkpt><trkpt lat="42.0678879" lon="12.0783395"><ele>243.0</ele><time>2026-04-01T10:04:31.771Z</time></trkpt><trkpt lat="42.0680385" lon="12.0782714"><ele>243.0</ele><time>2026-04-01T10:04:32.774Z</time></trkpt><trkpt lat="42.0681851" lon="12.0782193"><ele>243.0</ele><time>2026-04-01T10:04:33.775Z</time></trkpt><trkpt lat="42.0683254" lon="12.078177"><ele>243.5</ele><time>2026-04-01T10:04:34.783Z</time></trkpt><trkpt lat="42.0684469" lon="12.078126"><ele>244.0</ele><time>2026-04-01T10:04:35.781Z</time></trkpt><trkpt lat="42.0685662" lon="12.0780628"><ele>244.5</ele><time>2026-04-01T10:04:36.782Z</time></trkpt><trkpt lat="42.0686871" lon="12.0780326"><ele>245.0</ele><time>2026-04-01T10:04:37.787Z</time></trkpt><trkpt lat="42.0688077" lon="12.0779988"><ele>245.0</ele><time>2026-04-01T10:04:38.78Z</time></trkpt><trkpt lat="42.0689318" lon="12.0779521"><ele>245.0</ele><time>2026-04-01T10:04:39.778Z</time></trkpt><trkpt lat="42.0690685" lon="12.0779156"><ele>245.0</ele><time>2026-04-01T10:04:40.78Z</time></trkpt><trkpt lat="42.0692083" lon="12.0778815"><ele>245.0</ele><time>2026-04-01T10:04:41.78Z</time></trkpt><trkpt lat="42.0693376" lon="12.0778317"><ele>245.25</ele><time>2026-04-01T10:04:42.78Z</time></trkpt><trkpt lat="42.0694609" lon="12.0777693"><ele>245.5</ele><time>2026-04-01T10:04:43.773Z</time></trkpt><trkpt lat="42.0695728" lon="12.0776999"><ele>245.75</ele><time>2026-04-01T10:04:44.767Z</time></trkpt><trkpt lat="42.0696968" lon="12.0775941"><ele>246.0</ele><time>2026-04-01T10:04:45.772Z</time></trkpt><trkpt lat="42.0697986" lon="12.0774517"><ele>247.33333333333331</ele><time>2026-04-01T10:04:46.766Z</time></trkpt><trkpt lat="42.0699171" lon="12.0773087"><ele>248.66666666666666</ele><time>2026-04-01T10:04:47.765Z</time></trkpt><trkpt lat="42.0700409" lon="12.0771879"><ele>250.0</ele><time>2026-04-01T10:04:48.765Z</time></trkpt><trkpt lat="42.0701556" lon="12.0770746"><ele>250.25</ele><time>2026-04-01T10:04:49.774Z</time></trkpt><trkpt lat="42.0702642" lon="12.0769766"><ele>250.5</ele><time>2026-04-01T10:04:50.774Z</time></trkpt><trkpt lat="42.0703627" lon="12.0768858"><ele>250.75</ele><time>2026-04-01T10:04:51.773Z</time></trkpt><trkpt lat="42.0704568" lon="12.076814"><ele>251.0</ele><time>2026-04-01T10:04:52.77Z</time></trkpt><trkpt lat="42.0705358" lon="12.0767495"><ele>251.00000000000003</ele><time>2026-04-01T10:04:53.767Z</time></trkpt><trkpt lat="42.0706019" lon="12.0767015"><ele>251.0</ele><time>2026-04-01T10:04:54.765Z</time></trkpt><trkpt lat="42.0706535" lon="12.0766394"><ele>251.0</ele><time>2026-04-01T10:04:55.767Z</time></trkpt><trkpt lat="42.0707078" lon="12.0765683"><ele>251.0</ele><time>2026-04-01T10:04:56.774Z</time></trkpt><trkpt lat="42.0707624" lon="12.0765072"><ele>251.00000000000003</ele><time>2026-04-01T10:04:57.769Z</time></trkpt><trkpt lat="42.0708136" lon="12.0764569"><ele>251.0</ele><time>2026-04-01T10:04:58.773Z</time></trkpt><trkpt lat="42.0709049" lon="12.0763648"><ele>252.0</ele><time>2026-04-01T10:05:00.769Z</time></trkpt><trkpt lat="42.0709808" lon="12.0763152"><ele>253.00000000000003</ele><time>2026-04-01T10:05:02.763Z</time></trkpt><trkpt lat="42.0710606" lon="12.0762578"><ele>254.00000000000003</ele><time>2026-04-01T10:05:26.772Z</time></trkpt><trkpt lat="42.0711442" lon="12.0762011"><ele>255.0</ele><time>2026-04-01T10:05:27.776Z</time></trkpt><trkpt lat="42.071246" lon="12.0761421"><ele>256.0</ele><time>2026-04-01T10:05:28.771Z</time></trkpt><trkpt lat="42.0713561" lon="12.0760839"><ele>256.0</ele><time>2026-04-01T10:05:29.775Z</time></trkpt><trkpt lat="42.0714613" lon="12.0760246"><ele>256.0</ele><time>2026-04-01T10:05:30.777Z</time></trkpt><trkpt lat="42.0715728" lon="12.075959"><ele>256.0</ele><time>2026-04-01T10:05:31.772Z</time></trkpt><trkpt lat="42.0716827" lon="12.0758824"><ele>256.0</ele><time>2026-04-01T10:05:32.772Z</time></trkpt><trkpt lat="42.0717852" lon="12.075799"><ele>256.8</ele><time>2026-04-01T10:05:33.772Z</time></trkpt><trkpt lat="42.0718789" lon="12.0757114"><ele>257.6</ele><time>2026-04-01T10:05:34.767Z</time></trkpt><trkpt lat="42.0719557" lon="12.0756275"><ele>258.4</ele><time>2026-04-01T10:05:35.775Z</time></trkpt><trkpt lat="42.0720261" lon="12.0755292"><ele>259.2</ele><time>2026-04-01T10:05:36.774Z</time></trkpt><trkpt lat="42.0720913" lon="12.0754283"><ele>260.0</ele><time>2026-04-01T10:05:37.772Z</time></trkpt><trkpt lat="42.0721417" lon="12.0753452"><ele>260.0</ele><time>2026-04-01T10:05:38.792Z</time></trkpt><trkpt lat="42.0721729" lon="12.075204"><ele>260.0</ele><time>2026-04-01T10:05:40.771Z</time></trkpt><trkpt lat="42.0721634" lon="12.0750264"><ele>260.0</ele><time>2026-04-01T10:05:42.763Z</time></trkpt><trkpt lat="42.072138" lon="12.0748953"><ele>260.0</ele><time>2026-04-01T10:05:43.778Z</time></trkpt><trkpt lat="42.0721026" lon="12.074763"><ele>260.0</ele><time>2026-04-01T10:05:44.775Z</time></trkpt><trkpt lat="42.072078" lon="12.0746144"><ele>258.4</ele><time>2026-04-01T10:05:45.779Z</time></trkpt><trkpt lat="42.0720715" lon="12.0744754"><ele>256.8</ele><time>2026-04-01T10:05:46.773Z</time></trkpt><trkpt lat="42.0720757" lon="12.0743359"><ele>255.2</ele><time>2026-04-01T10:05:47.772Z</time></trkpt><trkpt lat="42.0721124" lon="12.0742055"><ele>253.6</ele><time>2026-04-01T10:05:48.784Z</time></trkpt><trkpt lat="42.0721712" lon="12.074081"><ele>252.0</ele><time>2026-04-01T10:05:49.78Z</time></trkpt><trkpt lat="42.0722491" lon="12.073952"><ele>251.25</ele><time>2026-04-01T10:05:50.791Z</time></trkpt><trkpt lat="42.072332" lon="12.0738202"><ele>250.5</ele><time>2026-04-01T10:05:51.782Z</time></trkpt><trkpt lat="42.0724178" lon="12.0736817"><ele>249.75</ele><time>2026-04-01T10:05:52.783Z</time></trkpt><trkpt lat="42.0725031" lon="12.0735534"><ele>249.0</ele><time>2026-04-01T10:05:53.787Z</time></trkpt><trkpt lat="42.0725904" lon="12.0734259"><ele>248.75</ele><time>2026-04-01T10:05:54.786Z</time></trkpt><trkpt lat="42.0726686" lon="12.0732996"><ele>248.5</ele><time>2026-04-01T10:05:55.789Z</time></trkpt><trkpt lat="42.0727425" lon="12.0731679"><ele>248.25</ele><time>2026-04-01T10:05:56.786Z</time></trkpt><trkpt lat="42.0728121" lon="12.0730376"><ele>248.0</ele><time>2026-04-01T10:05:57.791Z</time></trkpt><trkpt lat="42.072887" lon="12.0729061"><ele>248.0</ele><time>2026-04-01T10:05:58.79Z</time></trkpt><trkpt lat="42.0729636" lon="12.0727695"><ele>248.0</ele><time>2026-04-01T10:05:59.792Z</time></trkpt><trkpt lat="42.0730373" lon="12.0726382"><ele>248.0</ele><time>2026-04-01T10:06:00.796Z</time></trkpt><trkpt lat="42.0731093" lon="12.0725044"><ele>248.0</ele><time>2026-04-01T10:06:01.799Z</time></trkpt><trkpt lat="42.0731838" lon="12.0723774"><ele>247.25</ele><time>2026-04-01T10:06:02.787Z</time></trkpt><trkpt lat="42.0732594" lon="12.0722468"><ele>246.5</ele><time>2026-04-01T10:06:03.788Z</time></trkpt><trkpt lat="42.0733406" lon="12.0721142"><ele>245.75</ele><time>2026-04-01T10:06:04.785Z</time></trkpt><trkpt lat="42.0734213" lon="12.0719695"><ele>245.0</ele><time>2026-04-01T10:06:05.787Z</time></trkpt><trkpt lat="42.0735082" lon="12.0718269"><ele>245.0</ele><time>2026-04-01T10:06:06.791Z</time></trkpt><trkpt lat="42.0735884" lon="12.07169"><ele>245.0</ele><time>2026-04-01T10:06:07.785Z</time></trkpt><trkpt lat="42.0736561" lon="12.0715637"><ele>245.0</ele><time>2026-04-01T10:06:08.774Z</time></trkpt><trkpt lat="42.0737158" lon="12.0714319"><ele>245.0</ele><time>2026-04-01T10:06:09.789Z</time></trkpt><trkpt lat="42.0737653" lon="12.0713055"><ele>244.50000000000003</ele><time>2026-04-01T10:06:10.773Z</time></trkpt><trkpt lat="42.0738065" lon="12.0711912"><ele>244.0</ele><time>2026-04-01T10:06:11.785Z</time></trkpt><trkpt lat="42.0738358" lon="12.0710911"><ele>243.5</ele><time>2026-04-01T10:06:12.777Z</time></trkpt><trkpt lat="42.0738551" lon="12.0710047"><ele>243.0</ele><time>2026-04-01T10:06:13.775Z</time></trkpt><trkpt lat="42.0738855" lon="12.0708522"><ele>242.50000000000003</ele><time>2026-04-01T10:06:15.778Z</time></trkpt><trkpt lat="42.0739037" lon="12.0707652"><ele>242.0</ele><time>2026-04-01T10:06:17.772Z</time></trkpt><trkpt lat="42.0739874" lon="12.0707712"><ele>241.39999999999998</ele><time>2026-04-01T10:06:20.762Z</time></trkpt><trkpt lat="42.074083" lon="12.0707686"><ele>240.79999999999998</ele><time>2026-04-01T10:06:22.763Z</time></trkpt><trkpt lat="42.0741543" lon="12.0706428"><ele>240.2</ele><time>2026-04-01T10:06:24.764Z</time></trkpt><trkpt lat="42.0741952" lon="12.0705463"><ele>239.6</ele><time>2026-04-01T10:06:25.764Z</time></trkpt><trkpt lat="42.074231" lon="12.0704007"><ele>239.0</ele><time>2026-04-01T10:06:26.766Z</time></trkpt><trkpt lat="42.0742624" lon="12.0702726"><ele>240.2</ele><time>2026-04-01T10:06:27.758Z</time></trkpt><trkpt lat="42.0742882" lon="12.0701472"><ele>241.39999999999998</ele><time>2026-04-01T10:06:28.759Z</time></trkpt><trkpt lat="42.074308" lon="12.0700573"><ele>242.6</ele><time>2026-04-01T10:06:29.761Z</time></trkpt><trkpt lat="42.0743401" lon="12.0699433"><ele>243.8</ele><time>2026-04-01T10:06:31.759Z</time></trkpt><trkpt lat="42.0744081" lon="12.0699537"><ele>245.0</ele><time>2026-04-01T10:06:48.77Z</time></trkpt><trkpt lat="42.0745229" lon="12.0700281"><ele>245.0</ele><time>2026-04-01T10:06:50.77Z</time></trkpt><trkpt lat="42.0746125" lon="12.0701203"><ele>245.0</ele><time>2026-04-01T10:06:51.767Z</time></trkpt><trkpt lat="42.0746934" lon="12.0702131"><ele>245.0</ele><time>2026-04-01T10:06:52.768Z</time></trkpt><trkpt lat="42.0747946" lon="12.0703219"><ele>245.0</ele><time>2026-04-01T10:06:53.767Z</time></trkpt><trkpt lat="42.0749047" lon="12.0704522"><ele>246.33333333333334</ele><time>2026-04-01T10:06:54.765Z</time></trkpt><trkpt lat="42.0750259" lon="12.0705814"><ele>247.66666666666669</ele><time>2026-04-01T10:06:55.757Z</time></trkpt><trkpt lat="42.0751627" lon="12.0707336"><ele>249.0</ele><time>2026-04-01T10:06:56.765Z</time></trkpt><trkpt lat="42.0753159" lon="12.0708826"><ele>249.0</ele><time>2026-04-01T10:06:57.763Z</time></trkpt><trkpt lat="42.0754787" lon="12.0710208"><ele>249.0</ele><time>2026-04-01T10:06:58.764Z</time></trkpt><trkpt lat="42.0756464" lon="12.071157"><ele>249.0</ele><time>2026-04-01T10:06:59.76Z</time></trkpt><trkpt lat="42.0757977" lon="12.0713131"><ele>248.66666666666669</ele><time>2026-04-01T10:07:00.763Z</time></trkpt><trkpt lat="42.075945" lon="12.071472"><ele>248.33333333333334</ele><time>2026-04-01T10:07:01.766Z</time></trkpt><trkpt lat="42.0760899" lon="12.0716299"><ele>248.0</ele><time>2026-04-01T10:07:02.763Z</time></trkpt><trkpt lat="42.0762292" lon="12.0717832"><ele>248.0</ele><time>2026-04-01T10:07:03.769Z</time></trkpt><trkpt lat="42.0763662" lon="12.0719351"><ele>248.0</ele><time>2026-04-01T10:07:04.774Z</time></trkpt><trkpt lat="42.0764933" lon="12.072071"><ele>248.0</ele><time>2026-04-01T10:07:05.769Z</time></trkpt><trkpt lat="42.0766334" lon="12.0722094"><ele>248.0</ele><time>2026-04-01T10:07:06.772Z</time></trkpt><trkpt lat="42.0767663" lon="12.0723434"><ele>248.0</ele><time>2026-04-01T10:07:07.776Z</time></trkpt><trkpt lat="42.0768967" lon="12.0724875"><ele>248.0</ele><time>2026-04-01T10:07:08.776Z</time></trkpt><trkpt lat="42.0770294" lon="12.07262"><ele>248.0</ele><time>2026-04-01T10:07:09.778Z</time></trkpt><trkpt lat="42.077161" lon="12.072755"><ele>248.0</ele><time>2026-04-01T10:07:10.773Z</time></trkpt><trkpt lat="42.0772941" lon="12.0728969"><ele>248.0</ele><time>2026-04-01T10:07:11.795Z</time></trkpt><trkpt lat="42.0774299" lon="12.0730391"><ele>248.0</ele><time>2026-04-01T10:07:12.778Z</time></trkpt><trkpt lat="42.0775624" lon="12.0731728"><ele>248.0</ele><time>2026-04-01T10:07:13.776Z</time></trkpt><trkpt lat="42.0777029" lon="12.0733113"><ele>248.0</ele><time>2026-04-01T10:07:14.773Z</time></trkpt><trkpt lat="42.0778499" lon="12.0734378"><ele>248.0</ele><time>2026-04-01T10:07:15.771Z</time></trkpt><trkpt lat="42.0779911" lon="12.073588"><ele>248.0</ele><time>2026-04-01T10:07:16.778Z</time></trkpt><trkpt lat="42.0781166" lon="12.0737229"><ele>248.0</ele><time>2026-04-01T10:07:17.774Z</time></trkpt><trkpt lat="42.0782511" lon="12.0738574"><ele>247.66666666666669</ele><time>2026-04-01T10:07:18.786Z</time></trkpt><trkpt lat="42.0783823" lon="12.0739952"><ele>247.33333333333331</ele><time>2026-04-01T10:07:19.782Z</time></trkpt><trkpt lat="42.0785173" lon="12.0741218"><ele>247.0</ele><time>2026-04-01T10:07:20.784Z</time></trkpt><trkpt lat="42.0786362" lon="12.074267"><ele>247.0</ele><time>2026-04-01T10:07:21.782Z</time></trkpt><trkpt lat="42.0787642" lon="12.0743835"><ele>247.0</ele><time>2026-04-01T10:07:22.778Z</time></trkpt><trkpt lat="42.0788947" lon="12.0745049"><ele>247.0</ele><time>2026-04-01T10:07:23.778Z</time></trkpt><trkpt lat="42.079037" lon="12.0746502"><ele>247.0</ele><time>2026-04-01T10:07:24.783Z</time></trkpt><trkpt lat="42.0791763" lon="12.0748072"><ele>247.0</ele><time>2026-04-01T10:07:25.781Z</time></trkpt><trkpt lat="42.0793183" lon="12.0749626"><ele>247.0</ele><time>2026-04-01T10:07:26.774Z</time></trkpt><trkpt lat="42.0794569" lon="12.0750954"><ele>247.33333333333331</ele><time>2026-04-01T10:07:27.777Z</time></trkpt><trkpt lat="42.079602" lon="12.0752355"><ele>247.66666666666669</ele><time>2026-04-01T10:07:28.78Z</time></trkpt><trkpt lat="42.0797447" lon="12.075357"><ele>248.0</ele><time>2026-04-01T10:07:29.783Z</time></trkpt><trkpt lat="42.0798933" lon="12.0754937"><ele>248.0</ele><time>2026-04-01T10:07:30.786Z</time></trkpt><trkpt lat="42.0800411" lon="12.0756417"><ele>248.0</ele><time>2026-04-01T10:07:31.786Z</time></trkpt><trkpt lat="42.0801883" lon="12.075776"><ele>248.0</ele><time>2026-04-01T10:07:32.783Z</time></trkpt><trkpt lat="42.0803313" lon="12.0759136"><ele>248.66666666666669</ele><time>2026-04-01T10:07:33.783Z</time></trkpt><trkpt lat="42.0804713" lon="12.0760494"><ele>249.33333333333331</ele><time>2026-04-01T10:07:34.782Z</time></trkpt><trkpt lat="42.0806126" lon="12.0761925"><ele>250.0</ele><time>2026-04-01T10:07:35.785Z</time></trkpt><trkpt lat="42.0807623" lon="12.0763441"><ele>251.0</ele><time>2026-04-01T10:07:36.78Z</time></trkpt><trkpt lat="42.0809189" lon="12.076487"><ele>252.0</ele><time>2026-04-01T10:07:37.785Z</time></trkpt><trkpt lat="42.0810846" lon="12.0766305"><ele>253.0</ele><time>2026-04-01T10:07:38.785Z</time></trkpt><trkpt lat="42.0812498" lon="12.0767616"><ele>253.0</ele><time>2026-04-01T10:07:39.785Z</time></trkpt><trkpt lat="42.0814155" lon="12.0769022"><ele>253.0</ele><time>2026-04-01T10:07:40.783Z</time></trkpt><trkpt lat="42.0815637" lon="12.0770435"><ele>253.0</ele><time>2026-04-01T10:07:41.778Z</time></trkpt><trkpt lat="42.0817095" lon="12.0771848"><ele>253.33333333333331</ele><time>2026-04-01T10:07:42.791Z</time></trkpt><trkpt lat="42.0818469" lon="12.0773284"><ele>253.66666666666669</ele><time>2026-04-01T10:07:43.776Z</time></trkpt><trkpt lat="42.0819861" lon="12.0774775"><ele>254.0</ele><time>2026-04-01T10:07:44.778Z</time></trkpt><trkpt lat="42.0821341" lon="12.0776295"><ele>254.33333333333334</ele><time>2026-04-01T10:07:45.772Z</time></trkpt><trkpt lat="42.0822815" lon="12.0777806"><ele>254.66666666666669</ele><time>2026-04-01T10:07:46.77Z</time></trkpt><trkpt lat="42.0824283" lon="12.0779378"><ele>255.0</ele><time>2026-04-01T10:07:47.772Z</time></trkpt><trkpt lat="42.082581" lon="12.0780884"><ele>255.0</ele><time>2026-04-01T10:07:48.774Z</time></trkpt><trkpt lat="42.0827347" lon="12.0782427"><ele>255.0</ele><time>2026-04-01T10:07:49.772Z</time></trkpt><trkpt lat="42.0829039" lon="12.0783747"><ele>255.0</ele><time>2026-04-01T10:07:50.77Z</time></trkpt><trkpt lat="42.0830533" lon="12.0785232"><ele>254.66666666666669</ele><time>2026-04-01T10:07:51.782Z</time></trkpt><trkpt lat="42.0832047" lon="12.0786762"><ele>254.33333333333334</ele><time>2026-04-01T10:07:52.785Z</time></trkpt><trkpt lat="42.0833612" lon="12.0788332"><ele>254.0</ele><time>2026-04-01T10:07:53.784Z</time></trkpt><trkpt lat="42.0835124" lon="12.0789795"><ele>254.0</ele><time>2026-04-01T10:07:54.784Z</time></trkpt><trkpt lat="42.0836641" lon="12.0790992"><ele>254.0</ele><time>2026-04-01T10:07:55.778Z</time></trkpt><trkpt lat="42.083808" lon="12.0792171"><ele>254.0</ele><time>2026-04-01T10:07:56.774Z</time></trkpt><trkpt lat="42.0839466" lon="12.0793324"><ele>254.0</ele><time>2026-04-01T10:07:57.775Z</time></trkpt><trkpt lat="42.0840851" lon="12.0794199"><ele>254.0</ele><time>2026-04-01T10:07:58.775Z</time></trkpt><trkpt lat="42.084222" lon="12.0795035"><ele>254.0</ele><time>2026-04-01T10:07:59.776Z</time></trkpt><trkpt lat="42.0843756" lon="12.0795681"><ele>254.0</ele><time>2026-04-01T10:08:00.777Z</time></trkpt><trkpt lat="42.084544" lon="12.0796053"><ele>254.0</ele><time>2026-04-01T10:08:01.779Z</time></trkpt><trkpt lat="42.0847204" lon="12.0796176"><ele>254.0</ele><time>2026-04-01T10:08:02.782Z</time></trkpt><trkpt lat="42.0848787" lon="12.0796221"><ele>254.75</ele><time>2026-04-01T10:08:03.774Z</time></trkpt><trkpt lat="42.0850481" lon="12.079622"><ele>255.5</ele><time>2026-04-01T10:08:04.776Z</time></trkpt><trkpt lat="42.0851854" lon="12.0796192"><ele>256.25</ele><time>2026-04-01T10:08:05.768Z</time></trkpt><trkpt lat="42.0853259" lon="12.0796301"><ele>257.0</ele><time>2026-04-01T10:08:06.769Z</time></trkpt><trkpt lat="42.0854564" lon="12.0796468"><ele>257.0</ele><time>2026-04-01T10:08:07.764Z</time></trkpt><trkpt lat="42.0855798" lon="12.0797115"><ele>257.0</ele><time>2026-04-01T10:08:08.767Z</time></trkpt><trkpt lat="42.0856938" lon="12.0798158"><ele>257.0</ele><time>2026-04-01T10:08:09.766Z</time></trkpt><trkpt lat="42.0857884" lon="12.0799536"><ele>257.0</ele><time>2026-04-01T10:08:10.767Z</time></trkpt><trkpt lat="42.0859773" lon="12.0802205"><ele>258.0</ele><time>2026-04-01T10:08:12.767Z</time></trkpt><trkpt lat="42.0860679" lon="12.0803888"><ele>259.0</ele><time>2026-04-01T10:08:13.781Z</time></trkpt><trkpt lat="42.0861577" lon="12.0805492"><ele>260.0</ele><time>2026-04-01T10:08:14.775Z</time></trkpt><trkpt lat="42.0862472" lon="12.0807207"><ele>260.0</ele><time>2026-04-01T10:08:15.776Z</time></trkpt><trkpt lat="42.0863433" lon="12.0809091"><ele>260.0</ele><time>2026-04-01T10:08:16.776Z</time></trkpt><trkpt lat="42.0864362" lon="12.0811006"><ele>260.0</ele><time>2026-04-01T10:08:17.773Z</time></trkpt><trkpt lat="42.0865324" lon="12.0812721"><ele>260.5</ele><time>2026-04-01T10:08:18.775Z</time></trkpt><trkpt lat="42.0866275" lon="12.081443"><ele>261.0</ele><time>2026-04-01T10:08:19.769Z</time></trkpt><trkpt lat="42.0867134" lon="12.0816136"><ele>261.5</ele><time>2026-04-01T10:08:20.766Z</time></trkpt><trkpt lat="42.0867873" lon="12.0817677"><ele>262.0</ele><time>2026-04-01T10:08:21.768Z</time></trkpt><trkpt lat="42.0868464" lon="12.0819118"><ele>262.16666666666663</ele><time>2026-04-01T10:08:22.767Z</time></trkpt><trkpt lat="42.0869048" lon="12.0820282"><ele>262.3333333333333</ele><time>2026-04-01T10:08:23.764Z</time></trkpt><trkpt lat="42.0869562" lon="12.0821443"><ele>262.5</ele><time>2026-04-01T10:08:24.767Z</time></trkpt><trkpt lat="42.0869993" lon="12.0822273"><ele>262.6666666666667</ele><time>2026-04-01T10:08:25.767Z</time></trkpt><trkpt lat="42.0870953" lon="12.0822617"><ele>262.83333333333337</ele><time>2026-04-01T10:08:27.766Z</time></trkpt><trkpt lat="42.0871628" lon="12.0822615"><ele>263.0</ele><time>2026-04-01T10:08:29.758Z</time></trkpt><trkpt lat="42.08723" lon="12.0821918"><ele>263.0</ele><time>2026-04-01T10:08:31.767Z</time></trkpt><trkpt lat="42.0872612" lon="12.0820771"><ele>263.0</ele><time>2026-04-01T10:08:32.758Z</time></trkpt><trkpt lat="42.0872941" lon="12.0819248"><ele>263.0</ele><time>2026-04-01T10:08:33.762Z</time></trkpt><trkpt lat="42.0873072" lon="12.0817201"><ele>263.0</ele><time>2026-04-01T10:08:34.757Z</time></trkpt><trkpt lat="42.0873095" lon="12.0815125"><ele>262.75</ele><time>2026-04-01T10:08:35.766Z</time></trkpt><trkpt lat="42.0873388" lon="12.0813191"><ele>262.5</ele><time>2026-04-01T10:08:36.765Z</time></trkpt><trkpt lat="42.0873665" lon="12.0811069"><ele>262.25</ele><time>2026-04-01T10:08:37.766Z</time></trkpt><trkpt lat="42.0873978" lon="12.0809265"><ele>262.0</ele><time>2026-04-01T10:08:38.767Z</time></trkpt><trkpt lat="42.0874104" lon="12.0807582"><ele>262.0</ele><time>2026-04-01T10:08:39.769Z</time></trkpt><trkpt lat="42.087413" lon="12.0805889"><ele>262.0</ele><time>2026-04-01T10:08:40.773Z</time></trkpt><trkpt lat="42.0873918" lon="12.0804341"><ele>262.0</ele><time>2026-04-01T10:08:41.78Z</time></trkpt><trkpt lat="42.0873391" lon="12.0802784"><ele>262.0</ele><time>2026-04-01T10:08:42.77Z</time></trkpt><trkpt lat="42.0872746" lon="12.0801224"><ele>262.0</ele><time>2026-04-01T10:08:43.77Z</time></trkpt><trkpt lat="42.0871958" lon="12.0799619"><ele>262.0</ele><time>2026-04-01T10:08:44.793Z</time></trkpt><trkpt lat="42.0871117" lon="12.0797928"><ele>262.0</ele><time>2026-04-01T10:08:45.78Z</time></trkpt><trkpt lat="42.0870265" lon="12.0796182"><ele>262.0</ele><time>2026-04-01T10:08:46.783Z</time></trkpt><trkpt lat="42.0869496" lon="12.0794223"><ele>262.0</ele><time>2026-04-01T10:08:47.772Z</time></trkpt><trkpt lat="42.0868617" lon="12.0792207"><ele>262.0</ele><time>2026-04-01T10:08:48.773Z</time></trkpt><trkpt lat="42.0867807" lon="12.0790407"><ele>262.0</ele><time>2026-04-01T10:08:49.772Z</time></trkpt><trkpt lat="42.0867027" lon="12.0788704"><ele>261.75</ele><time>2026-04-01T10:08:50.773Z</time></trkpt><trkpt lat="42.0866399" lon="12.078721"><ele>261.5</ele><time>2026-04-01T10:08:51.771Z</time></trkpt><trkpt lat="42.0865977" lon="12.0785814"><ele>261.25</ele><time>2026-04-01T10:08:52.777Z</time></trkpt><trkpt lat="42.086561" lon="12.0784398"><ele>261.0</ele><time>2026-04-01T10:08:53.772Z</time></trkpt><trkpt lat="42.0865079" lon="12.0782807"><ele>261.0</ele><time>2026-04-01T10:08:54.775Z</time></trkpt><trkpt lat="42.0864374" lon="12.0781281"><ele>261.0</ele><time>2026-04-01T10:08:55.776Z</time></trkpt><trkpt lat="42.0863772" lon="12.07796"><ele>261.0</ele><time>2026-04-01T10:08:56.781Z</time></trkpt><trkpt lat="42.0863167" lon="12.0777823"><ele>261.0</ele><time>2026-04-01T10:08:57.778Z</time></trkpt><trkpt lat="42.0862442" lon="12.0775915"><ele>261.6666666666667</ele><time>2026-04-01T10:08:58.774Z</time></trkpt><trkpt lat="42.086173" lon="12.0773891"><ele>262.33333333333337</ele><time>2026-04-01T10:08:59.771Z</time></trkpt><trkpt lat="42.0861107" lon="12.0771892"><ele>263.0</ele><time>2026-04-01T10:09:00.762Z</time></trkpt><trkpt lat="42.0860463" lon="12.0770003"><ele>263.0</ele><time>2026-04-01T10:09:01.753Z</time></trkpt><trkpt lat="42.0859716" lon="12.0768417"><ele>263.0</ele><time>2026-04-01T10:09:02.758Z</time></trkpt><trkpt lat="42.0859197" lon="12.0766855"><ele>263.0</ele><time>2026-04-01T10:09:03.768Z</time></trkpt><trkpt lat="42.0858671" lon="12.0765214"><ele>263.0</ele><time>2026-04-01T10:09:04.775Z</time></trkpt><trkpt lat="42.0858031" lon="12.0763618"><ele>264.0</ele><time>2026-04-01T10:09:05.782Z</time></trkpt><trkpt lat="42.0857483" lon="12.0762162"><ele>265.0</ele><time>2026-04-01T10:09:06.786Z</time></trkpt><trkpt lat="42.0857057" lon="12.0760417"><ele>266.0</ele><time>2026-04-01T10:09:07.785Z</time></trkpt><trkpt lat="42.0856571" lon="12.0758839"><ele>267.0</ele><time>2026-04-01T10:09:08.786Z</time></trkpt><trkpt lat="42.0855944" lon="12.075732"><ele>267.25</ele><time>2026-04-01T10:09:09.781Z</time></trkpt><trkpt lat="42.0855109" lon="12.0755542"><ele>267.5</ele><time>2026-04-01T10:09:10.781Z</time></trkpt><trkpt lat="42.0854407" lon="12.0753879"><ele>267.75</ele><time>2026-04-01T10:09:11.786Z</time></trkpt><trkpt lat="42.0853847" lon="12.0752257"><ele>268.0</ele><time>2026-04-01T10:09:12.785Z</time></trkpt><trkpt lat="42.0853308" lon="12.0750503"><ele>267.25</ele><time>2026-04-01T10:09:13.773Z</time></trkpt><trkpt lat="42.0852836" lon="12.0748856"><ele>266.5</ele><time>2026-04-01T10:09:14.777Z</time></trkpt><trkpt lat="42.0852353" lon="12.0747265"><ele>265.75</ele><time>2026-04-01T10:09:15.791Z</time></trkpt><trkpt lat="42.085191" lon="12.0745719"><ele>265.0</ele><time>2026-04-01T10:09:16.775Z</time></trkpt><trkpt lat="42.0851415" lon="12.0744116"><ele>265.0</ele><time>2026-04-01T10:09:17.781Z</time></trkpt><trkpt lat="42.0850874" lon="12.0742452"><ele>265.0</ele><time>2026-04-01T10:09:18.784Z</time></trkpt><trkpt lat="42.0850388" lon="12.0740666"><ele>265.0</ele><time>2026-04-01T10:09:19.788Z</time></trkpt><trkpt lat="42.0849786" lon="12.0738997"><ele>265.0</ele><time>2026-04-01T10:09:20.782Z</time></trkpt><trkpt lat="42.0849248" lon="12.0737131"><ele>262.3333333333333</ele><time>2026-04-01T10:09:21.782Z</time></trkpt><trkpt lat="42.0848669" lon="12.0735193"><ele>259.6666666666667</ele><time>2026-04-01T10:09:22.786Z</time></trkpt><trkpt lat="42.0848225" lon="12.0733259"><ele>257.0</ele><time>2026-04-01T10:09:23.787Z</time></trkpt><trkpt lat="42.0847591" lon="12.0731298"><ele>257.0</ele><time>2026-04-01T10:09:24.789Z</time></trkpt><trkpt lat="42.0847052" lon="12.072949"><ele>257.0</ele><time>2026-04-01T10:09:25.787Z</time></trkpt><trkpt lat="42.0846558" lon="12.0727757"><ele>257.0</ele><time>2026-04-01T10:09:26.787Z</time></trkpt><trkpt lat="42.0845978" lon="12.0726016"><ele>257.0</ele><time>2026-04-01T10:09:27.788Z</time></trkpt><trkpt lat="42.0845389" lon="12.0724221"><ele>257.5</ele><time>2026-04-01T10:09:28.794Z</time></trkpt><trkpt lat="42.0844844" lon="12.0722522"><ele>258.0</ele><time>2026-04-01T10:09:29.788Z</time></trkpt><trkpt lat="42.0844264" lon="12.0720768"><ele>258.5</ele><time>2026-04-01T10:09:30.789Z</time></trkpt><trkpt lat="42.0843746" lon="12.0719262"><ele>259.0</ele><time>2026-04-01T10:09:31.793Z</time></trkpt><trkpt lat="42.0843233" lon="12.0717975"><ele>259.0</ele><time>2026-04-01T10:09:32.778Z</time></trkpt><trkpt lat="42.0842532" lon="12.0716584"><ele>259.0</ele><time>2026-04-01T10:09:33.779Z</time></trkpt><trkpt lat="42.0841809" lon="12.0715254"><ele>259.0</ele><time>2026-04-01T10:09:34.787Z</time></trkpt><trkpt lat="42.0840907" lon="12.0713998"><ele>259.0</ele><time>2026-04-01T10:09:35.787Z</time></trkpt><trkpt lat="42.0840172" lon="12.0712831"><ele>259.25</ele><time>2026-04-01T10:09:36.784Z</time></trkpt><trkpt lat="42.0839432" lon="12.0711648"><ele>259.5</ele><time>2026-04-01T10:09:37.78Z</time></trkpt><trkpt lat="42.0838701" lon="12.0710339"><ele>259.75</ele><time>2026-04-01T10:09:38.782Z</time></trkpt><trkpt lat="42.0838075" lon="12.0708993"><ele>260.0</ele><time>2026-04-01T10:09:39.779Z</time></trkpt><trkpt lat="42.0837631" lon="12.070774"><ele>260.0</ele><time>2026-04-01T10:09:40.793Z</time></trkpt><trkpt lat="42.0837238" lon="12.0706572"><ele>260.0</ele><time>2026-04-01T10:09:41.781Z</time></trkpt><trkpt lat="42.0836977" lon="12.0705539"><ele>260.0</ele><time>2026-04-01T10:09:42.775Z</time></trkpt><trkpt lat="42.0836773" lon="12.0704595"><ele>260.0</ele><time>2026-04-01T10:09:43.775Z</time></trkpt><trkpt lat="42.083671" lon="12.0703044"><ele>260.0</ele><time>2026-04-01T10:09:45.772Z</time></trkpt><trkpt lat="42.0837468" lon="12.0703258"><ele>260.0</ele><time>2026-04-01T10:10:05.787Z</time></trkpt><trkpt lat="42.0838275" lon="12.0702067"><ele>260.0</ele><time>2026-04-01T10:10:07.778Z</time></trkpt><trkpt lat="42.0838849" lon="12.0700812"><ele>260.0</ele><time>2026-04-01T10:10:08.783Z</time></trkpt><trkpt lat="42.0839439" lon="12.0699209"><ele>260.0</ele><time>2026-04-01T10:10:09.784Z</time></trkpt><trkpt lat="42.0839966" lon="12.0697623"><ele>260.0</ele><time>2026-04-01T10:10:10.787Z</time></trkpt><trkpt lat="42.0840478" lon="12.0696179"><ele>260.0</ele><time>2026-04-01T10:10:11.784Z</time></trkpt><trkpt lat="42.0840935" lon="12.0694527"><ele>260.0</ele><time>2026-04-01T10:10:12.791Z</time></trkpt><trkpt lat="42.0841352" lon="12.0692917"><ele>260.0</ele><time>2026-04-01T10:10:13.791Z</time></trkpt><trkpt lat="42.0841704" lon="12.0691372"><ele>260.0</ele><time>2026-04-01T10:10:14.797Z</time></trkpt><trkpt lat="42.0842064" lon="12.068997"><ele>260.0</ele><time>2026-04-01T10:10:15.788Z</time></trkpt><trkpt lat="42.0842467" lon="12.0688567"><ele>260.0</ele><time>2026-04-01T10:10:16.801Z</time></trkpt><trkpt lat="42.0842759" lon="12.0687073"><ele>260.0</ele><time>2026-04-01T10:10:17.783Z</time></trkpt><trkpt lat="42.0842954" lon="12.0685608"><ele>260.0</ele><time>2026-04-01T10:10:18.786Z</time></trkpt><trkpt lat="42.084314" lon="12.0684077"><ele>259.8</ele><time>2026-04-01T10:10:19.783Z</time></trkpt><trkpt lat="42.0843228" lon="12.0682644"><ele>259.6</ele><time>2026-04-01T10:10:20.783Z</time></trkpt><trkpt lat="42.0843355" lon="12.0681289"><ele>259.4</ele><time>2026-04-01T10:10:21.777Z</time></trkpt><trkpt lat="42.0843457" lon="12.0679983"><ele>259.2</ele><time>2026-04-01T10:10:22.781Z</time></trkpt><trkpt lat="42.0843618" lon="12.0678729"><ele>259.0</ele><time>2026-04-01T10:10:23.777Z</time></trkpt><trkpt lat="42.084374" lon="12.0677385"><ele>259.0</ele><time>2026-04-01T10:10:24.787Z</time></trkpt><trkpt lat="42.0843891" lon="12.0676162"><ele>259.0</ele><time>2026-04-01T10:10:25.778Z</time></trkpt><trkpt lat="42.0844103" lon="12.0674915"><ele>259.0</ele><time>2026-04-01T10:10:26.778Z</time></trkpt><trkpt lat="42.0844448" lon="12.0673813"><ele>259.0</ele><time>2026-04-01T10:10:27.773Z</time></trkpt><trkpt lat="42.0844911" lon="12.0672643"><ele>259.0</ele><time>2026-04-01T10:10:28.77Z</time></trkpt><trkpt lat="42.0845384" lon="12.0671513"><ele>259.0</ele><time>2026-04-01T10:10:29.773Z</time></trkpt><trkpt lat="42.0846013" lon="12.0670676"><ele>259.0</ele><time>2026-04-01T10:10:30.773Z</time></trkpt><trkpt lat="42.0846765" lon="12.0669876"><ele>259.0</ele><time>2026-04-01T10:10:31.771Z</time></trkpt><trkpt lat="42.0847535" lon="12.066899"><ele>259.0</ele><time>2026-04-01T10:10:32.766Z</time></trkpt><trkpt lat="42.0848328" lon="12.0668048"><ele>259.0</ele><time>2026-04-01T10:10:33.76Z</time></trkpt><trkpt lat="42.0849126" lon="12.0666949"><ele>258.2</ele><time>2026-04-01T10:10:34.772Z</time></trkpt><trkpt lat="42.0849907" lon="12.0665878"><ele>257.4</ele><time>2026-04-01T10:10:35.773Z</time></trkpt><trkpt lat="42.085068" lon="12.0664823"><ele>256.6</ele><time>2026-04-01T10:10:36.777Z</time></trkpt><trkpt lat="42.0851415" lon="12.0663666"><ele>255.8</ele><time>2026-04-01T10:10:37.775Z</time></trkpt><trkpt lat="42.0852196" lon="12.0662656"><ele>255.0</ele><time>2026-04-01T10:10:38.769Z</time></trkpt><trkpt lat="42.0852938" lon="12.0661743"><ele>255.0</ele><time>2026-04-01T10:10:39.77Z</time></trkpt><trkpt lat="42.0853515" lon="12.0660867"><ele>255.0</ele><time>2026-04-01T10:10:40.774Z</time></trkpt><trkpt lat="42.085422" lon="12.0659975"><ele>255.0</ele><time>2026-04-01T10:10:41.769Z</time></trkpt><trkpt lat="42.0854714" lon="12.0659321"><ele>255.0</ele><time>2026-04-01T10:10:42.779Z</time></trkpt><trkpt lat="42.0854984" lon="12.0658154"><ele>255.0</ele><time>2026-04-01T10:10:44.783Z</time></trkpt><trkpt lat="42.0854275" lon="12.0657291"><ele>255.0</ele><time>2026-04-01T10:10:46.779Z</time></trkpt><trkpt lat="42.0853668" lon="12.0656698"><ele>254.5</ele><time>2026-04-01T10:10:47.783Z</time></trkpt><trkpt lat="42.085299" lon="12.0656146"><ele>254.0</ele><time>2026-04-01T10:10:48.773Z</time></trkpt><trkpt lat="42.0852344" lon="12.0655631"><ele>253.5</ele><time>2026-04-01T10:10:49.771Z</time></trkpt><trkpt lat="42.0851756" lon="12.0655109"><ele>253.0</ele><time>2026-04-01T10:10:50.777Z</time></trkpt><trkpt lat="42.0851176" lon="12.065453"><ele>252.5</ele><time>2026-04-01T10:10:51.78Z</time></trkpt><trkpt lat="42.0850569" lon="12.0653925"><ele>252.0</ele><time>2026-04-01T10:10:52.776Z</time></trkpt><trkpt lat="42.0849886" lon="12.0653375"><ele>252.0</ele><time>2026-04-01T10:10:53.783Z</time></trkpt><trkpt lat="42.0849089" lon="12.065269"><ele>252.0</ele><time>2026-04-01T10:10:54.78Z</time></trkpt><trkpt lat="42.0848301" lon="12.0651986"><ele>252.0</ele><time>2026-04-01T10:10:55.782Z</time></trkpt><trkpt lat="42.0847672" lon="12.0651262"><ele>252.0</ele><time>2026-04-01T10:10:56.782Z</time></trkpt><trkpt lat="42.0847044" lon="12.0650495"><ele>252.0</ele><time>2026-04-01T10:10:57.778Z</time></trkpt><trkpt lat="42.0846442" lon="12.0649744"><ele>252.0</ele><time>2026-04-01T10:10:58.783Z</time></trkpt><trkpt lat="42.0845846" lon="12.0648984"><ele>252.0</ele><time>2026-04-01T10:10:59.782Z</time></trkpt><trkpt lat="42.0845254" lon="12.0648147"><ele>252.0</ele><time>2026-04-01T10:11:00.777Z</time></trkpt><trkpt lat="42.0844604" lon="12.0647182"><ele>252.0</ele><time>2026-04-01T10:11:01.774Z</time></trkpt><trkpt lat="42.0843793" lon="12.0646236"><ele>252.0</ele><time>2026-04-01T10:11:02.779Z</time></trkpt><trkpt lat="42.0842872" lon="12.0645209"><ele>252.0</ele><time>2026-04-01T10:11:03.772Z</time></trkpt><trkpt lat="42.0841981" lon="12.0644171"><ele>252.0</ele><time>2026-04-01T10:11:04.776Z</time></trkpt><trkpt lat="42.084111" lon="12.0643135"><ele>252.0</ele><time>2026-04-01T10:11:05.776Z</time></trkpt><trkpt lat="42.0840276" lon="12.0642241"><ele>252.0</ele><time>2026-04-01T10:11:06.78Z</time></trkpt><trkpt lat="42.0839402" lon="12.0641308"><ele>252.0</ele><time>2026-04-01T10:11:07.781Z</time></trkpt><trkpt lat="42.0838527" lon="12.0640287"><ele>251.39999999999998</ele><time>2026-04-01T10:11:08.78Z</time></trkpt><trkpt lat="42.0837727" lon="12.0639262"><ele>250.79999999999998</ele><time>2026-04-01T10:11:09.785Z</time></trkpt><trkpt lat="42.0836973" lon="12.063821"><ele>250.2</ele><time>2026-04-01T10:11:10.783Z</time></trkpt><trkpt lat="42.0836181" lon="12.0637239"><ele>249.6</ele><time>2026-04-01T10:11:11.785Z</time></trkpt><trkpt lat="42.0835304" lon="12.0636244"><ele>249.0</ele><time>2026-04-01T10:11:12.778Z</time></trkpt><trkpt lat="42.0834368" lon="12.0635313"><ele>249.0</ele><time>2026-04-01T10:11:13.777Z</time></trkpt><trkpt lat="42.0833422" lon="12.0634412"><ele>248.99999999999997</ele><time>2026-04-01T10:11:14.778Z</time></trkpt><trkpt lat="42.0832462" lon="12.0633864"><ele>248.99999999999997</ele><time>2026-04-01T10:11:15.776Z</time></trkpt><trkpt lat="42.0831444" lon="12.0633478"><ele>249.0</ele><time>2026-04-01T10:11:16.771Z</time></trkpt><trkpt lat="42.0830502" lon="12.0633064"><ele>249.0</ele><time>2026-04-01T10:11:17.774Z</time></trkpt><trkpt lat="42.0829533" lon="12.0632855"><ele>249.0</ele><time>2026-04-01T10:11:18.801Z</time></trkpt><trkpt lat="42.0828633" lon="12.0632711"><ele>249.0</ele><time>2026-04-01T10:11:19.782Z</time></trkpt><trkpt lat="42.0827846" lon="12.0632624"><ele>249.0</ele><time>2026-04-01T10:11:20.783Z</time></trkpt><trkpt lat="42.082719" lon="12.0632421"><ele>249.0</ele><time>2026-04-01T10:11:21.783Z</time></trkpt><trkpt lat="42.0826611" lon="12.0631928"><ele>249.0</ele><time>2026-04-01T10:11:22.783Z</time></trkpt><trkpt lat="42.0826052" lon="12.0631334"><ele>249.0</ele><time>2026-04-01T10:11:23.781Z</time></trkpt><trkpt lat="42.0825549" lon="12.0630323"><ele>249.0</ele><time>2026-04-01T10:11:24.782Z</time></trkpt><trkpt lat="42.0825032" lon="12.062896"><ele>249.0</ele><time>2026-04-01T10:11:25.776Z</time></trkpt><trkpt lat="42.0824702" lon="12.0627405"><ele>249.0</ele><time>2026-04-01T10:11:26.786Z</time></trkpt><trkpt lat="42.0824442" lon="12.0625444"><ele>249.0</ele><time>2026-04-01T10:11:27.781Z</time></trkpt><trkpt lat="42.0824059" lon="12.0623604"><ele>249.0</ele><time>2026-04-01T10:11:28.786Z</time></trkpt><trkpt lat="42.0823641" lon="12.0621906"><ele>249.0</ele><time>2026-04-01T10:11:29.766Z</time></trkpt><trkpt lat="42.0823151" lon="12.0620352"><ele>249.0</ele><time>2026-04-01T10:11:30.762Z</time></trkpt><trkpt lat="42.082266" lon="12.0619041"><ele>249.0</ele><time>2026-04-01T10:11:31.767Z</time></trkpt><trkpt lat="42.082214" lon="12.0617902"><ele>249.0</ele><time>2026-04-01T10:11:32.765Z</time></trkpt><trkpt lat="42.0821677" lon="12.0616862"><ele>249.0</ele><time>2026-04-01T10:11:33.755Z</time></trkpt><trkpt lat="42.0821186" lon="12.0615999"><ele>249.0</ele><time>2026-04-01T10:11:34.756Z</time></trkpt><trkpt lat="42.0820786" lon="12.0615186"><ele>249.0</ele><time>2026-04-01T10:11:35.758Z</time></trkpt><trkpt lat="42.0819749" lon="12.0614192"><ele>249.0</ele><time>2026-04-01T10:11:37.759Z</time></trkpt><trkpt lat="42.0819074" lon="12.0614069"><ele>249.0</ele><time>2026-04-01T10:11:38.754Z</time></trkpt><trkpt lat="42.081832" lon="12.0613949"><ele>248.6</ele><time>2026-04-01T10:11:39.764Z</time></trkpt><trkpt lat="42.0817462" lon="12.0613746"><ele>248.2</ele><time>2026-04-01T10:11:40.76Z</time></trkpt><trkpt lat="42.0816595" lon="12.0613534"><ele>247.79999999999998</ele><time>2026-04-01T10:11:41.76Z</time></trkpt><trkpt lat="42.0815671" lon="12.0613201"><ele>247.39999999999998</ele><time>2026-04-01T10:11:42.758Z</time></trkpt><trkpt lat="42.0814841" lon="12.0612678"><ele>247.0</ele><time>2026-04-01T10:11:43.759Z</time></trkpt><trkpt lat="42.0814031" lon="12.0612063"><ele>246.99999999999997</ele><time>2026-04-01T10:11:44.756Z</time></trkpt><trkpt lat="42.0813417" lon="12.0611291"><ele>247.0</ele><time>2026-04-01T10:11:45.756Z</time></trkpt><trkpt lat="42.0813117" lon="12.0610285"><ele>247.0</ele><time>2026-04-01T10:11:46.757Z</time></trkpt><trkpt lat="42.081295" lon="12.0609217"><ele>247.0</ele><time>2026-04-01T10:11:47.752Z</time></trkpt><trkpt lat="42.0812981" lon="12.0608175"><ele>246.99999999999997</ele><time>2026-04-01T10:11:48.761Z</time></trkpt><trkpt lat="42.0813338" lon="12.0607025"><ele>247.0</ele><time>2026-04-01T10:11:49.765Z</time></trkpt><trkpt lat="42.081389" lon="12.0605937"><ele>246.71428571428572</ele><time>2026-04-01T10:11:50.755Z</time></trkpt><trkpt lat="42.0814245" lon="12.0604988"><ele>246.42857142857142</ele><time>2026-04-01T10:11:51.764Z</time></trkpt><trkpt lat="42.0814504" lon="12.0604139"><ele>246.14285714285714</ele><time>2026-04-01T10:11:52.763Z</time></trkpt><trkpt lat="42.0814844" lon="12.0603328"><ele>245.85714285714286</ele><time>2026-04-01T10:11:53.768Z</time></trkpt><trkpt lat="42.0815194" lon="12.0602417"><ele>245.57142857142856</ele><time>2026-04-01T10:11:55.764Z</time></trkpt><trkpt lat="42.0815822" lon="12.0602254"><ele>245.28571428571428</ele><time>2026-04-01T10:12:42.778Z</time></trkpt><trkpt lat="42.0816133" lon="12.0601393"><ele>245.0</ele><time>2026-04-01T10:12:46.764Z</time></trkpt><trkpt lat="42.0816663" lon="12.0600424"><ele>244.16666666666669</ele><time>2026-04-01T10:13:33.761Z</time></trkpt><trkpt lat="42.0817216" lon="12.0599811"><ele>243.33333333333334</ele><time>2026-04-01T10:13:34.765Z</time></trkpt><trkpt lat="42.0817959" lon="12.0599299"><ele>242.5</ele><time>2026-04-01T10:13:35.765Z</time></trkpt><trkpt lat="42.0818636" lon="12.0598888"><ele>241.66666666666669</ele><time>2026-04-01T10:13:36.764Z</time></trkpt><trkpt lat="42.081928" lon="12.0598554"><ele>240.83333333333334</ele><time>2026-04-01T10:13:37.762Z</time></trkpt><trkpt lat="42.0820125" lon="12.0598149"><ele>240.0</ele><time>2026-04-01T10:13:38.763Z</time></trkpt><trkpt lat="42.0821041" lon="12.0597301"><ele>240.0</ele><time>2026-04-01T10:13:39.765Z</time></trkpt><trkpt lat="42.0821975" lon="12.0596255"><ele>240.0</ele><time>2026-04-01T10:13:40.78Z</time></trkpt><trkpt lat="42.0822965" lon="12.0595149"><ele>240.0</ele><time>2026-04-01T10:13:41.782Z</time></trkpt><trkpt lat="42.0823882" lon="12.0594012"><ele>240.0</ele><time>2026-04-01T10:13:42.779Z</time></trkpt><trkpt lat="42.0824839" lon="12.0592717"><ele>239.25</ele><time>2026-04-01T10:13:43.774Z</time></trkpt><trkpt lat="42.082567" lon="12.0591441"><ele>238.5</ele><time>2026-04-01T10:13:44.783Z</time></trkpt><trkpt lat="42.0826294" lon="12.0590186"><ele>237.75</ele><time>2026-04-01T10:13:45.77Z</time></trkpt><trkpt lat="42.0826951" lon="12.058891"><ele>237.0</ele><time>2026-04-01T10:13:46.77Z</time></trkpt><trkpt lat="42.0827572" lon="12.0587887"><ele>239.0</ele><time>2026-04-01T10:13:47.779Z</time></trkpt><trkpt lat="42.0828232" lon="12.0587241"><ele>241.0</ele><time>2026-04-01T10:13:48.785Z</time></trkpt><trkpt lat="42.0829082" lon="12.0587118"><ele>243.0</ele><time>2026-04-01T10:13:49.778Z</time></trkpt><trkpt lat="42.0830145" lon="12.0587117"><ele>245.0</ele><time>2026-04-01T10:13:50.775Z</time></trkpt><trkpt lat="42.0831297" lon="12.0587104"><ele>247.0</ele><time>2026-04-01T10:13:51.773Z</time></trkpt><trkpt lat="42.0832401" lon="12.058694"><ele>247.25</ele><time>2026-04-01T10:13:52.785Z</time></trkpt><trkpt lat="42.0833635" lon="12.0586785"><ele>247.5</ele><time>2026-04-01T10:13:53.793Z</time></trkpt><trkpt lat="42.0834867" lon="12.058667"><ele>247.75</ele><time>2026-04-01T10:13:54.785Z</time></trkpt><trkpt lat="42.0836148" lon="12.0586415"><ele>248.0</ele><time>2026-04-01T10:13:55.781Z</time></trkpt><trkpt lat="42.0837355" lon="12.0586113"><ele>248.0</ele><time>2026-04-01T10:13:56.781Z</time></trkpt><trkpt lat="42.0838481" lon="12.0585852"><ele>248.0</ele><time>2026-04-01T10:13:57.772Z</time></trkpt><trkpt lat="42.0839516" lon="12.0585384"><ele>248.0</ele><time>2026-04-01T10:13:58.783Z</time></trkpt><trkpt lat="42.0840512" lon="12.0584708"><ele>248.0</ele><time>2026-04-01T10:13:59.778Z</time></trkpt><trkpt lat="42.0841562" lon="12.0584023"><ele>248.0</ele><time>2026-04-01T10:14:00.778Z</time></trkpt><trkpt lat="42.0842622" lon="12.0583484"><ele>248.0</ele><time>2026-04-01T10:14:01.775Z</time></trkpt><trkpt lat="42.0843607" lon="12.0582862"><ele>248.0</ele><time>2026-04-01T10:14:02.781Z</time></trkpt><trkpt lat="42.0844348" lon="12.0581969"><ele>248.0</ele><time>2026-04-01T10:14:03.774Z</time></trkpt><trkpt lat="42.0845087" lon="12.0580977"><ele>248.0</ele><time>2026-04-01T10:14:04.777Z</time></trkpt><trkpt lat="42.0845731" lon="12.0579763"><ele>250.5</ele><time>2026-04-01T10:14:05.782Z</time></trkpt><trkpt lat="42.0846373" lon="12.0578346"><ele>253.0</ele><time>2026-04-01T10:14:06.774Z</time></trkpt><trkpt lat="42.084702" lon="12.0576827"><ele>255.5</ele><time>2026-04-01T10:14:07.779Z</time></trkpt><trkpt lat="42.0847848" lon="12.057518"><ele>258.0</ele><time>2026-04-01T10:14:08.778Z</time></trkpt><trkpt lat="42.0848692" lon="12.0573616"><ele>255.0</ele><time>2026-04-01T10:14:09.779Z</time></trkpt><trkpt lat="42.0849529" lon="12.0572152"><ele>252.0</ele><time>2026-04-01T10:14:10.784Z</time></trkpt><trkpt lat="42.0850314" lon="12.0570852"><ele>249.0</ele><time>2026-04-01T10:14:11.772Z</time></trkpt><trkpt lat="42.0850883" lon="12.0569544"><ele>246.0</ele><time>2026-04-01T10:14:12.775Z</time></trkpt><trkpt lat="42.085111" lon="12.0568102"><ele>246.0</ele><time>2026-04-01T10:14:13.768Z</time></trkpt><trkpt lat="42.0851252" lon="12.0566677"><ele>246.0</ele><time>2026-04-01T10:14:14.768Z</time></trkpt><trkpt lat="42.0851145" lon="12.0564991"><ele>246.0</ele><time>2026-04-01T10:14:15.775Z</time></trkpt><trkpt lat="42.0850651" lon="12.0563084"><ele>246.0</ele><time>2026-04-01T10:14:16.771Z</time></trkpt><trkpt lat="42.0850318" lon="12.0561445"><ele>246.4</ele><time>2026-04-01T10:14:17.766Z</time></trkpt><trkpt lat="42.0850168" lon="12.0560095"><ele>246.8</ele><time>2026-04-01T10:14:18.763Z</time></trkpt><trkpt lat="42.0850114" lon="12.0558866"><ele>247.20000000000002</ele><time>2026-04-01T10:14:19.758Z</time></trkpt><trkpt lat="42.0850188" lon="12.055769"><ele>247.60000000000002</ele><time>2026-04-01T10:14:20.772Z</time></trkpt><trkpt lat="42.08505" lon="12.0556393"><ele>248.0</ele><time>2026-04-01T10:14:21.766Z</time></trkpt><trkpt lat="42.0850904" lon="12.0555206"><ele>250.0</ele><time>2026-04-01T10:14:22.776Z</time></trkpt><trkpt lat="42.0851726" lon="12.0553975"><ele>252.0</ele><time>2026-04-01T10:14:23.764Z</time></trkpt><trkpt lat="42.0852643" lon="12.0552764"><ele>254.0</ele><time>2026-04-01T10:14:24.79Z</time></trkpt><trkpt lat="42.085348" lon="12.0551315"><ele>256.0</ele><time>2026-04-01T10:14:25.768Z</time></trkpt><trkpt lat="42.0854386" lon="12.0549736"><ele>258.0</ele><time>2026-04-01T10:14:26.772Z</time></trkpt><trkpt lat="42.0855009" lon="12.054793"><ele>260.0</ele><time>2026-04-01T10:14:27.771Z</time></trkpt><trkpt lat="42.0855592" lon="12.0546375"><ele>262.0</ele><time>2026-04-01T10:14:28.774Z</time></trkpt><trkpt lat="42.0856199" lon="12.0544667"><ele>264.0</ele><time>2026-04-01T10:14:29.774Z</time></trkpt><trkpt lat="42.0856684" lon="12.0543226"><ele>264.0</ele><time>2026-04-01T10:14:30.779Z</time></trkpt><trkpt lat="42.0857254" lon="12.0541873"><ele>264.0</ele><time>2026-04-01T10:14:31.782Z</time></trkpt><trkpt lat="42.0857725" lon="12.0540788"><ele>264.0</ele><time>2026-04-01T10:14:32.776Z</time></trkpt><trkpt lat="42.0858274" lon="12.053962"><ele>264.0</ele><time>2026-04-01T10:14:33.785Z</time></trkpt><trkpt lat="42.085895" lon="12.0538522"><ele>264.0</ele><time>2026-04-01T10:14:34.779Z</time></trkpt><trkpt lat="42.085977" lon="12.0537334"><ele>262.0</ele><time>2026-04-01T10:14:35.779Z</time></trkpt><trkpt lat="42.0860577" lon="12.053609"><ele>260.0</ele><time>2026-04-01T10:14:36.784Z</time></trkpt><trkpt lat="42.0861352" lon="12.0534741"><ele>258.0</ele><time>2026-04-01T10:14:37.781Z</time></trkpt><trkpt lat="42.0862073" lon="12.0533505"><ele>256.0</ele><time>2026-04-01T10:14:38.786Z</time></trkpt><trkpt lat="42.0862691" lon="12.0532368"><ele>255.99999999999997</ele><time>2026-04-01T10:14:39.769Z</time></trkpt><trkpt lat="42.0863266" lon="12.0531196"><ele>256.0</ele><time>2026-04-01T10:14:40.779Z</time></trkpt><trkpt lat="42.0863788" lon="12.0530058"><ele>256.0</ele><time>2026-04-01T10:14:41.776Z</time></trkpt><trkpt lat="42.0864286" lon="12.0529088"><ele>256.0</ele><time>2026-04-01T10:14:42.787Z</time></trkpt><trkpt lat="42.0864737" lon="12.0528227"><ele>255.99999999999997</ele><time>2026-04-01T10:14:43.774Z</time></trkpt><trkpt lat="42.0865192" lon="12.0527445"><ele>256.0</ele><time>2026-04-01T10:14:44.783Z</time></trkpt><trkpt lat="42.0866042" lon="12.0526116"><ele>252.60000000000002</ele><time>2026-04-01T10:14:46.781Z</time></trkpt><trkpt lat="42.0866851" lon="12.0525015"><ele>249.20000000000002</ele><time>2026-04-01T10:14:48.781Z</time></trkpt><trkpt lat="42.0867675" lon="12.0524409"><ele>245.79999999999998</ele><time>2026-04-01T10:14:50.778Z</time></trkpt><trkpt lat="42.0868723" lon="12.0524192"><ele>242.39999999999998</ele><time>2026-04-01T10:14:52.785Z</time></trkpt><trkpt lat="42.0869417" lon="12.052404"><ele>239.0</ele><time>2026-04-01T10:14:53.784Z</time></trkpt><trkpt lat="42.0870254" lon="12.0523981"><ele>237.83333333333334</ele><time>2026-04-01T10:14:54.801Z</time></trkpt><trkpt lat="42.0871136" lon="12.0523813"><ele>236.66666666666669</ele><time>2026-04-01T10:14:55.788Z</time></trkpt><trkpt lat="42.087182" lon="12.0523486"><ele>235.5</ele><time>2026-04-01T10:14:56.787Z</time></trkpt><trkpt lat="42.0873026" lon="12.0522971"><ele>234.33333333333331</ele><time>2026-04-01T10:14:58.789Z</time></trkpt><trkpt lat="42.087372" lon="12.0522802"><ele>233.16666666666666</ele><time>2026-04-01T10:14:59.779Z</time></trkpt><trkpt lat="42.0874503" lon="12.0522405"><ele>232.0</ele><time>2026-04-01T10:15:00.776Z</time></trkpt><trkpt lat="42.0875448" lon="12.0522015"><ele>229.6</ele><time>2026-04-01T10:15:01.777Z</time></trkpt><trkpt lat="42.0876479" lon="12.0521578"><ele>227.2</ele><time>2026-04-01T10:15:02.78Z</time></trkpt><trkpt lat="42.0877485" lon="12.0521223"><ele>224.8</ele><time>2026-04-01T10:15:03.78Z</time></trkpt><trkpt lat="42.087854" lon="12.0520918"><ele>222.4</ele><time>2026-04-01T10:15:04.779Z</time></trkpt><trkpt lat="42.0879551" lon="12.0520695"><ele>220.0</ele><time>2026-04-01T10:15:05.786Z</time></trkpt><trkpt lat="42.0880516" lon="12.0520419"><ele>219.99999999999997</ele><time>2026-04-01T10:15:06.784Z</time></trkpt><trkpt lat="42.0881474" lon="12.0520107"><ele>220.0</ele><time>2026-04-01T10:15:07.782Z</time></trkpt><trkpt lat="42.0882447" lon="12.0519783"><ele>220.0</ele><time>2026-04-01T10:15:08.788Z</time></trkpt><trkpt lat="42.0883323" lon="12.0519597"><ele>220.0</ele><time>2026-04-01T10:15:09.781Z</time></trkpt><trkpt lat="42.0884126" lon="12.051943"><ele>219.99999999999997</ele><time>2026-04-01T10:15:10.778Z</time></trkpt><trkpt lat="42.088492" lon="12.0519418"><ele>220.0</ele><time>2026-04-01T10:15:11.78Z</time></trkpt><trkpt lat="42.0885702" lon="12.0519468"><ele>218.83333333333331</ele><time>2026-04-01T10:15:12.776Z</time></trkpt><trkpt lat="42.0886429" lon="12.0519493"><ele>217.66666666666666</ele><time>2026-04-01T10:15:13.772Z</time></trkpt><trkpt lat="42.0887112" lon="12.0519427"><ele>216.5</ele><time>2026-04-01T10:15:14.764Z</time></trkpt><trkpt lat="42.0887764" lon="12.0519283"><ele>215.33333333333331</ele><time>2026-04-01T10:15:15.767Z</time></trkpt><trkpt lat="42.0888456" lon="12.0518966"><ele>214.16666666666666</ele><time>2026-04-01T10:15:16.77Z</time></trkpt><trkpt lat="42.0889098" lon="12.0518673"><ele>213.0</ele><time>2026-04-01T10:15:17.77Z</time></trkpt><trkpt lat="42.0890096" lon="12.0518053"><ele>213.0</ele><time>2026-04-01T10:15:19.774Z</time></trkpt><trkpt lat="42.0890718" lon="12.0517839"><ele>213.0</ele><time>2026-04-01T10:15:21.777Z</time></trkpt><trkpt lat="42.0891517" lon="12.0517434"><ele>213.0</ele><time>2026-04-01T10:15:23.771Z</time></trkpt><trkpt lat="42.0890783" lon="12.051733"><ele>213.0</ele><time>2026-04-01T10:15:30.772Z</time></trkpt><trkpt lat="42.0891598" lon="12.0517794"><ele>213.0</ele><time>2026-04-01T10:16:06.766Z</time></trkpt><trkpt lat="42.0892215" lon="12.0518083"><ele>213.0</ele><time>2026-04-01T10:16:07.765Z</time></trkpt><trkpt lat="42.0893044" lon="12.0518348"><ele>212.2</ele><time>2026-04-01T10:16:08.763Z</time></trkpt><trkpt lat="42.0893954" lon="12.0518763"><ele>211.4</ele><time>2026-04-01T10:16:09.765Z</time></trkpt><trkpt lat="42.0894927" lon="12.0519226"><ele>210.6</ele><time>2026-04-01T10:16:10.769Z</time></trkpt><trkpt lat="42.0895821" lon="12.0519989"><ele>209.79999999999998</ele><time>2026-04-01T10:16:11.768Z</time></trkpt><trkpt lat="42.0896767" lon="12.0520648"><ele>209.0</ele><time>2026-04-01T10:16:12.767Z</time></trkpt><trkpt lat="42.0897783" lon="12.052134"><ele>209.00000000000003</ele><time>2026-04-01T10:16:13.769Z</time></trkpt><trkpt lat="42.0898708" lon="12.0522012"><ele>209.0</ele><time>2026-04-01T10:16:14.77Z</time></trkpt><trkpt lat="42.0899504" lon="12.0522679"><ele>209.0</ele><time>2026-04-01T10:16:15.776Z</time></trkpt><trkpt lat="42.0900131" lon="12.0523218"><ele>209.0</ele><time>2026-04-01T10:16:16.772Z</time></trkpt><trkpt lat="42.090068" lon="12.05237"><ele>209.00000000000003</ele><time>2026-04-01T10:16:17.764Z</time></trkpt><trkpt lat="42.0901258" lon="12.0524175"><ele>209.0</ele><time>2026-04-01T10:16:18.765Z</time></trkpt><trkpt lat="42.0902206" lon="12.0525122"><ele>209.00000000000003</ele><time>2026-04-01T10:16:20.764Z</time></trkpt><trkpt lat="42.0902848" lon="12.0525683"><ele>209.0</ele><time>2026-04-01T10:16:21.771Z</time></trkpt><trkpt lat="42.0903476" lon="12.0526252"><ele>209.0</ele><time>2026-04-01T10:16:22.777Z</time></trkpt><trkpt lat="42.0904211" lon="12.0526625"><ele>209.0</ele><time>2026-04-01T10:16:23.771Z</time></trkpt><trkpt lat="42.090501" lon="12.0527081"><ele>209.00000000000003</ele><time>2026-04-01T10:16:24.772Z</time></trkpt><trkpt lat="42.0905829" lon="12.0527602"><ele>209.0</ele><time>2026-04-01T10:16:25.769Z</time></trkpt><trkpt lat="42.0906601" lon="12.0527922"><ele>209.0</ele><time>2026-04-01T10:16:26.779Z</time></trkpt><trkpt lat="42.0907291" lon="12.0528289"><ele>209.0</ele><time>2026-04-01T10:16:27.769Z</time></trkpt><trkpt lat="42.0907964" lon="12.0528541"><ele>209.0</ele><time>2026-04-01T10:16:28.77Z</time></trkpt><trkpt lat="42.0908715" lon="12.0528754"><ele>209.0</ele><time>2026-04-01T10:16:29.771Z</time></trkpt><trkpt lat="42.0909803" lon="12.0528557"><ele>209.0</ele><time>2026-04-01T10:16:30.77Z</time></trkpt><trkpt lat="42.0911056" lon="12.0528559"><ele>206.5</ele><time>2026-04-01T10:16:31.766Z</time></trkpt><trkpt lat="42.0912338" lon="12.0528469"><ele>204.0</ele><time>2026-04-01T10:16:32.767Z</time></trkpt><trkpt lat="42.0913628" lon="12.0528345"><ele>201.5</ele><time>2026-04-01T10:16:33.774Z</time></trkpt><trkpt lat="42.0914681" lon="12.0528291"><ele>199.0</ele><time>2026-04-01T10:16:34.767Z</time></trkpt><trkpt lat="42.091577" lon="12.0528424"><ele>198.33333333333331</ele><time>2026-04-01T10:16:35.77Z</time></trkpt><trkpt lat="42.0916737" lon="12.0528565"><ele>197.66666666666666</ele><time>2026-04-01T10:16:36.772Z</time></trkpt><trkpt lat="42.091762" lon="12.0528863"><ele>197.0</ele><time>2026-04-01T10:16:37.775Z</time></trkpt><trkpt lat="42.0918451" lon="12.0529301"><ele>196.33333333333331</ele><time>2026-04-01T10:16:38.768Z</time></trkpt><trkpt lat="42.0919179" lon="12.0529789"><ele>195.66666666666666</ele><time>2026-04-01T10:16:39.783Z</time></trkpt><trkpt lat="42.091987" lon="12.0530286"><ele>195.0</ele><time>2026-04-01T10:16:40.777Z</time></trkpt><trkpt lat="42.0920531" lon="12.0530801"><ele>195.0</ele><time>2026-04-01T10:16:41.782Z</time></trkpt><trkpt lat="42.0921174" lon="12.0531296"><ele>195.0</ele><time>2026-04-01T10:16:42.775Z</time></trkpt><trkpt lat="42.092193" lon="12.0531833"><ele>195.0</ele><time>2026-04-01T10:16:43.777Z</time></trkpt><trkpt lat="42.0922787" lon="12.0532417"><ele>195.0</ele><time>2026-04-01T10:16:44.781Z</time></trkpt><trkpt lat="42.0923621" lon="12.0533237"><ele>195.0</ele><time>2026-04-01T10:16:45.776Z</time></trkpt><trkpt lat="42.0924341" lon="12.0533966"><ele>195.0</ele><time>2026-04-01T10:16:46.777Z</time></trkpt><trkpt lat="42.0925051" lon="12.0534725"><ele>195.5</ele><time>2026-04-01T10:16:47.774Z</time></trkpt><trkpt lat="42.0925608" lon="12.0535267"><ele>196.0</ele><time>2026-04-01T10:16:48.766Z</time></trkpt><trkpt lat="42.0926122" lon="12.0535787"><ele>196.5</ele><time>2026-04-01T10:16:49.766Z</time></trkpt><trkpt lat="42.092664" lon="12.0536408"><ele>197.0</ele><time>2026-04-01T10:16:50.767Z</time></trkpt><trkpt lat="42.0927154" lon="12.0536935"><ele>197.5</ele><time>2026-04-01T10:16:51.771Z</time></trkpt><trkpt lat="42.0927587" lon="12.053756"><ele>198.0</ele><time>2026-04-01T10:16:52.766Z</time></trkpt><trkpt lat="42.0928611" lon="12.0538445"><ele>198.0</ele><time>2026-04-01T10:16:54.771Z</time></trkpt><trkpt lat="42.0929253" lon="12.0538977"><ele>198.0</ele><time>2026-04-01T10:16:55.77Z</time></trkpt><trkpt lat="42.0930083" lon="12.0539465"><ele>198.0</ele><time>2026-04-01T10:16:56.769Z</time></trkpt><trkpt lat="42.0930766" lon="12.0539908"><ele>198.0</ele><time>2026-04-01T10:16:57.787Z</time></trkpt><trkpt lat="42.0931364" lon="12.0540435"><ele>198.0</ele><time>2026-04-01T10:16:58.764Z</time></trkpt><trkpt lat="42.0931897" lon="12.0541019"><ele>198.0</ele><time>2026-04-01T10:16:59.765Z</time></trkpt><trkpt lat="42.0932328" lon="12.0541651"><ele>198.0</ele><time>2026-04-01T10:17:00.763Z</time></trkpt><trkpt lat="42.0933071" lon="12.0542297"><ele>198.0</ele><time>2026-04-01T10:17:02.771Z</time></trkpt><trkpt lat="42.09337" lon="12.0542461"><ele>198.0</ele><time>2026-04-01T10:17:04.764Z</time></trkpt><trkpt lat="42.0934562" lon="12.0543305"><ele>198.0</ele><time>2026-04-01T10:17:06.763Z</time></trkpt><trkpt lat="42.0935165" lon="12.0544428"><ele>198.0</ele><time>2026-04-01T10:17:08.765Z</time></trkpt><trkpt lat="42.0935935" lon="12.0545286"><ele>198.0</ele><time>2026-04-01T10:17:10.766Z</time></trkpt><trkpt lat="42.093704" lon="12.0545966"><ele>198.0</ele><time>2026-04-01T10:17:12.769Z</time></trkpt><trkpt lat="42.0938318" lon="12.0546491"><ele>198.0</ele><time>2026-04-01T10:17:14.776Z</time></trkpt><trkpt lat="42.0938897" lon="12.0546831"><ele>198.0</ele><time>2026-04-01T10:17:15.773Z</time></trkpt><trkpt lat="42.0939783" lon="12.0547523"><ele>198.0</ele><time>2026-04-01T10:17:17.772Z</time></trkpt><trkpt lat="42.0940099" lon="12.054847"><ele>198.0</ele><time>2026-04-01T10:17:19.771Z</time></trkpt><trkpt lat="42.09403" lon="12.0549709"><ele>195.2</ele><time>2026-04-01T10:17:21.777Z</time></trkpt><trkpt lat="42.0940651" lon="12.0551086"><ele>192.4</ele><time>2026-04-01T10:17:23.777Z</time></trkpt><trkpt lat="42.094135" lon="12.0552582"><ele>189.6</ele><time>2026-04-01T10:17:25.775Z</time></trkpt><trkpt lat="42.0941706" lon="12.0553435"><ele>186.79999999999998</ele><time>2026-04-01T10:17:26.777Z</time></trkpt><trkpt lat="42.0942084" lon="12.0554774"><ele>184.0</ele><time>2026-04-01T10:17:28.79Z</time></trkpt><trkpt lat="42.0942564" lon="12.0555367"><ele>184.0</ele><time>2026-04-01T10:17:30.791Z</time></trkpt><trkpt lat="42.0942893" lon="12.0554607"><ele>184.0</ele><time>2026-04-01T10:17:55.785Z</time></trkpt><trkpt lat="42.0943438" lon="12.0553984"><ele>184.0</ele><time>2026-04-01T10:17:57.788Z</time></trkpt><trkpt lat="42.0944074" lon="12.0553103"><ele>184.0</ele><time>2026-04-01T10:18:01.793Z</time></trkpt><trkpt lat="42.0944668" lon="12.0552292"><ele>184.0</ele><time>2026-04-01T10:18:03.786Z</time></trkpt><trkpt lat="42.0945516" lon="12.0551371"><ele>184.0</ele><time>2026-04-01T10:18:05.791Z</time></trkpt><trkpt lat="42.0946042" lon="12.0550281"><ele>184.0</ele><time>2026-04-01T10:18:07.791Z</time></trkpt><trkpt lat="42.0945527" lon="12.0549725"><ele>184.0</ele><time>2026-04-01T10:18:11.784Z</time></trkpt><trkpt lat="42.0944712" lon="12.0550507"><ele>184.0</ele><time>2026-04-01T10:18:13.785Z</time></trkpt><trkpt lat="42.0943973" lon="12.0550429"><ele>184.0</ele><time>2026-04-01T10:18:24.764Z</time></trkpt><trkpt lat="42.0943687" lon="12.05516"><ele>184.0</ele><time>2026-04-01T10:18:28.763Z</time></trkpt><trkpt lat="42.0943917" lon="12.0550781"><ele>184.0</ele><time>2026-04-01T10:19:10.779Z</time></trkpt><trkpt lat="42.0944541" lon="12.0550111"><ele>184.0</ele><time>2026-04-01T10:21:04.781Z</time></trkpt><trkpt lat="42.0945364" lon="12.055008"><ele>184.0</ele><time>2026-04-01T10:21:08.763Z</time></trkpt><trkpt lat="42.0949698" lon="12.0544829"><ele>206.0</ele><time>2026-04-01T10:26:23.789Z</time></trkpt><trkpt lat="42.0965486" lon="12.0527437"><ele>205.0</ele><time>2026-04-01T10:26:58.776Z</time></trkpt><trkpt lat="42.0978226" lon="12.0521215"><ele>197.0</ele><time>2026-04-01T10:33:09.797Z</time></trkpt><trkpt lat="42.0988609" lon="12.0509533"><ele>178.0</ele><time>2026-04-01T10:33:59.807Z</time></trkpt><trkpt lat="42.0984753" lon="12.0492064"><ele>183.0</ele><time>2026-04-01T10:36:04.807Z</time></trkpt><trkpt lat="42.0971643" lon="12.0487472"><ele>181.0</ele><time>2026-04-01T10:56:21.763Z</time></trkpt><trkpt lat="42.0969941" lon="12.0469381"><ele>183.0</ele><time>2026-04-01T11:01:12.779Z</time></trkpt><trkpt lat="42.0973867" lon="12.0461436"><ele>194.0</ele><time>2026-04-01T11:01:26.78Z</time></trkpt><trkpt lat="42.0976647" lon="12.0443581"><ele>220.0</ele><time>2026-04-01T11:02:46.782Z</time></trkpt><trkpt lat="42.098541" lon="12.0428885"><ele>257.0</ele><time>2026-04-01T11:03:03.788Z</time></trkpt><trkpt lat="42.1003491" lon="12.0416191"><ele>279.0</ele><time>2026-04-01T11:03:26.805Z</time></trkpt><trkpt lat="42.0994083" lon="12.0392089"><ele>323.0</ele><time>2026-04-01T11:04:36.784Z</time></trkpt><trkpt lat="42.0992097" lon="12.0364091"><ele>361.0</ele><time>2026-04-01T11:04:59.768Z</time></trkpt><trkpt lat="42.0989132" lon="12.0336419"><ele>352.0</ele><time>2026-04-01T11:05:40.785Z</time></trkpt><trkpt lat="42.099984" lon="12.0312697"><ele>333.0</ele><time>2026-04-01T11:06:05.783Z</time></trkpt><trkpt lat="42.0998636" lon="12.0285024"><ele>321.0</ele><time>2026-04-01T11:08:35.769Z</time></trkpt><trkpt lat="42.0998272" lon="12.0257085"><ele>340.0</ele><time>2026-04-01T11:08:54.787Z</time></trkpt><trkpt lat="42.0997142" lon="12.02298"><ele>349.0</ele><time>2026-04-01T11:09:10.774Z</time></trkpt><trkpt lat="42.0989738" lon="12.0194762"><ele>367.0</ele><time>2026-04-01T11:09:35.775Z</time></trkpt><trkpt lat="42.0992269" lon="12.016711"><ele>366.0</ele><time>2026-04-01T11:10:11.776Z</time></trkpt><trkpt lat="42.0994717" lon="12.0139429"><ele>375.0</ele><time>2026-04-01T11:10:31.789Z</time></trkpt><trkpt lat="42.0995964" lon="12.0111233"><ele>390.0</ele><time>2026-04-01T11:10:51.771Z</time></trkpt><trkpt lat="42.0981853" lon="12.0090866"><ele>386.0</ele><time>2026-04-01T11:11:08.776Z</time></trkpt><trkpt lat="42.0972364" lon="12.0065117"><ele>397.0</ele><time>2026-04-01T11:11:29.775Z</time></trkpt><trkpt lat="42.0953036" lon="12.003966"><ele>386.0</ele><time>2026-04-01T11:12:25.79Z</time></trkpt><trkpt lat="42.0951942" lon="12.0003134"><ele>371.0</ele><time>2026-04-01T11:12:55.793Z</time></trkpt><trkpt lat="42.0971871" lon="11.999546"><ele>355.0</ele><time>2026-04-01T11:21:27.762Z</time></trkpt><trkpt lat="42.0995803" lon="11.9978259"><ele>341.0</ele><time>2026-04-01T11:21:46.753Z</time></trkpt><trkpt lat="42.1023714" lon="11.9979896"><ele>341.0</ele><time>2026-04-01T11:22:09.773Z</time></trkpt><trkpt lat="42.1050877" lon="11.9973806"><ele>320.0</ele><time>2026-04-01T11:22:32.776Z</time></trkpt><trkpt lat="42.1076619" lon="11.9959296"><ele>328.0</ele><time>2026-04-01T11:22:51.777Z</time></trkpt><trkpt lat="42.1095408" lon="11.9932551"><ele>348.0</ele><time>2026-04-01T11:23:16.78Z</time></trkpt><trkpt lat="42.1115712" lon="11.9926384"><ele>349.0</ele><time>2026-04-01T11:23:31.778Z</time></trkpt><trkpt lat="42.1138473" lon="11.9905027"><ele>346.0</ele><time>2026-04-01T11:24:01.777Z</time></trkpt><trkpt lat="42.1165167" lon="11.9898191"><ele>363.0</ele><time>2026-04-01T11:24:22.784Z</time></trkpt><trkpt lat="42.1192699" lon="11.9898933"><ele>353.0</ele><time>2026-04-01T11:24:45.765Z</time></trkpt><trkpt lat="42.1211724" lon="11.9886072"><ele>315.0</ele><time>2026-04-01T11:25:01.77Z</time></trkpt><trkpt lat="42.1238358" lon="11.9879935"><ele>291.0</ele><time>2026-04-01T11:25:47.789Z</time></trkpt><trkpt lat="42.1242078" lon="11.9852255"><ele>263.0</ele><time>2026-04-01T11:26:11.794Z</time></trkpt><trkpt lat="42.1259512" lon="11.9838392"><ele>237.0</ele><time>2026-04-01T11:26:46.765Z</time></trkpt><trkpt lat="42.1260143" lon="11.9820161"><ele>200.0</ele><time>2026-04-01T11:27:05.783Z</time></trkpt><trkpt lat="42.1273089" lon="11.9799068"><ele>181.0</ele><time>2026-04-01T11:27:52.772Z</time></trkpt><trkpt lat="42.1288005" lon="11.9779694"><ele>178.0</ele><time>2026-04-01T11:28:25.773Z</time></trkpt><trkpt lat="42.1298775" lon="11.9767618"><ele>162.0</ele><time>2026-04-01T11:28:43.773Z</time></trkpt><trkpt lat="42.1315842" lon="11.9752307"><ele>152.0</ele><time>2026-04-01T11:29:15.776Z</time></trkpt><trkpt lat="42.1326138" lon="11.9728793"><ele>150.0</ele><time>2026-04-01T11:29:45.786Z</time></trkpt><trkpt lat="42.1338231" lon="11.9705132"><ele>172.0</ele><time>2026-04-01T11:30:15.775Z</time></trkpt><trkpt lat="42.1356535" lon="11.9692481"><ele>217.0</ele><time>2026-04-01T11:30:43.786Z</time></trkpt><trkpt lat="42.1368517" lon="11.9670323"><ele>210.0</ele><time>2026-04-01T11:31:05.8Z</time></trkpt><trkpt lat="42.1388371" lon="11.9663407"><ele>214.0</ele><time>2026-04-01T11:31:23.796Z</time></trkpt><trkpt lat="42.1404807" lon="11.9645754"><ele>200.0</ele><time>2026-04-01T11:31:43.81Z</time></trkpt><trkpt lat="42.1411197" lon="11.9619874"><ele>222.0</ele><time>2026-04-01T11:32:11.803Z</time></trkpt><trkpt lat="42.1405226" lon="11.9584155"><ele>266.0</ele><time>2026-04-01T11:32:36.78Z</time></trkpt><trkpt lat="42.1424167" lon="11.9573172"><ele>261.0</ele><time>2026-04-01T11:33:10.771Z</time></trkpt><trkpt lat="42.1443288" lon="11.9560085"><ele>255.0</ele><time>2026-04-01T11:33:25.799Z</time></trkpt><trkpt lat="42.1466869" lon="11.9538999"><ele>282.0</ele><time>2026-04-01T11:33:44.807Z</time></trkpt><trkpt lat="42.1491053" lon="11.9522102"><ele>286.0</ele><time>2026-04-01T11:34:11.788Z</time></trkpt><trkpt lat="42.1516865" lon="11.950903"><ele>297.0</ele><time>2026-04-01T11:34:35.775Z</time></trkpt><trkpt lat="42.1537216" lon="11.9500728"><ele>345.0</ele><time>2026-04-01T11:34:57.784Z</time></trkpt><trkpt lat="42.151404" lon="11.9480845"><ele>355.0</ele><time>2026-04-01T11:36:14.777Z</time></trkpt><trkpt lat="42.150012" lon="11.9460086"><ele>335.0</ele><time>2026-04-01T11:36:33.762Z</time></trkpt><trkpt lat="42.1478015" lon="11.9437815"><ele>334.0</ele><time>2026-04-01T11:37:09.786Z</time></trkpt><trkpt lat="42.1454779" lon="11.9418888"><ele>355.0</ele><time>2026-04-01T11:37:35.782Z</time></trkpt><trkpt lat="42.1447375" lon="11.9393506"><ele>363.0</ele><time>2026-04-01T11:38:00.769Z</time></trkpt><trkpt lat="42.1450761" lon="11.9357358"><ele>378.0</ele><time>2026-04-01T11:38:28.777Z</time></trkpt><trkpt lat="42.1453169" lon="11.9330134"><ele>416.0</ele><time>2026-04-01T11:38:52.783Z</time></trkpt><trkpt lat="42.1469027" lon="11.9313071"><ele>411.0</ele><time>2026-04-01T11:39:15.78Z</time></trkpt><trkpt lat="42.1470548" lon="11.9293724"><ele>385.0</ele><time>2026-04-01T11:39:30.781Z</time></trkpt><trkpt lat="42.1445763" lon="11.9278107"><ele>362.0</ele><time>2026-04-01T11:40:07.775Z</time></trkpt><trkpt lat="42.1437398" lon="11.9243328"><ele>410.0</ele><time>2026-04-01T11:40:38.773Z</time></trkpt><trkpt lat="42.1423541" lon="11.9211693"><ele>382.0</ele><time>2026-04-01T11:41:44.772Z</time></trkpt><trkpt lat="42.1424879" lon="11.9184063"><ele>393.0</ele><time>2026-04-01T11:42:02.774Z</time></trkpt><trkpt lat="42.1433367" lon="11.9158551"><ele>403.0</ele><time>2026-04-01T11:42:28.765Z</time></trkpt><trkpt lat="42.1442039" lon="11.9131914"><ele>431.0</ele><time>2026-04-01T11:43:06.782Z</time></trkpt><trkpt lat="42.1449122" lon="11.9095696"><ele>440.0</ele><time>2026-04-01T11:43:47.777Z</time></trkpt><trkpt lat="42.1443361" lon="11.9068131"><ele>465.0</ele><time>2026-04-01T11:44:24.779Z</time></trkpt><trkpt lat="42.1463219" lon="11.90431"><ele>473.0</ele><time>2026-04-01T11:44:55.785Z</time></trkpt><trkpt lat="42.1472244" lon="11.9018008"><ele>496.0</ele><time>2026-04-01T11:45:29.762Z</time></trkpt><trkpt lat="42.1465474" lon="11.8991165"><ele>497.0</ele><time>2026-04-01T11:46:14.775Z</time></trkpt><trkpt lat="42.1445878" lon="11.8981851"><ele>466.0</ele><time>2026-04-01T11:46:33.771Z</time></trkpt><trkpt lat="42.1422513" lon="11.9002952"><ele>467.0</ele><time>2026-04-01T11:47:10.765Z</time></trkpt><trkpt lat="42.139493" lon="11.9005604"><ele>465.0</ele><time>2026-04-01T11:47:38.786Z</time></trkpt><trkpt lat="42.1370113" lon="11.9022129"><ele>461.0</ele><time>2026-04-01T11:48:10.76Z</time></trkpt><trkpt lat="42.1354246" lon="11.90393"><ele>482.0</ele><time>2026-04-01T11:48:32.76Z</time></trkpt><trkpt lat="42.1335575" lon="11.9027875"><ele>499.0</ele><time>2026-04-01T11:48:48.78Z</time></trkpt><trkpt lat="42.1315358" lon="11.9032919"><ele>484.0</ele><time>2026-04-01T11:49:05.774Z</time></trkpt><trkpt lat="42.1296798" lon="11.9045051"><ele>491.0</ele><time>2026-04-01T11:49:24.776Z</time></trkpt><trkpt lat="42.128377" lon="11.9036985"><ele>489.0</ele><time>2026-04-01T11:50:07.782Z</time></trkpt><trkpt lat="42.1272524" lon="11.9013599"><ele>468.0</ele><time>2026-04-01T11:50:25.792Z</time></trkpt><trkpt lat="42.1252488" lon="11.8987076"><ele>414.0</ele><time>2026-04-01T11:50:45.787Z</time></trkpt><trkpt lat="42.1229221" lon="11.8967895"><ele>385.0</ele><time>2026-04-01T11:51:30.796Z</time></trkpt><trkpt lat="42.1211266" lon="11.8940017"><ele>334.0</ele><time>2026-04-01T11:51:54.779Z</time></trkpt><trkpt lat="42.1190355" lon="11.8934395"><ele>335.0</ele><time>2026-04-01T11:52:37.784Z</time></trkpt><trkpt lat="42.1192484" lon="11.8897191"><ele>343.0</ele><time>2026-04-01T11:53:03.781Z</time></trkpt><trkpt lat="42.117323" lon="11.8887682"><ele>358.0</ele><time>2026-04-01T11:53:21.778Z</time></trkpt><trkpt lat="42.1145889" lon="11.8891395"><ele>363.0</ele><time>2026-04-01T11:53:44.791Z</time></trkpt><trkpt lat="42.1120117" lon="11.8876686"><ele>363.0</ele><time>2026-04-01T11:54:04.77Z</time></trkpt><trkpt lat="42.1092595" lon="11.8871931"><ele>346.0</ele><time>2026-04-01T11:54:31.763Z</time></trkpt><trkpt lat="42.1059141" lon="11.8863049"><ele>309.0</ele><time>2026-04-01T11:54:54.784Z</time></trkpt><trkpt lat="42.1039776" lon="11.8853293"><ele>298.0</ele><time>2026-04-01T11:55:16.8Z</time></trkpt><trkpt lat="42.101209" lon="11.8847362"><ele>270.0</ele><time>2026-04-01T11:55:37.785Z</time></trkpt><trkpt lat="42.0988133" lon="11.8828715"><ele>275.0</ele><time>2026-04-01T11:55:57.794Z</time></trkpt><trkpt lat="42.0973076" lon="11.8798158"><ele>253.0</ele><time>2026-04-01T11:56:14.792Z</time></trkpt><trkpt lat="42.0944765" lon="11.8770518"><ele>217.0</ele><time>2026-04-01T11:56:37.791Z</time></trkpt><trkpt lat="42.0923712" lon="11.8746617"><ele>210.0</ele><time>2026-04-01T11:57:01.779Z</time></trkpt><trkpt lat="42.0901696" lon="11.8725179"><ele>231.0</ele><time>2026-04-01T11:57:23.792Z</time></trkpt><trkpt lat="42.0882209" lon="11.8714725"><ele>234.0</ele><time>2026-04-01T11:58:45.782Z</time></trkpt><trkpt lat="42.0854946" lon="11.8721708"><ele>218.0</ele><time>2026-04-01T11:59:11.784Z</time></trkpt><trkpt lat="42.0834562" lon="11.8715093"><ele>197.0</ele><time>2026-04-01T12:00:00.82Z</time></trkpt><trkpt lat="42.0815821" lon="11.8704137"><ele>198.0</ele><time>2026-04-01T12:00:28.815Z</time></trkpt><trkpt lat="42.0795228" lon="11.8701736"><ele>159.0</ele><time>2026-04-01T12:01:05.832Z</time></trkpt><trkpt lat="42.079992" lon="11.8684308"><ele>145.0</ele><time>2026-04-01T12:08:52.819Z</time></trkpt><trkpt lat="42.0802264" lon="11.8665848"><ele>130.0</ele><time>2026-04-01T12:09:13.825Z</time></trkpt><trkpt lat="42.0814033" lon="11.8656286"><ele>122.0</ele><time>2026-04-01T12:09:53.814Z</time></trkpt><trkpt lat="42.0826411" lon="11.8664029"><ele>97.0</ele><time>2026-04-01T12:10:36.802Z</time></trkpt><trkpt lat="42.0831436" lon="11.8646787"><ele>93.0</ele><time>2026-04-01T12:11:53.79Z</time></trkpt><trkpt lat="42.0831374" lon="11.8628467"><ele>123.0</ele><time>2026-04-01T12:12:24.806Z</time></trkpt><trkpt lat="42.0843826" lon="11.862108"><ele>129.0</ele><time>2026-04-01T12:12:58.797Z</time></trkpt><trkpt lat="42.0856389" lon="11.8627923"><ele>165.0</ele><time>2026-04-01T12:13:15.811Z</time></trkpt><trkpt lat="42.0858692" lon="11.860927"><ele>187.0</ele><time>2026-04-01T12:13:40.794Z</time></trkpt><trkpt lat="42.0842239" lon="11.8591548"><ele>176.0</ele><time>2026-04-01T12:14:05.8Z</time></trkpt><trkpt lat="42.0829671" lon="11.8568936"><ele>215.0</ele><time>2026-04-01T12:14:39.816Z</time></trkpt><trkpt lat="42.0832244" lon="11.8541099"><ele>225.0</ele><time>2026-04-01T12:15:03.815Z</time></trkpt><trkpt lat="42.0825244" lon="11.851509"><ele>230.0</ele><time>2026-04-01T12:18:43.825Z</time></trkpt><trkpt lat="42.0808704" lon="11.8497503"><ele>216.0</ele><time>2026-04-01T12:20:20.82Z</time></trkpt><trkpt lat="42.0793564" lon="11.8478798"><ele>201.0</ele><time>2026-04-01T12:20:40.836Z</time></trkpt><trkpt lat="42.0781547" lon="11.8445483"><ele>192.0</ele><time>2026-04-01T12:21:11.828Z</time></trkpt><trkpt lat="42.0771112" lon="11.842093"><ele>164.0</ele><time>2026-04-01T12:21:34.818Z</time></trkpt><trkpt lat="42.0760835" lon="11.8396508"><ele>156.0</ele><time>2026-04-01T12:21:56.82Z</time></trkpt><trkpt lat="42.0749671" lon="11.8372923"><ele>149.0</ele><time>2026-04-01T12:22:17.813Z</time></trkpt><trkpt lat="42.0741263" lon="11.8346818"><ele>127.0</ele><time>2026-04-01T12:22:38.814Z</time></trkpt><trkpt lat="42.0744607" lon="11.831081"><ele>91.0</ele><time>2026-04-01T12:23:03.819Z</time></trkpt><trkpt lat="42.0748395" lon="11.8283284"><ele>69.0</ele><time>2026-04-01T12:23:23.828Z</time></trkpt><trkpt lat="42.0741101" lon="11.8257562"><ele>46.0</ele><time>2026-04-01T12:23:43.831Z</time></trkpt><trkpt lat="42.0719622" lon="11.8233988"><ele>27.0</ele><time>2026-04-01T12:24:07.822Z</time></trkpt><trkpt lat="42.0703086" lon="11.8217483"><ele>27.0</ele><time>2026-04-01T12:24:35.818Z</time></trkpt></trkseg></trk></gpx>